<?xml version='1.0' encoding='UTF-8'?><gpx version="1.1" creator="JPX - https://github.com/jenetics/jpx" xmlns="http://www.topografix.com/GPX/1/1"><trk><trkseg><trkpt lat="-35.62577386755143" lon="144.12989934121472"><ele>80.0</ele><time>2026-05-02T06:29:37Z</time></trkpt><trkpt lat="-35.625677074928696" lon="144.12985404900348"><ele>80.0</ele><time>2026-05-02T06:29:43Z</time></trkpt><trkpt lat="-35.625590304646735" lon="144.12984904082404"><ele>80.0</ele><time>2026-05-02T06:29:46Z</time></trkpt><trkpt lat="-35.62566593436014" lon="144.12984199606223"><ele>80.0</ele><time>2026-05-02T06:29:54Z</time></trkpt><trkpt lat="-35.62576810063359" lon="144.1298817404667"><ele>80.0</ele><time>2026-05-02T06:29:57Z</time></trkpt><trkpt lat="-35.62577828666937" lon="144.12996124692268"><ele>80.0</ele><time>2026-05-02T06:30:53Z</time></trkpt><trkpt lat="-35.62570551115036" lon="144.12991660927074"><ele>80.0</ele><time>2026-05-02T06:31:00Z</time></trkpt><trkpt lat="-35.625775233446824" lon="144.12996831611036"><ele>80.0</ele><time>2026-05-02T06:31:39Z</time></trkpt><trkpt lat="-35.62580865291622" lon="144.1298955921078"><ele>80.0</ele><time>2026-05-02T06:31:41Z</time></trkpt><trkpt lat="-35.62576904361082" lon="144.1298155552762"><ele>80.0</ele><time>2026-05-02T06:31:43Z</time></trkpt><trkpt lat="-35.625699051656454" lon="144.12978004265423"><ele>80.0</ele><time>2026-05-02T06:31:47Z</time></trkpt><trkpt lat="-35.625667069795114" lon="144.1297075992334"><ele>80.0</ele><time>2026-05-02T06:31:49Z</time></trkpt><trkpt lat="-35.62558602399717" lon="144.1297058101336"><ele>80.0</ele><time>2026-05-02T06:31:51Z</time></trkpt><trkpt lat="-35.62551548186745" lon="144.12972649207776"><ele>80.2</ele><time>2026-05-02T06:31:52Z</time></trkpt><trkpt lat="-35.62542734214415" lon="144.12974457646325"><ele>80.4</ele><time>2026-05-02T06:31:53Z</time></trkpt><trkpt lat="-35.625337779916975" lon="144.12975864510585"><ele>80.6</ele><time>2026-05-02T06:31:54Z</time></trkpt><trkpt lat="-35.625237501971434" lon="144.1297719143"><ele>80.8</ele><time>2026-05-02T06:31:55Z</time></trkpt><trkpt lat="-35.62513119559116" lon="144.1297683503412"><ele>81.0</ele><time>2026-05-02T06:31:56Z</time></trkpt><trkpt lat="-35.62502600936519" lon="144.12978508546598"><ele>81.0</ele><time>2026-05-02T06:31:57Z</time></trkpt><trkpt lat="-35.624924364958645" lon="144.12980262464797"><ele>81.0</ele><time>2026-05-02T06:31:57.999Z</time></trkpt><trkpt lat="-35.62483044176248" lon="144.1298364619544"><ele>81.0</ele><time>2026-05-02T06:31:58.999Z</time></trkpt><trkpt lat="-35.62474203176471" lon="144.12984578801382"><ele>81.0</ele><time>2026-05-02T06:31:59.999Z</time></trkpt><trkpt lat="-35.62466622134952" lon="144.12986254023417"><ele>81.0</ele><time>2026-05-02T06:32:00.999Z</time></trkpt><trkpt lat="-35.62460006502488" lon="144.1298729377569"><ele>81.0</ele><time>2026-05-02T06:32:01.999Z</time></trkpt><trkpt lat="-35.6245080784192" lon="144.1298783798477"><ele>81.0</ele><time>2026-05-02T06:32:03.999Z</time></trkpt><trkpt lat="-35.62445812486277" lon="144.12994445859476"><ele>81.0</ele><time>2026-05-02T06:32:05.999Z</time></trkpt><trkpt lat="-35.62444905486942" lon="144.13011864112713"><ele>81.0</ele><time>2026-05-02T06:32:07.999Z</time></trkpt><trkpt lat="-35.62445412125032" lon="144.13024092857026"><ele>81.0</ele><time>2026-05-02T06:32:08.999Z</time></trkpt><trkpt lat="-35.624466098880845" lon="144.13037116675153"><ele>81.0</ele><time>2026-05-02T06:32:09.999Z</time></trkpt><trkpt lat="-35.62448151138501" lon="144.130513859624"><ele>80.75</ele><time>2026-05-02T06:32:10.999Z</time></trkpt><trkpt lat="-35.62449798023969" lon="144.13066199486158"><ele>80.5</ele><time>2026-05-02T06:32:11.999Z</time></trkpt><trkpt lat="-35.62451741437263" lon="144.1308126173474"><ele>80.25</ele><time>2026-05-02T06:32:12.999Z</time></trkpt><trkpt lat="-35.624540405928975" lon="144.13096042238234"><ele>80.0</ele><time>2026-05-02T06:32:13.999Z</time></trkpt><trkpt lat="-35.6245604386657" lon="144.1311053097182"><ele>80.0</ele><time>2026-05-02T06:32:14.999Z</time></trkpt><trkpt lat="-35.624581293903155" lon="144.13126185474832"><ele>80.0</ele><time>2026-05-02T06:32:15.999Z</time></trkpt><trkpt lat="-35.62459677217901" lon="144.13141933421196"><ele>80.0</ele><time>2026-05-02T06:32:16.999Z</time></trkpt><trkpt lat="-35.62461982866901" lon="144.13156541682338"><ele>80.0</ele><time>2026-05-02T06:32:17.999Z</time></trkpt><trkpt lat="-35.624638623104744" lon="144.13171388736842"><ele>80.0</ele><time>2026-05-02T06:32:18.999Z</time></trkpt><trkpt lat="-35.62465207034192" lon="144.13186689588943"><ele>80.0</ele><time>2026-05-02T06:32:19.999Z</time></trkpt><trkpt lat="-35.624662546297635" lon="144.13200478220026"><ele>80.0</ele><time>2026-05-02T06:32:20.999Z</time></trkpt><trkpt lat="-35.624672368408746" lon="144.1321526184661"><ele>80.0</ele><time>2026-05-02T06:32:21.999Z</time></trkpt><trkpt lat="-35.6246863201839" lon="144.13229692072082"><ele>80.0</ele><time>2026-05-02T06:32:22.999Z</time></trkpt><trkpt lat="-35.62471015897566" lon="144.13243439506837"><ele>80.0</ele><time>2026-05-02T06:32:23.999Z</time></trkpt><trkpt lat="-35.62472945433731" lon="144.13259639571123"><ele>80.0</ele><time>2026-05-02T06:32:24.999Z</time></trkpt><trkpt lat="-35.624744310633325" lon="144.13274983894016"><ele>80.0</ele><time>2026-05-02T06:32:25.999Z</time></trkpt><trkpt lat="-35.6247634340501" lon="144.1328967235393"><ele>80.0</ele><time>2026-05-02T06:32:26.999Z</time></trkpt><trkpt lat="-35.62477985045723" lon="144.1330512290445"><ele>80.0</ele><time>2026-05-02T06:32:27.999Z</time></trkpt><trkpt lat="-35.624796394600374" lon="144.1332044716495"><ele>80.0</ele><time>2026-05-02T06:32:28.999Z</time></trkpt><trkpt lat="-35.624817305474366" lon="144.133349630533"><ele>80.0</ele><time>2026-05-02T06:32:29.999Z</time></trkpt><trkpt lat="-35.62482379104887" lon="144.13351538482834"><ele>79.8</ele><time>2026-05-02T06:32:30.999Z</time></trkpt><trkpt lat="-35.624841490336145" lon="144.13366093242217"><ele>79.6</ele><time>2026-05-02T06:32:31.999Z</time></trkpt><trkpt lat="-35.624866543777436" lon="144.13378400758123"><ele>79.4</ele><time>2026-05-02T06:32:32.999Z</time></trkpt><trkpt lat="-35.62487246544456" lon="144.13389007013777"><ele>79.2</ele><time>2026-05-02T06:32:33.999Z</time></trkpt><trkpt lat="-35.624869724878586" lon="144.13398811700367"><ele>79.0</ele><time>2026-05-02T06:32:34.999Z</time></trkpt><trkpt lat="-35.624848828611654" lon="144.13406783573657"><ele>79.2</ele><time>2026-05-02T06:32:35.999Z</time></trkpt><trkpt lat="-35.62478918180334" lon="144.1341255361937"><ele>79.4</ele><time>2026-05-02T06:32:36.999Z</time></trkpt><trkpt lat="-35.6246920509444" lon="144.13415637614006"><ele>79.6</ele><time>2026-05-02T06:32:37.999Z</time></trkpt><trkpt lat="-35.62457135930303" lon="144.13416863513987"><ele>79.8</ele><time>2026-05-02T06:32:38.999Z</time></trkpt><trkpt lat="-35.624450354036036" lon="144.1341810205961"><ele>80.0</ele><time>2026-05-02T06:32:39.999Z</time></trkpt><trkpt lat="-35.62431684956537" lon="144.13420098407275"><ele>80.0</ele><time>2026-05-02T06:32:40.999Z</time></trkpt><trkpt lat="-35.62416461008957" lon="144.1342279515998"><ele>80.0</ele><time>2026-05-02T06:32:42Z</time></trkpt><trkpt lat="-35.623976958637165" lon="144.1342731539815"><ele>80.0</ele><time>2026-05-02T06:32:43Z</time></trkpt><trkpt lat="-35.623776924970606" lon="144.1343192471536"><ele>80.0</ele><time>2026-05-02T06:32:44Z</time></trkpt><trkpt lat="-35.62355551483163" lon="144.13436255948926"><ele>80.0</ele><time>2026-05-02T06:32:45Z</time></trkpt><trkpt lat="-35.623324619622146" lon="144.13440005903252"><ele>80.0</ele><time>2026-05-02T06:32:46Z</time></trkpt><trkpt lat="-35.62309849081763" lon="144.13444145634702"><ele>80.0</ele><time>2026-05-02T06:32:47Z</time></trkpt><trkpt lat="-35.62284823314458" lon="144.13447424531753"><ele>80.5</ele><time>2026-05-02T06:32:48Z</time></trkpt><trkpt lat="-35.62261267086123" lon="144.1345114601213"><ele>81.0</ele><time>2026-05-02T06:32:49Z</time></trkpt><trkpt lat="-35.62237498877304" lon="144.134551617001"><ele>81.0</ele><time>2026-05-02T06:32:50Z</time></trkpt><trkpt lat="-35.622137563427096" lon="144.13458773818095"><ele>81.0</ele><time>2026-05-02T06:32:51Z</time></trkpt><trkpt lat="-35.62190375740486" lon="144.1346214032367"><ele>82.5</ele><time>2026-05-02T06:32:52Z</time></trkpt><trkpt lat="-35.62166433540027" lon="144.1346598480943"><ele>84.0</ele><time>2026-05-02T06:32:53Z</time></trkpt><trkpt lat="-35.621419664782955" lon="144.1347000366938"><ele>84.0</ele><time>2026-05-02T06:32:54Z</time></trkpt><trkpt lat="-35.6211754438444" lon="144.13473442616478"><ele>84.0</ele><time>2026-05-02T06:32:55Z</time></trkpt><trkpt lat="-35.62093343103011" lon="144.1347715953901"><ele>82.0</ele><time>2026-05-02T06:32:56Z</time></trkpt><trkpt lat="-35.62068294409159" lon="144.13481481672204"><ele>80.0</ele><time>2026-05-02T06:32:57Z</time></trkpt><trkpt lat="-35.62041265980261" lon="144.13486358355996"><ele>79.5</ele><time>2026-05-02T06:32:58Z</time></trkpt><trkpt lat="-35.62014302272379" lon="144.1349078309661"><ele>79.0</ele><time>2026-05-02T06:32:59Z</time></trkpt><trkpt lat="-35.61987801078274" lon="144.13494998568436"><ele>79.0</ele><time>2026-05-02T06:33:00Z</time></trkpt><trkpt lat="-35.61963153155843" lon="144.1350005486393"><ele>79.0</ele><time>2026-05-02T06:33:01Z</time></trkpt><trkpt lat="-35.61938034062101" lon="144.13504548807109"><ele>78.0</ele><time>2026-05-02T06:33:02Z</time></trkpt><trkpt lat="-35.619134981247576" lon="144.13508692343498"><ele>77.0</ele><time>2026-05-02T06:33:03Z</time></trkpt><trkpt lat="-35.61889360879377" lon="144.1351208084645"><ele>77.0</ele><time>2026-05-02T06:33:04Z</time></trkpt><trkpt lat="-35.618658870215874" lon="144.13515311299454"><ele>77.0</ele><time>2026-05-02T06:33:05Z</time></trkpt><trkpt lat="-35.618438976910014" lon="144.1351918313329"><ele>77.0</ele><time>2026-05-02T06:33:06Z</time></trkpt><trkpt lat="-35.61823754224478" lon="144.13522726948807"><ele>77.0</ele><time>2026-05-02T06:33:07Z</time></trkpt><trkpt lat="-35.61806237057683" lon="144.13526148311283"><ele>77.0</ele><time>2026-05-02T06:33:08Z</time></trkpt><trkpt lat="-35.61790227157719" lon="144.13528879301373"><ele>77.33333333333334</ele><time>2026-05-02T06:33:09Z</time></trkpt><trkpt lat="-35.61773901927699" lon="144.13530491938425"><ele>77.66666666666667</ele><time>2026-05-02T06:33:10Z</time></trkpt><trkpt lat="-35.61758400114695" lon="144.13532850187764"><ele>78.0</ele><time>2026-05-02T06:33:11Z</time></trkpt><trkpt lat="-35.61743326279516" lon="144.13533789269698"><ele>78.0</ele><time>2026-05-02T06:33:12Z</time></trkpt><trkpt lat="-35.617283166530264" lon="144.13531859781614"><ele>78.0</ele><time>2026-05-02T06:33:13Z</time></trkpt><trkpt lat="-35.61714822751713" lon="144.13527549800753"><ele>78.0</ele><time>2026-05-02T06:33:14Z</time></trkpt><trkpt lat="-35.6170276075617" lon="144.13522050864327"><ele>78.0</ele><time>2026-05-02T06:33:15Z</time></trkpt><trkpt lat="-35.61692914516917" lon="144.1351700522211"><ele>78.33333333333333</ele><time>2026-05-02T06:33:16Z</time></trkpt><trkpt lat="-35.61684532661742" lon="144.13513433443705"><ele>78.66666666666667</ele><time>2026-05-02T06:33:17Z</time></trkpt><trkpt lat="-35.61677103587947" lon="144.13509739784587"><ele>79.0</ele><time>2026-05-02T06:33:18Z</time></trkpt><trkpt lat="-35.61669843277456" lon="144.13508376422763"><ele>79.33333333333334</ele><time>2026-05-02T06:33:19Z</time></trkpt><trkpt lat="-35.616621799394245" lon="144.13509101760357"><ele>79.66666666666667</ele><time>2026-05-02T06:33:20Z</time></trkpt><trkpt lat="-35.616538762665144" lon="144.135147777216"><ele>80.0</ele><time>2026-05-02T06:33:21Z</time></trkpt><trkpt lat="-35.616462031361834" lon="144.13526504844995"><ele>80.0</ele><time>2026-05-02T06:33:22Z</time></trkpt><trkpt lat="-35.616380564180524" lon="144.1354245021922"><ele>80.0</ele><time>2026-05-02T06:33:23Z</time></trkpt><trkpt lat="-35.61626747053969" lon="144.13561381226248"><ele>80.0</ele><time>2026-05-02T06:33:24Z</time></trkpt><trkpt lat="-35.6161374030751" lon="144.13583016718565"><ele>79.5</ele><time>2026-05-02T06:33:25Z</time></trkpt><trkpt lat="-35.61600947040283" lon="144.1360752267621"><ele>79.0</ele><time>2026-05-02T06:33:26Z</time></trkpt><trkpt lat="-35.615885155853164" lon="144.13634716429237"><ele>80.5</ele><time>2026-05-02T06:33:27Z</time></trkpt><trkpt lat="-35.61574999828005" lon="144.13663389185683"><ele>82.0</ele><time>2026-05-02T06:33:28Z</time></trkpt><trkpt lat="-35.61561083147664" lon="144.13693026978945"><ele>82.0</ele><time>2026-05-02T06:33:29Z</time></trkpt><trkpt lat="-35.6154702757208" lon="144.13721752796533"><ele>82.0</ele><time>2026-05-02T06:33:30Z</time></trkpt><trkpt lat="-35.61534230007335" lon="144.13748591715847"><ele>81.5</ele><time>2026-05-02T06:33:31Z</time></trkpt><trkpt lat="-35.615220943826" lon="144.13774201779313"><ele>81.0</ele><time>2026-05-02T06:33:32Z</time></trkpt><trkpt lat="-35.61509681976362" lon="144.1379900462796"><ele>80.5</ele><time>2026-05-02T06:33:33Z</time></trkpt><trkpt lat="-35.6149750955492" lon="144.13822649452726"><ele>80.0</ele><time>2026-05-02T06:33:34Z</time></trkpt><trkpt lat="-35.61485847948172" lon="144.1384648057061"><ele>80.0</ele><time>2026-05-02T06:33:35Z</time></trkpt><trkpt lat="-35.6147389956939" lon="144.13870047841436"><ele>80.0</ele><time>2026-05-02T06:33:36Z</time></trkpt><trkpt lat="-35.61461781382707" lon="144.1389504325868"><ele>81.0</ele><time>2026-05-02T06:33:37Z</time></trkpt><trkpt lat="-35.61448781417784" lon="144.13921946672778"><ele>82.0</ele><time>2026-05-02T06:33:38Z</time></trkpt><trkpt lat="-35.61434637166639" lon="144.13950304772632"><ele>82.0</ele><time>2026-05-02T06:33:39Z</time></trkpt><trkpt lat="-35.614214767564185" lon="144.13977174196705"><ele>82.0</ele><time>2026-05-02T06:33:40Z</time></trkpt><trkpt lat="-35.61410010196463" lon="144.14001781549334"><ele>82.0</ele><time>2026-05-02T06:33:41Z</time></trkpt><trkpt lat="-35.6139904082446" lon="144.140252238399"><ele>82.0</ele><time>2026-05-02T06:33:42Z</time></trkpt><trkpt lat="-35.61387493292019" lon="144.14047636536358"><ele>82.0</ele><time>2026-05-02T06:33:43Z</time></trkpt><trkpt lat="-35.613771556032056" lon="144.14068723428684"><ele>81.66666666666666</ele><time>2026-05-02T06:33:44Z</time></trkpt><trkpt lat="-35.613653793441685" lon="144.14091936811678"><ele>81.33333333333333</ele><time>2026-05-02T06:33:45Z</time></trkpt><trkpt lat="-35.61353203822933" lon="144.14115168473157"><ele>81.0</ele><time>2026-05-02T06:33:46Z</time></trkpt><trkpt lat="-35.61341247210927" lon="144.14138831182694"><ele>80.5</ele><time>2026-05-02T06:33:47Z</time></trkpt><trkpt lat="-35.61329157104792" lon="144.14162823172651"><ele>80.0</ele><time>2026-05-02T06:33:48Z</time></trkpt><trkpt lat="-35.61316536674168" lon="144.14186177075752"><ele>80.0</ele><time>2026-05-02T06:33:49Z</time></trkpt><trkpt lat="-35.61302870728998" lon="144.14208432338165"><ele>80.0</ele><time>2026-05-02T06:33:50Z</time></trkpt><trkpt lat="-35.612871394551895" lon="144.1422920776572"><ele>80.0</ele><time>2026-05-02T06:33:51Z</time></trkpt><trkpt lat="-35.61268561636419" lon="144.14248821999988"><ele>80.0</ele><time>2026-05-02T06:33:52Z</time></trkpt><trkpt lat="-35.61248004690798" lon="144.1426718305871"><ele>80.0</ele><time>2026-05-02T06:33:53Z</time></trkpt><trkpt lat="-35.61226685358064" lon="144.14283309460683"><ele>80.0</ele><time>2026-05-02T06:33:54Z</time></trkpt><trkpt lat="-35.612045979168045" lon="144.1429685810999"><ele>81.5</ele><time>2026-05-02T06:33:55Z</time></trkpt><trkpt lat="-35.61181174468098" lon="144.1430750090484"><ele>83.0</ele><time>2026-05-02T06:33:56Z</time></trkpt><trkpt lat="-35.61156484311064" lon="144.14315328745064"><ele>83.0</ele><time>2026-05-02T06:33:57Z</time></trkpt><trkpt lat="-35.61131305143763" lon="144.1432106634072"><ele>83.0</ele><time>2026-05-02T06:33:58Z</time></trkpt><trkpt lat="-35.61106144173021" lon="144.14324398702237"><ele>82.0</ele><time>2026-05-02T06:33:59Z</time></trkpt><trkpt lat="-35.61079904678053" lon="144.14324551726824"><ele>81.0</ele><time>2026-05-02T06:34:00Z</time></trkpt><trkpt lat="-35.610535911807496" lon="144.14322341161463"><ele>82.0</ele><time>2026-05-02T06:34:01Z</time></trkpt><trkpt lat="-35.610265465598715" lon="144.1431632539308"><ele>83.0</ele><time>2026-05-02T06:34:02Z</time></trkpt><trkpt lat="-35.61000270425514" lon="144.14309513244606"><ele>83.0</ele><time>2026-05-02T06:34:03Z</time></trkpt><trkpt lat="-35.60974278094089" lon="144.14302185555786"><ele>83.0</ele><time>2026-05-02T06:34:04Z</time></trkpt><trkpt lat="-35.609485389547366" lon="144.1429553968808"><ele>82.0</ele><time>2026-05-02T06:34:05Z</time></trkpt><trkpt lat="-35.60922326937895" lon="144.14289469700336"><ele>81.0</ele><time>2026-05-02T06:34:06Z</time></trkpt><trkpt lat="-35.60896400389402" lon="144.14282833204467"><ele>81.0</ele><time>2026-05-02T06:34:06.999Z</time></trkpt><trkpt lat="-35.60871125763347" lon="144.14276407139644"><ele>81.0</ele><time>2026-05-02T06:34:07.999Z</time></trkpt><trkpt lat="-35.60846062708231" lon="144.14269817715586"><ele>80.5</ele><time>2026-05-02T06:34:08.999Z</time></trkpt><trkpt lat="-35.60821755497862" lon="144.1426311645198"><ele>80.0</ele><time>2026-05-02T06:34:09.999Z</time></trkpt><trkpt lat="-35.60796221348699" lon="144.14256701421374"><ele>79.5</ele><time>2026-05-02T06:34:10.999Z</time></trkpt><trkpt lat="-35.60771672004157" lon="144.14250468826955"><ele>79.0</ele><time>2026-05-02T06:34:11.999Z</time></trkpt><trkpt lat="-35.6074725222339" lon="144.1424552086424"><ele>79.0</ele><time>2026-05-02T06:34:12.999Z</time></trkpt><trkpt lat="-35.60722364948111" lon="144.14242809085746"><ele>79.0</ele><time>2026-05-02T06:34:13.999Z</time></trkpt><trkpt lat="-35.606969175666485" lon="144.14240523908995"><ele>78.0</ele><time>2026-05-02T06:34:14.999Z</time></trkpt><trkpt lat="-35.60671681049504" lon="144.1423924325727"><ele>77.0</ele><time>2026-05-02T06:34:15.999Z</time></trkpt><trkpt lat="-35.60646235206932" lon="144.14239335798607"><ele>77.0</ele><time>2026-05-02T06:34:16.999Z</time></trkpt><trkpt lat="-35.60620725858134" lon="144.14240678375089"><ele>77.0</ele><time>2026-05-02T06:34:17.999Z</time></trkpt><trkpt lat="-35.60594254723733" lon="144.14243788133004"><ele>77.5</ele><time>2026-05-02T06:34:18.999Z</time></trkpt><trkpt lat="-35.60567466591496" lon="144.14247942493026"><ele>78.0</ele><time>2026-05-02T06:34:19.999Z</time></trkpt><trkpt lat="-35.605407624008926" lon="144.1425394649245"><ele>79.0</ele><time>2026-05-02T06:34:20.999Z</time></trkpt><trkpt lat="-35.60515283664492" lon="144.14261814645843"><ele>80.0</ele><time>2026-05-02T06:34:21.999Z</time></trkpt><trkpt lat="-35.60489502344414" lon="144.14271556359935"><ele>80.0</ele><time>2026-05-02T06:34:22.999Z</time></trkpt><trkpt lat="-35.60463856598435" lon="144.14281608084372"><ele>80.0</ele><time>2026-05-02T06:34:23.999Z</time></trkpt><trkpt lat="-35.60438817947704" lon="144.1429252570888"><ele>79.5</ele><time>2026-05-02T06:34:24.999Z</time></trkpt><trkpt lat="-35.604142178380215" lon="144.14304506248288"><ele>79.0</ele><time>2026-05-02T06:34:25.999Z</time></trkpt><trkpt lat="-35.60389527837141" lon="144.1431614741601"><ele>79.0</ele><time>2026-05-02T06:34:26.999Z</time></trkpt><trkpt lat="-35.603637279097676" lon="144.1432843816273"><ele>79.0</ele><time>2026-05-02T06:34:27.999Z</time></trkpt><trkpt lat="-35.60336875211107" lon="144.1434087395616"><ele>79.0</ele><time>2026-05-02T06:34:28.999Z</time></trkpt><trkpt lat="-35.60311056277638" lon="144.14352498649157"><ele>79.0</ele><time>2026-05-02T06:34:29.999Z</time></trkpt><trkpt lat="-35.602853016125565" lon="144.14363675040764"><ele>79.0</ele><time>2026-05-02T06:34:30.999Z</time></trkpt><trkpt lat="-35.60259676866929" lon="144.14375086329758"><ele>79.0</ele><time>2026-05-02T06:34:31.999Z</time></trkpt><trkpt lat="-35.60234189238237" lon="144.14386732913047"><ele>79.0</ele><time>2026-05-02T06:34:32.999Z</time></trkpt><trkpt lat="-35.602085993046465" lon="144.14398401540296"><ele>79.0</ele><time>2026-05-02T06:34:33.999Z</time></trkpt><trkpt lat="-35.60183135814667" lon="144.14409795468518"><ele>79.0</ele><time>2026-05-02T06:34:34.999Z</time></trkpt><trkpt lat="-35.60157755248347" lon="144.14420995223628"><ele>79.0</ele><time>2026-05-02T06:34:35.999Z</time></trkpt><trkpt lat="-35.60132493879654" lon="144.14432453879556"><ele>79.5</ele><time>2026-05-02T06:34:36.999Z</time></trkpt><trkpt lat="-35.601072564990254" lon="144.14443808771293"><ele>80.0</ele><time>2026-05-02T06:34:37.999Z</time></trkpt><trkpt lat="-35.60081387224414" lon="144.14454873422451"><ele>80.0</ele><time>2026-05-02T06:34:38.999Z</time></trkpt><trkpt lat="-35.60056099683534" lon="144.14466731971046"><ele>80.0</ele><time>2026-05-02T06:34:39.999Z</time></trkpt><trkpt lat="-35.600319409412236" lon="144.14478006481139"><ele>79.0</ele><time>2026-05-02T06:34:40.999Z</time></trkpt><trkpt lat="-35.60008339044319" lon="144.14488880182247"><ele>78.0</ele><time>2026-05-02T06:34:41.999Z</time></trkpt><trkpt lat="-35.5998557250445" lon="144.1450005466712"><ele>78.0</ele><time>2026-05-02T06:34:42.999Z</time></trkpt><trkpt lat="-35.59963895387289" lon="144.1451219319381"><ele>78.0</ele><time>2026-05-02T06:34:43.999Z</time></trkpt><trkpt lat="-35.59940818294106" lon="144.14524056015463"><ele>79.0</ele><time>2026-05-02T06:34:44.999Z</time></trkpt><trkpt lat="-35.59919202998856" lon="144.14537843667208"><ele>80.0</ele><time>2026-05-02T06:34:45.999Z</time></trkpt><trkpt lat="-35.598982636202884" lon="144.14553070129935"><ele>79.5</ele><time>2026-05-02T06:34:46.999Z</time></trkpt><trkpt lat="-35.598783026733365" lon="144.14571326956604"><ele>79.0</ele><time>2026-05-02T06:34:48Z</time></trkpt><trkpt lat="-35.59859167372229" lon="144.14588380963488"><ele>79.0</ele><time>2026-05-02T06:34:49Z</time></trkpt><trkpt lat="-35.598386698510204" lon="144.1460681143334"><ele>79.0</ele><time>2026-05-02T06:34:50Z</time></trkpt><trkpt lat="-35.598181446901975" lon="144.14627578803925"><ele>79.0</ele><time>2026-05-02T06:34:51Z</time></trkpt><trkpt lat="-35.5979726256402" lon="144.14650898499264"><ele>79.0</ele><time>2026-05-02T06:34:52Z</time></trkpt><trkpt lat="-35.59777222686205" lon="144.14675452544242"><ele>79.5</ele><time>2026-05-02T06:34:53Z</time></trkpt><trkpt lat="-35.59758364863353" lon="144.14700067373724"><ele>80.0</ele><time>2026-05-02T06:34:54Z</time></trkpt><trkpt lat="-35.59740365319568" lon="144.14725342879805"><ele>80.0</ele><time>2026-05-02T06:34:55Z</time></trkpt><trkpt lat="-35.597234480859704" lon="144.14751394605975"><ele>80.0</ele><time>2026-05-02T06:34:56Z</time></trkpt><trkpt lat="-35.59707902483318" lon="144.1477883600746"><ele>80.5</ele><time>2026-05-02T06:34:57Z</time></trkpt><trkpt lat="-35.596934657206795" lon="144.14806960380307"><ele>81.0</ele><time>2026-05-02T06:34:58Z</time></trkpt><trkpt lat="-35.596803501167734" lon="144.1483479361886"><ele>80.0</ele><time>2026-05-02T06:34:59Z</time></trkpt><trkpt lat="-35.59667710887058" lon="144.14864165986535"><ele>79.0</ele><time>2026-05-02T06:35:00Z</time></trkpt><trkpt lat="-35.59656151761779" lon="144.14894337629542"><ele>79.5</ele><time>2026-05-02T06:35:01Z</time></trkpt><trkpt lat="-35.59645883501896" lon="144.1492494498018"><ele>80.0</ele><time>2026-05-02T06:35:02Z</time></trkpt><trkpt lat="-35.59636438237992" lon="144.14955675822827"><ele>80.0</ele><time>2026-05-02T06:35:03Z</time></trkpt><trkpt lat="-35.59628453290715" lon="144.1498649415459"><ele>80.0</ele><time>2026-05-02T06:35:04Z</time></trkpt><trkpt lat="-35.59621529269291" lon="144.15017539280296"><ele>80.5</ele><time>2026-05-02T06:35:05Z</time></trkpt><trkpt lat="-35.59615281537408" lon="144.15049033460411"><ele>81.0</ele><time>2026-05-02T06:35:06Z</time></trkpt><trkpt lat="-35.59609545684204" lon="144.15080488232874"><ele>82.0</ele><time>2026-05-02T06:35:07Z</time></trkpt><trkpt lat="-35.596039441888436" lon="144.15113090879566"><ele>83.0</ele><time>2026-05-02T06:35:08Z</time></trkpt><trkpt lat="-35.59599407821616" lon="144.15145607908215"><ele>82.5</ele><time>2026-05-02T06:35:09Z</time></trkpt><trkpt lat="-35.59594533084878" lon="144.15178485948462"><ele>82.0</ele><time>2026-05-02T06:35:10Z</time></trkpt><trkpt lat="-35.595898554551766" lon="144.15211096623915"><ele>81.5</ele><time>2026-05-02T06:35:11Z</time></trkpt><trkpt lat="-35.59585030348137" lon="144.15242535529256"><ele>81.0</ele><time>2026-05-02T06:35:12Z</time></trkpt><trkpt lat="-35.595801071003166" lon="144.1527365901455"><ele>81.0</ele><time>2026-05-02T06:35:13Z</time></trkpt><trkpt lat="-35.59575054235677" lon="144.15304775428305"><ele>81.0</ele><time>2026-05-02T06:35:14Z</time></trkpt><trkpt lat="-35.59570113992233" lon="144.15335358153501"><ele>80.0</ele><time>2026-05-02T06:35:15Z</time></trkpt><trkpt lat="-35.59565311853464" lon="144.15366584854308"><ele>79.0</ele><time>2026-05-02T06:35:16Z</time></trkpt><trkpt lat="-35.5956030496988" lon="144.1539751049842"><ele>78.5</ele><time>2026-05-02T06:35:17Z</time></trkpt><trkpt lat="-35.59555352301938" lon="144.15428666250222"><ele>78.0</ele><time>2026-05-02T06:35:18Z</time></trkpt><trkpt lat="-35.59550235758381" lon="144.15459653264915"><ele>78.0</ele><time>2026-05-02T06:35:19Z</time></trkpt><trkpt lat="-35.59545259432155" lon="144.1549017079819"><ele>78.0</ele><time>2026-05-02T06:35:20Z</time></trkpt><trkpt lat="-35.5954030305379" lon="144.15520405210975"><ele>78.0</ele><time>2026-05-02T06:35:21Z</time></trkpt><trkpt lat="-35.59535495862351" lon="144.15550170435995"><ele>78.0</ele><time>2026-05-02T06:35:22Z</time></trkpt><trkpt lat="-35.5953083414564" lon="144.15579927201586"><ele>78.5</ele><time>2026-05-02T06:35:23Z</time></trkpt><trkpt lat="-35.59526008836658" lon="144.15609534984696"><ele>79.0</ele><time>2026-05-02T06:35:24Z</time></trkpt><trkpt lat="-35.59521317110512" lon="144.15638521307486"><ele>78.5</ele><time>2026-05-02T06:35:25Z</time></trkpt><trkpt lat="-35.595162118581975" lon="144.15668351217005"><ele>78.0</ele><time>2026-05-02T06:35:26Z</time></trkpt><trkpt lat="-35.595112373067536" lon="144.15699037240714"><ele>78.0</ele><time>2026-05-02T06:35:27Z</time></trkpt><trkpt lat="-35.59506143803747" lon="144.15731404698283"><ele>78.0</ele><time>2026-05-02T06:35:28Z</time></trkpt><trkpt lat="-35.59500706052316" lon="144.15764197062805"><ele>78.0</ele><time>2026-05-02T06:35:29Z</time></trkpt><trkpt lat="-35.59494450301013" lon="144.15796935950397"><ele>78.0</ele><time>2026-05-02T06:35:30Z</time></trkpt><trkpt lat="-35.59488205622003" lon="144.15829452912894"><ele>78.5</ele><time>2026-05-02T06:35:31Z</time></trkpt><trkpt lat="-35.59481579456258" lon="144.15861497341885"><ele>79.0</ele><time>2026-05-02T06:35:32Z</time></trkpt><trkpt lat="-35.59473951833725" lon="144.158932060497"><ele>78.0</ele><time>2026-05-02T06:35:33Z</time></trkpt><trkpt lat="-35.594651087811265" lon="144.15924335091046"><ele>77.0</ele><time>2026-05-02T06:35:34Z</time></trkpt><trkpt lat="-35.59455909365957" lon="144.15954587058624"><ele>77.5</ele><time>2026-05-02T06:35:35Z</time></trkpt><trkpt lat="-35.594460798975625" lon="144.15983942890588"><ele>78.0</ele><time>2026-05-02T06:35:36Z</time></trkpt><trkpt lat="-35.59435883824502" lon="144.16013298502563"><ele>79.0</ele><time>2026-05-02T06:35:37Z</time></trkpt><trkpt lat="-35.594253940886446" lon="144.16042513280362"><ele>80.0</ele><time>2026-05-02T06:35:38Z</time></trkpt><trkpt lat="-35.594142226634446" lon="144.1607146405106"><ele>81.0</ele><time>2026-05-02T06:35:39Z</time></trkpt><trkpt lat="-35.594028269047826" lon="144.16099975396986"><ele>82.0</ele><time>2026-05-02T06:35:40Z</time></trkpt><trkpt lat="-35.59391577941258" lon="144.1612789817139"><ele>82.5</ele><time>2026-05-02T06:35:41Z</time></trkpt><trkpt lat="-35.593805415431376" lon="144.16156109181915"><ele>83.0</ele><time>2026-05-02T06:35:42Z</time></trkpt><trkpt lat="-35.59369500024712" lon="144.16183693452467"><ele>82.5</ele><time>2026-05-02T06:35:43Z</time></trkpt><trkpt lat="-35.593584347727614" lon="144.16212104385056"><ele>82.0</ele><time>2026-05-02T06:35:44Z</time></trkpt><trkpt lat="-35.59347086731822" lon="144.16240936258723"><ele>82.0</ele><time>2026-05-02T06:35:45Z</time></trkpt><trkpt lat="-35.593359420683434" lon="144.16269680617597"><ele>82.0</ele><time>2026-05-02T06:35:46Z</time></trkpt><trkpt lat="-35.59324514479534" lon="144.162983358079"><ele>82.0</ele><time>2026-05-02T06:35:47Z</time></trkpt><trkpt lat="-35.593132049098415" lon="144.16326828747177"><ele>82.0</ele><time>2026-05-02T06:35:48Z</time></trkpt><trkpt lat="-35.59302065408766" lon="144.163553734937"><ele>82.0</ele><time>2026-05-02T06:35:49Z</time></trkpt><trkpt lat="-35.59290734304831" lon="144.16383870823708"><ele>82.0</ele><time>2026-05-02T06:35:50Z</time></trkpt><trkpt lat="-35.59279677387988" lon="144.16411828742744"><ele>81.5</ele><time>2026-05-02T06:35:51Z</time></trkpt><trkpt lat="-35.59268992172538" lon="144.16439664573375"><ele>81.0</ele><time>2026-05-02T06:35:52Z</time></trkpt><trkpt lat="-35.592579705542846" lon="144.164685939662"><ele>80.0</ele><time>2026-05-02T06:35:53Z</time></trkpt><trkpt lat="-35.59247989078364" lon="144.16497630846683"><ele>79.0</ele><time>2026-05-02T06:35:54Z</time></trkpt><trkpt lat="-35.592374522679556" lon="144.16526551343975"><ele>79.0</ele><time>2026-05-02T06:35:55Z</time></trkpt><trkpt lat="-35.592268172588724" lon="144.1655324189057"><ele>79.0</ele><time>2026-05-02T06:35:56Z</time></trkpt><trkpt lat="-35.59217225385058" lon="144.1657689033419"><ele>79.0</ele><time>2026-05-02T06:35:57Z</time></trkpt><trkpt lat="-35.592080477595914" lon="144.1660028194896"><ele>79.0</ele><time>2026-05-02T06:35:58Z</time></trkpt><trkpt lat="-35.59198180166673" lon="144.1662517289653"><ele>79.0</ele><time>2026-05-02T06:35:59Z</time></trkpt><trkpt lat="-35.59189289213859" lon="144.16648307014435"><ele>80.0</ele><time>2026-05-02T06:36:00Z</time></trkpt><trkpt lat="-35.59181287007112" lon="144.1666842604539"><ele>81.0</ele><time>2026-05-02T06:36:01Z</time></trkpt><trkpt lat="-35.591753260140266" lon="144.16684856450925"><ele>82.0</ele><time>2026-05-02T06:36:02Z</time></trkpt><trkpt lat="-35.591721769807975" lon="144.1669927194454"><ele>82.0</ele><time>2026-05-02T06:36:03Z</time></trkpt><trkpt lat="-35.591719012839135" lon="144.16710796692072"><ele>82.0</ele><time>2026-05-02T06:36:04Z</time></trkpt><trkpt lat="-35.59173923413123" lon="144.1672027921221"><ele>82.0</ele><time>2026-05-02T06:36:05Z</time></trkpt><trkpt lat="-35.59178691268921" lon="144.1672767534932"><ele>82.0</ele><time>2026-05-02T06:36:06Z</time></trkpt><trkpt lat="-35.591869339609794" lon="144.1673500543447"><ele>82.0</ele><time>2026-05-02T06:36:07Z</time></trkpt><trkpt lat="-35.59199137561228" lon="144.167420154438"><ele>82.39999999999999</ele><time>2026-05-02T06:36:08Z</time></trkpt><trkpt lat="-35.592102856787676" lon="144.16745360367142"><ele>82.8</ele><time>2026-05-02T06:36:09Z</time></trkpt><trkpt lat="-35.592168495464406" lon="144.16747527924892"><ele>83.2</ele><time>2026-05-02T06:36:10Z</time></trkpt><trkpt lat="-35.592207861118354" lon="144.16754760173094"><ele>83.6</ele><time>2026-05-02T06:36:11Z</time></trkpt><trkpt lat="-35.592229785244974" lon="144.16766055898137"><ele>84.0</ele><time>2026-05-02T06:36:11.999Z</time></trkpt><trkpt lat="-35.59224208936979" lon="144.16782376913545"><ele>84.0</ele><time>2026-05-02T06:36:12.999Z</time></trkpt><trkpt lat="-35.59223439628258" lon="144.16802698577462"><ele>84.0</ele><time>2026-05-02T06:36:13.999Z</time></trkpt><trkpt lat="-35.592228214766386" lon="144.16825234887406"><ele>84.0</ele><time>2026-05-02T06:36:14.999Z</time></trkpt><trkpt lat="-35.59223492375027" lon="144.16850861021496"><ele>84.0</ele><time>2026-05-02T06:36:15.999Z</time></trkpt><trkpt lat="-35.59223831968824" lon="144.16872678055253"><ele>84.0</ele><time>2026-05-02T06:36:16.999Z</time></trkpt><trkpt lat="-35.59224052391747" lon="144.16894921066276"><ele>84.0</ele><time>2026-05-02T06:36:17.999Z</time></trkpt><trkpt lat="-35.59224193589181" lon="144.1691731467341"><ele>84.0</ele><time>2026-05-02T06:36:18.999Z</time></trkpt><trkpt lat="-35.59224129860689" lon="144.16940373369695"><ele>84.0</ele><time>2026-05-02T06:36:19.999Z</time></trkpt><trkpt lat="-35.592240471592724" lon="144.1696386836307"><ele>84.0</ele><time>2026-05-02T06:36:20.999Z</time></trkpt><trkpt lat="-35.59224354711185" lon="144.16988535310685"><ele>83.66666666666667</ele><time>2026-05-02T06:36:21.999Z</time></trkpt><trkpt lat="-35.592244773480665" lon="144.170146143931"><ele>83.33333333333334</ele><time>2026-05-02T06:36:22.999Z</time></trkpt><trkpt lat="-35.592243884135065" lon="144.1704090570785"><ele>83.0</ele><time>2026-05-02T06:36:23.999Z</time></trkpt><trkpt lat="-35.59224029694633" lon="144.17067324381068"><ele>83.0</ele><time>2026-05-02T06:36:24.999Z</time></trkpt><trkpt lat="-35.59223468777987" lon="144.17093715421976"><ele>83.0</ele><time>2026-05-02T06:36:25.999Z</time></trkpt><trkpt lat="-35.59222481040061" lon="144.1712020689466"><ele>83.0</ele><time>2026-05-02T06:36:26.999Z</time></trkpt><trkpt lat="-35.59220438792859" lon="144.1714554416474"><ele>82.66666666666667</ele><time>2026-05-02T06:36:27.999Z</time></trkpt><trkpt lat="-35.59216521455277" lon="144.17170525806367"><ele>82.33333333333333</ele><time>2026-05-02T06:36:28.999Z</time></trkpt><trkpt lat="-35.59210612851319" lon="144.17196521559376"><ele>82.0</ele><time>2026-05-02T06:36:29.999Z</time></trkpt><trkpt lat="-35.592042292560166" lon="144.1722300928423"><ele>82.0</ele><time>2026-05-02T06:36:30.999Z</time></trkpt><trkpt lat="-35.59199517192378" lon="144.1724600892797"><ele>82.0</ele><time>2026-05-02T06:36:31.999Z</time></trkpt><trkpt lat="-35.591957529460494" lon="144.17267368627324"><ele>82.0</ele><time>2026-05-02T06:36:32.999Z</time></trkpt><trkpt lat="-35.591929287577855" lon="144.1728836511263"><ele>82.0</ele><time>2026-05-02T06:36:33.999Z</time></trkpt><trkpt lat="-35.591912017857695" lon="144.17309056694202"><ele>82.0</ele><time>2026-05-02T06:36:34.999Z</time></trkpt><trkpt lat="-35.5919112412889" lon="144.17330397250774"><ele>82.0</ele><time>2026-05-02T06:36:35.999Z</time></trkpt><trkpt lat="-35.59193068451799" lon="144.1735370537367"><ele>82.0</ele><time>2026-05-02T06:36:36.999Z</time></trkpt><trkpt lat="-35.59195589492017" lon="144.1737341703019"><ele>82.0</ele><time>2026-05-02T06:36:37.999Z</time></trkpt><trkpt lat="-35.59198924786557" lon="144.17387870567978"><ele>82.0</ele><time>2026-05-02T06:36:38.999Z</time></trkpt><trkpt lat="-35.59202946456411" lon="144.17397734671798"><ele>82.0</ele><time>2026-05-02T06:36:39.999Z</time></trkpt><trkpt lat="-35.59207438988187" lon="144.1740449243858"><ele>82.0</ele><time>2026-05-02T06:36:40.999Z</time></trkpt><trkpt lat="-35.592127949681476" lon="144.1740879495345"><ele>82.0</ele><time>2026-05-02T06:36:41.999Z</time></trkpt><trkpt lat="-35.59223053284813" lon="144.1740604991877"><ele>82.0</ele><time>2026-05-02T06:36:43.999Z</time></trkpt><trkpt lat="-35.59227745532057" lon="144.17399190968692"><ele>82.0</ele><time>2026-05-02T06:36:44.999Z</time></trkpt><trkpt lat="-35.59233239567757" lon="144.17390023164768"><ele>82.0</ele><time>2026-05-02T06:36:45.999Z</time></trkpt><trkpt lat="-35.59242558659341" lon="144.17381221979235"><ele>82.0</ele><time>2026-05-02T06:36:46.999Z</time></trkpt><trkpt lat="-35.59256852504576" lon="144.17371682936155"><ele>82.0</ele><time>2026-05-02T06:36:47.999Z</time></trkpt><trkpt lat="-35.59275393660777" lon="144.1736477401758"><ele>82.0</ele><time>2026-05-02T06:36:48.999Z</time></trkpt><trkpt lat="-35.59298748453488" lon="144.17362126921282"><ele>82.0</ele><time>2026-05-02T06:36:49.999Z</time></trkpt><trkpt lat="-35.59323238663327" lon="144.17359371161166"><ele>82.0</ele><time>2026-05-02T06:36:50.999Z</time></trkpt><trkpt lat="-35.59350155387808" lon="144.17354977024456"><ele>82.0</ele><time>2026-05-02T06:36:51.999Z</time></trkpt><trkpt lat="-35.59378088117777" lon="144.1735010186059"><ele>82.0</ele><time>2026-05-02T06:36:52.999Z</time></trkpt><trkpt lat="-35.594067595085995" lon="144.17345158064143"><ele>82.0</ele><time>2026-05-02T06:36:54Z</time></trkpt><trkpt lat="-35.5943652915281" lon="144.17340656426177"><ele>82.5</ele><time>2026-05-02T06:36:55Z</time></trkpt><trkpt lat="-35.594678735976586" lon="144.17335932789817"><ele>83.0</ele><time>2026-05-02T06:36:56Z</time></trkpt><trkpt lat="-35.594979592898845" lon="144.17330748426645"><ele>83.0</ele><time>2026-05-02T06:36:57Z</time></trkpt><trkpt lat="-35.59527315067491" lon="144.17326178026127"><ele>83.0</ele><time>2026-05-02T06:36:58Z</time></trkpt><trkpt lat="-35.595561961407526" lon="144.17321476122243"><ele>81.5</ele><time>2026-05-02T06:36:59Z</time></trkpt><trkpt lat="-35.59584255643366" lon="144.17316576963276"><ele>80.0</ele><time>2026-05-02T06:37:00Z</time></trkpt><trkpt lat="-35.59612951902391" lon="144.17311450035078"><ele>80.5</ele><time>2026-05-02T06:37:01Z</time></trkpt><trkpt lat="-35.59641098752149" lon="144.17306482936988"><ele>81.0</ele><time>2026-05-02T06:37:02Z</time></trkpt><trkpt lat="-35.59667602532892" lon="144.1730248230287"><ele>81.0</ele><time>2026-05-02T06:37:03Z</time></trkpt><trkpt lat="-35.59692652589227" lon="144.17298763444785"><ele>81.0</ele><time>2026-05-02T06:37:04Z</time></trkpt><trkpt lat="-35.59714712813422" lon="144.17295618011735"><ele>81.33333333333333</ele><time>2026-05-02T06:37:05Z</time></trkpt><trkpt lat="-35.59733594185854" lon="144.17294198274467"><ele>81.66666666666666</ele><time>2026-05-02T06:37:06Z</time></trkpt><trkpt lat="-35.597501962638965" lon="144.1729570919995"><ele>82.0</ele><time>2026-05-02T06:37:07Z</time></trkpt><trkpt lat="-35.5976856000304" lon="144.17303773939685"><ele>82.5</ele><time>2026-05-02T06:37:08Z</time></trkpt><trkpt lat="-35.597894002735686" lon="144.173165021601"><ele>83.0</ele><time>2026-05-02T06:37:09Z</time></trkpt><trkpt lat="-35.598108543295325" lon="144.17331117734534"><ele>84.0</ele><time>2026-05-02T06:37:10Z</time></trkpt><trkpt lat="-35.59833737866184" lon="144.17344064761159"><ele>85.0</ele><time>2026-05-02T06:37:11Z</time></trkpt><trkpt lat="-35.598557436787615" lon="144.17355238579043"><ele>84.33333333333333</ele><time>2026-05-02T06:37:12Z</time></trkpt><trkpt lat="-35.59875124932135" lon="144.17364315400758"><ele>83.66666666666667</ele><time>2026-05-02T06:37:13Z</time></trkpt><trkpt lat="-35.5989414890219" lon="144.17371052770795"><ele>83.0</ele><time>2026-05-02T06:37:14Z</time></trkpt><trkpt lat="-35.59914735376987" lon="144.17373077097346"><ele>83.0</ele><time>2026-05-02T06:37:15Z</time></trkpt><trkpt lat="-35.599347912359" lon="144.17371423275273"><ele>83.0</ele><time>2026-05-02T06:37:16Z</time></trkpt><trkpt lat="-35.59954319714749" lon="144.1737334804271"><ele>83.0</ele><time>2026-05-02T06:37:17Z</time></trkpt><trkpt lat="-35.59973698522517" lon="144.1738212035312"><ele>81.66666666666667</ele><time>2026-05-02T06:37:18Z</time></trkpt><trkpt lat="-35.5999137898466" lon="144.17392927003573"><ele>80.33333333333333</ele><time>2026-05-02T06:37:19Z</time></trkpt><trkpt lat="-35.60008048424098" lon="144.17399412753255"><ele>79.0</ele><time>2026-05-02T06:37:20Z</time></trkpt><trkpt lat="-35.60025927215476" lon="144.17401427571573"><ele>79.0</ele><time>2026-05-02T06:37:21Z</time></trkpt><trkpt lat="-35.600464160598825" lon="144.17397978810789"><ele>79.0</ele><time>2026-05-02T06:37:22Z</time></trkpt><trkpt lat="-35.60068166380159" lon="144.17392924714338"><ele>79.0</ele><time>2026-05-02T06:37:23Z</time></trkpt><trkpt lat="-35.60091582508238" lon="144.17388931491627"><ele>79.0</ele><time>2026-05-02T06:37:24Z</time></trkpt><trkpt lat="-35.60116399958587" lon="144.17384840397918"><ele>79.0</ele><time>2026-05-02T06:37:25Z</time></trkpt><trkpt lat="-35.60143024491639" lon="144.17380201342027"><ele>79.5</ele><time>2026-05-02T06:37:26Z</time></trkpt><trkpt lat="-35.60170732778053" lon="144.17375446412655"><ele>80.0</ele><time>2026-05-02T06:37:27Z</time></trkpt><trkpt lat="-35.60199791957723" lon="144.1737032877576"><ele>81.0</ele><time>2026-05-02T06:37:28Z</time></trkpt><trkpt lat="-35.60229558284179" lon="144.17365414887888"><ele>82.0</ele><time>2026-05-02T06:37:29Z</time></trkpt><trkpt lat="-35.60259293663611" lon="144.17361020898096"><ele>81.5</ele><time>2026-05-02T06:37:30Z</time></trkpt><trkpt lat="-35.60288493008772" lon="144.17356515931903"><ele>81.0</ele><time>2026-05-02T06:37:31Z</time></trkpt><trkpt lat="-35.60316300776919" lon="144.1735182986155"><ele>81.0</ele><time>2026-05-02T06:37:32Z</time></trkpt><trkpt lat="-35.603436847682616" lon="144.17347291729718"><ele>81.0</ele><time>2026-05-02T06:37:33Z</time></trkpt><trkpt lat="-35.60370717499411" lon="144.17342978503547"><ele>81.5</ele><time>2026-05-02T06:37:34Z</time></trkpt><trkpt lat="-35.60396028859805" lon="144.17339463085307"><ele>82.0</ele><time>2026-05-02T06:37:35Z</time></trkpt><trkpt lat="-35.604186947083356" lon="144.17336836028866"><ele>82.0</ele><time>2026-05-02T06:37:36Z</time></trkpt><trkpt lat="-35.604384614957574" lon="144.17333737360494"><ele>82.0</ele><time>2026-05-02T06:37:37Z</time></trkpt><trkpt lat="-35.60457050151874" lon="144.17330601269902"><ele>82.0</ele><time>2026-05-02T06:37:38Z</time></trkpt><trkpt lat="-35.604745740937894" lon="144.17328545418658"><ele>81.33333333333333</ele><time>2026-05-02T06:37:39Z</time></trkpt><trkpt lat="-35.60490029689836" lon="144.17328863629984"><ele>80.66666666666667</ele><time>2026-05-02T06:37:40Z</time></trkpt><trkpt lat="-35.60505088974408" lon="144.17334089007355"><ele>80.0</ele><time>2026-05-02T06:37:41Z</time></trkpt><trkpt lat="-35.60519246326143" lon="144.17342838254442"><ele>80.0</ele><time>2026-05-02T06:37:42Z</time></trkpt><trkpt lat="-35.60533656401991" lon="144.1735769888266"><ele>80.0</ele><time>2026-05-02T06:37:43Z</time></trkpt><trkpt lat="-35.60548010995347" lon="144.1737739906045"><ele>80.0</ele><time>2026-05-02T06:37:44Z</time></trkpt><trkpt lat="-35.6056363248571" lon="144.17400133351762"><ele>81.0</ele><time>2026-05-02T06:37:45Z</time></trkpt><trkpt lat="-35.605810139155246" lon="144.17424388192893"><ele>82.0</ele><time>2026-05-02T06:37:46Z</time></trkpt><trkpt lat="-35.60600340825699" lon="144.17449643386865"><ele>81.5</ele><time>2026-05-02T06:37:47Z</time></trkpt><trkpt lat="-35.606202282998396" lon="144.17475694810543"><ele>81.0</ele><time>2026-05-02T06:37:48Z</time></trkpt><trkpt lat="-35.6063776758042" lon="144.17497663230688"><ele>81.0</ele><time>2026-05-02T06:37:49Z</time></trkpt><trkpt lat="-35.60652654293183" lon="144.17518065153143"><ele>81.0</ele><time>2026-05-02T06:37:50Z</time></trkpt><trkpt lat="-35.60665983277267" lon="144.1754002411642"><ele>81.0</ele><time>2026-05-02T06:37:51Z</time></trkpt><trkpt lat="-35.606771322338" lon="144.17563210232845"><ele>80.0</ele><time>2026-05-02T06:37:52Z</time></trkpt><trkpt lat="-35.6068619410553" lon="144.17591450613313"><ele>79.0</ele><time>2026-05-02T06:37:53Z</time></trkpt><trkpt lat="-35.60696113799088" lon="144.17622318012772"><ele>80.5</ele><time>2026-05-02T06:37:54Z</time></trkpt><trkpt lat="-35.607072794596576" lon="144.17651488841645"><ele>82.0</ele><time>2026-05-02T06:37:55Z</time></trkpt><trkpt lat="-35.60716882429046" lon="144.17676219333543"><ele>82.0</ele><time>2026-05-02T06:37:56Z</time></trkpt><trkpt lat="-35.60724896159688" lon="144.17697395984075"><ele>82.0</ele><time>2026-05-02T06:37:57Z</time></trkpt><trkpt lat="-35.607323168998654" lon="144.17716106072965"><ele>82.0</ele><time>2026-05-02T06:37:58Z</time></trkpt><trkpt lat="-35.607402614272864" lon="144.17730274685817"><ele>81.66666666666666</ele><time>2026-05-02T06:37:59Z</time></trkpt><trkpt lat="-35.60749888068313" lon="144.1773971938868"><ele>81.33333333333333</ele><time>2026-05-02T06:38:00Z</time></trkpt><trkpt lat="-35.60764670985924" lon="144.1774742535307"><ele>81.0</ele><time>2026-05-02T06:38:01Z</time></trkpt><trkpt lat="-35.60781663792674" lon="144.17749639025647"><ele>81.0</ele><time>2026-05-02T06:38:02Z</time></trkpt><trkpt lat="-35.607963991781254" lon="144.1774948696587"><ele>81.0</ele><time>2026-05-02T06:38:03Z</time></trkpt><trkpt lat="-35.608110581436556" lon="144.17742572994106"><ele>81.0</ele><time>2026-05-02T06:38:04Z</time></trkpt><trkpt lat="-35.60828846803215" lon="144.1773003982035"><ele>81.0</ele><time>2026-05-02T06:38:05Z</time></trkpt><trkpt lat="-35.60848260151498" lon="144.17719244402895"><ele>81.0</ele><time>2026-05-02T06:38:06Z</time></trkpt><trkpt lat="-35.608646349533046" lon="144.17712552917308"><ele>81.0</ele><time>2026-05-02T06:38:07Z</time></trkpt><trkpt lat="-35.608789019271605" lon="144.1770656713164"><ele>81.0</ele><time>2026-05-02T06:38:08Z</time></trkpt><trkpt lat="-35.60889031110485" lon="144.177014913326"><ele>81.0</ele><time>2026-05-02T06:38:09Z</time></trkpt><trkpt lat="-35.60898673866549" lon="144.17699810847904"><ele>81.0</ele><time>2026-05-02T06:38:10Z</time></trkpt><trkpt lat="-35.60908943568048" lon="144.1770317176764"><ele>81.0</ele><time>2026-05-02T06:38:11Z</time></trkpt><trkpt lat="-35.60919476684825" lon="144.17711232342984"><ele>81.0</ele><time>2026-05-02T06:38:12Z</time></trkpt><trkpt lat="-35.60928113409729" lon="144.1772333698396"><ele>80.66666666666667</ele><time>2026-05-02T06:38:13Z</time></trkpt><trkpt lat="-35.60935161671754" lon="144.1774305052891"><ele>80.33333333333334</ele><time>2026-05-02T06:38:14Z</time></trkpt><trkpt lat="-35.609414585541735" lon="144.17763091533058"><ele>80.0</ele><time>2026-05-02T06:38:15Z</time></trkpt><trkpt lat="-35.609477730193355" lon="144.1777803044113"><ele>79.75</ele><time>2026-05-02T06:38:16Z</time></trkpt><trkpt lat="-35.609549098465045" lon="144.1778863569771"><ele>79.5</ele><time>2026-05-02T06:38:17Z</time></trkpt><trkpt lat="-35.609643464816145" lon="144.17795948921142"><ele>79.25</ele><time>2026-05-02T06:38:18Z</time></trkpt><trkpt lat="-35.6097683036815" lon="144.1780123275531"><ele>79.0</ele><time>2026-05-02T06:38:19Z</time></trkpt><trkpt lat="-35.60992856331995" lon="144.1779990738306"><ele>79.0</ele><time>2026-05-02T06:38:20Z</time></trkpt><trkpt lat="-35.61012488705346" lon="144.17796652628175"><ele>79.0</ele><time>2026-05-02T06:38:20.999Z</time></trkpt><trkpt lat="-35.61038449564165" lon="144.17792854758693"><ele>79.0</ele><time>2026-05-02T06:38:21.999Z</time></trkpt><trkpt lat="-35.610625219128664" lon="144.17790226581377"><ele>79.0</ele><time>2026-05-02T06:38:22.999Z</time></trkpt><trkpt lat="-35.610900922651716" lon="144.1778240376466"><ele>80.0</ele><time>2026-05-02T06:38:23.999Z</time></trkpt><trkpt lat="-35.61116255284487" lon="144.17774391342144"><ele>81.0</ele><time>2026-05-02T06:38:24.999Z</time></trkpt><trkpt lat="-35.611411784105314" lon="144.17766997426327"><ele>81.0</ele><time>2026-05-02T06:38:25.999Z</time></trkpt><trkpt lat="-35.61166461479671" lon="144.1776045259145"><ele>81.0</ele><time>2026-05-02T06:38:26.999Z</time></trkpt><trkpt lat="-35.61191765648091" lon="144.1775784272779"><ele>81.5</ele><time>2026-05-02T06:38:27.999Z</time></trkpt><trkpt lat="-35.61216435881879" lon="144.1775802581061"><ele>82.0</ele><time>2026-05-02T06:38:28.999Z</time></trkpt><trkpt lat="-35.61240491047224" lon="144.1776080432735"><ele>82.0</ele><time>2026-05-02T06:38:29.999Z</time></trkpt><trkpt lat="-35.6126420987331" lon="144.17765431182488"><ele>82.0</ele><time>2026-05-02T06:38:30.999Z</time></trkpt><trkpt lat="-35.612878363253024" lon="144.17773619383672"><ele>81.0</ele><time>2026-05-02T06:38:31.999Z</time></trkpt><trkpt lat="-35.613124318703825" lon="144.17784502087497"><ele>80.0</ele><time>2026-05-02T06:38:32.999Z</time></trkpt><trkpt lat="-35.61335934120115" lon="144.17798254943844"><ele>80.0</ele><time>2026-05-02T06:38:33.999Z</time></trkpt><trkpt lat="-35.61360241936124" lon="144.17815080547285"><ele>80.0</ele><time>2026-05-02T06:38:34.999Z</time></trkpt><trkpt lat="-35.61384063383243" lon="144.17834215740635"><ele>80.0</ele><time>2026-05-02T06:38:35.999Z</time></trkpt><trkpt lat="-35.61407470254046" lon="144.17854229277378"><ele>80.0</ele><time>2026-05-02T06:38:36.999Z</time></trkpt><trkpt lat="-35.61427846351785" lon="144.17871507321985"><ele>80.0</ele><time>2026-05-02T06:38:37.999Z</time></trkpt><trkpt lat="-35.6144510311877" lon="144.1788670869467"><ele>80.0</ele><time>2026-05-02T06:38:38.999Z</time></trkpt><trkpt lat="-35.61460275863119" lon="144.17899449009226"><ele>80.0</ele><time>2026-05-02T06:38:39.999Z</time></trkpt><trkpt lat="-35.61473176954473" lon="144.1791076269938"><ele>80.0</ele><time>2026-05-02T06:38:40.999Z</time></trkpt><trkpt lat="-35.61485452456688" lon="144.17925746969385"><ele>80.0</ele><time>2026-05-02T06:38:41.999Z</time></trkpt><trkpt lat="-35.614946599844494" lon="144.17946520570544"><ele>80.0</ele><time>2026-05-02T06:38:42.999Z</time></trkpt><trkpt lat="-35.61501725581822" lon="144.1797429163737"><ele>80.5</ele><time>2026-05-02T06:38:43.999Z</time></trkpt><trkpt lat="-35.615078807619824" lon="144.18004809213087"><ele>81.0</ele><time>2026-05-02T06:38:44.999Z</time></trkpt><trkpt lat="-35.615160711715106" lon="144.1803560433052"><ele>81.0</ele><time>2026-05-02T06:38:45.999Z</time></trkpt><trkpt lat="-35.61525536209957" lon="144.1806825165737"><ele>81.0</ele><time>2026-05-02T06:38:46.999Z</time></trkpt><trkpt lat="-35.61534276362679" lon="144.18097854842728"><ele>80.66666666666667</ele><time>2026-05-02T06:38:47.999Z</time></trkpt><trkpt lat="-35.615419246590974" lon="144.18124095364627"><ele>80.33333333333334</ele><time>2026-05-02T06:38:48.999Z</time></trkpt><trkpt lat="-35.61548656318541" lon="144.18146786409486"><ele>80.0</ele><time>2026-05-02T06:38:49.999Z</time></trkpt><trkpt lat="-35.61554622374225" lon="144.18166012856966"><ele>80.0</ele><time>2026-05-02T06:38:50.999Z</time></trkpt><trkpt lat="-35.615609902829256" lon="144.1818114573446"><ele>80.0</ele><time>2026-05-02T06:38:51.999Z</time></trkpt><trkpt lat="-35.61570473921156" lon="144.1819217623934"><ele>80.0</ele><time>2026-05-02T06:38:52.999Z</time></trkpt><trkpt lat="-35.61586689525969" lon="144.18201727541415"><ele>80.0</ele><time>2026-05-02T06:38:53.999Z</time></trkpt><trkpt lat="-35.6160751157168" lon="144.18211741957938"><ele>79.5</ele><time>2026-05-02T06:38:54.999Z</time></trkpt><trkpt lat="-35.616302721393204" lon="144.18223423161376"><ele>79.0</ele><time>2026-05-02T06:38:55.999Z</time></trkpt><trkpt lat="-35.61653811206663" lon="144.18236963903166"><ele>80.5</ele><time>2026-05-02T06:38:56.999Z</time></trkpt><trkpt lat="-35.61675304276662" lon="144.18249061533191"><ele>82.0</ele><time>2026-05-02T06:38:57.999Z</time></trkpt><trkpt lat="-35.61695402605544" lon="144.18259763158974"><ele>82.0</ele><time>2026-05-02T06:38:58.999Z</time></trkpt><trkpt lat="-35.6171518625832" lon="144.1826770376969"><ele>82.0</ele><time>2026-05-02T06:39:00Z</time></trkpt><trkpt lat="-35.61737281243249" lon="144.18268907074898"><ele>82.0</ele><time>2026-05-02T06:39:01Z</time></trkpt><trkpt lat="-35.61762836405004" lon="144.18266058270677"><ele>81.5</ele><time>2026-05-02T06:39:02Z</time></trkpt><trkpt lat="-35.61790045804597" lon="144.18265324144494"><ele>81.0</ele><time>2026-05-02T06:39:03Z</time></trkpt><trkpt lat="-35.61817282102572" lon="144.18264835200102"><ele>81.0</ele><time>2026-05-02T06:39:04Z</time></trkpt><trkpt lat="-35.6184067184162" lon="144.18264633893781"><ele>81.0</ele><time>2026-05-02T06:39:05Z</time></trkpt><trkpt lat="-35.618608984255516" lon="144.18265143312905"><ele>81.0</ele><time>2026-05-02T06:39:06Z</time></trkpt><trkpt lat="-35.61878388908408" lon="144.18268087938145"><ele>80.66666666666667</ele><time>2026-05-02T06:39:07Z</time></trkpt><trkpt lat="-35.618959502596184" lon="144.18276464170847"><ele>80.33333333333334</ele><time>2026-05-02T06:39:08Z</time></trkpt><trkpt lat="-35.61915893876588" lon="144.1829048486114"><ele>80.0</ele><time>2026-05-02T06:39:09Z</time></trkpt><trkpt lat="-35.61937974223935" lon="144.18305712440437"><ele>81.5</ele><time>2026-05-02T06:39:10Z</time></trkpt><trkpt lat="-35.61961675246482" lon="144.1832071061229"><ele>83.0</ele><time>2026-05-02T06:39:11Z</time></trkpt><trkpt lat="-35.61983957372601" lon="144.18334915499707"><ele>83.0</ele><time>2026-05-02T06:39:12Z</time></trkpt><trkpt lat="-35.62003251383589" lon="144.18346649479733"><ele>83.0</ele><time>2026-05-02T06:39:13Z</time></trkpt><trkpt lat="-35.620192965488826" lon="144.18356647002813"><ele>83.0</ele><time>2026-05-02T06:39:14Z</time></trkpt><trkpt lat="-35.62032777312218" lon="144.1836627851565"><ele>83.0</ele><time>2026-05-02T06:39:15Z</time></trkpt><trkpt lat="-35.62043860468076" lon="144.18376627215758"><ele>83.0</ele><time>2026-05-02T06:39:16Z</time></trkpt><trkpt lat="-35.620538495888624" lon="144.18393435097536"><ele>83.0</ele><time>2026-05-02T06:39:17Z</time></trkpt><trkpt lat="-35.62060685785109" lon="144.18416567862394"><ele>82.0</ele><time>2026-05-02T06:39:18Z</time></trkpt><trkpt lat="-35.62066411056304" lon="144.184434392041"><ele>81.0</ele><time>2026-05-02T06:39:19Z</time></trkpt><trkpt lat="-35.62073923564808" lon="144.18474393712788"><ele>82.0</ele><time>2026-05-02T06:39:20Z</time></trkpt><trkpt lat="-35.62081216377006" lon="144.18506326295116"><ele>83.0</ele><time>2026-05-02T06:39:21Z</time></trkpt><trkpt lat="-35.62088690349441" lon="144.18536570301578"><ele>83.0</ele><time>2026-05-02T06:39:22Z</time></trkpt><trkpt lat="-35.62095946696536" lon="144.1856187554138"><ele>83.0</ele><time>2026-05-02T06:39:23Z</time></trkpt><trkpt lat="-35.62102135927146" lon="144.18582958861853"><ele>83.0</ele><time>2026-05-02T06:39:24Z</time></trkpt><trkpt lat="-35.621076720244375" lon="144.18602510062306"><ele>82.33333333333334</ele><time>2026-05-02T06:39:25Z</time></trkpt><trkpt lat="-35.62114940193628" lon="144.18617389218426"><ele>81.66666666666667</ele><time>2026-05-02T06:39:26Z</time></trkpt><trkpt lat="-35.62127506087699" lon="144.18630882682305"><ele>81.0</ele><time>2026-05-02T06:39:27Z</time></trkpt><trkpt lat="-35.62146155703789" lon="144.18642623486508"><ele>81.5</ele><time>2026-05-02T06:39:28Z</time></trkpt><trkpt lat="-35.62165999727219" lon="144.18655249858924"><ele>82.0</ele><time>2026-05-02T06:39:29Z</time></trkpt><trkpt lat="-35.62186151724467" lon="144.18670971536676"><ele>82.0</ele><time>2026-05-02T06:39:30Z</time></trkpt><trkpt lat="-35.62207008418068" lon="144.1868765817414"><ele>82.0</ele><time>2026-05-02T06:39:31Z</time></trkpt><trkpt lat="-35.622284051413736" lon="144.18705198615984"><ele>82.0</ele><time>2026-05-02T06:39:32Z</time></trkpt><trkpt lat="-35.62247773383598" lon="144.18721637748396"><ele>82.0</ele><time>2026-05-02T06:39:33Z</time></trkpt><trkpt lat="-35.62263755280699" lon="144.18735110292891"><ele>82.0</ele><time>2026-05-02T06:39:34Z</time></trkpt><trkpt lat="-35.622774173920135" lon="144.1874603610648"><ele>82.33333333333333</ele><time>2026-05-02T06:39:35Z</time></trkpt><trkpt lat="-35.62289631773645" lon="144.18757464647504"><ele>82.66666666666667</ele><time>2026-05-02T06:39:36Z</time></trkpt><trkpt lat="-35.62298951756355" lon="144.18774068763727"><ele>83.0</ele><time>2026-05-02T06:39:37Z</time></trkpt><trkpt lat="-35.62305705921019" lon="144.18795780157348"><ele>83.0</ele><time>2026-05-02T06:39:38Z</time></trkpt><trkpt lat="-35.62310166280329" lon="144.1882356979735"><ele>83.0</ele><time>2026-05-02T06:39:39Z</time></trkpt><trkpt lat="-35.62313291307287" lon="144.188543062372"><ele>83.0</ele><time>2026-05-02T06:39:40Z</time></trkpt><trkpt lat="-35.623182085595666" lon="144.18886087777008"><ele>83.0</ele><time>2026-05-02T06:39:41Z</time></trkpt><trkpt lat="-35.623237670595756" lon="144.18918359047493"><ele>82.5</ele><time>2026-05-02T06:39:42Z</time></trkpt><trkpt lat="-35.62329576068813" lon="144.1895175378362"><ele>82.0</ele><time>2026-05-02T06:39:43Z</time></trkpt><trkpt lat="-35.62335243805515" lon="144.1898657128597"><ele>82.0</ele><time>2026-05-02T06:39:44Z</time></trkpt><trkpt lat="-35.623411328873075" lon="144.1902161306939"><ele>82.0</ele><time>2026-05-02T06:39:45Z</time></trkpt><trkpt lat="-35.62347318298889" lon="144.19057724785677"><ele>82.0</ele><time>2026-05-02T06:39:46Z</time></trkpt><trkpt lat="-35.623536226358596" lon="144.19092902874095"><ele>82.0</ele><time>2026-05-02T06:39:47Z</time></trkpt><trkpt lat="-35.62359090698073" lon="144.19122966796743"><ele>82.0</ele><time>2026-05-02T06:39:48Z</time></trkpt><trkpt lat="-35.62363609167691" lon="144.1915057514703"><ele>82.0</ele><time>2026-05-02T06:39:49Z</time></trkpt><trkpt lat="-35.62367681108066" lon="144.1917689647512"><ele>82.0</ele><time>2026-05-02T06:39:50Z</time></trkpt><trkpt lat="-35.62371886090324" lon="144.19200429817582"><ele>81.66666666666666</ele><time>2026-05-02T06:39:51Z</time></trkpt><trkpt lat="-35.623765659383416" lon="144.1922135714884"><ele>81.33333333333333</ele><time>2026-05-02T06:39:52Z</time></trkpt><trkpt lat="-35.623842598835274" lon="144.19238931040124"><ele>81.0</ele><time>2026-05-02T06:39:53Z</time></trkpt><trkpt lat="-35.62396036494504" lon="144.1925372090243"><ele>81.33333333333333</ele><time>2026-05-02T06:39:54Z</time></trkpt><trkpt lat="-35.62410256403134" lon="144.19266570601783"><ele>81.66666666666666</ele><time>2026-05-02T06:39:55Z</time></trkpt><trkpt lat="-35.624287838947225" lon="144.1927485342855"><ele>82.0</ele><time>2026-05-02T06:39:56Z</time></trkpt><trkpt lat="-35.62449690511149" lon="144.19279016782303"><ele>82.0</ele><time>2026-05-02T06:39:57Z</time></trkpt><trkpt lat="-35.62473483469932" lon="144.19279211719046"><ele>82.0</ele><time>2026-05-02T06:39:58Z</time></trkpt><trkpt lat="-35.62499957899202" lon="144.192810092193"><ele>82.0</ele><time>2026-05-02T06:39:59Z</time></trkpt><trkpt lat="-35.625275945210305" lon="144.1928456631127"><ele>82.0</ele><time>2026-05-02T06:40:00Z</time></trkpt><trkpt lat="-35.62556837860413" lon="144.19288656873084"><ele>82.5</ele><time>2026-05-02T06:40:01Z</time></trkpt><trkpt lat="-35.62586595612267" lon="144.1929279904894"><ele>83.0</ele><time>2026-05-02T06:40:02Z</time></trkpt><trkpt lat="-35.626183602611725" lon="144.19297374400867"><ele>83.0</ele><time>2026-05-02T06:40:03Z</time></trkpt><trkpt lat="-35.6265086237435" lon="144.1930239586443"><ele>83.0</ele><time>2026-05-02T06:40:04Z</time></trkpt><trkpt lat="-35.626799001908694" lon="144.19306239079313"><ele>82.5</ele><time>2026-05-02T06:40:05Z</time></trkpt><trkpt lat="-35.6270496048369" lon="144.19310054974727"><ele>82.0</ele><time>2026-05-02T06:40:06Z</time></trkpt><trkpt lat="-35.62728209667835" lon="144.19313655715027"><ele>82.66666666666666</ele><time>2026-05-02T06:40:07Z</time></trkpt><trkpt lat="-35.62749192135625" lon="144.1931792190885"><ele>83.33333333333333</ele><time>2026-05-02T06:40:08Z</time></trkpt><trkpt lat="-35.62768928279182" lon="144.19321237078339"><ele>84.0</ele><time>2026-05-02T06:40:09Z</time></trkpt><trkpt lat="-35.627873564113045" lon="144.19324493349902"><ele>84.0</ele><time>2026-05-02T06:40:10Z</time></trkpt><trkpt lat="-35.6280702439849" lon="144.19332460801684"><ele>84.0</ele><time>2026-05-02T06:40:11Z</time></trkpt><trkpt lat="-35.628265098192905" lon="144.19345249148088"><ele>84.0</ele><time>2026-05-02T06:40:12Z</time></trkpt><trkpt lat="-35.62842268312138" lon="144.19357007269187"><ele>84.0</ele><time>2026-05-02T06:40:13Z</time></trkpt><trkpt lat="-35.628569096895475" lon="144.19366825552302"><ele>84.0</ele><time>2026-05-02T06:40:14Z</time></trkpt><trkpt lat="-35.62871066195872" lon="144.19374032118677"><ele>84.0</ele><time>2026-05-02T06:40:15Z</time></trkpt><trkpt lat="-35.62885530400481" lon="144.19379814568055"><ele>83.66666666666667</ele><time>2026-05-02T06:40:16Z</time></trkpt><trkpt lat="-35.62902792050022" lon="144.1937876185915"><ele>83.33333333333334</ele><time>2026-05-02T06:40:17Z</time></trkpt><trkpt lat="-35.629226619980734" lon="144.1937341874619"><ele>83.0</ele><time>2026-05-02T06:40:18Z</time></trkpt><trkpt lat="-35.6294163192283" lon="144.19358338186902"><ele>83.0</ele><time>2026-05-02T06:40:19Z</time></trkpt><trkpt lat="-35.62961350318294" lon="144.19340925436694"><ele>83.0</ele><time>2026-05-02T06:40:20Z</time></trkpt><trkpt lat="-35.62983409611223" lon="144.1932562244288"><ele>82.0</ele><time>2026-05-02T06:40:21Z</time></trkpt><trkpt lat="-35.6300496393342" lon="144.19311722602856"><ele>81.0</ele><time>2026-05-02T06:40:22Z</time></trkpt><trkpt lat="-35.630228154768204" lon="144.19300545983984"><ele>80.0</ele><time>2026-05-02T06:40:23Z</time></trkpt><trkpt lat="-35.63039135931111" lon="144.19291657026767"><ele>80.0</ele><time>2026-05-02T06:40:24Z</time></trkpt><trkpt lat="-35.630573616793654" lon="144.19287131688714"><ele>80.0</ele><time>2026-05-02T06:40:25Z</time></trkpt><trkpt lat="-35.63078875312132" lon="144.19288388694758"><ele>80.0</ele><time>2026-05-02T06:40:26Z</time></trkpt><trkpt lat="-35.63103337227815" lon="144.19290715450813"><ele>82.0</ele><time>2026-05-02T06:40:27Z</time></trkpt><trkpt lat="-35.63129717119799" lon="144.19291851382053"><ele>84.0</ele><time>2026-05-02T06:40:27.999Z</time></trkpt><trkpt lat="-35.63153982115419" lon="144.1929178686021"><ele>84.0</ele><time>2026-05-02T06:40:28.999Z</time></trkpt><trkpt lat="-35.631741034973366" lon="144.1929173479038"><ele>84.0</ele><time>2026-05-02T06:40:29.999Z</time></trkpt><trkpt lat="-35.63192914844401" lon="144.19293063388977"><ele>84.0</ele><time>2026-05-02T06:40:30.999Z</time></trkpt><trkpt lat="-35.63212460545446" lon="144.192978772836"><ele>84.0</ele><time>2026-05-02T06:40:31.999Z</time></trkpt><trkpt lat="-35.63232475262165" lon="144.19309499468247"><ele>84.0</ele><time>2026-05-02T06:40:32.999Z</time></trkpt><trkpt lat="-35.632543294708015" lon="144.19326344303954"><ele>84.0</ele><time>2026-05-02T06:40:33.999Z</time></trkpt><trkpt lat="-35.63275804850527" lon="144.19340347346983"><ele>84.0</ele><time>2026-05-02T06:40:34.999Z</time></trkpt><trkpt lat="-35.63294276689456" lon="144.19350958263857"><ele>84.0</ele><time>2026-05-02T06:40:35.999Z</time></trkpt><trkpt lat="-35.633108348995904" lon="144.19360318773462"><ele>84.0</ele><time>2026-05-02T06:40:36.999Z</time></trkpt><trkpt lat="-35.63326882408769" lon="144.19368368896573"><ele>84.0</ele><time>2026-05-02T06:40:37.999Z</time></trkpt><trkpt lat="-35.633444646133476" lon="144.19373345231566"><ele>84.0</ele><time>2026-05-02T06:40:38.999Z</time></trkpt><trkpt lat="-35.633665936959176" lon="144.1937340783079"><ele>82.66666666666667</ele><time>2026-05-02T06:40:39.999Z</time></trkpt><trkpt lat="-35.63388560580823" lon="144.1937382371173"><ele>81.33333333333334</ele><time>2026-05-02T06:40:40.999Z</time></trkpt><trkpt lat="-35.634075827453124" lon="144.19375594727552"><ele>80.0</ele><time>2026-05-02T06:40:41.999Z</time></trkpt><trkpt lat="-35.6342630481473" lon="144.19376772587864"><ele>80.0</ele><time>2026-05-02T06:40:42.999Z</time></trkpt><trkpt lat="-35.63443325519859" lon="144.19372003525817"><ele>80.0</ele><time>2026-05-02T06:40:43.999Z</time></trkpt><trkpt lat="-35.63460638453516" lon="144.19358842778362"><ele>80.0</ele><time>2026-05-02T06:40:44.999Z</time></trkpt><trkpt lat="-35.63480019598872" lon="144.19341508675163"><ele>80.5</ele><time>2026-05-02T06:40:45.999Z</time></trkpt><trkpt lat="-35.6350146416621" lon="144.1932501311259"><ele>81.0</ele><time>2026-05-02T06:40:46.999Z</time></trkpt><trkpt lat="-35.635254220118135" lon="144.19309183520497"><ele>81.0</ele><time>2026-05-02T06:40:47.999Z</time></trkpt><trkpt lat="-35.635489399527366" lon="144.19293503356994"><ele>81.0</ele><time>2026-05-02T06:40:48.999Z</time></trkpt><trkpt lat="-35.63569080168794" lon="144.1928016777225"><ele>81.0</ele><time>2026-05-02T06:40:49.999Z</time></trkpt><trkpt lat="-35.635864250855604" lon="144.19267298625914"><ele>81.0</ele><time>2026-05-02T06:40:50.999Z</time></trkpt><trkpt lat="-35.63603531632004" lon="144.19255968782994"><ele>81.0</ele><time>2026-05-02T06:40:51.999Z</time></trkpt><trkpt lat="-35.63616469373103" lon="144.1924618134833"><ele>81.0</ele><time>2026-05-02T06:40:52.999Z</time></trkpt><trkpt lat="-35.6363097886949" lon="144.1923929353294"><ele>81.0</ele><time>2026-05-02T06:40:53.999Z</time></trkpt><trkpt lat="-35.63645880841683" lon="144.19235961011793"><ele>81.0</ele><time>2026-05-02T06:40:54.999Z</time></trkpt><trkpt lat="-35.63661879120047" lon="144.19237423536748"><ele>81.0</ele><time>2026-05-02T06:40:55.999Z</time></trkpt><trkpt lat="-35.636791927027815" lon="144.19244381778697"><ele>81.0</ele><time>2026-05-02T06:40:56.999Z</time></trkpt><trkpt lat="-35.63697340303151" lon="144.1925772280569"><ele>81.0</ele><time>2026-05-02T06:40:57.999Z</time></trkpt><trkpt lat="-35.637158319814525" lon="144.19274848561358"><ele>80.0</ele><time>2026-05-02T06:40:58.999Z</time></trkpt><trkpt lat="-35.637360288331706" lon="144.19291394737343"><ele>79.0</ele><time>2026-05-02T06:40:59.999Z</time></trkpt><trkpt lat="-35.63759037623029" lon="144.19308479775708"><ele>80.0</ele><time>2026-05-02T06:41:00.999Z</time></trkpt><trkpt lat="-35.637831893067236" lon="144.19326789455732"><ele>81.0</ele><time>2026-05-02T06:41:01.999Z</time></trkpt><trkpt lat="-35.638074849879374" lon="144.19344476677776"><ele>81.0</ele><time>2026-05-02T06:41:02.999Z</time></trkpt><trkpt lat="-35.63831151806078" lon="144.19358133982442"><ele>81.0</ele><time>2026-05-02T06:41:03.999Z</time></trkpt><trkpt lat="-35.63854995974591" lon="144.19369765575934"><ele>80.33333333333333</ele><time>2026-05-02T06:41:04.999Z</time></trkpt><trkpt lat="-35.6387625342057" lon="144.19379540157732"><ele>79.66666666666666</ele><time>2026-05-02T06:41:06Z</time></trkpt><trkpt lat="-35.63896428645524" lon="144.19389366712696"><ele>79.0</ele><time>2026-05-02T06:41:07Z</time></trkpt><trkpt lat="-35.63916043508387" lon="144.19396940994616"><ele>79.0</ele><time>2026-05-02T06:41:08Z</time></trkpt><trkpt lat="-35.63938175243655" lon="144.1939994753094"><ele>79.0</ele><time>2026-05-02T06:41:09Z</time></trkpt><trkpt lat="-35.63960951106106" lon="144.19401930627328"><ele>79.33333333333333</ele><time>2026-05-02T06:41:10Z</time></trkpt><trkpt lat="-35.639802700934936" lon="144.19405646236905"><ele>79.66666666666667</ele><time>2026-05-02T06:41:11Z</time></trkpt><trkpt lat="-35.63997544883557" lon="144.19409512832797"><ele>80.0</ele><time>2026-05-02T06:41:12Z</time></trkpt><trkpt lat="-35.640133108244235" lon="144.1941361082737"><ele>80.0</ele><time>2026-05-02T06:41:13Z</time></trkpt><trkpt lat="-35.64027231131573" lon="144.19416606908203"><ele>80.0</ele><time>2026-05-02T06:41:14Z</time></trkpt><trkpt lat="-35.64039010649883" lon="144.19420003552386"><ele>80.0</ele><time>2026-05-02T06:41:15Z</time></trkpt><trkpt lat="-35.640491174347666" lon="144.19424171588932"><ele>80.0</ele><time>2026-05-02T06:41:16Z</time></trkpt><trkpt lat="-35.640565498054485" lon="144.19431116817353"><ele>79.66666666666667</ele><time>2026-05-02T06:41:17Z</time></trkpt><trkpt lat="-35.640627919631484" lon="144.19444029568314"><ele>79.33333333333333</ele><time>2026-05-02T06:41:18Z</time></trkpt><trkpt lat="-35.640670520553385" lon="144.19462084642072"><ele>79.0</ele><time>2026-05-02T06:41:19Z</time></trkpt><trkpt lat="-35.64069069862826" lon="144.1948511191835"><ele>80.0</ele><time>2026-05-02T06:41:20Z</time></trkpt><trkpt lat="-35.64071469876358" lon="144.19511313678447"><ele>81.0</ele><time>2026-05-02T06:41:21Z</time></trkpt><trkpt lat="-35.6407519152478" lon="144.19540459422404"><ele>81.0</ele><time>2026-05-02T06:41:22Z</time></trkpt><trkpt lat="-35.640778598507616" lon="144.19567869015654"><ele>81.0</ele><time>2026-05-02T06:41:23Z</time></trkpt><trkpt lat="-35.64080139879598" lon="144.1959147497805"><ele>81.0</ele><time>2026-05-02T06:41:24Z</time></trkpt><trkpt lat="-35.64082548639281" lon="144.19612509175164"><ele>81.0</ele><time>2026-05-02T06:41:25Z</time></trkpt><trkpt lat="-35.64084614179016" lon="144.19631472271033"><ele>81.0</ele><time>2026-05-02T06:41:26Z</time></trkpt><trkpt lat="-35.640862062294666" lon="144.19649309279248"><ele>81.0</ele><time>2026-05-02T06:41:27Z</time></trkpt><trkpt lat="-35.64088712646906" lon="144.19667320593035"><ele>81.25</ele><time>2026-05-02T06:41:28Z</time></trkpt><trkpt lat="-35.64091304174529" lon="144.19686445734123"><ele>81.5</ele><time>2026-05-02T06:41:29Z</time></trkpt><trkpt lat="-35.64093002192056" lon="144.19703385348495"><ele>81.75</ele><time>2026-05-02T06:41:30Z</time></trkpt><trkpt lat="-35.64094700822779" lon="144.1971726694446"><ele>82.0</ele><time>2026-05-02T06:41:31Z</time></trkpt><trkpt lat="-35.64096560045593" lon="144.19730454530696"><ele>82.0</ele><time>2026-05-02T06:41:32Z</time></trkpt><trkpt lat="-35.640988954145094" lon="144.19742169257583"><ele>82.0</ele><time>2026-05-02T06:41:33Z</time></trkpt><trkpt lat="-35.64101687650745" lon="144.19750704060243"><ele>82.0</ele><time>2026-05-02T06:41:34Z</time></trkpt><trkpt lat="-35.64106603550801" lon="144.19759254669071"><ele>82.0</ele><time>2026-05-02T06:41:35Z</time></trkpt><trkpt lat="-35.64112231928658" lon="144.19766086392292"><ele>82.0</ele><time>2026-05-02T06:41:36Z</time></trkpt><trkpt lat="-35.64118807439178" lon="144.19772074062058"><ele>82.0</ele><time>2026-05-02T06:41:37Z</time></trkpt><trkpt lat="-35.64126253687185" lon="144.19776268928965"><ele>82.0</ele><time>2026-05-02T06:41:38Z</time></trkpt><trkpt lat="-35.641360108980024" lon="144.19778417134341"><ele>82.0</ele><time>2026-05-02T06:41:39Z</time></trkpt><trkpt lat="-35.64145306534813" lon="144.1977870223289"><ele>82.0</ele><time>2026-05-02T06:41:40Z</time></trkpt><trkpt lat="-35.64154193282373" lon="144.19782540309572"><ele>82.0</ele><time>2026-05-02T06:41:41Z</time></trkpt><trkpt lat="-35.64163725695529" lon="144.19790690319513"><ele>82.0</ele><time>2026-05-02T06:41:42Z</time></trkpt><trkpt lat="-35.641730620510636" lon="144.19799235179693"><ele>82.0</ele><time>2026-05-02T06:41:43Z</time></trkpt><trkpt lat="-35.64183581385532" lon="144.1980614433161"><ele>82.0</ele><time>2026-05-02T06:41:44Z</time></trkpt><trkpt lat="-35.64194620724298" lon="144.1981607017677"><ele>82.0</ele><time>2026-05-02T06:41:45Z</time></trkpt><trkpt lat="-35.64204762956863" lon="144.1982566194937"><ele>82.0</ele><time>2026-05-02T06:41:46Z</time></trkpt><trkpt lat="-35.64215914172207" lon="144.1983440430946"><ele>82.33333333333333</ele><time>2026-05-02T06:41:47Z</time></trkpt><trkpt lat="-35.64228832589324" lon="144.19846063975086"><ele>82.66666666666667</ele><time>2026-05-02T06:41:48Z</time></trkpt><trkpt lat="-35.64243394909616" lon="144.19859972106025"><ele>83.0</ele><time>2026-05-02T06:41:49Z</time></trkpt><trkpt lat="-35.642588554019646" lon="144.1987512087176"><ele>83.0</ele><time>2026-05-02T06:41:50Z</time></trkpt><trkpt lat="-35.64272858523244" lon="144.19888511141895"><ele>83.0</ele><time>2026-05-02T06:41:51Z</time></trkpt><trkpt lat="-35.64285399440881" lon="144.19899373144455"><ele>83.0</ele><time>2026-05-02T06:41:52Z</time></trkpt><trkpt lat="-35.642983079408324" lon="144.19910713075353"><ele>82.66666666666667</ele><time>2026-05-02T06:41:53Z</time></trkpt><trkpt lat="-35.64311072434541" lon="144.1992257418745"><ele>82.33333333333333</ele><time>2026-05-02T06:41:54Z</time></trkpt><trkpt lat="-35.64324298448001" lon="144.19934525506116"><ele>82.0</ele><time>2026-05-02T06:41:55Z</time></trkpt><trkpt lat="-35.64337702922577" lon="144.19946968885156"><ele>82.0</ele><time>2026-05-02T06:41:56Z</time></trkpt><trkpt lat="-35.64351529649793" lon="144.199596228955"><ele>82.0</ele><time>2026-05-02T06:41:57Z</time></trkpt><trkpt lat="-35.64364418642587" lon="144.1997158958154"><ele>82.0</ele><time>2026-05-02T06:41:58Z</time></trkpt><trkpt lat="-35.64374849094692" lon="144.1998148602944"><ele>82.0</ele><time>2026-05-02T06:41:59Z</time></trkpt><trkpt lat="-35.64384427093057" lon="144.19990646777907"><ele>82.0</ele><time>2026-05-02T06:42:00Z</time></trkpt><trkpt lat="-35.643948125129974" lon="144.20000566846966"><ele>82.0</ele><time>2026-05-02T06:42:01Z</time></trkpt><trkpt lat="-35.64405298807862" lon="144.20011377716924"><ele>82.0</ele><time>2026-05-02T06:42:02Z</time></trkpt><trkpt lat="-35.644157314266586" lon="144.20023926429283"><ele>82.0</ele><time>2026-05-02T06:42:03Z</time></trkpt><trkpt lat="-35.64425548519095" lon="144.20038031377268"><ele>82.0</ele><time>2026-05-02T06:42:04Z</time></trkpt><trkpt lat="-35.64435761432613" lon="144.20051575675532"><ele>82.0</ele><time>2026-05-02T06:42:05Z</time></trkpt><trkpt lat="-35.64445708365271" lon="144.20065011940804"><ele>82.0</ele><time>2026-05-02T06:42:06Z</time></trkpt><trkpt lat="-35.64454681009585" lon="144.20078418511272"><ele>81.25</ele><time>2026-05-02T06:42:07Z</time></trkpt><trkpt lat="-35.644621281522525" lon="144.20092328775596"><ele>80.5</ele><time>2026-05-02T06:42:08Z</time></trkpt><trkpt lat="-35.64471137974001" lon="144.20106975942986"><ele>79.75</ele><time>2026-05-02T06:42:09Z</time></trkpt><trkpt lat="-35.64480224580413" lon="144.2012270321734"><ele>79.0</ele><time>2026-05-02T06:42:10Z</time></trkpt><trkpt lat="-35.64490670231971" lon="144.20138540005587"><ele>80.66666666666666</ele><time>2026-05-02T06:42:11Z</time></trkpt><trkpt lat="-35.645006728827184" lon="144.20156209589646"><ele>82.33333333333333</ele><time>2026-05-02T06:42:12Z</time></trkpt><trkpt lat="-35.64508848634684" lon="144.20172724824653"><ele>84.0</ele><time>2026-05-02T06:42:13Z</time></trkpt><trkpt lat="-35.64516662598488" lon="144.20187420926285"><ele>84.0</ele><time>2026-05-02T06:42:14Z</time></trkpt><trkpt lat="-35.64523033335366" lon="144.20198442116066"><ele>84.0</ele><time>2026-05-02T06:42:15Z</time></trkpt><trkpt lat="-35.645285778844766" lon="144.20207907497579"><ele>84.0</ele><time>2026-05-02T06:42:16Z</time></trkpt><trkpt lat="-35.645341200023616" lon="144.20215281621535"><ele>84.0</ele><time>2026-05-02T06:42:17Z</time></trkpt><trkpt lat="-35.64540930148422" lon="144.20222986908658"><ele>84.0</ele><time>2026-05-02T06:42:18Z</time></trkpt><trkpt lat="-35.64549168423752" lon="144.20229548330866"><ele>84.0</ele><time>2026-05-02T06:42:19Z</time></trkpt><trkpt lat="-35.64557143976688" lon="144.2023247949362"><ele>84.0</ele><time>2026-05-02T06:42:20Z</time></trkpt><trkpt lat="-35.645643043965734" lon="144.20233667127053"><ele>84.0</ele><time>2026-05-02T06:42:21Z</time></trkpt><trkpt lat="-35.645711946592385" lon="144.20233763575615"><ele>84.0</ele><time>2026-05-02T06:42:22Z</time></trkpt><trkpt lat="-35.64578733683608" lon="144.2023325704071"><ele>84.0</ele><time>2026-05-02T06:42:23Z</time></trkpt><trkpt lat="-35.64585580441736" lon="144.20232712758354"><ele>84.0</ele><time>2026-05-02T06:42:24Z</time></trkpt><trkpt lat="-35.6459637240103" lon="144.20230917211074"><ele>83.5</ele><time>2026-05-02T06:42:26Z</time></trkpt><trkpt lat="-35.64606564207511" lon="144.20227830722047"><ele>83.0</ele><time>2026-05-02T06:42:28Z</time></trkpt><trkpt lat="-35.64605394785276" lon="144.2021751235944"><ele>82.5</ele><time>2026-05-02T06:42:29.999Z</time></trkpt><trkpt lat="-35.64598192181294" lon="144.2021593404506"><ele>82.0</ele><time>2026-05-02T06:42:31.999Z</time></trkpt><trkpt lat="-35.64590793480855" lon="144.20217227889484"><ele>81.5</ele><time>2026-05-02T06:42:32.999Z</time></trkpt><trkpt lat="-35.64581509960992" lon="144.202189136886"><ele>81.0</ele><time>2026-05-02T06:42:33.999Z</time></trkpt><trkpt lat="-35.64572333734313" lon="144.2021983917188"><ele>81.0</ele><time>2026-05-02T06:42:34.999Z</time></trkpt><trkpt lat="-35.64562206124998" lon="144.202199834795"><ele>81.0</ele><time>2026-05-02T06:42:35.999Z</time></trkpt><trkpt lat="-35.645527749943554" lon="144.2021739794584"><ele>81.0</ele><time>2026-05-02T06:42:36.999Z</time></trkpt><trkpt lat="-35.6454461437897" lon="144.20209763793133"><ele>81.0</ele><time>2026-05-02T06:42:37.999Z</time></trkpt><trkpt lat="-35.64536731171487" lon="144.2019887006051"><ele>81.0</ele><time>2026-05-02T06:42:38.999Z</time></trkpt><trkpt lat="-35.645288153283865" lon="144.20182578372345"><ele>80.33333333333333</ele><time>2026-05-02T06:42:39.999Z</time></trkpt><trkpt lat="-35.64519944243923" lon="144.20165782006066"><ele>79.66666666666666</ele><time>2026-05-02T06:42:40.999Z</time></trkpt><trkpt lat="-35.64510880497354" lon="144.2014970470018"><ele>79.0</ele><time>2026-05-02T06:42:41.999Z</time></trkpt><trkpt lat="-35.64501527826974" lon="144.20132980481762"><ele>79.0</ele><time>2026-05-02T06:42:42.999Z</time></trkpt><trkpt lat="-35.64491939706818" lon="144.20116148489464"><ele>79.0</ele><time>2026-05-02T06:42:43.999Z</time></trkpt><trkpt lat="-35.644819117197024" lon="144.20100067705502"><ele>79.0</ele><time>2026-05-02T06:42:44.999Z</time></trkpt><trkpt lat="-35.64470637927771" lon="144.2008402944675"><ele>79.0</ele><time>2026-05-02T06:42:45.999Z</time></trkpt><trkpt lat="-35.644589342817774" lon="144.20067253113294"><ele>79.0</ele><time>2026-05-02T06:42:46.999Z</time></trkpt><trkpt lat="-35.644477312170515" lon="144.20050321080083"><ele>79.0</ele><time>2026-05-02T06:42:47.999Z</time></trkpt><trkpt lat="-35.64436506197465" lon="144.20034173488597"><ele>80.0</ele><time>2026-05-02T06:42:48.999Z</time></trkpt><trkpt lat="-35.644246235102415" lon="144.20018466087495"><ele>81.0</ele><time>2026-05-02T06:42:49.999Z</time></trkpt><trkpt lat="-35.64411746584492" lon="144.20003543954783"><ele>82.0</ele><time>2026-05-02T06:42:50.999Z</time></trkpt><trkpt lat="-35.64398590986304" lon="144.19989656466316"><ele>82.0</ele><time>2026-05-02T06:42:51.999Z</time></trkpt><trkpt lat="-35.64386244652118" lon="144.19976465989103"><ele>82.0</ele><time>2026-05-02T06:42:52.999Z</time></trkpt><trkpt lat="-35.643728268429065" lon="144.1996378744875"><ele>82.0</ele><time>2026-05-02T06:42:53.999Z</time></trkpt><trkpt lat="-35.64359061026624" lon="144.1995141598184"><ele>82.0</ele><time>2026-05-02T06:42:54.999Z</time></trkpt><trkpt lat="-35.643457098651396" lon="144.1993880468276"><ele>82.0</ele><time>2026-05-02T06:42:55.999Z</time></trkpt><trkpt lat="-35.643315761015614" lon="144.19925547554973"><ele>82.0</ele><time>2026-05-02T06:42:56.999Z</time></trkpt><trkpt lat="-35.6431794706622" lon="144.19914470697609"><ele>82.0</ele><time>2026-05-02T06:42:57.999Z</time></trkpt><trkpt lat="-35.64304570280409" lon="144.19902735483615"><ele>82.0</ele><time>2026-05-02T06:42:58.999Z</time></trkpt><trkpt lat="-35.64291346182559" lon="144.19889760756"><ele>82.0</ele><time>2026-05-02T06:42:59.999Z</time></trkpt><trkpt lat="-35.64278020933099" lon="144.19877715106603"><ele>82.33333333333333</ele><time>2026-05-02T06:43:00.999Z</time></trkpt><trkpt lat="-35.64264580199973" lon="144.19865948118417"><ele>82.66666666666667</ele><time>2026-05-02T06:43:01.999Z</time></trkpt><trkpt lat="-35.64250181870184" lon="144.19852200003473"><ele>83.0</ele><time>2026-05-02T06:43:02.999Z</time></trkpt><trkpt lat="-35.64236117423062" lon="144.19838664602705"><ele>83.0</ele><time>2026-05-02T06:43:03.999Z</time></trkpt><trkpt lat="-35.642218461563026" lon="144.1982556150761"><ele>83.0</ele><time>2026-05-02T06:43:04.999Z</time></trkpt><trkpt lat="-35.64208248911302" lon="144.1981382757592"><ele>83.0</ele><time>2026-05-02T06:43:05.999Z</time></trkpt><trkpt lat="-35.64196624635341" lon="144.1980397032318"><ele>82.75</ele><time>2026-05-02T06:43:06.999Z</time></trkpt><trkpt lat="-35.641843900378426" lon="144.19793203729233"><ele>82.5</ele><time>2026-05-02T06:43:07.999Z</time></trkpt><trkpt lat="-35.64172368817447" lon="144.1978399093192"><ele>82.25</ele><time>2026-05-02T06:43:08.999Z</time></trkpt><trkpt lat="-35.641598010876436" lon="144.19775611800614"><ele>82.0</ele><time>2026-05-02T06:43:09.999Z</time></trkpt><trkpt lat="-35.641462306137555" lon="144.19772070550903"><ele>82.0</ele><time>2026-05-02T06:43:10.999Z</time></trkpt><trkpt lat="-35.64133485257558" lon="144.19773646186863"><ele>82.0</ele><time>2026-05-02T06:43:12Z</time></trkpt><trkpt lat="-35.6412356476361" lon="144.19773655582557"><ele>82.0</ele><time>2026-05-02T06:43:13Z</time></trkpt><trkpt lat="-35.6411513466701" lon="144.19769462698957"><ele>82.0</ele><time>2026-05-02T06:43:14Z</time></trkpt><trkpt lat="-35.64107812256717" lon="144.19761356335235"><ele>82.0</ele><time>2026-05-02T06:43:15Z</time></trkpt><trkpt lat="-35.64101255665726" lon="144.19749314548977"><ele>82.0</ele><time>2026-05-02T06:43:16Z</time></trkpt><trkpt lat="-35.640972027533316" lon="144.19735320268845"><ele>82.0</ele><time>2026-05-02T06:43:17Z</time></trkpt><trkpt lat="-35.640951606936866" lon="144.19723911460864"><ele>82.0</ele><time>2026-05-02T06:43:18Z</time></trkpt><trkpt lat="-35.64091482349608" lon="144.19714183583704"><ele>82.0</ele><time>2026-05-02T06:43:19Z</time></trkpt><trkpt lat="-35.640859789505114" lon="144.19706270831364"><ele>82.0</ele><time>2026-05-02T06:43:20Z</time></trkpt><trkpt lat="-35.64080567971876" lon="144.19699186998548"><ele>82.0</ele><time>2026-05-02T06:43:21Z</time></trkpt><trkpt lat="-35.64073845186797" lon="144.1969295021983"><ele>82.0</ele><time>2026-05-02T06:43:23Z</time></trkpt><trkpt lat="-35.640640343888016" lon="144.1968760141624"><ele>82.0</ele><time>2026-05-02T06:43:25Z</time></trkpt><trkpt lat="-35.640600139425835" lon="144.196953149503"><ele>82.0</ele><time>2026-05-02T06:43:26Z</time></trkpt><trkpt lat="-35.640607459856305" lon="144.19706878044894"><ele>82.0</ele><time>2026-05-02T06:43:27Z</time></trkpt><trkpt lat="-35.64063773351961" lon="144.19721800565975"><ele>82.0</ele><time>2026-05-02T06:43:28Z</time></trkpt><trkpt lat="-35.640659571112245" lon="144.19741731895283"><ele>82.0</ele><time>2026-05-02T06:43:29Z</time></trkpt><trkpt lat="-35.64068783365878" lon="144.19756859817088"><ele>82.0</ele><time>2026-05-02T06:43:30Z</time></trkpt><trkpt lat="-35.64072880138936" lon="144.1976794734826"><ele>82.0</ele><time>2026-05-02T06:43:31Z</time></trkpt><trkpt lat="-35.640771126255046" lon="144.19776971329148"><ele>82.0</ele><time>2026-05-02T06:43:32Z</time></trkpt><trkpt lat="-35.64080065700465" lon="144.19785819632068"><ele>82.0</ele><time>2026-05-02T06:43:33Z</time></trkpt><trkpt lat="-35.64082303532144" lon="144.1979532307268"><ele>82.0</ele><time>2026-05-02T06:43:34Z</time></trkpt><trkpt lat="-35.64083371065639" lon="144.1980631856099"><ele>82.0</ele><time>2026-05-02T06:43:35Z</time></trkpt><trkpt lat="-35.64085322904504" lon="144.19816927390238"><ele>82.0</ele><time>2026-05-02T06:43:36Z</time></trkpt><trkpt lat="-35.64089863129339" lon="144.19824968797693"><ele>82.0</ele><time>2026-05-02T06:43:37Z</time></trkpt><trkpt lat="-35.640929014583314" lon="144.19834493508046"><ele>82.0</ele><time>2026-05-02T06:43:38Z</time></trkpt><trkpt lat="-35.64093316202351" lon="144.19845526864322"><ele>82.0</ele><time>2026-05-02T06:43:39Z</time></trkpt><trkpt lat="-35.64092010449231" lon="144.1986137442413"><ele>82.0</ele><time>2026-05-02T06:43:40Z</time></trkpt><trkpt lat="-35.640892387724044" lon="144.19873559166263"><ele>82.0</ele><time>2026-05-02T06:43:41Z</time></trkpt><trkpt lat="-35.64087165859675" lon="144.19882096788274"><ele>82.0</ele><time>2026-05-02T06:43:42Z</time></trkpt><trkpt lat="-35.64084173519529" lon="144.1989922185674"><ele>82.39999999999999</ele><time>2026-05-02T06:43:44Z</time></trkpt><trkpt lat="-35.640815201474005" lon="144.19911856350342"><ele>82.8</ele><time>2026-05-02T06:43:45Z</time></trkpt><trkpt lat="-35.64078441323789" lon="144.19922543455974"><ele>83.2</ele><time>2026-05-02T06:43:46Z</time></trkpt><trkpt lat="-35.64076516358642" lon="144.1992993096926"><ele>83.6</ele><time>2026-05-02T06:43:47Z</time></trkpt><trkpt lat="-35.64073175035019" lon="144.19946211300103"><ele>84.0</ele><time>2026-05-02T06:43:49Z</time></trkpt><trkpt lat="-35.64071199794846" lon="144.19953956440648"><ele>84.0</ele><time>2026-05-02T06:43:50Z</time></trkpt><trkpt lat="-35.640612213467335" lon="144.19961673259118"><ele>84.0</ele><time>2026-05-02T06:43:52Z</time></trkpt><trkpt lat="-35.640532704271244" lon="144.19968373326068"><ele>84.0</ele><time>2026-05-02T06:43:54Z</time></trkpt><trkpt lat="-35.640487435272114" lon="144.1997590097902"><ele>84.0</ele><time>2026-05-02T06:43:56Z</time></trkpt><trkpt lat="-35.640453894114174" lon="144.19983899697738"><ele>84.0</ele><time>2026-05-02T06:43:58Z</time></trkpt><trkpt lat="-35.640384328942595" lon="144.1999900337332"><ele>84.0</ele><time>2026-05-02T06:44:01Z</time></trkpt><trkpt lat="-35.64032420533218" lon="144.20009396293767"><ele>84.0</ele><time>2026-05-02T06:44:02Z</time></trkpt><trkpt lat="-35.64025413399476" lon="144.20017367094542"><ele>84.0</ele><time>2026-05-02T06:44:03Z</time></trkpt><trkpt lat="-35.64017889868656" lon="144.20018325037844"><ele>84.0</ele><time>2026-05-02T06:44:05Z</time></trkpt><trkpt lat="-35.6401906986721" lon="144.20027531197613"><ele>84.0</ele><time>2026-05-02T06:44:07Z</time></trkpt><trkpt lat="-35.640249926146524" lon="144.20031483449327"><ele>84.0</ele><time>2026-05-02T06:44:08Z</time></trkpt><trkpt lat="-35.64031387167644" lon="144.2003637092247"><ele>84.0</ele><time>2026-05-02T06:44:11Z</time></trkpt><trkpt lat="-35.64034324543944" lon="144.2004679406218"><ele>84.0</ele><time>2026-05-02T06:44:14Z</time></trkpt><trkpt lat="-35.64034324875995" lon="144.20055343596124"><ele>84.0</ele><time>2026-05-02T06:44:16Z</time></trkpt><trkpt lat="-35.640265716764326" lon="144.20058393622753"><ele>84.0</ele><time>2026-05-02T06:44:19Z</time></trkpt><trkpt lat="-35.64020204007583" lon="144.20051945163024"><ele>84.0</ele><time>2026-05-02T06:44:22Z</time></trkpt><trkpt lat="-35.64021750020033" lon="144.2003627773113"><ele>84.2</ele><time>2026-05-02T06:44:24Z</time></trkpt><trkpt lat="-35.6402637461422" lon="144.2002906567231"><ele>84.4</ele><time>2026-05-02T06:44:25Z</time></trkpt><trkpt lat="-35.64028867952086" lon="144.20018145362943"><ele>84.6</ele><time>2026-05-02T06:44:27Z</time></trkpt><trkpt lat="-35.640154322083816" lon="144.20008647123683"><ele>84.8</ele><time>2026-05-02T06:44:29Z</time></trkpt><trkpt lat="-35.640050595398584" lon="144.20002617128762"><ele>85.0</ele><time>2026-05-02T06:44:30Z</time></trkpt><trkpt lat="-35.6399835453772" lon="144.19993549901946"><ele>85.0</ele><time>2026-05-02T06:44:30.999Z</time></trkpt><trkpt lat="-35.63998127610554" lon="144.1998495013508"><ele>85.0</ele><time>2026-05-02T06:44:31.999Z</time></trkpt><trkpt lat="-35.640020113638556" lon="144.19973459036422"><ele>85.0</ele><time>2026-05-02T06:44:32.999Z</time></trkpt><trkpt lat="-35.64011732623018" lon="144.19961082753323"><ele>85.0</ele><time>2026-05-02T06:44:33.999Z</time></trkpt><trkpt lat="-35.640228030068265" lon="144.19954990750128"><ele>85.0</ele><time>2026-05-02T06:44:34.999Z</time></trkpt><trkpt lat="-35.64027172814434" lon="144.1994827594207"><ele>84.6</ele><time>2026-05-02T06:44:35.999Z</time></trkpt><trkpt lat="-35.64025910837378" lon="144.19938672162772"><ele>84.2</ele><time>2026-05-02T06:44:36.999Z</time></trkpt><trkpt lat="-35.64020451999898" lon="144.19927521740965"><ele>83.80000000000001</ele><time>2026-05-02T06:44:37.999Z</time></trkpt><trkpt lat="-35.64010441154183" lon="144.19918176550235"><ele>83.4</ele><time>2026-05-02T06:44:38.999Z</time></trkpt><trkpt lat="-35.63997645705469" lon="144.19913785094798"><ele>83.0</ele><time>2026-05-02T06:44:39.999Z</time></trkpt><trkpt lat="-35.63986772503368" lon="144.19907445130465"><ele>83.0</ele><time>2026-05-02T06:44:40.999Z</time></trkpt><trkpt lat="-35.63978676733469" lon="144.19894745837956"><ele>83.0</ele><time>2026-05-02T06:44:41.999Z</time></trkpt><trkpt lat="-35.639696373696715" lon="144.1987984632872"><ele>83.0</ele><time>2026-05-02T06:44:42.999Z</time></trkpt><trkpt lat="-35.639636817480955" lon="144.19867782067504"><ele>83.0</ele><time>2026-05-02T06:44:43.999Z</time></trkpt><trkpt lat="-35.63959240455969" lon="144.19854321686176"><ele>83.0</ele><time>2026-05-02T06:44:44.999Z</time></trkpt><trkpt lat="-35.63957072129347" lon="144.19839712619185"><ele>83.0</ele><time>2026-05-02T06:44:45.999Z</time></trkpt><trkpt lat="-35.639575497641715" lon="144.19826736291157"><ele>83.0</ele><time>2026-05-02T06:44:46.999Z</time></trkpt><trkpt lat="-35.63958418264224" lon="144.19817593290267"><ele>83.0</ele><time>2026-05-02T06:44:47.999Z</time></trkpt><trkpt lat="-35.63962963230785" lon="144.19811318842218"><ele>83.0</ele><time>2026-05-02T06:44:48.999Z</time></trkpt><trkpt lat="-35.63969197381649" lon="144.1980732176084"><ele>83.0</ele><time>2026-05-02T06:44:49.999Z</time></trkpt><trkpt lat="-35.6397907865623" lon="144.1980631504958"><ele>83.33333333333334</ele><time>2026-05-02T06:44:50.999Z</time></trkpt><trkpt lat="-35.639918340330155" lon="144.1980539873221"><ele>83.66666666666667</ele><time>2026-05-02T06:44:51.999Z</time></trkpt><trkpt lat="-35.64007515812363" lon="144.19803545509444"><ele>84.0</ele><time>2026-05-02T06:44:52.999Z</time></trkpt><trkpt lat="-35.64027466589477" lon="144.19800225262497"><ele>83.5</ele><time>2026-05-02T06:44:53.999Z</time></trkpt><trkpt lat="-35.640424030823304" lon="144.1979728051288"><ele>83.0</ele><time>2026-05-02T06:44:54.999Z</time></trkpt><trkpt lat="-35.640551139132285" lon="144.19793054050933"><ele>82.5</ele><time>2026-05-02T06:44:55.999Z</time></trkpt><trkpt lat="-35.64066078923504" lon="144.1978893489512"><ele>82.0</ele><time>2026-05-02T06:44:56.999Z</time></trkpt><trkpt lat="-35.64073011478133" lon="144.19784087523502"><ele>82.0</ele><time>2026-05-02T06:44:57.999Z</time></trkpt><trkpt lat="-35.640811270150465" lon="144.19783486468614"><ele>82.0</ele><time>2026-05-02T06:44:59.999Z</time></trkpt><trkpt lat="-35.64086642338004" lon="144.19794976590666"><ele>82.0</ele><time>2026-05-02T06:45:01.999Z</time></trkpt><trkpt lat="-35.6409384584217" lon="144.19800838388952"><ele>82.0</ele><time>2026-05-02T06:45:02.999Z</time></trkpt><trkpt lat="-35.641013624947455" lon="144.19807033200004"><ele>82.0</ele><time>2026-05-02T06:45:03.999Z</time></trkpt><trkpt lat="-35.641101769688795" lon="144.19810913636022"><ele>82.0</ele><time>2026-05-02T06:45:05.999Z</time></trkpt><trkpt lat="-35.6412128755001" lon="144.19812173477968"><ele>82.0</ele><time>2026-05-02T06:45:08.999Z</time></trkpt><trkpt lat="-35.64127205910546" lon="144.19815744892975"><ele>82.0</ele><time>2026-05-02T06:45:09.999Z</time></trkpt><trkpt lat="-35.64127175466533" lon="144.19823861147358"><ele>82.0</ele><time>2026-05-02T06:45:12.999Z</time></trkpt><trkpt lat="-35.64127719968989" lon="144.198397444789"><ele>82.0</ele><time>2026-05-02T06:45:14.999Z</time></trkpt><trkpt lat="-35.641318429648656" lon="144.1984729722476"><ele>82.0</ele><time>2026-05-02T06:45:15.999Z</time></trkpt><trkpt lat="-35.641345182213186" lon="144.1985886082065"><ele>82.5</ele><time>2026-05-02T06:45:19Z</time></trkpt><trkpt lat="-35.64133998157169" lon="144.19867001306758"><ele>83.0</ele><time>2026-05-02T06:45:20Z</time></trkpt><trkpt lat="-35.641336907897454" lon="144.19877068517204"><ele>83.5</ele><time>2026-05-02T06:45:21Z</time></trkpt><trkpt lat="-35.641374516860026" lon="144.1988930351947"><ele>84.0</ele><time>2026-05-02T06:45:23Z</time></trkpt><trkpt lat="-35.6414379056853" lon="144.19895881416835"><ele>84.5</ele><time>2026-05-02T06:45:25Z</time></trkpt><trkpt lat="-35.641448251417174" lon="144.19909595190506"><ele>85.0</ele><time>2026-05-02T06:45:29Z</time></trkpt><trkpt lat="-35.64143236241467" lon="144.19918134089554"><ele>85.28571428571429</ele><time>2026-05-02T06:45:30Z</time></trkpt><trkpt lat="-35.641432000519174" lon="144.19926456144717"><ele>85.57142857142857</ele><time>2026-05-02T06:45:31Z</time></trkpt><trkpt lat="-35.64144800718165" lon="144.1993609091491"><ele>85.85714285714286</ele><time>2026-05-02T06:45:32Z</time></trkpt><trkpt lat="-35.64147379087105" lon="144.1994480647627"><ele>86.14285714285714</ele><time>2026-05-02T06:45:33Z</time></trkpt><trkpt lat="-35.64149874205019" lon="144.19953024284743"><ele>86.42857142857143</ele><time>2026-05-02T06:45:34Z</time></trkpt><trkpt lat="-35.64151954407587" lon="144.1996121889021"><ele>86.71428571428571</ele><time>2026-05-02T06:45:35Z</time></trkpt><trkpt lat="-35.641540468910215" lon="144.19971335206375"><ele>87.0</ele><time>2026-05-02T06:45:36Z</time></trkpt><trkpt lat="-35.64161188042547" lon="144.19981787038168"><ele>87.0</ele><time>2026-05-02T06:45:38Z</time></trkpt><trkpt lat="-35.64167375987117" lon="144.1997994119481"><ele>87.0</ele><time>2026-05-02T06:45:40Z</time></trkpt><trkpt lat="-35.64171890467083" lon="144.19971353328322"><ele>87.0</ele><time>2026-05-02T06:45:42Z</time></trkpt><trkpt lat="-35.64183743342847" lon="144.1996891857623"><ele>87.0</ele><time>2026-05-02T06:45:44Z</time></trkpt><trkpt lat="-35.64189301867452" lon="144.1997551533879"><ele>87.0</ele><time>2026-05-02T06:45:46Z</time></trkpt><trkpt lat="-35.64200783371106" lon="144.19977618868282"><ele>86.83333333333333</ele><time>2026-05-02T06:45:49Z</time></trkpt><trkpt lat="-35.642116887158274" lon="144.19969849644008"><ele>86.66666666666667</ele><time>2026-05-02T06:45:51Z</time></trkpt><trkpt lat="-35.642198783146064" lon="144.19970754696644"><ele>86.5</ele><time>2026-05-02T06:45:54Z</time></trkpt><trkpt lat="-35.64226874851805" lon="144.1997424872804"><ele>86.33333333333334</ele><time>2026-05-02T06:45:56Z</time></trkpt><trkpt lat="-35.642343225040015" lon="144.19972565281822"><ele>86.16666666666667</ele><time>2026-05-02T06:45:58Z</time></trkpt><trkpt lat="-35.642410186951565" lon="144.19968341895"><ele>86.0</ele><time>2026-05-02T06:46:00Z</time></trkpt><trkpt lat="-35.64293751525166" lon="144.19968515401578"><ele>85.8</ele><time>2026-05-02T06:46:01Z</time></trkpt><trkpt lat="-35.64303059690611" lon="144.19966541864645"><ele>85.6</ele><time>2026-05-02T06:46:03Z</time></trkpt><trkpt lat="-35.64313335674936" lon="144.1996749815651"><ele>85.4</ele><time>2026-05-02T06:46:05Z</time></trkpt><trkpt lat="-35.643226994224065" lon="144.1996388589241"><ele>85.2</ele><time>2026-05-02T06:46:07Z</time></trkpt><trkpt lat="-35.64332755612498" lon="144.19973118298597"><ele>85.0</ele><time>2026-05-02T06:46:09Z</time></trkpt><trkpt lat="-35.64343429099619" lon="144.199857522911"><ele>85.0</ele><time>2026-05-02T06:46:10Z</time></trkpt><trkpt lat="-35.64352028468354" lon="144.19993232039295"><ele>85.0</ele><time>2026-05-02T06:46:11Z</time></trkpt><trkpt lat="-35.643603973989535" lon="144.2000065896335"><ele>85.0</ele><time>2026-05-02T06:46:12Z</time></trkpt><trkpt lat="-35.6436744887989" lon="144.20007525680361"><ele>85.0</ele><time>2026-05-02T06:46:13Z</time></trkpt><trkpt lat="-35.64374007003078" lon="144.20013190216434"><ele>85.0</ele><time>2026-05-02T06:46:15Z</time></trkpt><trkpt lat="-35.64382863520098" lon="144.2000700858001"><ele>84.4</ele><time>2026-05-02T06:46:16Z</time></trkpt><trkpt lat="-35.64389114840308" lon="144.2000088208606"><ele>83.8</ele><time>2026-05-02T06:46:17Z</time></trkpt><trkpt lat="-35.64398515330053" lon="144.19999050285477"><ele>83.19999999999999</ele><time>2026-05-02T06:46:21Z</time></trkpt><trkpt lat="-35.644047353149546" lon="144.2000789392013"><ele>82.6</ele><time>2026-05-02T06:46:22Z</time></trkpt><trkpt lat="-35.64413000670387" lon="144.20021269619693"><ele>82.0</ele><time>2026-05-02T06:46:23Z</time></trkpt><trkpt lat="-35.6442622479981" lon="144.2003730351617"><ele>82.0</ele><time>2026-05-02T06:46:24Z</time></trkpt><trkpt lat="-35.64438949860321" lon="144.20054307801402"><ele>82.0</ele><time>2026-05-02T06:46:25Z</time></trkpt><trkpt lat="-35.64452704878864" lon="144.2007242050254"><ele>82.0</ele><time>2026-05-02T06:46:26Z</time></trkpt><trkpt lat="-35.644646319759545" lon="144.20090493100025"><ele>81.0</ele><time>2026-05-02T06:46:27Z</time></trkpt><trkpt lat="-35.64473343366658" lon="144.20108224589535"><ele>80.0</ele><time>2026-05-02T06:46:28Z</time></trkpt><trkpt lat="-35.64482433715022" lon="144.2012474447837"><ele>79.0</ele><time>2026-05-02T06:46:29Z</time></trkpt><trkpt lat="-35.64492081092913" lon="144.2013968728863"><ele>80.25</ele><time>2026-05-02T06:46:30Z</time></trkpt><trkpt lat="-35.64500830999323" lon="144.20154778537903"><ele>81.5</ele><time>2026-05-02T06:46:31Z</time></trkpt><trkpt lat="-35.64509200585147" lon="144.20168392402846"><ele>82.75</ele><time>2026-05-02T06:46:32Z</time></trkpt><trkpt lat="-35.6451604223432" lon="144.20183064940304"><ele>84.0</ele><time>2026-05-02T06:46:33Z</time></trkpt><trkpt lat="-35.64522353752718" lon="144.20195440529235"><ele>84.0</ele><time>2026-05-02T06:46:34Z</time></trkpt><trkpt lat="-35.64528160991472" lon="144.20207146556308"><ele>84.0</ele><time>2026-05-02T06:46:35Z</time></trkpt><trkpt lat="-35.64534106461625" lon="144.20216615624614"><ele>84.0</ele><time>2026-05-02T06:46:36Z</time></trkpt><trkpt lat="-35.645397250043295" lon="144.20223347944872"><ele>84.0</ele><time>2026-05-02T06:46:37Z</time></trkpt><trkpt lat="-35.645468635308355" lon="144.20228014071688"><ele>84.0</ele><time>2026-05-02T06:46:37.999Z</time></trkpt><trkpt lat="-35.64555877670798" lon="144.20232120742375"><ele>84.0</ele><time>2026-05-02T06:46:38.999Z</time></trkpt><trkpt lat="-35.64566541014713" lon="144.20235501310958"><ele>84.0</ele><time>2026-05-02T06:46:39.999Z</time></trkpt><trkpt lat="-35.64577322134874" lon="144.20235611827283"><ele>84.0</ele><time>2026-05-02T06:46:40.999Z</time></trkpt><trkpt lat="-35.64589465499838" lon="144.20233856442078"><ele>84.0</ele><time>2026-05-02T06:46:41.999Z</time></trkpt><trkpt lat="-35.646047224491106" lon="144.20230082266966"><ele>83.80000000000001</ele><time>2026-05-02T06:46:42.999Z</time></trkpt><trkpt lat="-35.64616384695402" lon="144.20225954251788"><ele>83.60000000000001</ele><time>2026-05-02T06:46:43.999Z</time></trkpt><trkpt lat="-35.64624329514111" lon="144.20222283362557"><ele>83.4</ele><time>2026-05-02T06:46:44.999Z</time></trkpt><trkpt lat="-35.64631079680826" lon="144.2022011639138"><ele>83.2</ele><time>2026-05-02T06:46:45.999Z</time></trkpt><trkpt lat="-35.64637893804507" lon="144.20219555607912"><ele>83.0</ele><time>2026-05-02T06:46:47.999Z</time></trkpt><trkpt lat="-35.64643344171387" lon="144.20231363717465"><ele>83.33333333333334</ele><time>2026-05-02T06:46:49.999Z</time></trkpt><trkpt lat="-35.64647457858623" lon="144.2024098563429"><ele>83.66666666666667</ele><time>2026-05-02T06:46:50.999Z</time></trkpt><trkpt lat="-35.64651405986055" lon="144.20249676380243"><ele>84.0</ele><time>2026-05-02T06:46:51.999Z</time></trkpt><trkpt lat="-35.64655954660756" lon="144.20258785733716"><ele>84.33333333333333</ele><time>2026-05-02T06:46:52.999Z</time></trkpt><trkpt lat="-35.64660786382399" lon="144.20265485069115"><ele>84.66666666666666</ele><time>2026-05-02T06:46:53.999Z</time></trkpt><trkpt lat="-35.646657265289456" lon="144.20272534215675"><ele>85.0</ele><time>2026-05-02T06:46:54.999Z</time></trkpt><trkpt lat="-35.646702220642226" lon="144.2028059156929"><ele>85.0</ele><time>2026-05-02T06:46:55.999Z</time></trkpt><trkpt lat="-35.64675828363713" lon="144.202881974961"><ele>85.0</ele><time>2026-05-02T06:46:56.999Z</time></trkpt><trkpt lat="-35.646832299401325" lon="144.20294943095087"><ele>85.0</ele><time>2026-05-02T06:46:57.999Z</time></trkpt><trkpt lat="-35.64692565690106" lon="144.20303311292176"><ele>85.0</ele><time>2026-05-02T06:46:58.999Z</time></trkpt><trkpt lat="-35.647033353077994" lon="144.2031709679562"><ele>85.0</ele><time>2026-05-02T06:46:59.999Z</time></trkpt><trkpt lat="-35.64716388252673" lon="144.20335033738368"><ele>86.0</ele><time>2026-05-02T06:47:00.999Z</time></trkpt><trkpt lat="-35.647331155655486" lon="144.20354464641787"><ele>87.0</ele><time>2026-05-02T06:47:01.999Z</time></trkpt><trkpt lat="-35.647511553463566" lon="144.20373769907172"><ele>87.0</ele><time>2026-05-02T06:47:02.999Z</time></trkpt><trkpt lat="-35.64769409686932" lon="144.20394267887121"><ele>87.0</ele><time>2026-05-02T06:47:03.999Z</time></trkpt><trkpt lat="-35.6478699307824" lon="144.20412494622107"><ele>86.33333333333333</ele><time>2026-05-02T06:47:04.999Z</time></trkpt><trkpt lat="-35.64801874555364" lon="144.20427518196811"><ele>85.66666666666666</ele><time>2026-05-02T06:47:05.999Z</time></trkpt><trkpt lat="-35.64815005002915" lon="144.20440377788333"><ele>85.0</ele><time>2026-05-02T06:47:06.999Z</time></trkpt><trkpt lat="-35.64828804988199" lon="144.20450184326447"><ele>85.0</ele><time>2026-05-02T06:47:07.999Z</time></trkpt><trkpt lat="-35.648447263804165" lon="144.2045749869937"><ele>85.0</ele><time>2026-05-02T06:47:08.999Z</time></trkpt><trkpt lat="-35.64861281609148" lon="144.2046201971796"><ele>85.0</ele><time>2026-05-02T06:47:09.999Z</time></trkpt><trkpt lat="-35.64875185037274" lon="144.20464709931593"><ele>85.2</ele><time>2026-05-02T06:47:10.999Z</time></trkpt><trkpt lat="-35.64887407134781" lon="144.20468287536636"><ele>85.4</ele><time>2026-05-02T06:47:11.999Z</time></trkpt><trkpt lat="-35.64896829127175" lon="144.2047121065796"><ele>85.6</ele><time>2026-05-02T06:47:12.999Z</time></trkpt><trkpt lat="-35.649058695306174" lon="144.20475782835317"><ele>85.8</ele><time>2026-05-02T06:47:14.999Z</time></trkpt><trkpt lat="-35.648995915993204" lon="144.20488523784405"><ele>86.0</ele><time>2026-05-02T06:47:17.999Z</time></trkpt><trkpt lat="-35.648978642226915" lon="144.20497009656543"><ele>86.5</ele><time>2026-05-02T06:47:19.999Z</time></trkpt><trkpt lat="-35.64896321444498" lon="144.20505057543863"><ele>87.0</ele><time>2026-05-02T06:47:21.999Z</time></trkpt><trkpt lat="-35.649016654834725" lon="144.20511057372403"><ele>87.5</ele><time>2026-05-02T06:47:25Z</time></trkpt><trkpt lat="-35.64907320070518" lon="144.20515306403504"><ele>88.0</ele><time>2026-05-02T06:47:26Z</time></trkpt><trkpt lat="-35.64915127422482" lon="144.2052233186224"><ele>88.5</ele><time>2026-05-02T06:47:27Z</time></trkpt><trkpt lat="-35.64918939423999" lon="144.20532117248908"><ele>89.0</ele><time>2026-05-02T06:47:28Z</time></trkpt><trkpt lat="-35.64930204759413" lon="144.20538207486007"><ele>88.99999999999999</ele><time>2026-05-02T06:47:30Z</time></trkpt><trkpt lat="-35.649381853208055" lon="144.20534928235367"><ele>89.0</ele><time>2026-05-02T06:47:32Z</time></trkpt><trkpt lat="-35.64938744799634" lon="144.20542805269162"><ele>89.0</ele><time>2026-05-02T06:47:36Z</time></trkpt><trkpt lat="-35.64941948262353" lon="144.2055205867132"><ele>89.0</ele><time>2026-05-02T06:47:38Z</time></trkpt><trkpt lat="-35.649479677405694" lon="144.20559441557876"><ele>89.0</ele><time>2026-05-02T06:47:39Z</time></trkpt><trkpt lat="-35.64950854598882" lon="144.20567289370695"><ele>88.99999999999999</ele><time>2026-05-02T06:47:41Z</time></trkpt><trkpt lat="-35.64953121467743" lon="144.20574663666804"><ele>89.0</ele><time>2026-05-02T06:47:42Z</time></trkpt><trkpt lat="-35.64951898524434" lon="144.20584358351354"><ele>89.66666666666667</ele><time>2026-05-02T06:47:43Z</time></trkpt><trkpt lat="-35.64948821313835" lon="144.20597590388553"><ele>90.33333333333334</ele><time>2026-05-02T06:47:44Z</time></trkpt><trkpt lat="-35.64952094710765" lon="144.20613278770531"><ele>91.0</ele><time>2026-05-02T06:47:46Z</time></trkpt><trkpt lat="-35.64954634055145" lon="144.2062095314823"><ele>91.66666666666667</ele><time>2026-05-02T06:47:47Z</time></trkpt><trkpt lat="-35.64957162081447" lon="144.20628356213567"><ele>92.33333333333333</ele><time>2026-05-02T06:47:49Z</time></trkpt><trkpt lat="-35.649643436255076" lon="144.20629213192453"><ele>93.0</ele><time>2026-05-02T06:47:52Z</time></trkpt><trkpt lat="-35.64971058734207" lon="144.20628769746997"><ele>93.0</ele><time>2026-05-02T06:47:55Z</time></trkpt><trkpt lat="-35.64979304318068" lon="144.20628191863636"><ele>93.0</ele><time>2026-05-02T06:47:57Z</time></trkpt><trkpt lat="-35.64987877575995" lon="144.20633538222333"><ele>93.0</ele><time>2026-05-02T06:48:00Z</time></trkpt><trkpt lat="-35.65034471385751" lon="144.20673345774776"><ele>93.0</ele><time>2026-05-02T06:48:03Z</time></trkpt><trkpt lat="-35.65044215870081" lon="144.20674123631414"><ele>93.0</ele><time>2026-05-02T06:48:04Z</time></trkpt><trkpt lat="-35.650531559736" lon="144.20675612020435"><ele>93.0</ele><time>2026-05-02T06:48:05Z</time></trkpt><trkpt lat="-35.650602777350386" lon="144.20680910997595"><ele>93.0</ele><time>2026-05-02T06:48:06Z</time></trkpt><trkpt lat="-35.650668133785864" lon="144.20684936589475"><ele>93.0</ele><time>2026-05-02T06:48:07Z</time></trkpt><trkpt lat="-35.65076278354367" lon="144.2069211243412"><ele>93.0</ele><time>2026-05-02T06:48:09Z</time></trkpt><trkpt lat="-35.6508085407708" lon="144.20699268805024"><ele>93.0</ele><time>2026-05-02T06:48:10Z</time></trkpt><trkpt lat="-35.6508659197695" lon="144.20709175684786"><ele>93.0</ele><time>2026-05-02T06:48:11Z</time></trkpt><trkpt lat="-35.65092385817863" lon="144.20720785984017"><ele>93.0</ele><time>2026-05-02T06:48:12Z</time></trkpt><trkpt lat="-35.65096949585439" lon="144.20732918615772"><ele>93.0</ele><time>2026-05-02T06:48:13Z</time></trkpt><trkpt lat="-35.65105904258781" lon="144.2074163660463"><ele>92.25</ele><time>2026-05-02T06:48:14Z</time></trkpt><trkpt lat="-35.65117920826809" lon="144.20742504819347"><ele>91.5</ele><time>2026-05-02T06:48:15Z</time></trkpt><trkpt lat="-35.65124000332431" lon="144.2075434124159"><ele>90.75</ele><time>2026-05-02T06:48:16Z</time></trkpt><trkpt lat="-35.65131018859587" lon="144.2076575217813"><ele>90.0</ele><time>2026-05-02T06:48:17Z</time></trkpt><trkpt lat="-35.65139451218782" lon="144.2077450774836"><ele>90.0</ele><time>2026-05-02T06:48:18Z</time></trkpt><trkpt lat="-35.651474003334975" lon="144.20783614922104"><ele>90.0</ele><time>2026-05-02T06:48:19Z</time></trkpt><trkpt lat="-35.65155211600119" lon="144.20791677658167"><ele>90.0</ele><time>2026-05-02T06:48:20Z</time></trkpt><trkpt lat="-35.65163472955389" lon="144.2079320918551"><ele>90.0</ele><time>2026-05-02T06:48:21Z</time></trkpt><trkpt lat="-35.65169652656763" lon="144.20796957454354"><ele>90.0</ele><time>2026-05-02T06:48:22Z</time></trkpt><trkpt lat="-35.651779864172624" lon="144.20805137006874"><ele>90.0</ele><time>2026-05-02T06:48:24Z</time></trkpt><trkpt lat="-35.65180825640876" lon="144.20814073342245"><ele>90.0</ele><time>2026-05-02T06:48:25Z</time></trkpt><trkpt lat="-35.6517715769409" lon="144.2082567869456"><ele>90.0</ele><time>2026-05-02T06:48:26Z</time></trkpt><trkpt lat="-35.65175213183638" lon="144.2083649487466"><ele>90.0</ele><time>2026-05-02T06:48:27Z</time></trkpt><trkpt lat="-35.65173834731505" lon="144.20845954397217"><ele>90.0</ele><time>2026-05-02T06:48:28Z</time></trkpt><trkpt lat="-35.65182479833514" lon="144.20859344768837"><ele>90.0</ele><time>2026-05-02T06:48:30Z</time></trkpt><trkpt lat="-35.6518819753358" lon="144.20871328692564"><ele>90.0</ele><time>2026-05-02T06:48:31Z</time></trkpt><trkpt lat="-35.65192445808268" lon="144.20880915318682"><ele>90.0</ele><time>2026-05-02T06:48:32Z</time></trkpt><trkpt lat="-35.65193846116669" lon="144.20892166233227"><ele>90.0</ele><time>2026-05-02T06:48:33Z</time></trkpt><trkpt lat="-35.65193755817921" lon="144.20905562326777"><ele>90.0</ele><time>2026-05-02T06:48:34Z</time></trkpt><trkpt lat="-35.651904656073576" lon="144.20915612243343"><ele>90.0</ele><time>2026-05-02T06:48:35Z</time></trkpt><trkpt lat="-35.65187220423354" lon="144.20924371246943"><ele>90.0</ele><time>2026-05-02T06:48:35.999Z</time></trkpt><trkpt lat="-35.651950357547356" lon="144.20935204847112"><ele>90.0</ele><time>2026-05-02T06:48:37.999Z</time></trkpt><trkpt lat="-35.65201600985715" lon="144.2094347527988"><ele>90.0</ele><time>2026-05-02T06:48:38.999Z</time></trkpt><trkpt lat="-35.65208408960491" lon="144.20952384845663"><ele>90.0</ele><time>2026-05-02T06:48:39.999Z</time></trkpt><trkpt lat="-35.6521438081489" lon="144.20963398126474"><ele>90.0</ele><time>2026-05-02T06:48:40.999Z</time></trkpt><trkpt lat="-35.652182653472366" lon="144.2097076696638"><ele>90.0</ele><time>2026-05-02T06:48:41.999Z</time></trkpt><trkpt lat="-35.65225654168447" lon="144.20978464996654"><ele>90.0</ele><time>2026-05-02T06:48:43.999Z</time></trkpt><trkpt lat="-35.65233542777644" lon="144.20984711083375"><ele>90.0</ele><time>2026-05-02T06:48:46.999Z</time></trkpt><trkpt lat="-35.65242087931991" lon="144.20983402575678"><ele>90.0</ele><time>2026-05-02T06:48:50.999Z</time></trkpt><trkpt lat="-35.65249074285393" lon="144.20987938786476"><ele>90.0</ele><time>2026-05-02T06:48:53.999Z</time></trkpt><trkpt lat="-35.65253945147225" lon="144.2098230168894"><ele>90.0</ele><time>2026-05-02T06:48:55.999Z</time></trkpt><trkpt lat="-35.65259257768732" lon="144.20988308656806"><ele>90.0</ele><time>2026-05-02T06:48:57.999Z</time></trkpt><trkpt lat="-35.65267189114416" lon="144.20985826497082"><ele>90.0</ele><time>2026-05-02T06:49:00.999Z</time></trkpt><trkpt lat="-35.65276299045771" lon="144.20984678588277"><ele>90.0</ele><time>2026-05-02T06:49:04.999Z</time></trkpt><trkpt lat="-35.652821172896864" lon="144.20988953011042"><ele>90.0</ele><time>2026-05-02T06:49:07.999Z</time></trkpt><trkpt lat="-35.65372354872605" lon="144.21001336722395"><ele>90.25</ele><time>2026-05-02T06:49:10.999Z</time></trkpt><trkpt lat="-35.65387507843131" lon="144.209796578989"><ele>90.5</ele><time>2026-05-02T06:49:11.999Z</time></trkpt><trkpt lat="-35.653957947221095" lon="144.20974480977858"><ele>90.75</ele><time>2026-05-02T06:49:12.999Z</time></trkpt><trkpt lat="-35.654031883414795" lon="144.20972895424705"><ele>91.0</ele><time>2026-05-02T06:49:13.999Z</time></trkpt><trkpt lat="-35.65409010799067" lon="144.20990329840635"><ele>91.0</ele><time>2026-05-02T06:49:14.999Z</time></trkpt><trkpt lat="-35.65415881586426" lon="144.20991524344603"><ele>91.0</ele><time>2026-05-02T06:49:15.999Z</time></trkpt><trkpt lat="-35.65426118117683" lon="144.20981458395505"><ele>91.0</ele><time>2026-05-02T06:49:17.999Z</time></trkpt><trkpt lat="-35.65431102763009" lon="144.20976662811705"><ele>91.0</ele><time>2026-05-02T06:49:18.999Z</time></trkpt><trkpt lat="-35.65438965179138" lon="144.2097513700592"><ele>91.0</ele><time>2026-05-02T06:49:19.999Z</time></trkpt><trkpt lat="-35.65452908052495" lon="144.20976023902267"><ele>90.6</ele><time>2026-05-02T06:49:20.999Z</time></trkpt><trkpt lat="-35.65465380569521" lon="144.20966235714386"><ele>90.19999999999999</ele><time>2026-05-02T06:49:21.999Z</time></trkpt><trkpt lat="-35.65472684245614" lon="144.2096056580868"><ele>89.80000000000001</ele><time>2026-05-02T06:49:22.999Z</time></trkpt><trkpt lat="-35.65478794081883" lon="144.20965248047176"><ele>89.4</ele><time>2026-05-02T06:49:23.999Z</time></trkpt><trkpt lat="-35.65487318193812" lon="144.20972016800337"><ele>89.0</ele><time>2026-05-02T06:49:24.999Z</time></trkpt><trkpt lat="-35.655013904579135" lon="144.20977698425443"><ele>89.0</ele><time>2026-05-02T06:49:25.999Z</time></trkpt><trkpt lat="-35.65517445418235" lon="144.2097660738308"><ele>89.0</ele><time>2026-05-02T06:49:26.999Z</time></trkpt><trkpt lat="-35.655275557441314" lon="144.20976523745117"><ele>89.0</ele><time>2026-05-02T06:49:27.999Z</time></trkpt><trkpt lat="-35.655386925369754" lon="144.20970155266596"><ele>89.0</ele><time>2026-05-02T06:49:28.999Z</time></trkpt><trkpt lat="-35.65552209361967" lon="144.20964174356814"><ele>88.80000000000001</ele><time>2026-05-02T06:49:30Z</time></trkpt><trkpt lat="-35.65560905721055" lon="144.20962642182292"><ele>88.60000000000001</ele><time>2026-05-02T06:49:31Z</time></trkpt><trkpt lat="-35.655703775417926" lon="144.209600499151"><ele>88.4</ele><time>2026-05-02T06:49:32Z</time></trkpt><trkpt lat="-35.65578716091593" lon="144.20956117258712"><ele>88.2</ele><time>2026-05-02T06:49:33Z</time></trkpt><trkpt lat="-35.65587244265982" lon="144.2096651387914"><ele>88.0</ele><time>2026-05-02T06:49:38Z</time></trkpt><trkpt lat="-35.65591567209683" lon="144.20972537167125"><ele>88.0</ele><time>2026-05-02T06:49:39Z</time></trkpt><trkpt lat="-35.656018228850805" lon="144.2098172037565"><ele>88.0</ele><time>2026-05-02T06:49:41Z</time></trkpt><trkpt lat="-35.656106319876805" lon="144.2098325829624"><ele>88.0</ele><time>2026-05-02T06:49:42Z</time></trkpt><trkpt lat="-35.65620174131585" lon="144.2098323336734"><ele>88.0</ele><time>2026-05-02T06:49:43Z</time></trkpt><trkpt lat="-35.656276964342624" lon="144.20981222126815"><ele>88.0</ele><time>2026-05-02T06:49:44Z</time></trkpt><trkpt lat="-35.65632480353032" lon="144.20975005242212"><ele>87.4</ele><time>2026-05-02T06:49:45Z</time></trkpt><trkpt lat="-35.656310592359176" lon="144.20967310822198"><ele>86.80000000000001</ele><time>2026-05-02T06:49:46Z</time></trkpt><trkpt lat="-35.65626762461018" lon="144.20958517396133"><ele>86.2</ele><time>2026-05-02T06:49:48Z</time></trkpt><trkpt lat="-35.65626666818973" lon="144.20949761101284"><ele>85.6</ele><time>2026-05-02T06:49:50Z</time></trkpt><trkpt lat="-35.65628400552314" lon="144.20927594065844"><ele>85.0</ele><time>2026-05-02T06:49:52Z</time></trkpt><trkpt lat="-35.65625319738042" lon="144.2090370539506"><ele>85.33333333333333</ele><time>2026-05-02T06:49:53Z</time></trkpt><trkpt lat="-35.656238187098765" lon="144.2089265863228"><ele>85.66666666666666</ele><time>2026-05-02T06:49:54Z</time></trkpt><trkpt lat="-35.65625465456304" lon="144.208824098206"><ele>86.0</ele><time>2026-05-02T06:49:55Z</time></trkpt><trkpt lat="-35.65630991349562" lon="144.2087317988846"><ele>86.33333333333333</ele><time>2026-05-02T06:49:56Z</time></trkpt><trkpt lat="-35.656336784177476" lon="144.20865258321749"><ele>86.66666666666667</ele><time>2026-05-02T06:49:57Z</time></trkpt><trkpt lat="-35.65640428331208" lon="144.20861557423868"><ele>87.0</ele><time>2026-05-02T06:49:59Z</time></trkpt><trkpt lat="-35.65645826751907" lon="144.2084452966798"><ele>87.0</ele><time>2026-05-02T06:50:01Z</time></trkpt><trkpt lat="-35.656485651010705" lon="144.20827798682447"><ele>87.0</ele><time>2026-05-02T06:50:02Z</time></trkpt><trkpt lat="-35.656528514215985" lon="144.20815723289866"><ele>87.0</ele><time>2026-05-02T06:50:03Z</time></trkpt><trkpt lat="-35.656566117915354" lon="144.20804512265983"><ele>87.0</ele><time>2026-05-02T06:50:04Z</time></trkpt><trkpt lat="-35.65652229306295" lon="144.20795206429207"><ele>87.0</ele><time>2026-05-02T06:50:05Z</time></trkpt><trkpt lat="-35.65636200699318" lon="144.20787355952146"><ele>86.6</ele><time>2026-05-02T06:50:07Z</time></trkpt><trkpt lat="-35.65629496461094" lon="144.20773951488363"><ele>86.19999999999999</ele><time>2026-05-02T06:50:09Z</time></trkpt><trkpt lat="-35.65626032478723" lon="144.20764351971076"><ele>85.8</ele><time>2026-05-02T06:50:10Z</time></trkpt><trkpt lat="-35.656219461211755" lon="144.20756148878183"><ele>85.4</ele><time>2026-05-02T06:50:11Z</time></trkpt><trkpt lat="-35.656218059322555" lon="144.20742367665608"><ele>85.0</ele><time>2026-05-02T06:50:13Z</time></trkpt><trkpt lat="-35.65613617866502" lon="144.20733413644808"><ele>85.4</ele><time>2026-05-02T06:50:14Z</time></trkpt><trkpt lat="-35.65600616371889" lon="144.20728553079545"><ele>85.8</ele><time>2026-05-02T06:50:15Z</time></trkpt><trkpt lat="-35.655941688068026" lon="144.2072431087847"><ele>86.19999999999999</ele><time>2026-05-02T06:50:16Z</time></trkpt><trkpt lat="-35.65585993651184" lon="144.20729294022047"><ele>86.6</ele><time>2026-05-02T06:50:18Z</time></trkpt><trkpt lat="-35.65577120246849" lon="144.20725253078027"><ele>87.0</ele><time>2026-05-02T06:50:20Z</time></trkpt><trkpt lat="-35.655711080951654" lon="144.20716941975527"><ele>87.0</ele><time>2026-05-02T06:50:21Z</time></trkpt><trkpt lat="-35.655657556805714" lon="144.207032413156"><ele>87.0</ele><time>2026-05-02T06:50:22Z</time></trkpt><trkpt lat="-35.655609753247674" lon="144.20695651295037"><ele>87.0</ele><time>2026-05-02T06:50:23Z</time></trkpt><trkpt lat="-35.65557289097203" lon="144.20685895407547"><ele>87.0</ele><time>2026-05-02T06:50:24Z</time></trkpt><trkpt lat="-35.655590724490594" lon="144.20674828993182"><ele>87.0</ele><time>2026-05-02T06:50:25Z</time></trkpt><trkpt lat="-35.65559303793478" lon="144.2066015312857"><ele>87.0</ele><time>2026-05-02T06:50:26Z</time></trkpt><trkpt lat="-35.65557520419897" lon="144.20650212811805"><ele>87.0</ele><time>2026-05-02T06:50:27Z</time></trkpt><trkpt lat="-35.65548666682676" lon="144.20646552317035"><ele>87.0</ele><time>2026-05-02T06:50:29Z</time></trkpt><trkpt lat="-35.65543281794552" lon="144.20641209616377"><ele>87.0</ele><time>2026-05-02T06:50:31Z</time></trkpt><trkpt lat="-35.655461745278856" lon="144.20623054517503"><ele>87.0</ele><time>2026-05-02T06:50:33Z</time></trkpt><trkpt lat="-35.65552464286768" lon="144.2061648768673"><ele>86.8</ele><time>2026-05-02T06:50:34Z</time></trkpt><trkpt lat="-35.655598516841856" lon="144.20612326582116"><ele>86.6</ele><time>2026-05-02T06:50:35Z</time></trkpt><trkpt lat="-35.655745832739" lon="144.2060885661276"><ele>86.39999999999999</ele><time>2026-05-02T06:50:36Z</time></trkpt><trkpt lat="-35.655858715146934" lon="144.20607096251626"><ele>86.19999999999999</ele><time>2026-05-02T06:50:37Z</time></trkpt><trkpt lat="-35.655934524623056" lon="144.20611394543045"><ele>86.0</ele><time>2026-05-02T06:50:39Z</time></trkpt><trkpt lat="-35.6560056739964" lon="144.2061737397486"><ele>86.0</ele><time>2026-05-02T06:50:40Z</time></trkpt><trkpt lat="-35.65610401678017" lon="144.20623614059568"><ele>86.0</ele><time>2026-05-02T06:50:41Z</time></trkpt><trkpt lat="-35.65620881331374" lon="144.20629273042226"><ele>86.0</ele><time>2026-05-02T06:50:42Z</time></trkpt><trkpt lat="-35.65628786099965" lon="144.20640224770224"><ele>86.0</ele><time>2026-05-02T06:50:43Z</time></trkpt><trkpt lat="-35.6563448535481" lon="144.2065056443863"><ele>86.0</ele><time>2026-05-02T06:50:44Z</time></trkpt><trkpt lat="-35.65642133545023" lon="144.20657069137462"><ele>85.75</ele><time>2026-05-02T06:50:45Z</time></trkpt><trkpt lat="-35.65653009104525" lon="144.20657801396416"><ele>85.5</ele><time>2026-05-02T06:50:46Z</time></trkpt><trkpt lat="-35.65662608687005" lon="144.20661271518262"><ele>85.25</ele><time>2026-05-02T06:50:47Z</time></trkpt><trkpt lat="-35.656716352740915" lon="144.20671744047135"><ele>85.0</ele><time>2026-05-02T06:50:47.999Z</time></trkpt><trkpt lat="-35.65680307770586" lon="144.20682695431725"><ele>85.0</ele><time>2026-05-02T06:50:48.999Z</time></trkpt><trkpt lat="-35.65688208782735" lon="144.2068729982231"><ele>85.0</ele><time>2026-05-02T06:50:49.999Z</time></trkpt><trkpt lat="-35.656952719002476" lon="144.2069238752283"><ele>85.0</ele><time>2026-05-02T06:50:50.999Z</time></trkpt><trkpt lat="-35.65698336192459" lon="144.20701455535425"><ele>85.0</ele><time>2026-05-02T06:50:51.999Z</time></trkpt><trkpt lat="-35.65698923001459" lon="144.2071690433636"><ele>85.0</ele><time>2026-05-02T06:50:52.999Z</time></trkpt><trkpt lat="-35.65697567797884" lon="144.2073255961988"><ele>85.0</ele><time>2026-05-02T06:50:53.999Z</time></trkpt><trkpt lat="-35.65696151258959" lon="144.20752361780822"><ele>85.0</ele><time>2026-05-02T06:50:54.999Z</time></trkpt><trkpt lat="-35.65694092847451" lon="144.20767585250243"><ele>85.0</ele><time>2026-05-02T06:50:55.999Z</time></trkpt><trkpt lat="-35.65692550566648" lon="144.20784350990348"><ele>85.0</ele><time>2026-05-02T06:50:56.999Z</time></trkpt><trkpt lat="-35.6569001032828" lon="144.20802374647593"><ele>85.5</ele><time>2026-05-02T06:50:57.999Z</time></trkpt><trkpt lat="-35.656866862471155" lon="144.20820550926797"><ele>86.0</ele><time>2026-05-02T06:50:58.999Z</time></trkpt><trkpt lat="-35.65684268579385" lon="144.20835075366995"><ele>86.5</ele><time>2026-05-02T06:50:59.999Z</time></trkpt><trkpt lat="-35.65680355341762" lon="144.20848534803287"><ele>87.0</ele><time>2026-05-02T06:51:00.999Z</time></trkpt><trkpt lat="-35.65674575210605" lon="144.20862184420494"><ele>87.0</ele><time>2026-05-02T06:51:01.999Z</time></trkpt><trkpt lat="-35.65669001214953" lon="144.20874475551574"><ele>87.0</ele><time>2026-05-02T06:51:02.999Z</time></trkpt><trkpt lat="-35.65665451094377" lon="144.20887196167195"><ele>87.0</ele><time>2026-05-02T06:51:03.999Z</time></trkpt><trkpt lat="-35.656645510052094" lon="144.20898692195925"><ele>87.0</ele><time>2026-05-02T06:51:04.999Z</time></trkpt><trkpt lat="-35.65663987026763" lon="144.2091272635125"><ele>87.0</ele><time>2026-05-02T06:51:05.999Z</time></trkpt><trkpt lat="-35.656644999280395" lon="144.20926155759844"><ele>87.0</ele><time>2026-05-02T06:51:06.999Z</time></trkpt><trkpt lat="-35.65667059442991" lon="144.20934266781683"><ele>87.0</ele><time>2026-05-02T06:51:07.999Z</time></trkpt><trkpt lat="-35.65676515047168" lon="144.20936233643224"><ele>87.0</ele><time>2026-05-02T06:51:09.999Z</time></trkpt><trkpt lat="-35.65684164692696" lon="144.20934500239503"><ele>87.0</ele><time>2026-05-02T06:51:10.999Z</time></trkpt><trkpt lat="-35.656931424476994" lon="144.20931742411207"><ele>87.0</ele><time>2026-05-02T06:51:11.999Z</time></trkpt><trkpt lat="-35.6570282473851" lon="144.2092486157458"><ele>87.0</ele><time>2026-05-02T06:51:12.999Z</time></trkpt><trkpt lat="-35.65710187017823" lon="144.20913475572965"><ele>87.0</ele><time>2026-05-02T06:51:13.999Z</time></trkpt><trkpt lat="-35.65719997109722" lon="144.2090125891661"><ele>87.0</ele><time>2026-05-02T06:51:14.999Z</time></trkpt><trkpt lat="-35.657275338819765" lon="144.20894851288148"><ele>87.0</ele><time>2026-05-02T06:51:15.999Z</time></trkpt><trkpt lat="-35.65737521798869" lon="144.2090347205169"><ele>87.0</ele><time>2026-05-02T06:51:17.999Z</time></trkpt><trkpt lat="-35.657404217810054" lon="144.20912989685644"><ele>87.0</ele><time>2026-05-02T06:51:18.999Z</time></trkpt><trkpt lat="-35.65746261188707" lon="144.20921369157415"><ele>87.0</ele><time>2026-05-02T06:51:19.999Z</time></trkpt><trkpt lat="-35.65755549436969" lon="144.2091741974502"><ele>87.0</ele><time>2026-05-02T06:51:20.999Z</time></trkpt><trkpt lat="-35.6576376698776" lon="144.20913189380232"><ele>87.0</ele><time>2026-05-02T06:51:21.999Z</time></trkpt><trkpt lat="-35.65770122713268" lon="144.20917299784603"><ele>87.0</ele><time>2026-05-02T06:51:22.999Z</time></trkpt><trkpt lat="-35.65780317443524" lon="144.20924787583766"><ele>87.0</ele><time>2026-05-02T06:51:23.999Z</time></trkpt><trkpt lat="-35.65791261644828" lon="144.20931472195804"><ele>87.19999999999999</ele><time>2026-05-02T06:51:24.999Z</time></trkpt><trkpt lat="-35.65799465955439" lon="144.209374247472"><ele>87.4</ele><time>2026-05-02T06:51:25.999Z</time></trkpt><trkpt lat="-35.658041544114134" lon="144.2094772309822"><ele>87.6</ele><time>2026-05-02T06:51:26.999Z</time></trkpt><trkpt lat="-35.65808274599315" lon="144.20961476772786"><ele>87.80000000000001</ele><time>2026-05-02T06:51:27.999Z</time></trkpt><trkpt lat="-35.65812159944288" lon="144.209753265621"><ele>88.0</ele><time>2026-05-02T06:51:28.999Z</time></trkpt><trkpt lat="-35.65812438033872" lon="144.20986892205116"><ele>88.0</ele><time>2026-05-02T06:51:29.999Z</time></trkpt><trkpt lat="-35.658118877027114" lon="144.2099680623085"><ele>88.0</ele><time>2026-05-02T06:51:30.999Z</time></trkpt><trkpt lat="-35.658153882469264" lon="144.2100856699012"><ele>88.0</ele><time>2026-05-02T06:51:31.999Z</time></trkpt><trkpt lat="-35.65818492551198" lon="144.2102084230541"><ele>88.0</ele><time>2026-05-02T06:51:32.999Z</time></trkpt><trkpt lat="-35.65817973086338" lon="144.21032919227827"><ele>88.0</ele><time>2026-05-02T06:51:33.999Z</time></trkpt><trkpt lat="-35.65815099047894" lon="144.21043832950187"><ele>88.0</ele><time>2026-05-02T06:51:34.999Z</time></trkpt><trkpt lat="-35.6581064126571" lon="144.2105229305264"><ele>88.0</ele><time>2026-05-02T06:51:36Z</time></trkpt><trkpt lat="-35.65799810237115" lon="144.21057797398953"><ele>88.0</ele><time>2026-05-02T06:51:38Z</time></trkpt><trkpt lat="-35.65793171453476" lon="144.21054248893518"><ele>88.0</ele><time>2026-05-02T06:51:39Z</time></trkpt><trkpt lat="-35.6578722942769" lon="144.21042306139844"><ele>88.0</ele><time>2026-05-02T06:51:40Z</time></trkpt><trkpt lat="-35.657797565382076" lon="144.2103023047525"><ele>87.83333333333333</ele><time>2026-05-02T06:51:41Z</time></trkpt><trkpt lat="-35.65774282677997" lon="144.21026307827398"><ele>87.66666666666666</ele><time>2026-05-02T06:51:42Z</time></trkpt><trkpt lat="-35.65768268271572" lon="144.21029036562362"><ele>87.5</ele><time>2026-05-02T06:51:43Z</time></trkpt><trkpt lat="-35.657616212471915" lon="144.21037185491227"><ele>87.33333333333333</ele><time>2026-05-02T06:51:44Z</time></trkpt><trkpt lat="-35.6575238626696" lon="144.210387317768"><ele>87.16666666666667</ele><time>2026-05-02T06:51:45Z</time></trkpt><trkpt lat="-35.65740101488598" lon="144.21039984694718"><ele>87.0</ele><time>2026-05-02T06:51:46Z</time></trkpt><trkpt lat="-35.657287701542586" lon="144.21044297368704"><ele>87.0</ele><time>2026-05-02T06:51:47Z</time></trkpt><trkpt lat="-35.65722249916016" lon="144.21048725098734"><ele>87.0</ele><time>2026-05-02T06:51:48Z</time></trkpt><trkpt lat="-35.65716634186949" lon="144.2103974921512"><ele>87.0</ele><time>2026-05-02T06:51:50Z</time></trkpt><trkpt lat="-35.65709155369568" lon="144.2103423703785"><ele>87.0</ele><time>2026-05-02T06:51:52Z</time></trkpt><trkpt lat="-35.65693550588157" lon="144.21032318994136"><ele>87.0</ele><time>2026-05-02T06:51:54Z</time></trkpt><trkpt lat="-35.656720447826544" lon="144.21032160157418"><ele>86.25</ele><time>2026-05-02T06:51:55Z</time></trkpt><trkpt lat="-35.65654666798154" lon="144.21028654075988"><ele>85.5</ele><time>2026-05-02T06:51:56Z</time></trkpt><trkpt lat="-35.656436114837646" lon="144.210276360388"><ele>84.75</ele><time>2026-05-02T06:51:57Z</time></trkpt><trkpt lat="-35.65631168108445" lon="144.21023993067706"><ele>84.0</ele><time>2026-05-02T06:51:58Z</time></trkpt><trkpt lat="-35.6561851348846" lon="144.21020949528284"><ele>84.75</ele><time>2026-05-02T06:51:59Z</time></trkpt><trkpt lat="-35.656059674505144" lon="144.21018041551395"><ele>85.5</ele><time>2026-05-02T06:52:00Z</time></trkpt><trkpt lat="-35.65594318777648" lon="144.2101497895896"><ele>86.25</ele><time>2026-05-02T06:52:01Z</time></trkpt><trkpt lat="-35.65583664250729" lon="144.21014254925598"><ele>87.0</ele><time>2026-05-02T06:52:02Z</time></trkpt><trkpt lat="-35.655724427172245" lon="144.21011449888542"><ele>87.0</ele><time>2026-05-02T06:52:03Z</time></trkpt><trkpt lat="-35.65561333154317" lon="144.21006709699594"><ele>87.0</ele><time>2026-05-02T06:52:04Z</time></trkpt><trkpt lat="-35.65551532168743" lon="144.21003028890073"><ele>87.0</ele><time>2026-05-02T06:52:05Z</time></trkpt><trkpt lat="-35.65541116069272" lon="144.21001645388898"><ele>87.0</ele><time>2026-05-02T06:52:06Z</time></trkpt><trkpt lat="-35.65529918940382" lon="144.21003116046938"><ele>87.0</ele><time>2026-05-02T06:52:07Z</time></trkpt><trkpt lat="-35.65521024535241" lon="144.21002708078916"><ele>87.0</ele><time>2026-05-02T06:52:08Z</time></trkpt><trkpt lat="-35.65514818384899" lon="144.2099443374436"><ele>87.0</ele><time>2026-05-02T06:52:09Z</time></trkpt><trkpt lat="-35.65505912612371" lon="144.20990884471604"><ele>87.0</ele><time>2026-05-02T06:52:10Z</time></trkpt><trkpt lat="-35.65500714017998" lon="144.20986048543355"><ele>87.0</ele><time>2026-05-02T06:52:11Z</time></trkpt><trkpt lat="-35.6549780472856" lon="144.20993626088762"><ele>87.0</ele><time>2026-05-02T06:52:12Z</time></trkpt><trkpt lat="-35.654905187689614" lon="144.21008422419192"><ele>87.0</ele><time>2026-05-02T06:52:14Z</time></trkpt><trkpt lat="-35.6548542764398" lon="144.21015067055328"><ele>87.0</ele><time>2026-05-02T06:52:15Z</time></trkpt><trkpt lat="-35.65482910987236" lon="144.21024864986722"><ele>87.0</ele><time>2026-05-02T06:52:16Z</time></trkpt><trkpt lat="-35.654787686299656" lon="144.21031915488095"><ele>87.0</ele><time>2026-05-02T06:52:17Z</time></trkpt><trkpt lat="-35.6547316672287" lon="144.21036340994738"><ele>87.0</ele><time>2026-05-02T06:52:18Z</time></trkpt><trkpt lat="-35.65465846101359" lon="144.21037880911516"><ele>87.0</ele><time>2026-05-02T06:52:19Z</time></trkpt><trkpt lat="-35.65455700143382" lon="144.21036335993958"><ele>88.25</ele><time>2026-05-02T06:52:20Z</time></trkpt><trkpt lat="-35.65444864711453" lon="144.21026023515773"><ele>89.5</ele><time>2026-05-02T06:52:21Z</time></trkpt><trkpt lat="-35.65433799063699" lon="144.2102722218461"><ele>90.75</ele><time>2026-05-02T06:52:22Z</time></trkpt><trkpt lat="-35.65422967298351" lon="144.21030756072525"><ele>92.0</ele><time>2026-05-02T06:52:23Z</time></trkpt><trkpt lat="-35.65413008939839" lon="144.2103090532131"><ele>92.0</ele><time>2026-05-02T06:52:24Z</time></trkpt><trkpt lat="-35.65404924562559" lon="144.21029020505944"><ele>92.0</ele><time>2026-05-02T06:52:25Z</time></trkpt><trkpt lat="-35.65397471028747" lon="144.21033950006046"><ele>92.0</ele><time>2026-05-02T06:52:26Z</time></trkpt><trkpt lat="-35.653891430330674" lon="144.21039470265157"><ele>92.0</ele><time>2026-05-02T06:52:27Z</time></trkpt><trkpt lat="-35.653909628264536" lon="144.21050478377396"><ele>92.0</ele><time>2026-05-02T06:52:29Z</time></trkpt><trkpt lat="-35.65395084636147" lon="144.2105814499586"><ele>92.0</ele><time>2026-05-02T06:52:30Z</time></trkpt><trkpt lat="-35.65400286886154" lon="144.21069269336925"><ele>92.0</ele><time>2026-05-02T06:52:31Z</time></trkpt><trkpt lat="-35.65403814731137" lon="144.21083398560577"><ele>92.0</ele><time>2026-05-02T06:52:32Z</time></trkpt><trkpt lat="-35.654082276762495" lon="144.210956567536"><ele>92.0</ele><time>2026-05-02T06:52:33Z</time></trkpt><trkpt lat="-35.6541436783898" lon="144.21106195777568"><ele>92.0</ele><time>2026-05-02T06:52:34Z</time></trkpt><trkpt lat="-35.65417930890485" lon="144.2111701844231"><ele>92.0</ele><time>2026-05-02T06:52:35Z</time></trkpt><trkpt lat="-35.654202546526" lon="144.21126009916455"><ele>92.0</ele><time>2026-05-02T06:52:36Z</time></trkpt><trkpt lat="-35.654312019284106" lon="144.21128572736868"><ele>92.0</ele><time>2026-05-02T06:52:38Z</time></trkpt><trkpt lat="-35.654414224821856" lon="144.211338202889"><ele>92.0</ele><time>2026-05-02T06:52:41Z</time></trkpt><trkpt lat="-35.6544791872977" lon="144.21134734790695"><ele>92.0</ele><time>2026-05-02T06:52:42Z</time></trkpt><trkpt lat="-35.654561625281225" lon="144.21135054634877"><ele>92.0</ele><time>2026-05-02T06:52:43Z</time></trkpt><trkpt lat="-35.65466730106274" lon="144.21134914268464"><ele>91.6</ele><time>2026-05-02T06:52:44Z</time></trkpt><trkpt lat="-35.654771941620716" lon="144.21137514751746"><ele>91.19999999999999</ele><time>2026-05-02T06:52:45Z</time></trkpt><trkpt lat="-35.654860273321496" lon="144.21143160384773"><ele>90.8</ele><time>2026-05-02T06:52:46Z</time></trkpt><trkpt lat="-35.654885412733144" lon="144.21152030884787"><ele>90.4</ele><time>2026-05-02T06:52:48Z</time></trkpt><trkpt lat="-35.654947984905085" lon="144.21162243936843"><ele>90.0</ele><time>2026-05-02T06:52:52Z</time></trkpt><trkpt lat="-35.65494327530685" lon="144.2117072352011"><ele>90.0</ele><time>2026-05-02T06:52:54Z</time></trkpt><trkpt lat="-35.654985771545874" lon="144.21177429528748"><ele>90.0</ele><time>2026-05-02T06:52:55Z</time></trkpt><trkpt lat="-35.65511291209267" lon="144.2118222093839"><ele>90.0</ele><time>2026-05-02T06:52:56Z</time></trkpt><trkpt lat="-35.655253018847986" lon="144.21183877536185"><ele>90.0</ele><time>2026-05-02T06:52:56.999Z</time></trkpt><trkpt lat="-35.655339832796386" lon="144.2118482961296"><ele>90.0</ele><time>2026-05-02T06:52:57.999Z</time></trkpt><trkpt lat="-35.65542659567462" lon="144.21183546039188"><ele>89.2</ele><time>2026-05-02T06:52:58.999Z</time></trkpt><trkpt lat="-35.65550041094242" lon="144.21184526332863"><ele>88.4</ele><time>2026-05-02T06:52:59.999Z</time></trkpt><trkpt lat="-35.6555973678403" lon="144.2117694875749"><ele>87.6</ele><time>2026-05-02T06:53:00.999Z</time></trkpt><trkpt lat="-35.65566771310373" lon="144.2116612893701"><ele>86.8</ele><time>2026-05-02T06:53:01.999Z</time></trkpt><trkpt lat="-35.65574918965144" lon="144.21160744968185"><ele>86.0</ele><time>2026-05-02T06:53:02.999Z</time></trkpt><trkpt lat="-35.655823614241385" lon="144.21162967870652"><ele>86.0</ele><time>2026-05-02T06:53:03.999Z</time></trkpt><trkpt lat="-35.65589254297288" lon="144.21168813189962"><ele>86.0</ele><time>2026-05-02T06:53:04.999Z</time></trkpt><trkpt lat="-35.65600586029939" lon="144.21180020545154"><ele>86.0</ele><time>2026-05-02T06:53:05.999Z</time></trkpt><trkpt lat="-35.65609028576956" lon="144.21190893865142"><ele>86.0</ele><time>2026-05-02T06:53:06.999Z</time></trkpt><trkpt lat="-35.65616683427109" lon="144.212024646069"><ele>85.8</ele><time>2026-05-02T06:53:07.999Z</time></trkpt><trkpt lat="-35.656258058318926" lon="144.2121164482877"><ele>85.6</ele><time>2026-05-02T06:53:08.999Z</time></trkpt><trkpt lat="-35.65634618610706" lon="144.21218489923686"><ele>85.4</ele><time>2026-05-02T06:53:09.999Z</time></trkpt><trkpt lat="-35.656414169369626" lon="144.21226028547986"><ele>85.2</ele><time>2026-05-02T06:53:10.999Z</time></trkpt><trkpt lat="-35.656479285612406" lon="144.2123616195316"><ele>85.0</ele><time>2026-05-02T06:53:11.999Z</time></trkpt><trkpt lat="-35.65652521600859" lon="144.21247313622783"><ele>85.75</ele><time>2026-05-02T06:53:12.999Z</time></trkpt><trkpt lat="-35.65655975673608" lon="144.2126093067691"><ele>86.5</ele><time>2026-05-02T06:53:13.999Z</time></trkpt><trkpt lat="-35.656568594910034" lon="144.2127643879014"><ele>87.25</ele><time>2026-05-02T06:53:14.999Z</time></trkpt><trkpt lat="-35.656591748704805" lon="144.21289428447827"><ele>88.0</ele><time>2026-05-02T06:53:15.999Z</time></trkpt><trkpt lat="-35.656669431799195" lon="144.213027750625"><ele>88.0</ele><time>2026-05-02T06:53:16.999Z</time></trkpt><trkpt lat="-35.656766329476646" lon="144.21310267695347"><ele>88.0</ele><time>2026-05-02T06:53:17.999Z</time></trkpt><trkpt lat="-35.656830328805334" lon="144.21317175522262"><ele>88.0</ele><time>2026-05-02T06:53:18.999Z</time></trkpt><trkpt lat="-35.65689490810635" lon="144.21327163818748"><ele>88.0</ele><time>2026-05-02T06:53:19.999Z</time></trkpt><trkpt lat="-35.65694324813399" lon="144.2134305220197"><ele>88.0</ele><time>2026-05-02T06:53:20.999Z</time></trkpt><trkpt lat="-35.65699430139972" lon="144.21359106230685"><ele>88.2</ele><time>2026-05-02T06:53:21.999Z</time></trkpt><trkpt lat="-35.657027669062" lon="144.21373912612836"><ele>88.4</ele><time>2026-05-02T06:53:22.999Z</time></trkpt><trkpt lat="-35.65705413215406" lon="144.21386164418905"><ele>88.60000000000001</ele><time>2026-05-02T06:53:23.999Z</time></trkpt><trkpt lat="-35.657093136997176" lon="144.21395899977017"><ele>88.80000000000001</ele><time>2026-05-02T06:53:24.999Z</time></trkpt><trkpt lat="-35.657115352605366" lon="144.2140667909586"><ele>89.0</ele><time>2026-05-02T06:53:25.999Z</time></trkpt><trkpt lat="-35.65714006358394" lon="144.2141531795026"><ele>89.0</ele><time>2026-05-02T06:53:26.999Z</time></trkpt><trkpt lat="-35.657154140883975" lon="144.2142679622456"><ele>89.0</ele><time>2026-05-02T06:53:27.999Z</time></trkpt><trkpt lat="-35.657156811273076" lon="144.2143727450364"><ele>89.0</ele><time>2026-05-02T06:53:28.999Z</time></trkpt><trkpt lat="-35.65715949336503" lon="144.2144615585064"><ele>89.0</ele><time>2026-05-02T06:53:29.999Z</time></trkpt><trkpt lat="-35.65723812510534" lon="144.21459242432056"><ele>89.0</ele><time>2026-05-02T06:53:31.999Z</time></trkpt><trkpt lat="-35.65725157663991" lon="144.21470515959786"><ele>89.0</ele><time>2026-05-02T06:53:33.999Z</time></trkpt><trkpt lat="-35.65733922338455" lon="144.21473179181396"><ele>89.0</ele><time>2026-05-02T06:53:35.999Z</time></trkpt><trkpt lat="-35.65729637522752" lon="144.2148485395426"><ele>89.0</ele><time>2026-05-02T06:53:38.999Z</time></trkpt><trkpt lat="-35.65736322524593" lon="144.21491911501403"><ele>89.0</ele><time>2026-05-02T06:53:40.999Z</time></trkpt><trkpt lat="-35.657461554950686" lon="144.21514520496967"><ele>89.0</ele><time>2026-05-02T06:53:44Z</time></trkpt><trkpt lat="-35.65754066262239" lon="144.21515315996464"><ele>89.0</ele><time>2026-05-02T06:53:49Z</time></trkpt><trkpt lat="-35.65760298061343" lon="144.2152404366868"><ele>89.0</ele><time>2026-05-02T06:53:52Z</time></trkpt><trkpt lat="-35.65763249989949" lon="144.21535192927064"><ele>89.0</ele><time>2026-05-02T06:53:54Z</time></trkpt><trkpt lat="-35.65767340429204" lon="144.21543682640012"><ele>89.0</ele><time>2026-05-02T06:53:55Z</time></trkpt><trkpt lat="-35.65772070769436" lon="144.21553850547346"><ele>89.0</ele><time>2026-05-02T06:53:56Z</time></trkpt><trkpt lat="-35.657779422712174" lon="144.2156605910584"><ele>88.80000000000001</ele><time>2026-05-02T06:53:57Z</time></trkpt><trkpt lat="-35.657864457899066" lon="144.21574424015006"><ele>88.60000000000001</ele><time>2026-05-02T06:53:58Z</time></trkpt><trkpt lat="-35.65794473726146" lon="144.21580256137196"><ele>88.4</ele><time>2026-05-02T06:53:59Z</time></trkpt><trkpt lat="-35.658026978594606" lon="144.21581802719422"><ele>88.2</ele><time>2026-05-02T06:54:00Z</time></trkpt><trkpt lat="-35.658109277327554" lon="144.21584352161298"><ele>88.0</ele><time>2026-05-02T06:54:01Z</time></trkpt><trkpt lat="-35.658182689245095" lon="144.2158938513448"><ele>88.0</ele><time>2026-05-02T06:54:02Z</time></trkpt><trkpt lat="-35.65824138019282" lon="144.21595614972395"><ele>88.0</ele><time>2026-05-02T06:54:03Z</time></trkpt><trkpt lat="-35.65826002891995" lon="144.2160313061087"><ele>88.0</ele><time>2026-05-02T06:54:04Z</time></trkpt><trkpt lat="-35.658235828816395" lon="144.21611112178343"><ele>88.0</ele><time>2026-05-02T06:54:05Z</time></trkpt><trkpt lat="-35.658160586955475" lon="144.2161934638998"><ele>88.0</ele><time>2026-05-02T06:54:06Z</time></trkpt><trkpt lat="-35.65807515551377" lon="144.2162689247225"><ele>88.0</ele><time>2026-05-02T06:54:08Z</time></trkpt><trkpt lat="-35.65806676760155" lon="144.21641848352309"><ele>88.0</ele><time>2026-05-02T06:54:10Z</time></trkpt><trkpt lat="-35.65805081642141" lon="144.21652318819858"><ele>88.0</ele><time>2026-05-02T06:54:12Z</time></trkpt><trkpt lat="-35.65815869649038" lon="144.216656821925"><ele>88.0</ele><time>2026-05-02T06:54:14Z</time></trkpt><trkpt lat="-35.65828105058861" lon="144.2166868124918"><ele>88.0</ele><time>2026-05-02T06:54:15Z</time></trkpt><trkpt lat="-35.65841931816428" lon="144.21671893926612"><ele>88.0</ele><time>2026-05-02T06:54:16Z</time></trkpt><trkpt lat="-35.65855113706973" lon="144.2167189984869"><ele>88.0</ele><time>2026-05-02T06:54:17Z</time></trkpt><trkpt lat="-35.65864819846199" lon="144.21666679867545"><ele>88.0</ele><time>2026-05-02T06:54:18Z</time></trkpt><trkpt lat="-35.6587180386844" lon="144.2165597324217"><ele>88.0</ele><time>2026-05-02T06:54:19Z</time></trkpt><trkpt lat="-35.65874718118153" lon="144.21645654706262"><ele>88.0</ele><time>2026-05-02T06:54:20Z</time></trkpt><trkpt lat="-35.658784828334035" lon="144.21637898092067"><ele>87.80000000000001</ele><time>2026-05-02T06:54:21Z</time></trkpt><trkpt lat="-35.658820595387695" lon="144.21631058367234"><ele>87.6</ele><time>2026-05-02T06:54:22Z</time></trkpt><trkpt lat="-35.658908374684486" lon="144.21642024629963"><ele>87.4</ele><time>2026-05-02T06:54:24Z</time></trkpt><trkpt lat="-35.65894392128249" lon="144.21657728644175"><ele>87.19999999999999</ele><time>2026-05-02T06:54:25Z</time></trkpt><trkpt lat="-35.65898545666774" lon="144.21672260305854"><ele>87.0</ele><time>2026-05-02T06:54:26Z</time></trkpt><trkpt lat="-35.65902706457712" lon="144.2168124981738"><ele>87.0</ele><time>2026-05-02T06:54:27Z</time></trkpt><trkpt lat="-35.65912583213523" lon="144.21680937243505"><ele>87.0</ele><time>2026-05-02T06:54:29Z</time></trkpt><trkpt lat="-35.65919867536965" lon="144.2167428635096"><ele>87.0</ele><time>2026-05-02T06:54:30Z</time></trkpt><trkpt lat="-35.65928215090865" lon="144.2167214044103"><ele>87.0</ele><time>2026-05-02T06:54:31Z</time></trkpt><trkpt lat="-35.65939615096308" lon="144.21673820849006"><ele>87.0</ele><time>2026-05-02T06:54:32Z</time></trkpt><trkpt lat="-35.65951672663673" lon="144.2167675470999"><ele>87.0</ele><time>2026-05-02T06:54:33Z</time></trkpt><trkpt lat="-35.65959891997369" lon="144.21678596735674"><ele>87.0</ele><time>2026-05-02T06:54:34Z</time></trkpt><trkpt lat="-35.65966330179478" lon="144.21691397234056"><ele>87.0</ele><time>2026-05-02T06:54:36Z</time></trkpt><trkpt lat="-35.659676962674766" lon="144.21704511287467"><ele>87.0</ele><time>2026-05-02T06:54:38Z</time></trkpt><trkpt lat="-35.6597085680302" lon="144.2171326655436"><ele>87.0</ele><time>2026-05-02T06:54:39Z</time></trkpt><trkpt lat="-35.659769754053386" lon="144.21719021407657"><ele>87.0</ele><time>2026-05-02T06:54:40Z</time></trkpt><trkpt lat="-35.65983444563909" lon="144.21722672499632"><ele>87.0</ele><time>2026-05-02T06:54:41Z</time></trkpt><trkpt lat="-35.65990383762317" lon="144.21729944392754"><ele>87.0</ele><time>2026-05-02T06:54:43Z</time></trkpt><trkpt lat="-35.659979927921135" lon="144.2173464087036"><ele>87.0</ele><time>2026-05-02T06:54:45Z</time></trkpt><trkpt lat="-35.660058717932856" lon="144.2173356158698"><ele>87.0</ele><time>2026-05-02T06:54:46Z</time></trkpt><trkpt lat="-35.660154071640584" lon="144.21729821298854"><ele>87.0</ele><time>2026-05-02T06:54:47Z</time></trkpt><trkpt lat="-35.66025199151787" lon="144.2172820167463"><ele>86.8</ele><time>2026-05-02T06:54:48Z</time></trkpt><trkpt lat="-35.66033287714768" lon="144.21724146571654"><ele>86.6</ele><time>2026-05-02T06:54:49Z</time></trkpt><trkpt lat="-35.660381763014605" lon="144.21713222725825"><ele>86.39999999999999</ele><time>2026-05-02T06:54:50Z</time></trkpt><trkpt lat="-35.66040501615868" lon="144.21696312030502"><ele>86.19999999999999</ele><time>2026-05-02T06:54:51Z</time></trkpt><trkpt lat="-35.660448445788475" lon="144.2168512079016"><ele>86.0</ele><time>2026-05-02T06:54:52Z</time></trkpt><trkpt lat="-35.66055983626209" lon="144.2168348333072"><ele>86.0</ele><time>2026-05-02T06:54:54Z</time></trkpt><trkpt lat="-35.66066489137739" lon="144.21681780124746"><ele>86.0</ele><time>2026-05-02T06:54:55Z</time></trkpt><trkpt lat="-35.66073559017812" lon="144.21674913741592"><ele>86.0</ele><time>2026-05-02T06:54:56Z</time></trkpt><trkpt lat="-35.66076392936771" lon="144.2168213099304"><ele>86.0</ele><time>2026-05-02T06:55:05.999Z</time></trkpt><trkpt lat="-35.66081377307245" lon="144.2169609102069"><ele>86.0</ele><time>2026-05-02T06:55:07.999Z</time></trkpt><trkpt lat="-35.66084927794471" lon="144.2170576518168"><ele>86.0</ele><time>2026-05-02T06:55:08.999Z</time></trkpt><trkpt lat="-35.66089909195243" lon="144.21716470225743"><ele>86.0</ele><time>2026-05-02T06:55:09.999Z</time></trkpt><trkpt lat="-35.661000558478946" lon="144.2171844244938"><ele>86.0</ele><time>2026-05-02T06:55:11.999Z</time></trkpt><trkpt lat="-35.661071570775356" lon="144.21717156344764"><ele>86.0</ele><time>2026-05-02T06:55:12.999Z</time></trkpt><trkpt lat="-35.66113391451995" lon="144.21711989480323"><ele>86.0</ele><time>2026-05-02T06:55:13.999Z</time></trkpt><trkpt lat="-35.66117531801516" lon="144.21704692027416"><ele>86.0</ele><time>2026-05-02T06:55:16.999Z</time></trkpt><trkpt lat="-35.66126552808655" lon="144.2170464458623"><ele>85.85714285714286</ele><time>2026-05-02T06:55:19.999Z</time></trkpt><trkpt lat="-35.66131966020489" lon="144.21700538776292"><ele>85.71428571428572</ele><time>2026-05-02T06:55:21.999Z</time></trkpt><trkpt lat="-35.661377181481996" lon="144.21705270671896"><ele>85.57142857142858</ele><time>2026-05-02T06:55:23.999Z</time></trkpt><trkpt lat="-35.66140961337473" lon="144.21713795440402"><ele>85.42857142857143</ele><time>2026-05-02T06:55:26.999Z</time></trkpt><trkpt lat="-35.66147411099334" lon="144.21720945758733"><ele>85.28571428571428</ele><time>2026-05-02T06:55:29.999Z</time></trkpt><trkpt lat="-35.66153894158983" lon="144.2172181488075"><ele>85.14285714285715</ele><time>2026-05-02T06:55:32.999Z</time></trkpt><trkpt lat="-35.66161731907244" lon="144.21726570224467"><ele>85.0</ele><time>2026-05-02T06:55:34.999Z</time></trkpt><trkpt lat="-35.66168155588708" lon="144.21735407366347"><ele>85.0</ele><time>2026-05-02T06:55:37.999Z</time></trkpt><trkpt lat="-35.66173688147604" lon="144.21739191054016"><ele>85.0</ele><time>2026-05-02T06:55:39.999Z</time></trkpt><trkpt lat="-35.66258231594191" lon="144.2179572712324"><ele>85.6</ele><time>2026-05-02T06:55:41.999Z</time></trkpt><trkpt lat="-35.66264873579587" lon="144.21800063775598"><ele>86.2</ele><time>2026-05-02T06:55:42.999Z</time></trkpt><trkpt lat="-35.66275627062733" lon="144.21792017923224"><ele>86.80000000000001</ele><time>2026-05-02T06:55:44.999Z</time></trkpt><trkpt lat="-35.662818835535724" lon="144.21789185626653"><ele>87.4</ele><time>2026-05-02T06:55:45.999Z</time></trkpt><trkpt lat="-35.66289964698639" lon="144.21782082363072"><ele>88.0</ele><time>2026-05-02T06:55:46.999Z</time></trkpt><trkpt lat="-35.66300550504094" lon="144.21776085214864"><ele>88.25</ele><time>2026-05-02T06:55:48Z</time></trkpt><trkpt lat="-35.66314402336951" lon="144.21772314016607"><ele>88.5</ele><time>2026-05-02T06:55:49Z</time></trkpt><trkpt lat="-35.663341713762236" lon="144.21770506327152"><ele>88.75</ele><time>2026-05-02T06:55:50Z</time></trkpt><trkpt lat="-35.66344440304702" lon="144.21770746476852"><ele>89.0</ele><time>2026-05-02T06:55:52Z</time></trkpt><trkpt lat="-35.66350052323049" lon="144.21782498563107"><ele>89.0</ele><time>2026-05-02T06:56:00Z</time></trkpt><trkpt lat="-35.6635381478603" lon="144.217959565653"><ele>89.0</ele><time>2026-05-02T06:56:01Z</time></trkpt><trkpt lat="-35.66360242068584" lon="144.21812156500536"><ele>89.0</ele><time>2026-05-02T06:56:02Z</time></trkpt><trkpt lat="-35.66364524641708" lon="144.21828473994682"><ele>89.0</ele><time>2026-05-02T06:56:03Z</time></trkpt><trkpt lat="-35.663666321982895" lon="144.21844702700167"><ele>88.80000000000001</ele><time>2026-05-02T06:56:04Z</time></trkpt><trkpt lat="-35.66367058407642" lon="144.2186108946801"><ele>88.60000000000001</ele><time>2026-05-02T06:56:05Z</time></trkpt><trkpt lat="-35.66369141929564" lon="144.2187446878528"><ele>88.4</ele><time>2026-05-02T06:56:06Z</time></trkpt><trkpt lat="-35.66369935679214" lon="144.21885256034284"><ele>88.2</ele><time>2026-05-02T06:56:07Z</time></trkpt><trkpt lat="-35.663689958761445" lon="144.218948167606"><ele>88.0</ele><time>2026-05-02T06:56:08Z</time></trkpt><trkpt lat="-35.6636864840269" lon="144.21906969815768"><ele>88.0</ele><time>2026-05-02T06:56:09Z</time></trkpt><trkpt lat="-35.66364874714582" lon="144.2191760761492"><ele>88.0</ele><time>2026-05-02T06:56:10Z</time></trkpt><trkpt lat="-35.663621357322654" lon="144.21927790350495"><ele>88.0</ele><time>2026-05-02T06:56:11Z</time></trkpt><trkpt lat="-35.66360618534801" lon="144.21938055261973"><ele>88.0</ele><time>2026-05-02T06:56:12Z</time></trkpt><trkpt lat="-35.663628392470784" lon="144.219456198088"><ele>88.0</ele><time>2026-05-02T06:56:14Z</time></trkpt><trkpt lat="-35.6637320849915" lon="144.2194979813107"><ele>88.0</ele><time>2026-05-02T06:56:17Z</time></trkpt><trkpt lat="-35.66381653683507" lon="144.21960002339867"><ele>88.0</ele><time>2026-05-02T06:56:21Z</time></trkpt><trkpt lat="-35.66387124743809" lon="144.21971299393977"><ele>88.0</ele><time>2026-05-02T06:56:22Z</time></trkpt><trkpt lat="-35.6639210628277" lon="144.21982992336942"><ele>88.0</ele><time>2026-05-02T06:56:23Z</time></trkpt><trkpt lat="-35.663920135550065" lon="144.21992560925776"><ele>88.0</ele><time>2026-05-02T06:56:24Z</time></trkpt><trkpt lat="-35.66389151326864" lon="144.22000786764457"><ele>88.0</ele><time>2026-05-02T06:56:25Z</time></trkpt><trkpt lat="-35.6638203939859" lon="144.2200554156236"><ele>88.0</ele><time>2026-05-02T06:56:26Z</time></trkpt><trkpt lat="-35.66367431549004" lon="144.22010561685914"><ele>88.0</ele><time>2026-05-02T06:56:27Z</time></trkpt><trkpt lat="-35.66349254190408" lon="144.2201347166844"><ele>88.0</ele><time>2026-05-02T06:56:28Z</time></trkpt><trkpt lat="-35.663306236870596" lon="144.22021571546094"><ele>88.0</ele><time>2026-05-02T06:56:29Z</time></trkpt><trkpt lat="-35.663157959662456" lon="144.22027353633024"><ele>88.0</ele><time>2026-05-02T06:56:30Z</time></trkpt><trkpt lat="-35.66307032819833" lon="144.22032017235122"><ele>88.0</ele><time>2026-05-02T06:56:31Z</time></trkpt><trkpt lat="-35.66299762316174" lon="144.2203633531396"><ele>88.0</ele><time>2026-05-02T06:56:32Z</time></trkpt><trkpt lat="-35.66293886359965" lon="144.2204079870302"><ele>88.0</ele><time>2026-05-02T06:56:33Z</time></trkpt><trkpt lat="-35.662840526166526" lon="144.2204356020022"><ele>88.0</ele><time>2026-05-02T06:56:35Z</time></trkpt><trkpt lat="-35.662787675961724" lon="144.22038979683168"><ele>88.0</ele><time>2026-05-02T06:56:36Z</time></trkpt><trkpt lat="-35.66271381626907" lon="144.22037405149453"><ele>88.16666666666666</ele><time>2026-05-02T06:56:37Z</time></trkpt><trkpt lat="-35.66262116971014" lon="144.22032663765873"><ele>88.33333333333333</ele><time>2026-05-02T06:56:38Z</time></trkpt><trkpt lat="-35.66256399903327" lon="144.22026105847607"><ele>88.5</ele><time>2026-05-02T06:56:39Z</time></trkpt><trkpt lat="-35.66251832608492" lon="144.22018347590102"><ele>88.66666666666667</ele><time>2026-05-02T06:56:40Z</time></trkpt><trkpt lat="-35.66244310480924" lon="144.2201174279359"><ele>88.83333333333334</ele><time>2026-05-02T06:56:41Z</time></trkpt><trkpt lat="-35.66235480308826" lon="144.22009088567413"><ele>89.0</ele><time>2026-05-02T06:56:42Z</time></trkpt><trkpt lat="-35.66227172204797" lon="144.2200709829907"><ele>89.0</ele><time>2026-05-02T06:56:43Z</time></trkpt><trkpt lat="-35.662190523792766" lon="144.22007851886508"><ele>89.0</ele><time>2026-05-02T06:56:44Z</time></trkpt><trkpt lat="-35.662119922120034" lon="144.22006579521738"><ele>89.0</ele><time>2026-05-02T06:56:45Z</time></trkpt><trkpt lat="-35.66206276510952" lon="144.22000260630497"><ele>89.0</ele><time>2026-05-02T06:56:46Z</time></trkpt><trkpt lat="-35.662009382443664" lon="144.21988511071146"><ele>89.0</ele><time>2026-05-02T06:56:47Z</time></trkpt><trkpt lat="-35.66194437806489" lon="144.2197960965934"><ele>89.0</ele><time>2026-05-02T06:56:48Z</time></trkpt><trkpt lat="-35.66187888576774" lon="144.21967948471422"><ele>88.4</ele><time>2026-05-02T06:56:50Z</time></trkpt><trkpt lat="-35.66179895362107" lon="144.21963543750795"><ele>87.80000000000001</ele><time>2026-05-02T06:56:51Z</time></trkpt><trkpt lat="-35.66169568836829" lon="144.21960135385237"><ele>87.19999999999999</ele><time>2026-05-02T06:56:52Z</time></trkpt><trkpt lat="-35.66157488213687" lon="144.2195869315481"><ele>86.6</ele><time>2026-05-02T06:56:53Z</time></trkpt><trkpt lat="-35.661502335962695" lon="144.2195731047223"><ele>86.0</ele><time>2026-05-02T06:56:54Z</time></trkpt><trkpt lat="-35.6614961568484" lon="144.2194125306614"><ele>86.0</ele><time>2026-05-02T06:56:56Z</time></trkpt><trkpt lat="-35.66155698983335" lon="144.21929752566024"><ele>86.0</ele><time>2026-05-02T06:56:57Z</time></trkpt><trkpt lat="-35.661575114667095" lon="144.21918053765515"><ele>86.0</ele><time>2026-05-02T06:56:58Z</time></trkpt><trkpt lat="-35.66153112238891" lon="144.2190700481344"><ele>86.0</ele><time>2026-05-02T06:56:59Z</time></trkpt><trkpt lat="-35.66150531647339" lon="144.21894320965288"><ele>86.0</ele><time>2026-05-02T06:57:00Z</time></trkpt><trkpt lat="-35.661501193620545" lon="144.21882719601993"><ele>86.0</ele><time>2026-05-02T06:57:01Z</time></trkpt><trkpt lat="-35.66142442780603" lon="144.21873248869986"><ele>86.0</ele><time>2026-05-02T06:57:03Z</time></trkpt><trkpt lat="-35.66133593974937" lon="144.21875326554272"><ele>86.0</ele><time>2026-05-02T06:57:04Z</time></trkpt><trkpt lat="-35.661199154186505" lon="144.21876486495566"><ele>86.0</ele><time>2026-05-02T06:57:06Z</time></trkpt><trkpt lat="-35.661120718456246" lon="144.21875956012028"><ele>86.0</ele><time>2026-05-02T06:57:06.999Z</time></trkpt><trkpt lat="-35.66105505934487" lon="144.21868490817414"><ele>86.0</ele><time>2026-05-02T06:57:08.999Z</time></trkpt><trkpt lat="-35.66104562178471" lon="144.21858683825988"><ele>86.0</ele><time>2026-05-02T06:57:09.999Z</time></trkpt><trkpt lat="-35.66106831909189" lon="144.21847217457335"><ele>86.0</ele><time>2026-05-02T06:57:10.999Z</time></trkpt><trkpt lat="-35.66109777967792" lon="144.2183634845095"><ele>86.0</ele><time>2026-05-02T06:57:11.999Z</time></trkpt><trkpt lat="-35.660983679561554" lon="144.21834123199756"><ele>86.0</ele><time>2026-05-02T06:57:13.999Z</time></trkpt><trkpt lat="-35.6608787274104" lon="144.21831477760725"><ele>86.0</ele><time>2026-05-02T06:57:14.999Z</time></trkpt><trkpt lat="-35.66077274851724" lon="144.21825326991444"><ele>86.0</ele><time>2026-05-02T06:57:15.999Z</time></trkpt><trkpt lat="-35.66066005063337" lon="144.21822526950572"><ele>86.0</ele><time>2026-05-02T06:57:16.999Z</time></trkpt><trkpt lat="-35.66060997627446" lon="144.2181693330769"><ele>86.0</ele><time>2026-05-02T06:57:17.999Z</time></trkpt><trkpt lat="-35.66058200715592" lon="144.21806618878864"><ele>86.0</ele><time>2026-05-02T06:57:18.999Z</time></trkpt><trkpt lat="-35.66055748516158" lon="144.21796970077506"><ele>86.0</ele><time>2026-05-02T06:57:19.999Z</time></trkpt><trkpt lat="-35.66048853648145" lon="144.21792087665318"><ele>86.0</ele><time>2026-05-02T06:57:20.999Z</time></trkpt><trkpt lat="-35.66041950480179" lon="144.21788923855547"><ele>86.0</ele><time>2026-05-02T06:57:21.999Z</time></trkpt><trkpt lat="-35.66033254067823" lon="144.21787939780646"><ele>86.0</ele><time>2026-05-02T06:57:22.999Z</time></trkpt><trkpt lat="-35.660265295369" lon="144.21792343447976"><ele>86.0</ele><time>2026-05-02T06:57:23.999Z</time></trkpt><trkpt lat="-35.660211217004246" lon="144.2180223001534"><ele>86.0</ele><time>2026-05-02T06:57:24.999Z</time></trkpt><trkpt lat="-35.66012914943282" lon="144.21812454124378"><ele>85.8</ele><time>2026-05-02T06:57:25.999Z</time></trkpt><trkpt lat="-35.66004756991098" lon="144.21818834354244"><ele>85.6</ele><time>2026-05-02T06:57:26.999Z</time></trkpt><trkpt lat="-35.6599374811029" lon="144.21823198942573"><ele>85.4</ele><time>2026-05-02T06:57:27.999Z</time></trkpt><trkpt lat="-35.65982427757944" lon="144.21823359354363"><ele>85.2</ele><time>2026-05-02T06:57:28.999Z</time></trkpt><trkpt lat="-35.659757895080375" lon="144.21824189302717"><ele>85.0</ele><time>2026-05-02T06:57:29.999Z</time></trkpt><trkpt lat="-35.65969969420679" lon="144.218282016367"><ele>85.0</ele><time>2026-05-02T06:57:30.999Z</time></trkpt><trkpt lat="-35.65965005006641" lon="144.21835948651966"><ele>85.0</ele><time>2026-05-02T06:57:31.999Z</time></trkpt><trkpt lat="-35.65965598362786" lon="144.21847172152732"><ele>85.0</ele><time>2026-05-02T06:57:32.999Z</time></trkpt><trkpt lat="-35.65971197063614" lon="144.21858996728164"><ele>85.0</ele><time>2026-05-02T06:57:33.999Z</time></trkpt><trkpt lat="-35.65980228708417" lon="144.21871822461674"><ele>85.0</ele><time>2026-05-02T06:57:34.999Z</time></trkpt><trkpt lat="-35.659878355959485" lon="144.21882711526126"><ele>85.0</ele><time>2026-05-02T06:57:35.999Z</time></trkpt><trkpt lat="-35.65992554383882" lon="144.218934399329"><ele>85.0</ele><time>2026-05-02T06:57:36.999Z</time></trkpt><trkpt lat="-35.659958162063724" lon="144.21902483926812"><ele>85.0</ele><time>2026-05-02T06:57:37.999Z</time></trkpt><trkpt lat="-35.65996136027308" lon="144.21914447454063"><ele>85.0</ele><time>2026-05-02T06:57:39.999Z</time></trkpt><trkpt lat="-35.65989752937777" lon="144.21921439385443"><ele>85.0</ele><time>2026-05-02T06:57:40.999Z</time></trkpt><trkpt lat="-35.659827533472175" lon="144.21929617874028"><ele>85.4</ele><time>2026-05-02T06:57:41.999Z</time></trkpt><trkpt lat="-35.65975742848235" lon="144.21933041613545"><ele>85.8</ele><time>2026-05-02T06:57:43.999Z</time></trkpt><trkpt lat="-35.65970698899087" lon="144.21943094215715"><ele>86.19999999999999</ele><time>2026-05-02T06:57:45.999Z</time></trkpt><trkpt lat="-35.65971739469667" lon="144.2195208315517"><ele>86.6</ele><time>2026-05-02T06:57:46.999Z</time></trkpt><trkpt lat="-35.65976658881808" lon="144.2196811484368"><ele>87.0</ele><time>2026-05-02T06:57:47.999Z</time></trkpt><trkpt lat="-35.65979770261186" lon="144.21980724987125"><ele>87.33333333333333</ele><time>2026-05-02T06:57:48.999Z</time></trkpt><trkpt lat="-35.65979885953223" lon="144.21988565730018"><ele>87.66666666666667</ele><time>2026-05-02T06:57:49.999Z</time></trkpt><trkpt lat="-35.659711412866095" lon="144.21988525314734"><ele>88.0</ele><time>2026-05-02T06:57:51.999Z</time></trkpt><trkpt lat="-35.659636173761655" lon="144.2199016344017"><ele>88.33333333333334</ele><time>2026-05-02T06:57:55Z</time></trkpt><trkpt lat="-35.65961489672332" lon="144.22002436402363"><ele>88.66666666666667</ele><time>2026-05-02T06:57:57Z</time></trkpt><trkpt lat="-35.65962235588977" lon="144.22012441314382"><ele>89.0</ele><time>2026-05-02T06:57:58Z</time></trkpt><trkpt lat="-35.65960115300978" lon="144.22028279402525"><ele>89.0</ele><time>2026-05-02T06:57:59Z</time></trkpt><trkpt lat="-35.65962002454601" lon="144.22045604627272"><ele>89.0</ele><time>2026-05-02T06:58:00Z</time></trkpt><trkpt lat="-35.65962199154426" lon="144.220581029429"><ele>89.0</ele><time>2026-05-02T06:58:01Z</time></trkpt><trkpt lat="-35.65964697144223" lon="144.22066918782977"><ele>89.0</ele><time>2026-05-02T06:58:02Z</time></trkpt><trkpt lat="-35.65974554162792" lon="144.22079064849416"><ele>88.80000000000001</ele><time>2026-05-02T06:58:04Z</time></trkpt><trkpt lat="-35.65982730326349" lon="144.22081908814792"><ele>88.60000000000001</ele><time>2026-05-02T06:58:05Z</time></trkpt><trkpt lat="-35.65991810403514" lon="144.2208247417967"><ele>88.4</ele><time>2026-05-02T06:58:06Z</time></trkpt><trkpt lat="-35.6600154460516" lon="144.2208174467606"><ele>88.2</ele><time>2026-05-02T06:58:07Z</time></trkpt><trkpt lat="-35.660074000672495" lon="144.22086097924944"><ele>88.0</ele><time>2026-05-02T06:58:08Z</time></trkpt><trkpt lat="-35.660064604218675" lon="144.2210316697431"><ele>88.0</ele><time>2026-05-02T06:58:10Z</time></trkpt><trkpt lat="-35.6600056814906" lon="144.22113276354693"><ele>88.0</ele><time>2026-05-02T06:58:11Z</time></trkpt><trkpt lat="-35.659943035200435" lon="144.2212171792029"><ele>88.0</ele><time>2026-05-02T06:58:12Z</time></trkpt><trkpt lat="-35.65988028631893" lon="144.2212707425528"><ele>88.0</ele><time>2026-05-02T06:58:13Z</time></trkpt><trkpt lat="-35.65978948188186" lon="144.22133329109874"><ele>88.0</ele><time>2026-05-02T06:58:14Z</time></trkpt><trkpt lat="-35.65969679102309" lon="144.22139013197122"><ele>88.0</ele><time>2026-05-02T06:58:15Z</time></trkpt><trkpt lat="-35.659603943804285" lon="144.22143666101996"><ele>88.0</ele><time>2026-05-02T06:58:16Z</time></trkpt><trkpt lat="-35.659501375029066" lon="144.22147600950981"><ele>88.0</ele><time>2026-05-02T06:58:17Z</time></trkpt><trkpt lat="-35.659400741401946" lon="144.2215089503985"><ele>88.0</ele><time>2026-05-02T06:58:18Z</time></trkpt><trkpt lat="-35.659298351709545" lon="144.22152186701442"><ele>88.0</ele><time>2026-05-02T06:58:19Z</time></trkpt><trkpt lat="-35.65919969070406" lon="144.22156098230013"><ele>88.0</ele><time>2026-05-02T06:58:20Z</time></trkpt><trkpt lat="-35.65909114694209" lon="144.2216154902949"><ele>88.0</ele><time>2026-05-02T06:58:21Z</time></trkpt><trkpt lat="-35.65899149670118" lon="144.2216699758175"><ele>88.0</ele><time>2026-05-02T06:58:22Z</time></trkpt><trkpt lat="-35.65891112505473" lon="144.22170971151914"><ele>88.0</ele><time>2026-05-02T06:58:23Z</time></trkpt><trkpt lat="-35.65882785131915" lon="144.2217191404979"><ele>88.0</ele><time>2026-05-02T06:58:24Z</time></trkpt><trkpt lat="-35.65873543821181" lon="144.2217237534945"><ele>88.0</ele><time>2026-05-02T06:58:25Z</time></trkpt><trkpt lat="-35.65865708570628" lon="144.22173234262334"><ele>88.0</ele><time>2026-05-02T06:58:26Z</time></trkpt><trkpt lat="-35.65858757695677" lon="144.2217109777596"><ele>88.0</ele><time>2026-05-02T06:58:27Z</time></trkpt><trkpt lat="-35.65852436564721" lon="144.22170404434834"><ele>88.0</ele><time>2026-05-02T06:58:28Z</time></trkpt><trkpt lat="-35.65844959986913" lon="144.22181120312385"><ele>88.0</ele><time>2026-05-02T06:58:30Z</time></trkpt><trkpt lat="-35.658443702115385" lon="144.22189925658614"><ele>88.0</ele><time>2026-05-02T06:58:32Z</time></trkpt><trkpt lat="-35.658383319102256" lon="144.22182451558152"><ele>87.33333333333333</ele><time>2026-05-02T06:58:35Z</time></trkpt><trkpt lat="-35.6583209480082" lon="144.2218688458085"><ele>86.66666666666667</ele><time>2026-05-02T06:58:37Z</time></trkpt><trkpt lat="-35.65801235214321" lon="144.22190393444592"><ele>86.0</ele><time>2026-05-02T06:58:39Z</time></trkpt><trkpt lat="-35.65794400025205" lon="144.22186881671806"><ele>86.0</ele><time>2026-05-02T06:58:41Z</time></trkpt><trkpt lat="-35.65790009155313" lon="144.2217794092408"><ele>86.0</ele><time>2026-05-02T06:58:42Z</time></trkpt><trkpt lat="-35.65784244059045" lon="144.22172998542766"><ele>86.0</ele><time>2026-05-02T06:58:43Z</time></trkpt><trkpt lat="-35.65777223487354" lon="144.22167286257667"><ele>86.0</ele><time>2026-05-02T06:58:44Z</time></trkpt><trkpt lat="-35.65749673563125" lon="144.22163309313456"><ele>86.0</ele><time>2026-05-02T06:58:46Z</time></trkpt><trkpt lat="-35.65740821394111" lon="144.22160085516907"><ele>86.0</ele><time>2026-05-02T06:58:47Z</time></trkpt><trkpt lat="-35.6573517701633" lon="144.22152346959106"><ele>86.0</ele><time>2026-05-02T06:58:48Z</time></trkpt><trkpt lat="-35.65725554576901" lon="144.2214676701785"><ele>86.0</ele><time>2026-05-02T06:58:49Z</time></trkpt><trkpt lat="-35.65717660805119" lon="144.22138507292607"><ele>86.0</ele><time>2026-05-02T06:58:50Z</time></trkpt><trkpt lat="-35.657129222553" lon="144.22132063786063"><ele>86.0</ele><time>2026-05-02T06:58:51Z</time></trkpt><trkpt lat="-35.65702865547153" lon="144.22130844911626"><ele>86.0</ele><time>2026-05-02T06:58:52Z</time></trkpt><trkpt lat="-35.6569287425796" lon="144.2214280615098"><ele>86.0</ele><time>2026-05-02T06:58:53Z</time></trkpt><trkpt lat="-35.65685786251507" lon="144.22145618415593"><ele>86.0</ele><time>2026-05-02T06:58:54Z</time></trkpt><trkpt lat="-35.65683738539266" lon="144.22161807767844"><ele>86.0</ele><time>2026-05-02T06:58:56Z</time></trkpt><trkpt lat="-35.65682919053586" lon="144.22179834532008"><ele>86.4</ele><time>2026-05-02T06:58:57Z</time></trkpt><trkpt lat="-35.65675768270146" lon="144.22187689258064"><ele>86.8</ele><time>2026-05-02T06:58:59Z</time></trkpt><trkpt lat="-35.65668093399316" lon="144.2219209320964"><ele>87.2</ele><time>2026-05-02T06:59:00Z</time></trkpt><trkpt lat="-35.65659985899655" lon="144.22195948086312"><ele>87.60000000000001</ele><time>2026-05-02T06:59:01Z</time></trkpt><trkpt lat="-35.65654868787036" lon="144.22204701643798"><ele>88.0</ele><time>2026-05-02T06:59:03Z</time></trkpt><trkpt lat="-35.65645352175849" lon="144.2220023449611"><ele>88.0</ele><time>2026-05-02T06:59:05Z</time></trkpt><trkpt lat="-35.65637986691799" lon="144.2219843469057"><ele>88.0</ele><time>2026-05-02T06:59:07Z</time></trkpt><trkpt lat="-35.65631837153255" lon="144.22203225962474"><ele>88.0</ele><time>2026-05-02T06:59:09Z</time></trkpt><trkpt lat="-35.65632093310429" lon="144.22211320805522"><ele>88.0</ele><time>2026-05-02T06:59:10Z</time></trkpt><trkpt lat="-35.65631813080259" lon="144.22221031985333"><ele>88.0</ele><time>2026-05-02T06:59:12Z</time></trkpt><trkpt lat="-35.65627752946907" lon="144.22231731502563"><ele>88.0</ele><time>2026-05-02T06:59:14Z</time></trkpt><trkpt lat="-35.65627806374753" lon="144.22244196783865"><ele>88.0</ele><time>2026-05-02T06:59:15Z</time></trkpt><trkpt lat="-35.656280648434375" lon="144.2223047527304"><ele>88.0</ele><time>2026-05-02T06:59:16Z</time></trkpt><trkpt lat="-35.65616710934336" lon="144.2223936987811"><ele>88.0</ele><time>2026-05-02T06:59:17Z</time></trkpt><trkpt lat="-35.65607704907698" lon="144.22245497526126"><ele>88.0</ele><time>2026-05-02T06:59:17.999Z</time></trkpt><trkpt lat="-35.65604004008038" lon="144.22255553545767"><ele>88.0</ele><time>2026-05-02T06:59:18.999Z</time></trkpt><trkpt lat="-35.656059569097934" lon="144.22268419359278"><ele>87.80000000000001</ele><time>2026-05-02T06:59:19.999Z</time></trkpt><trkpt lat="-35.65608992576612" lon="144.22280948233694"><ele>87.6</ele><time>2026-05-02T06:59:20.999Z</time></trkpt><trkpt lat="-35.656153155695954" lon="144.22291492954932"><ele>87.4</ele><time>2026-05-02T06:59:21.999Z</time></trkpt><trkpt lat="-35.65614458445573" lon="144.22307158772767"><ele>87.19999999999999</ele><time>2026-05-02T06:59:23.999Z</time></trkpt><trkpt lat="-35.656082961141635" lon="144.2231634628837"><ele>87.0</ele><time>2026-05-02T06:59:24.999Z</time></trkpt><trkpt lat="-35.656068382010034" lon="144.2232569468228"><ele>87.33333333333333</ele><time>2026-05-02T06:59:25.999Z</time></trkpt><trkpt lat="-35.65615586275538" lon="144.22332218815188"><ele>87.66666666666667</ele><time>2026-05-02T06:59:27.999Z</time></trkpt><trkpt lat="-35.65622438219937" lon="144.2233614547943"><ele>88.0</ele><time>2026-05-02T06:59:28.999Z</time></trkpt><trkpt lat="-35.656284224869175" lon="144.22343324880273"><ele>88.33333333333334</ele><time>2026-05-02T06:59:29.999Z</time></trkpt><trkpt lat="-35.656310005022064" lon="144.22351339234194"><ele>88.66666666666667</ele><time>2026-05-02T06:59:30.999Z</time></trkpt><trkpt lat="-35.65633970956168" lon="144.22358857592343"><ele>89.0</ele><time>2026-05-02T06:59:31.999Z</time></trkpt><trkpt lat="-35.65637793222573" lon="144.22365997786622"><ele>89.0</ele><time>2026-05-02T06:59:33.999Z</time></trkpt><trkpt lat="-35.65632160507804" lon="144.2237424469108"><ele>89.0</ele><time>2026-05-02T06:59:34.999Z</time></trkpt><trkpt lat="-35.656249228932225" lon="144.22374218657825"><ele>89.0</ele><time>2026-05-02T06:59:36.999Z</time></trkpt><trkpt lat="-35.65620101772884" lon="144.2238135537444"><ele>89.0</ele><time>2026-05-02T06:59:39.999Z</time></trkpt><trkpt lat="-35.65617364123992" lon="144.22388867265866"><ele>89.0</ele><time>2026-05-02T06:59:42.999Z</time></trkpt><trkpt lat="-35.65610618639024" lon="144.22394199331197"><ele>89.0</ele><time>2026-05-02T06:59:44.999Z</time></trkpt><trkpt lat="-35.65605685876004" lon="144.2240912643017"><ele>89.2</ele><time>2026-05-02T06:59:46.999Z</time></trkpt><trkpt lat="-35.65601163476645" lon="144.22421322330015"><ele>89.4</ele><time>2026-05-02T06:59:47.999Z</time></trkpt><trkpt lat="-35.65598847183097" lon="144.2243435526216"><ele>89.6</ele><time>2026-05-02T06:59:48.999Z</time></trkpt><trkpt lat="-35.65598983722966" lon="144.2244893759064"><ele>89.8</ele><time>2026-05-02T06:59:49.999Z</time></trkpt><trkpt lat="-35.655995237023944" lon="144.2246002000982"><ele>90.0</ele><time>2026-05-02T06:59:50.999Z</time></trkpt><trkpt lat="-35.65593956423237" lon="144.2246501774787"><ele>90.0</ele><time>2026-05-02T06:59:51.999Z</time></trkpt><trkpt lat="-35.65586750983848" lon="144.22467573660526"><ele>90.0</ele><time>2026-05-02T06:59:52.999Z</time></trkpt><trkpt lat="-35.65579634945053" lon="144.2246556745743"><ele>90.0</ele><time>2026-05-02T06:59:53.999Z</time></trkpt><trkpt lat="-35.655720414791965" lon="144.22448982412988"><ele>90.0</ele><time>2026-05-02T06:59:55.999Z</time></trkpt><trkpt lat="-35.65566516933726" lon="144.2243481955825"><ele>90.0</ele><time>2026-05-02T06:59:56.999Z</time></trkpt><trkpt lat="-35.655616711161755" lon="144.22421040932264"><ele>90.0</ele><time>2026-05-02T06:59:57.999Z</time></trkpt><trkpt lat="-35.65559143440218" lon="144.22411375242473"><ele>90.0</ele><time>2026-05-02T06:59:58.999Z</time></trkpt><trkpt lat="-35.655612524032506" lon="144.2239872238149"><ele>90.0</ele><time>2026-05-02T07:00:01Z</time></trkpt><trkpt lat="-35.65561211757078" lon="144.223824799648"><ele>90.0</ele><time>2026-05-02T07:00:03Z</time></trkpt><trkpt lat="-35.65557382101537" lon="144.2236976732462"><ele>90.0</ele><time>2026-05-02T07:00:04Z</time></trkpt><trkpt lat="-35.655504319983585" lon="144.22357508197794"><ele>90.0</ele><time>2026-05-02T07:00:05Z</time></trkpt><trkpt lat="-35.655449719125414" lon="144.22351269614555"><ele>90.0</ele><time>2026-05-02T07:00:06Z</time></trkpt><trkpt lat="-35.655370934720686" lon="144.22346417667111"><ele>90.0</ele><time>2026-05-02T07:00:07Z</time></trkpt><trkpt lat="-35.655307310873674" lon="144.22339539366578"><ele>90.0</ele><time>2026-05-02T07:00:08Z</time></trkpt><trkpt lat="-35.65529086433899" lon="144.22328644952393"><ele>90.0</ele><time>2026-05-02T07:00:09Z</time></trkpt><trkpt lat="-35.65527009203452" lon="144.22315637364972"><ele>90.0</ele><time>2026-05-02T07:00:10Z</time></trkpt><trkpt lat="-35.655273061336885" lon="144.22300708031594"><ele>89.4</ele><time>2026-05-02T07:00:11Z</time></trkpt><trkpt lat="-35.65528441871542" lon="144.2228867439434"><ele>88.8</ele><time>2026-05-02T07:00:12Z</time></trkpt><trkpt lat="-35.65531438893552" lon="144.22276260706985"><ele>88.19999999999999</ele><time>2026-05-02T07:00:13Z</time></trkpt><trkpt lat="-35.655336944070505" lon="144.22264128057344"><ele>87.6</ele><time>2026-05-02T07:00:14Z</time></trkpt><trkpt lat="-35.65537697143844" lon="144.2225252294169"><ele>87.0</ele><time>2026-05-02T07:00:15Z</time></trkpt><trkpt lat="-35.65543271936866" lon="144.2224298037427"><ele>87.0</ele><time>2026-05-02T07:00:16Z</time></trkpt><trkpt lat="-35.655496391910866" lon="144.22235012621496"><ele>87.0</ele><time>2026-05-02T07:00:17Z</time></trkpt><trkpt lat="-35.65557375160735" lon="144.22229110892968"><ele>87.0</ele><time>2026-05-02T07:00:18Z</time></trkpt><trkpt lat="-35.655681400267355" lon="144.22224962570942"><ele>87.0</ele><time>2026-05-02T07:00:19Z</time></trkpt><trkpt lat="-35.65574264218643" lon="144.22219946264764"><ele>87.0</ele><time>2026-05-02T07:00:20Z</time></trkpt><trkpt lat="-35.65577116969256" lon="144.22212235244675"><ele>87.0</ele><time>2026-05-02T07:00:21Z</time></trkpt><trkpt lat="-35.655765862382026" lon="144.22198587298791"><ele>87.0</ele><time>2026-05-02T07:00:22Z</time></trkpt><trkpt lat="-35.655758288098525" lon="144.2218364489199"><ele>87.0</ele><time>2026-05-02T07:00:23Z</time></trkpt><trkpt lat="-35.65567679578907" lon="144.2217591584369"><ele>87.0</ele><time>2026-05-02T07:00:24Z</time></trkpt><trkpt lat="-35.655587826050926" lon="144.2217215280367"><ele>87.0</ele><time>2026-05-02T07:00:25Z</time></trkpt><trkpt lat="-35.65548909389482" lon="144.22171906810078"><ele>87.0</ele><time>2026-05-02T07:00:26Z</time></trkpt><trkpt lat="-35.6554137251743" lon="144.22169415341932"><ele>87.0</ele><time>2026-05-02T07:00:27Z</time></trkpt><trkpt lat="-35.65537531062858" lon="144.22157684774902"><ele>87.0</ele><time>2026-05-02T07:00:29Z</time></trkpt><trkpt lat="-35.65534686179033" lon="144.2214566886871"><ele>87.0</ele><time>2026-05-02T07:00:30Z</time></trkpt><trkpt lat="-35.655315918624545" lon="144.2213218191184"><ele>87.0</ele><time>2026-05-02T07:00:31Z</time></trkpt><trkpt lat="-35.655321335675296" lon="144.22117993933455"><ele>87.0</ele><time>2026-05-02T07:00:32Z</time></trkpt><trkpt lat="-35.655356055613666" lon="144.2210933153784"><ele>87.0</ele><time>2026-05-02T07:00:33Z</time></trkpt><trkpt lat="-35.65541009163937" lon="144.22098809293297"><ele>87.0</ele><time>2026-05-02T07:00:34Z</time></trkpt><trkpt lat="-35.655479483384454" lon="144.22083682206835"><ele>87.0</ele><time>2026-05-02T07:00:35Z</time></trkpt><trkpt lat="-35.65555589984094" lon="144.22068988741893"><ele>87.0</ele><time>2026-05-02T07:00:36Z</time></trkpt><trkpt lat="-35.655635561932755" lon="144.22057662005096"><ele>87.66666666666667</ele><time>2026-05-02T07:00:37Z</time></trkpt><trkpt lat="-35.655710284609356" lon="144.220502889072"><ele>88.33333333333333</ele><time>2026-05-02T07:00:38Z</time></trkpt><trkpt lat="-35.65577240429564" lon="144.22040979718932"><ele>89.0</ele><time>2026-05-02T07:00:40Z</time></trkpt><trkpt lat="-35.65577343671291" lon="144.22030997484293"><ele>89.66666666666666</ele><time>2026-05-02T07:00:41Z</time></trkpt><trkpt lat="-35.655722914444866" lon="144.22020489890298"><ele>90.33333333333333</ele><time>2026-05-02T07:00:42Z</time></trkpt><trkpt lat="-35.65567109714236" lon="144.2201577111983"><ele>91.0</ele><time>2026-05-02T07:00:43Z</time></trkpt><trkpt lat="-35.655591642668945" lon="144.22013293483158"><ele>91.0</ele><time>2026-05-02T07:00:44Z</time></trkpt><trkpt lat="-35.655511637288335" lon="144.22010229726234"><ele>91.0</ele><time>2026-05-02T07:00:45Z</time></trkpt><trkpt lat="-35.65547335355637" lon="144.21997904611615"><ele>91.0</ele><time>2026-05-02T07:00:47Z</time></trkpt><trkpt lat="-35.655479509852114" lon="144.2198894490005"><ele>91.0</ele><time>2026-05-02T07:00:48Z</time></trkpt><trkpt lat="-35.65550283560734" lon="144.21979377024107"><ele>91.0</ele><time>2026-05-02T07:00:49Z</time></trkpt><trkpt lat="-35.655562238451026" lon="144.21971025326533"><ele>91.0</ele><time>2026-05-02T07:00:50Z</time></trkpt><trkpt lat="-35.655621491333655" lon="144.2196761330205"><ele>91.0</ele><time>2026-05-02T07:00:51Z</time></trkpt><trkpt lat="-35.655692569790205" lon="144.21967106563943"><ele>91.0</ele><time>2026-05-02T07:00:52Z</time></trkpt><trkpt lat="-35.65578139549482" lon="144.219648944267"><ele>91.0</ele><time>2026-05-02T07:00:53Z</time></trkpt><trkpt lat="-35.65584482371416" lon="144.21956786241745"><ele>91.0</ele><time>2026-05-02T07:00:54Z</time></trkpt><trkpt lat="-35.65592063376898" lon="144.21950197764477"><ele>91.0</ele><time>2026-05-02T07:00:55Z</time></trkpt><trkpt lat="-35.655992318034265" lon="144.21946836866107"><ele>91.0</ele><time>2026-05-02T07:00:56Z</time></trkpt><trkpt lat="-35.6560568263036" lon="144.21947516086925"><ele>90.83333333333333</ele><time>2026-05-02T07:00:57Z</time></trkpt><trkpt lat="-35.65612878296897" lon="144.21948789399886"><ele>90.66666666666666</ele><time>2026-05-02T07:00:58Z</time></trkpt><trkpt lat="-35.65619430673479" lon="144.21943671279544"><ele>90.5</ele><time>2026-05-02T07:00:59Z</time></trkpt><trkpt lat="-35.65622710126006" lon="144.21935029953613"><ele>90.33333333333333</ele><time>2026-05-02T07:01:00Z</time></trkpt><trkpt lat="-35.65628194968727" lon="144.21929792196167"><ele>90.16666666666667</ele><time>2026-05-02T07:01:01Z</time></trkpt><trkpt lat="-35.65635434172233" lon="144.21926829389145"><ele>90.0</ele><time>2026-05-02T07:01:02Z</time></trkpt><trkpt lat="-35.65643675958002" lon="144.21926764963067"><ele>90.0</ele><time>2026-05-02T07:01:03Z</time></trkpt><trkpt lat="-35.65654579300168" lon="144.21927092692238"><ele>90.0</ele><time>2026-05-02T07:01:04Z</time></trkpt><trkpt lat="-35.656635502497224" lon="144.2192445293331"><ele>90.0</ele><time>2026-05-02T07:01:05Z</time></trkpt><trkpt lat="-35.65672370259144" lon="144.2191877012984"><ele>90.0</ele><time>2026-05-02T07:01:06Z</time></trkpt><trkpt lat="-35.6568166462928" lon="144.21912093980373"><ele>90.0</ele><time>2026-05-02T07:01:07Z</time></trkpt><trkpt lat="-35.65691043331111" lon="144.2190923871691"><ele>89.4</ele><time>2026-05-02T07:01:08Z</time></trkpt><trkpt lat="-35.6569856549758" lon="144.21903806188217"><ele>88.8</ele><time>2026-05-02T07:01:09Z</time></trkpt><trkpt lat="-35.65704960491837" lon="144.21894420321456"><ele>88.19999999999999</ele><time>2026-05-02T07:01:10Z</time></trkpt><trkpt lat="-35.657079356806584" lon="144.2187918899496"><ele>87.6</ele><time>2026-05-02T07:01:11Z</time></trkpt><trkpt lat="-35.65715001172427" lon="144.218684902411"><ele>87.0</ele><time>2026-05-02T07:01:12Z</time></trkpt><trkpt lat="-35.65722671430195" lon="144.21859089191116"><ele>87.0</ele><time>2026-05-02T07:01:13Z</time></trkpt><trkpt lat="-35.657302771547755" lon="144.21848563405462"><ele>87.0</ele><time>2026-05-02T07:01:14Z</time></trkpt><trkpt lat="-35.65736928422694" lon="144.21839341064717"><ele>87.0</ele><time>2026-05-02T07:01:15Z</time></trkpt><trkpt lat="-35.657446583797075" lon="144.21832492429976"><ele>87.0</ele><time>2026-05-02T07:01:16Z</time></trkpt><trkpt lat="-35.65751716081828" lon="144.21827935881217"><ele>87.0</ele><time>2026-05-02T07:01:17Z</time></trkpt><trkpt lat="-35.657581613309716" lon="144.2182751670663"><ele>87.0</ele><time>2026-05-02T07:01:18Z</time></trkpt><trkpt lat="-35.65767370222812" lon="144.21823940297404"><ele>87.0</ele><time>2026-05-02T07:01:20Z</time></trkpt><trkpt lat="-35.65773100781358" lon="144.2180937074669"><ele>87.0</ele><time>2026-05-02T07:01:21.999Z</time></trkpt><trkpt lat="-35.65769738451567" lon="144.2180023544839"><ele>87.0</ele><time>2026-05-02T07:01:22.999Z</time></trkpt><trkpt lat="-35.65762895401197" lon="144.21792748634215"><ele>87.0</ele><time>2026-05-02T07:01:23.999Z</time></trkpt><trkpt lat="-35.657596036272295" lon="144.21782485516525"><ele>87.0</ele><time>2026-05-02T07:01:24.999Z</time></trkpt><trkpt lat="-35.657583877971945" lon="144.2176921986433"><ele>87.0</ele><time>2026-05-02T07:01:25.999Z</time></trkpt><trkpt lat="-35.657561672259924" lon="144.21756790310752"><ele>87.0</ele><time>2026-05-02T07:01:26.999Z</time></trkpt><trkpt lat="-35.65753071587994" lon="144.21745903272165"><ele>87.0</ele><time>2026-05-02T07:01:27.999Z</time></trkpt><trkpt lat="-35.657484409884425" lon="144.21735318551862"><ele>87.0</ele><time>2026-05-02T07:01:28.999Z</time></trkpt><trkpt lat="-35.65745984095461" lon="144.21728011551733"><ele>87.33333333333333</ele><time>2026-05-02T07:01:29.999Z</time></trkpt><trkpt lat="-35.65753882060778" lon="144.21722447327616"><ele>87.66666666666667</ele><time>2026-05-02T07:01:31.999Z</time></trkpt><trkpt lat="-35.657616563081575" lon="144.21722944240423"><ele>88.0</ele><time>2026-05-02T07:01:32.999Z</time></trkpt><trkpt lat="-35.65771751918391" lon="144.21723349472865"><ele>88.33333333333334</ele><time>2026-05-02T07:01:33.999Z</time></trkpt><trkpt lat="-35.6577679249439" lon="144.21714505758283"><ele>88.66666666666667</ele><time>2026-05-02T07:01:35.999Z</time></trkpt><trkpt lat="-35.65769288379323" lon="144.21708647896367"><ele>89.0</ele><time>2026-05-02T07:01:37.999Z</time></trkpt><trkpt lat="-35.65739033339716" lon="144.21657103309585"><ele>89.0</ele><time>2026-05-02T07:01:41.999Z</time></trkpt><trkpt lat="-35.657398889640916" lon="144.2164369027153"><ele>89.0</ele><time>2026-05-02T07:01:42.999Z</time></trkpt><trkpt lat="-35.65734974775395" lon="144.21633387221175"><ele>89.0</ele><time>2026-05-02T07:01:43.999Z</time></trkpt><trkpt lat="-35.65727945545414" lon="144.2162475271162"><ele>89.0</ele><time>2026-05-02T07:01:44.999Z</time></trkpt><trkpt lat="-35.65718762196478" lon="144.2161866767483"><ele>89.0</ele><time>2026-05-02T07:01:45.999Z</time></trkpt><trkpt lat="-35.65710115087972" lon="144.21615019228736"><ele>89.0</ele><time>2026-05-02T07:01:46.999Z</time></trkpt><trkpt lat="-35.65706803742893" lon="144.21607459540135"><ele>89.0</ele><time>2026-05-02T07:01:47.999Z</time></trkpt><trkpt lat="-35.65704700822256" lon="144.21598778229378"><ele>89.0</ele><time>2026-05-02T07:01:48.999Z</time></trkpt><trkpt lat="-35.65701191087201" lon="144.21583931804741"><ele>89.0</ele><time>2026-05-02T07:01:49.999Z</time></trkpt><trkpt lat="-35.65692973299846" lon="144.2156114445471"><ele>88.80000000000001</ele><time>2026-05-02T07:01:50.999Z</time></trkpt><trkpt lat="-35.65687913691588" lon="144.21549231594173"><ele>88.60000000000001</ele><time>2026-05-02T07:01:51.999Z</time></trkpt><trkpt lat="-35.65687708067103" lon="144.21540559596193"><ele>88.4</ele><time>2026-05-02T07:01:52.999Z</time></trkpt><trkpt lat="-35.65689564535762" lon="144.2152659399152"><ele>88.2</ele><time>2026-05-02T07:01:54.999Z</time></trkpt><trkpt lat="-35.65678127057039" lon="144.2152373507048"><ele>88.0</ele><time>2026-05-02T07:01:56.999Z</time></trkpt><trkpt lat="-35.65667494653963" lon="144.2151368715673"><ele>88.0</ele><time>2026-05-02T07:01:58.999Z</time></trkpt><trkpt lat="-35.65655901967782" lon="144.2150751313896"><ele>88.0</ele><time>2026-05-02T07:01:59.999Z</time></trkpt><trkpt lat="-35.6564380349529" lon="144.2150041086471"><ele>88.0</ele><time>2026-05-02T07:02:00.999Z</time></trkpt><trkpt lat="-35.65632886548682" lon="144.21487531094937"><ele>88.0</ele><time>2026-05-02T07:02:01.999Z</time></trkpt><trkpt lat="-35.6562364205201" lon="144.21477728934622"><ele>88.16666666666666</ele><time>2026-05-02T07:02:02.999Z</time></trkpt><trkpt lat="-35.65617036156418" lon="144.21467523432761"><ele>88.33333333333333</ele><time>2026-05-02T07:02:03.999Z</time></trkpt><trkpt lat="-35.65611128273142" lon="144.21462186571526"><ele>88.5</ele><time>2026-05-02T07:02:04.999Z</time></trkpt><trkpt lat="-35.656061511717944" lon="144.2145733804728"><ele>88.66666666666667</ele><time>2026-05-02T07:02:06Z</time></trkpt><trkpt lat="-35.65606306997103" lon="144.21447609270683"><ele>88.83333333333334</ele><time>2026-05-02T07:02:07Z</time></trkpt><trkpt lat="-35.65608599772716" lon="144.21434499996982"><ele>89.0</ele><time>2026-05-02T07:02:08Z</time></trkpt><trkpt lat="-35.65610797211413" lon="144.21422563710507"><ele>88.5</ele><time>2026-05-02T07:02:09Z</time></trkpt><trkpt lat="-35.65610709075152" lon="144.21412258164975"><ele>88.0</ele><time>2026-05-02T07:02:10Z</time></trkpt><trkpt lat="-35.656048032036445" lon="144.21407397569604"><ele>87.5</ele><time>2026-05-02T07:02:11Z</time></trkpt><trkpt lat="-35.655969618151154" lon="144.21406836782845"><ele>87.0</ele><time>2026-05-02T07:02:12Z</time></trkpt><trkpt lat="-35.65590468764645" lon="144.2140834495398"><ele>86.5</ele><time>2026-05-02T07:02:13Z</time></trkpt><trkpt lat="-35.65581524934073" lon="144.21412754685957"><ele>86.0</ele><time>2026-05-02T07:02:15Z</time></trkpt><trkpt lat="-35.65578274132655" lon="144.21403967304013"><ele>86.19999999999999</ele><time>2026-05-02T07:02:17Z</time></trkpt><trkpt lat="-35.65578313219937" lon="144.21392938598484"><ele>86.39999999999999</ele><time>2026-05-02T07:02:18Z</time></trkpt><trkpt lat="-35.65579269977211" lon="144.21375620132042"><ele>86.6</ele><time>2026-05-02T07:02:19Z</time></trkpt><trkpt lat="-35.65582304093609" lon="144.21368624221492"><ele>86.8</ele><time>2026-05-02T07:02:20Z</time></trkpt><trkpt lat="-35.655926068366746" lon="144.21362699462983"><ele>87.0</ele><time>2026-05-02T07:02:22Z</time></trkpt><trkpt lat="-35.65596774581606" lon="144.21356067234353"><ele>87.0</ele><time>2026-05-02T07:02:23Z</time></trkpt><trkpt lat="-35.655964268020455" lon="144.21348230263442"><ele>87.0</ele><time>2026-05-02T07:02:24Z</time></trkpt><trkpt lat="-35.655925660241934" lon="144.2133714824231"><ele>87.0</ele><time>2026-05-02T07:02:25Z</time></trkpt><trkpt lat="-35.65588212492659" lon="144.21325386442024"><ele>87.0</ele><time>2026-05-02T07:02:26Z</time></trkpt><trkpt lat="-35.65582035107488" lon="144.21310426110452"><ele>87.0</ele><time>2026-05-02T07:02:27Z</time></trkpt><trkpt lat="-35.65579058468844" lon="144.2129708211205"><ele>87.39999999999999</ele><time>2026-05-02T07:02:28Z</time></trkpt><trkpt lat="-35.65575685553978" lon="144.21286574652942"><ele>87.8</ele><time>2026-05-02T07:02:29Z</time></trkpt><trkpt lat="-35.655700875211316" lon="144.21277482967827"><ele>88.2</ele><time>2026-05-02T07:02:30Z</time></trkpt><trkpt lat="-35.6556145763261" lon="144.2127039130209"><ele>88.6</ele><time>2026-05-02T07:02:31Z</time></trkpt><trkpt lat="-35.65553857801112" lon="144.21264394157714"><ele>89.0</ele><time>2026-05-02T07:02:32Z</time></trkpt><trkpt lat="-35.65547160097939" lon="144.21258496984714"><ele>89.0</ele><time>2026-05-02T07:02:33Z</time></trkpt><trkpt lat="-35.655425999935204" lon="144.21251715576156"><ele>89.0</ele><time>2026-05-02T07:02:34Z</time></trkpt><trkpt lat="-35.65537267098844" lon="144.2124561705704"><ele>89.0</ele><time>2026-05-02T07:02:35Z</time></trkpt><trkpt lat="-35.6552470050531" lon="144.21244050692283"><ele>89.0</ele><time>2026-05-02T07:02:37Z</time></trkpt><trkpt lat="-35.65516574513515" lon="144.21244768229968"><ele>89.0</ele><time>2026-05-02T07:02:38Z</time></trkpt><trkpt lat="-35.65509941723747" lon="144.21248006846164"><ele>89.0</ele><time>2026-05-02T07:02:39Z</time></trkpt><trkpt lat="-35.655020884223006" lon="144.21250955655563"><ele>89.16666666666667</ele><time>2026-05-02T07:02:41Z</time></trkpt><trkpt lat="-35.65503950134646" lon="144.21241441518114"><ele>89.33333333333334</ele><time>2026-05-02T07:02:44Z</time></trkpt><trkpt lat="-35.655094527445975" lon="144.2123521481753"><ele>89.5</ele><time>2026-05-02T07:02:45Z</time></trkpt><trkpt lat="-35.65517976302966" lon="144.21225389182766"><ele>89.66666666666667</ele><time>2026-05-02T07:02:46Z</time></trkpt><trkpt lat="-35.65520121672563" lon="144.21216951418464"><ele>89.83333333333333</ele><time>2026-05-02T07:02:47Z</time></trkpt><trkpt lat="-35.6551201316293" lon="144.21210046258807"><ele>90.0</ele><time>2026-05-02T07:02:49Z</time></trkpt><trkpt lat="-35.65502737817567" lon="144.21208327368146"><ele>90.0</ele><time>2026-05-02T07:02:51Z</time></trkpt><trkpt lat="-35.65487248053535" lon="144.21194582266392"><ele>90.0</ele><time>2026-05-02T07:02:54Z</time></trkpt><trkpt lat="-35.654755762708206" lon="144.21187828651105"><ele>90.0</ele><time>2026-05-02T07:02:55Z</time></trkpt><trkpt lat="-35.65463047664804" lon="144.2118305508916"><ele>90.0</ele><time>2026-05-02T07:02:56Z</time></trkpt><trkpt lat="-35.65452988003722" lon="144.2117931499209"><ele>90.0</ele><time>2026-05-02T07:02:57Z</time></trkpt><trkpt lat="-35.65444382756893" lon="144.2117576872302"><ele>90.0</ele><time>2026-05-02T07:02:58Z</time></trkpt><trkpt lat="-35.65441859495036" lon="144.2116324766489"><ele>90.0</ele><time>2026-05-02T07:03:00Z</time></trkpt><trkpt lat="-35.654391787552164" lon="144.21148134434225"><ele>90.0</ele><time>2026-05-02T07:03:02Z</time></trkpt><trkpt lat="-35.6543592067393" lon="144.21141158825912"><ele>90.5</ele><time>2026-05-02T07:03:03Z</time></trkpt><trkpt lat="-35.654251217500935" lon="144.21136863385408"><ele>91.0</ele><time>2026-05-02T07:03:04Z</time></trkpt><trkpt lat="-35.654144715947275" lon="144.21131214345485"><ele>91.5</ele><time>2026-05-02T07:03:05Z</time></trkpt><trkpt lat="-35.65401962666652" lon="144.21123983043108"><ele>92.0</ele><time>2026-05-02T07:03:06Z</time></trkpt><trkpt lat="-35.65390317040849" lon="144.211185804209"><ele>92.0</ele><time>2026-05-02T07:03:07Z</time></trkpt><trkpt lat="-35.653779255756774" lon="144.2111008103784"><ele>92.0</ele><time>2026-05-02T07:03:08Z</time></trkpt><trkpt lat="-35.65368914209479" lon="144.2110645773408"><ele>92.0</ele><time>2026-05-02T07:03:09Z</time></trkpt><trkpt lat="-35.65359760504803" lon="144.21105123158688"><ele>92.0</ele><time>2026-05-02T07:03:10Z</time></trkpt><trkpt lat="-35.65353327252384" lon="144.21108636647114"><ele>92.0</ele><time>2026-05-02T07:03:11Z</time></trkpt><trkpt lat="-35.653470409361255" lon="144.21110772531136"><ele>91.83333333333334</ele><time>2026-05-02T07:03:12Z</time></trkpt><trkpt lat="-35.6533969429654" lon="144.21108238185062"><ele>91.66666666666667</ele><time>2026-05-02T07:03:13Z</time></trkpt><trkpt lat="-35.653335550715134" lon="144.21102019845316"><ele>91.5</ele><time>2026-05-02T07:03:14Z</time></trkpt><trkpt lat="-35.653265266816156" lon="144.2110037963621"><ele>91.33333333333333</ele><time>2026-05-02T07:03:16Z</time></trkpt><trkpt lat="-35.653197763052155" lon="144.21098255580668"><ele>91.16666666666666</ele><time>2026-05-02T07:03:24.999Z</time></trkpt><trkpt lat="-35.65315355817984" lon="144.21083159092026"><ele>91.0</ele><time>2026-05-02T07:03:26.999Z</time></trkpt><trkpt lat="-35.6531679327334" lon="144.21072651310388"><ele>90.83333333333333</ele><time>2026-05-02T07:03:27.999Z</time></trkpt><trkpt lat="-35.65320947009356" lon="144.2106183323269"><ele>90.66666666666666</ele><time>2026-05-02T07:03:28.999Z</time></trkpt><trkpt lat="-35.65325921343241" lon="144.21056430165274"><ele>90.5</ele><time>2026-05-02T07:03:29.999Z</time></trkpt><trkpt lat="-35.653186044872" lon="144.21051096430017"><ele>90.33333333333333</ele><time>2026-05-02T07:03:31.999Z</time></trkpt><trkpt lat="-35.65309881351842" lon="144.2105171417601"><ele>90.16666666666667</ele><time>2026-05-02T07:03:35.999Z</time></trkpt><trkpt lat="-35.65303451085646" lon="144.21051841853887"><ele>90.0</ele><time>2026-05-02T07:03:36.999Z</time></trkpt><trkpt lat="-35.65296586554988" lon="144.21048343825223"><ele>90.0</ele><time>2026-05-02T07:03:38.999Z</time></trkpt><trkpt lat="-35.65290278046934" lon="144.21037541615001"><ele>90.0</ele><time>2026-05-02T07:03:42.999Z</time></trkpt><trkpt lat="-35.6524867646512" lon="144.20991122749004"><ele>90.0</ele><time>2026-05-02T07:03:47.999Z</time></trkpt><trkpt lat="-35.652516828433924" lon="144.20980764545806"><ele>90.0</ele><time>2026-05-02T07:03:49.999Z</time></trkpt><trkpt lat="-35.65261573353875" lon="144.20985530889254"><ele>90.0</ele><time>2026-05-02T07:03:50.999Z</time></trkpt><trkpt lat="-35.65271997569946" lon="144.20992400925948"><ele>90.0</ele><time>2026-05-02T07:03:52.999Z</time></trkpt><trkpt lat="-35.652802235564714" lon="144.21002289623098"><ele>90.0</ele><time>2026-05-02T07:03:53.999Z</time></trkpt><trkpt lat="-35.652876930047974" lon="144.210081930269"><ele>90.0</ele><time>2026-05-02T07:03:54.999Z</time></trkpt><trkpt lat="-35.652948259310385" lon="144.21011541142718"><ele>90.0</ele><time>2026-05-02T07:03:55.999Z</time></trkpt><trkpt lat="-35.65301460752563" lon="144.21009502444696"><ele>90.0</ele><time>2026-05-02T07:03:56.999Z</time></trkpt><trkpt lat="-35.653088949332684" lon="144.21006749676735"><ele>90.0</ele><time>2026-05-02T07:03:57.999Z</time></trkpt><trkpt lat="-35.65318037258429" lon="144.2100827859299"><ele>90.0</ele><time>2026-05-02T07:03:58.999Z</time></trkpt><trkpt lat="-35.65325688617644" lon="144.21012485227843"><ele>90.0</ele><time>2026-05-02T07:03:59.999Z</time></trkpt><trkpt lat="-35.6533027762711" lon="144.21006396274728"><ele>90.0</ele><time>2026-05-02T07:04:01.999Z</time></trkpt><trkpt lat="-35.65328217024418" lon="144.20997060557"><ele>90.0</ele><time>2026-05-02T07:04:04.999Z</time></trkpt><trkpt lat="-35.65321075401929" lon="144.20996175723968"><ele>90.0</ele><time>2026-05-02T07:04:06.999Z</time></trkpt><trkpt lat="-35.65314077132666" lon="144.20993939178894"><ele>90.0</ele><time>2026-05-02T07:04:08.999Z</time></trkpt><trkpt lat="-35.6530650926682" lon="144.20995124216805"><ele>90.0</ele><time>2026-05-02T07:04:12Z</time></trkpt><trkpt lat="-35.65283681301978" lon="144.21002008113868"><ele>90.0</ele><time>2026-05-02T07:04:14Z</time></trkpt><trkpt lat="-35.65276682556379" lon="144.20999565721706"><ele>90.0</ele><time>2026-05-02T07:04:15Z</time></trkpt><trkpt lat="-35.65270974777288" lon="144.20992975892122"><ele>90.0</ele><time>2026-05-02T07:04:16Z</time></trkpt><trkpt lat="-35.65265177915016" lon="144.2098682875835"><ele>90.0</ele><time>2026-05-02T07:04:17Z</time></trkpt><trkpt lat="-35.65258285749291" lon="144.20980804243936"><ele>90.0</ele><time>2026-05-02T07:04:18Z</time></trkpt><trkpt lat="-35.65251428440239" lon="144.209819558144"><ele>90.0</ele><time>2026-05-02T07:04:20Z</time></trkpt><trkpt lat="-35.65244034739145" lon="144.20986168535674"><ele>90.0</ele><time>2026-05-02T07:04:24Z</time></trkpt><trkpt lat="-35.65235142194824" lon="144.20985333875632"><ele>90.0</ele><time>2026-05-02T07:04:26Z</time></trkpt><trkpt lat="-35.65230061562585" lon="144.20980679283338"><ele>90.0</ele><time>2026-05-02T07:04:29Z</time></trkpt><trkpt lat="-35.65223540477901" lon="144.2097327388139"><ele>90.0</ele><time>2026-05-02T07:04:33Z</time></trkpt><trkpt lat="-35.65218148480955" lon="144.20963883540082"><ele>90.0</ele><time>2026-05-02T07:04:37Z</time></trkpt><trkpt lat="-35.652179944191786" lon="144.20951172148784"><ele>90.0</ele><time>2026-05-02T07:04:39Z</time></trkpt><trkpt lat="-35.652291142077395" lon="144.20951101475373"><ele>90.0</ele><time>2026-05-02T07:04:42Z</time></trkpt><trkpt lat="-35.65232419939959" lon="144.20960484180472"><ele>90.0</ele><time>2026-05-02T07:04:44Z</time></trkpt><trkpt lat="-35.65230440130017" lon="144.2098073571312"><ele>90.0</ele><time>2026-05-02T07:04:46Z</time></trkpt><trkpt lat="-35.6522881575505" lon="144.20998598235445"><ele>90.0</ele><time>2026-05-02T07:04:47Z</time></trkpt><trkpt lat="-35.652258712999235" lon="144.2101947766148"><ele>90.0</ele><time>2026-05-02T07:04:48Z</time></trkpt><trkpt lat="-35.65223632175035" lon="144.21042264537277"><ele>90.0</ele><time>2026-05-02T07:04:49Z</time></trkpt><trkpt lat="-35.65219738301125" lon="144.21064331589352"><ele>90.0</ele><time>2026-05-02T07:04:50Z</time></trkpt><trkpt lat="-35.652165021312136" lon="144.21084720087146"><ele>90.0</ele><time>2026-05-02T07:04:51Z</time></trkpt><trkpt lat="-35.65211992891642" lon="144.21105835839106"><ele>90.0</ele><time>2026-05-02T07:04:52Z</time></trkpt><trkpt lat="-35.652069758538886" lon="144.21127609115052"><ele>90.0</ele><time>2026-05-02T07:04:53Z</time></trkpt><trkpt lat="-35.65201493852467" lon="144.21149639481402"><ele>89.0</ele><time>2026-05-02T07:04:54Z</time></trkpt><trkpt lat="-35.65195122962416" lon="144.2117134941868"><ele>88.0</ele><time>2026-05-02T07:04:55Z</time></trkpt><trkpt lat="-35.651889044114704" lon="144.211934456858"><ele>87.0</ele><time>2026-05-02T07:04:56Z</time></trkpt><trkpt lat="-35.65182291393839" lon="144.21214327122686"><ele>85.66666666666667</ele><time>2026-05-02T07:04:57Z</time></trkpt><trkpt lat="-35.651763208874726" lon="144.2123441350773"><ele>84.33333333333334</ele><time>2026-05-02T07:04:58Z</time></trkpt><trkpt lat="-35.65170930299402" lon="144.21251548052558"><ele>83.0</ele><time>2026-05-02T07:04:59Z</time></trkpt><trkpt lat="-35.65165204829975" lon="144.212674363105"><ele>83.0</ele><time>2026-05-02T07:05:00Z</time></trkpt><trkpt lat="-35.65160132509958" lon="144.21282151600434"><ele>83.0</ele><time>2026-05-02T07:05:01Z</time></trkpt><trkpt lat="-35.65155604663643" lon="144.21295368099214"><ele>83.0</ele><time>2026-05-02T07:05:02Z</time></trkpt><trkpt lat="-35.65152509777269" lon="144.213067659616"><ele>83.0</ele><time>2026-05-02T07:05:03Z</time></trkpt><trkpt lat="-35.65152898885173" lon="144.2131581381646"><ele>83.0</ele><time>2026-05-02T07:05:04Z</time></trkpt><trkpt lat="-35.65154770861556" lon="144.21325244629764"><ele>82.80000000000001</ele><time>2026-05-02T07:05:05Z</time></trkpt><trkpt lat="-35.65157381573203" lon="144.21335556815623"><ele>82.6</ele><time>2026-05-02T07:05:06Z</time></trkpt><trkpt lat="-35.651571834883725" lon="144.2134593774395"><ele>82.4</ele><time>2026-05-02T07:05:07Z</time></trkpt><trkpt lat="-35.65154815729992" lon="144.21355893485574"><ele>82.19999999999999</ele><time>2026-05-02T07:05:08Z</time></trkpt><trkpt lat="-35.651492343294166" lon="144.21364783917727"><ele>82.0</ele><time>2026-05-02T07:05:09Z</time></trkpt><trkpt lat="-35.651409044940294" lon="144.21372883503136"><ele>82.0</ele><time>2026-05-02T07:05:10Z</time></trkpt><trkpt lat="-35.651330717107655" lon="144.21382575353886"><ele>82.0</ele><time>2026-05-02T07:05:11Z</time></trkpt><trkpt lat="-35.651262062765866" lon="144.21395481888422"><ele>82.0</ele><time>2026-05-02T07:05:12Z</time></trkpt><trkpt lat="-35.65119185788717" lon="144.21413041566302"><ele>82.0</ele><time>2026-05-02T07:05:13Z</time></trkpt><trkpt lat="-35.65112060795645" lon="144.2143425094503"><ele>82.33333333333333</ele><time>2026-05-02T07:05:14Z</time></trkpt><trkpt lat="-35.65104326711002" lon="144.21455961622755"><ele>82.66666666666667</ele><time>2026-05-02T07:05:15Z</time></trkpt><trkpt lat="-35.650954401595634" lon="144.2147530035816"><ele>83.0</ele><time>2026-05-02T07:05:16Z</time></trkpt><trkpt lat="-35.65086450423405" lon="144.21492165942237"><ele>83.66666666666667</ele><time>2026-05-02T07:05:17Z</time></trkpt><trkpt lat="-35.65077346503985" lon="144.21508381200042"><ele>84.33333333333333</ele><time>2026-05-02T07:05:18Z</time></trkpt><trkpt lat="-35.650688706569866" lon="144.2152572930523"><ele>85.0</ele><time>2026-05-02T07:05:19Z</time></trkpt><trkpt lat="-35.65062073200741" lon="144.21543543383282"><ele>85.0</ele><time>2026-05-02T07:05:20Z</time></trkpt><trkpt lat="-35.65056194884755" lon="144.2156139683138"><ele>85.0</ele><time>2026-05-02T07:05:21Z</time></trkpt><trkpt lat="-35.65049255437564" lon="144.2157849786648"><ele>85.0</ele><time>2026-05-02T07:05:22Z</time></trkpt><trkpt lat="-35.65041314378886" lon="144.2159328870163"><ele>85.66666666666666</ele><time>2026-05-02T07:05:23Z</time></trkpt><trkpt lat="-35.65032296021381" lon="144.2160828281015"><ele>86.33333333333333</ele><time>2026-05-02T07:05:24Z</time></trkpt><trkpt lat="-35.650258293887305" lon="144.21626040231357"><ele>87.0</ele><time>2026-05-02T07:05:25Z</time></trkpt><trkpt lat="-35.65021761212786" lon="144.21646115019402"><ele>87.33333333333333</ele><time>2026-05-02T07:05:26Z</time></trkpt><trkpt lat="-35.650169621578605" lon="144.21664783952056"><ele>87.66666666666666</ele><time>2026-05-02T07:05:27Z</time></trkpt><trkpt lat="-35.65012831601749" lon="144.21681592715854"><ele>88.0</ele><time>2026-05-02T07:05:27.999Z</time></trkpt><trkpt lat="-35.65009489233555" lon="144.2169976175672"><ele>88.0</ele><time>2026-05-02T07:05:28.999Z</time></trkpt><trkpt lat="-35.6500754220612" lon="144.2171968709753"><ele>88.0</ele><time>2026-05-02T07:05:29.999Z</time></trkpt><trkpt lat="-35.65006242142984" lon="144.21738594370592"><ele>88.0</ele><time>2026-05-02T07:05:30.999Z</time></trkpt><trkpt lat="-35.65004357366053" lon="144.21758038993465"><ele>87.5</ele><time>2026-05-02T07:05:31.999Z</time></trkpt><trkpt lat="-35.65000674920835" lon="144.21776309135998"><ele>87.0</ele><time>2026-05-02T07:05:32.999Z</time></trkpt><trkpt lat="-35.64998602307438" lon="144.21791932083642"><ele>86.5</ele><time>2026-05-02T07:05:33.999Z</time></trkpt><trkpt lat="-35.64995890883256" lon="144.21805946993572"><ele>86.0</ele><time>2026-05-02T07:05:34.999Z</time></trkpt><trkpt lat="-35.649922361917625" lon="144.21819954070492"><ele>85.5</ele><time>2026-05-02T07:05:35.999Z</time></trkpt><trkpt lat="-35.649914740479375" lon="144.21836420866615"><ele>85.0</ele><time>2026-05-02T07:05:36.999Z</time></trkpt><trkpt lat="-35.64990676606094" lon="144.218559487133"><ele>84.5</ele><time>2026-05-02T07:05:37.999Z</time></trkpt><trkpt lat="-35.64988515915902" lon="144.21874091688366"><ele>84.0</ele><time>2026-05-02T07:05:38.999Z</time></trkpt><trkpt lat="-35.64985989206734" lon="144.21891059478276"><ele>84.25</ele><time>2026-05-02T07:05:39.999Z</time></trkpt><trkpt lat="-35.64983213433611" lon="144.21906785422397"><ele>84.5</ele><time>2026-05-02T07:05:40.999Z</time></trkpt><trkpt lat="-35.649819642296976" lon="144.219230906402"><ele>84.75</ele><time>2026-05-02T07:05:41.999Z</time></trkpt><trkpt lat="-35.64981283780694" lon="144.21940947531382"><ele>85.0</ele><time>2026-05-02T07:05:42.999Z</time></trkpt><trkpt lat="-35.64981015477524" lon="144.2195733663819"><ele>85.0</ele><time>2026-05-02T07:05:43.999Z</time></trkpt><trkpt lat="-35.64982824928729" lon="144.21974079788095"><ele>85.0</ele><time>2026-05-02T07:05:44.999Z</time></trkpt><trkpt lat="-35.64984356564253" lon="144.21993764647104"><ele>85.0</ele><time>2026-05-02T07:05:45.999Z</time></trkpt><trkpt lat="-35.649829858841606" lon="144.22013925723047"><ele>85.0</ele><time>2026-05-02T07:05:46.999Z</time></trkpt><trkpt lat="-35.64981326248899" lon="144.22033972798206"><ele>85.0</ele><time>2026-05-02T07:05:47.999Z</time></trkpt><trkpt lat="-35.649814122723754" lon="144.22050837771434"><ele>85.0</ele><time>2026-05-02T07:05:48.999Z</time></trkpt><trkpt lat="-35.649821985913164" lon="144.22066066306797"><ele>85.0</ele><time>2026-05-02T07:05:49.999Z</time></trkpt><trkpt lat="-35.6498118854837" lon="144.22080893415733"><ele>84.75</ele><time>2026-05-02T07:05:50.999Z</time></trkpt><trkpt lat="-35.64979021774129" lon="144.2209694528843"><ele>84.5</ele><time>2026-05-02T07:05:51.999Z</time></trkpt><trkpt lat="-35.64978074988347" lon="144.22112705630292"><ele>84.25</ele><time>2026-05-02T07:05:52.999Z</time></trkpt><trkpt lat="-35.649783770520834" lon="144.22128410502236"><ele>84.0</ele><time>2026-05-02T07:05:53.999Z</time></trkpt><trkpt lat="-35.64978110101606" lon="144.22144790609272"><ele>84.0</ele><time>2026-05-02T07:05:54.999Z</time></trkpt><trkpt lat="-35.64977542440766" lon="144.2216041191454"><ele>84.0</ele><time>2026-05-02T07:05:55.999Z</time></trkpt><trkpt lat="-35.64975201815676" lon="144.22173644429094"><ele>84.0</ele><time>2026-05-02T07:05:56.999Z</time></trkpt><trkpt lat="-35.64973788282145" lon="144.2218660546768"><ele>84.0</ele><time>2026-05-02T07:05:57.999Z</time></trkpt><trkpt lat="-35.64973978672395" lon="144.22201459845527"><ele>84.0</ele><time>2026-05-02T07:05:58.999Z</time></trkpt><trkpt lat="-35.64976345379284" lon="144.22217235556678"><ele>84.0</ele><time>2026-05-02T07:05:59.999Z</time></trkpt><trkpt lat="-35.64979021534463" lon="144.2223237660753"><ele>84.0</ele><time>2026-05-02T07:06:00.999Z</time></trkpt><trkpt lat="-35.64980891016958" lon="144.22247493520555"><ele>84.0</ele><time>2026-05-02T07:06:01.999Z</time></trkpt><trkpt lat="-35.64982089665361" lon="144.22263738938992"><ele>84.0</ele><time>2026-05-02T07:06:02.999Z</time></trkpt><trkpt lat="-35.64983368422819" lon="144.22280417449065"><ele>84.0</ele><time>2026-05-02T07:06:03.999Z</time></trkpt><trkpt lat="-35.64985052362955" lon="144.2229617487859"><ele>84.0</ele><time>2026-05-02T07:06:04.999Z</time></trkpt><trkpt lat="-35.64986256861389" lon="144.22312291490107"><ele>84.0</ele><time>2026-05-02T07:06:05.999Z</time></trkpt><trkpt lat="-35.6498647428896" lon="144.2232822079513"><ele>84.0</ele><time>2026-05-02T07:06:06.999Z</time></trkpt><trkpt lat="-35.649869361281986" lon="144.22343856275594"><ele>84.0</ele><time>2026-05-02T07:06:07.999Z</time></trkpt><trkpt lat="-35.64987697777264" lon="144.2236218062978"><ele>84.0</ele><time>2026-05-02T07:06:08.999Z</time></trkpt><trkpt lat="-35.64988627061402" lon="144.22380278988567"><ele>84.0</ele><time>2026-05-02T07:06:09.999Z</time></trkpt><trkpt lat="-35.649891951918406" lon="144.22399559843552"><ele>84.0</ele><time>2026-05-02T07:06:10.999Z</time></trkpt><trkpt lat="-35.64989710490854" lon="144.22419123737572"><ele>84.0</ele><time>2026-05-02T07:06:11.999Z</time></trkpt><trkpt lat="-35.649899244479386" lon="144.22438236714342"><ele>84.0</ele><time>2026-05-02T07:06:12.999Z</time></trkpt><trkpt lat="-35.649908211440135" lon="144.2245729007592"><ele>84.0</ele><time>2026-05-02T07:06:13.999Z</time></trkpt><trkpt lat="-35.64992520067343" lon="144.22474397202927"><ele>84.0</ele><time>2026-05-02T07:06:14.999Z</time></trkpt><trkpt lat="-35.64993845534183" lon="144.22492459770095"><ele>84.0</ele><time>2026-05-02T07:06:15.999Z</time></trkpt><trkpt lat="-35.6499524539031" lon="144.2251137385331"><ele>84.0</ele><time>2026-05-02T07:06:16.999Z</time></trkpt><trkpt lat="-35.6499624150389" lon="144.22531204948928"><ele>84.33333333333333</ele><time>2026-05-02T07:06:18Z</time></trkpt><trkpt lat="-35.64996842458154" lon="144.22551338508111"><ele>84.66666666666666</ele><time>2026-05-02T07:06:19Z</time></trkpt><trkpt lat="-35.649975290332904" lon="144.22571930632495"><ele>85.0</ele><time>2026-05-02T07:06:20Z</time></trkpt><trkpt lat="-35.64998659456225" lon="144.22593417191516"><ele>86.0</ele><time>2026-05-02T07:06:21Z</time></trkpt><trkpt lat="-35.64999599414143" lon="144.22613176332578"><ele>87.0</ele><time>2026-05-02T07:06:22Z</time></trkpt><trkpt lat="-35.64999427892867" lon="144.2263099593365"><ele>88.0</ele><time>2026-05-02T07:06:23Z</time></trkpt><trkpt lat="-35.64999500232568" lon="144.2264853207012"><ele>89.0</ele><time>2026-05-02T07:06:24Z</time></trkpt><trkpt lat="-35.64999767530671" lon="144.22664371012155"><ele>89.25</ele><time>2026-05-02T07:06:25Z</time></trkpt><trkpt lat="-35.64999459522512" lon="144.22682117276355"><ele>89.5</ele><time>2026-05-02T07:06:26Z</time></trkpt><trkpt lat="-35.64998934447735" lon="144.22699888449137"><ele>89.75</ele><time>2026-05-02T07:06:27Z</time></trkpt><trkpt lat="-35.649985071270564" lon="144.2271692907144"><ele>90.0</ele><time>2026-05-02T07:06:28Z</time></trkpt><trkpt lat="-35.649970449035166" lon="144.22732991665387"><ele>89.5</ele><time>2026-05-02T07:06:29Z</time></trkpt><trkpt lat="-35.64995467490734" lon="144.22748496662953"><ele>89.0</ele><time>2026-05-02T07:06:30Z</time></trkpt><trkpt lat="-35.64993654458692" lon="144.2276514030393"><ele>88.5</ele><time>2026-05-02T07:06:31Z</time></trkpt><trkpt lat="-35.64991201474679" lon="144.22782126352595"><ele>88.0</ele><time>2026-05-02T07:06:32Z</time></trkpt><trkpt lat="-35.64988602924836" lon="144.22798075067752"><ele>88.0</ele><time>2026-05-02T07:06:33Z</time></trkpt><trkpt lat="-35.64986751827776" lon="144.2281332582006"><ele>88.0</ele><time>2026-05-02T07:06:34Z</time></trkpt><trkpt lat="-35.64985081026297" lon="144.22827038900869"><ele>88.0</ele><time>2026-05-02T07:06:35Z</time></trkpt><trkpt lat="-35.64981931193558" lon="144.22839268432662"><ele>88.0</ele><time>2026-05-02T07:06:36Z</time></trkpt><trkpt lat="-35.64978169377462" lon="144.2285016357489"><ele>88.0</ele><time>2026-05-02T07:06:37Z</time></trkpt><trkpt lat="-35.64974465328005" lon="144.22861432691803"><ele>87.66666666666666</ele><time>2026-05-02T07:06:38Z</time></trkpt><trkpt lat="-35.64971507154764" lon="144.22872599143162"><ele>87.33333333333333</ele><time>2026-05-02T07:06:39Z</time></trkpt><trkpt lat="-35.64968020882076" lon="144.22882083410082"><ele>87.0</ele><time>2026-05-02T07:06:40Z</time></trkpt><trkpt lat="-35.64964755520512" lon="144.2289013313954"><ele>86.66666666666667</ele><time>2026-05-02T07:06:41Z</time></trkpt><trkpt lat="-35.64961707631759" lon="144.2289772717562"><ele>86.33333333333334</ele><time>2026-05-02T07:06:42Z</time></trkpt><trkpt lat="-35.64958961026364" lon="144.22905486325118"><ele>86.0</ele><time>2026-05-02T07:06:43Z</time></trkpt><trkpt lat="-35.64955078915261" lon="144.22918201109675"><ele>86.0</ele><time>2026-05-02T07:06:45Z</time></trkpt><trkpt lat="-35.64950549362625" lon="144.22923966140442"><ele>86.0</ele><time>2026-05-02T07:06:47Z</time></trkpt><trkpt lat="-35.6495582283687" lon="144.22912117379926"><ele>86.0</ele><time>2026-05-02T07:06:58Z</time></trkpt><trkpt lat="-35.649613294738685" lon="144.22901822816655"><ele>86.0</ele><time>2026-05-02T07:06:59Z</time></trkpt><trkpt lat="-35.6496765235785" lon="144.22885222992178"><ele>86.0</ele><time>2026-05-02T07:07:00Z</time></trkpt><trkpt lat="-35.649739553929315" lon="144.2286383121434"><ele>86.0</ele><time>2026-05-02T07:07:01Z</time></trkpt><trkpt lat="-35.64980493952542" lon="144.2284009281613"><ele>86.0</ele><time>2026-05-02T07:07:02Z</time></trkpt><trkpt lat="-35.64987410684154" lon="144.2281428710668"><ele>86.0</ele><time>2026-05-02T07:07:03Z</time></trkpt><trkpt lat="-35.64992004139479" lon="144.2278905795548"><ele>86.66666666666667</ele><time>2026-05-02T07:07:04Z</time></trkpt><trkpt lat="-35.64993896102657" lon="144.22767255708723"><ele>87.33333333333333</ele><time>2026-05-02T07:07:05Z</time></trkpt><trkpt lat="-35.649957966781166" lon="144.2274744445952"><ele>88.0</ele><time>2026-05-02T07:07:06Z</time></trkpt><trkpt lat="-35.649967641236344" lon="144.22727674419522"><ele>88.66666666666666</ele><time>2026-05-02T07:07:07Z</time></trkpt><trkpt lat="-35.64997808377785" lon="144.2270666783519"><ele>89.33333333333333</ele><time>2026-05-02T07:07:08Z</time></trkpt><trkpt lat="-35.6499886757519" lon="144.22686523666007"><ele>90.0</ele><time>2026-05-02T07:07:09Z</time></trkpt><trkpt lat="-35.6499862396762" lon="144.2266890661253"><ele>90.0</ele><time>2026-05-02T07:07:10Z</time></trkpt><trkpt lat="-35.64998879811812" lon="144.2265191567225"><ele>90.0</ele><time>2026-05-02T07:07:11Z</time></trkpt><trkpt lat="-35.64998427198612" lon="144.22634820341497"><ele>90.0</ele><time>2026-05-02T07:07:12Z</time></trkpt><trkpt lat="-35.6499803425853" lon="144.2261632409225"><ele>90.0</ele><time>2026-05-02T07:07:13Z</time></trkpt><trkpt lat="-35.64998046273366" lon="144.22596896383135"><ele>89.66666666666667</ele><time>2026-05-02T07:07:14Z</time></trkpt><trkpt lat="-35.649978690003906" lon="144.22577049874565"><ele>89.33333333333334</ele><time>2026-05-02T07:07:15Z</time></trkpt><trkpt lat="-35.64996695931961" lon="144.22557860837816"><ele>89.0</ele><time>2026-05-02T07:07:16Z</time></trkpt><trkpt lat="-35.64995779263735" lon="144.22538437117012"><ele>88.0</ele><time>2026-05-02T07:07:17Z</time></trkpt><trkpt lat="-35.64994831932082" lon="144.22519941831507"><ele>87.0</ele><time>2026-05-02T07:07:18Z</time></trkpt><trkpt lat="-35.64993723986072" lon="144.22501882706942"><ele>86.0</ele><time>2026-05-02T07:07:19Z</time></trkpt><trkpt lat="-35.64992657690944" lon="144.2248326934142"><ele>85.0</ele><time>2026-05-02T07:07:20Z</time></trkpt><trkpt lat="-35.649916162829044" lon="144.2246505684453"><ele>84.75</ele><time>2026-05-02T07:07:21Z</time></trkpt><trkpt lat="-35.64990132972522" lon="144.2244685187102"><ele>84.5</ele><time>2026-05-02T07:07:22Z</time></trkpt><trkpt lat="-35.649886146513104" lon="144.22429079848706"><ele>84.25</ele><time>2026-05-02T07:07:23Z</time></trkpt><trkpt lat="-35.64987570721274" lon="144.22411147315577"><ele>84.0</ele><time>2026-05-02T07:07:24Z</time></trkpt><trkpt lat="-35.649876153996765" lon="144.2239200611024"><ele>83.33333333333333</ele><time>2026-05-02T07:07:25Z</time></trkpt><trkpt lat="-35.64986974167694" lon="144.22373510641887"><ele>82.66666666666666</ele><time>2026-05-02T07:07:26Z</time></trkpt><trkpt lat="-35.64985842891144" lon="144.2235546504666"><ele>82.0</ele><time>2026-05-02T07:07:27Z</time></trkpt><trkpt lat="-35.6498518055672" lon="144.22336677873642"><ele>82.0</ele><time>2026-05-02T07:07:28Z</time></trkpt><trkpt lat="-35.64984299298038" lon="144.22317631043606"><ele>82.0</ele><time>2026-05-02T07:07:29Z</time></trkpt><trkpt lat="-35.64983605548436" lon="144.22298151983864"><ele>82.0</ele><time>2026-05-02T07:07:30Z</time></trkpt><trkpt lat="-35.64981949179901" lon="144.22279125191244"><ele>82.5</ele><time>2026-05-02T07:07:31Z</time></trkpt><trkpt lat="-35.64980781178533" lon="144.22260569012232"><ele>83.0</ele><time>2026-05-02T07:07:32Z</time></trkpt><trkpt lat="-35.64979313875608" lon="144.22244849376722"><ele>83.5</ele><time>2026-05-02T07:07:33Z</time></trkpt><trkpt lat="-35.64978426971274" lon="144.22230088344529"><ele>84.0</ele><time>2026-05-02T07:07:34Z</time></trkpt><trkpt lat="-35.64976865701117" lon="144.22217934539765"><ele>84.0</ele><time>2026-05-02T07:07:34.999Z</time></trkpt><trkpt lat="-35.649750089155404" lon="144.22204883079627"><ele>84.0</ele><time>2026-05-02T07:07:35.999Z</time></trkpt><trkpt lat="-35.64972930815603" lon="144.2219078870937"><ele>84.0</ele><time>2026-05-02T07:07:36.999Z</time></trkpt><trkpt lat="-35.64972608338824" lon="144.2217762467002"><ele>84.0</ele><time>2026-05-02T07:07:37.999Z</time></trkpt><trkpt lat="-35.64974019685109" lon="144.22164726743432"><ele>84.0</ele><time>2026-05-02T07:07:38.999Z</time></trkpt><trkpt lat="-35.64978026064454" lon="144.22148905021768"><ele>84.0</ele><time>2026-05-02T07:07:39.999Z</time></trkpt><trkpt lat="-35.64980479892024" lon="144.2213111597076"><ele>84.0</ele><time>2026-05-02T07:07:40.999Z</time></trkpt><trkpt lat="-35.64981313119065" lon="144.2211435642247"><ele>84.0</ele><time>2026-05-02T07:07:41.999Z</time></trkpt><trkpt lat="-35.64981239106142" lon="144.22098718138287"><ele>84.0</ele><time>2026-05-02T07:07:42.999Z</time></trkpt><trkpt lat="-35.64979729347857" lon="144.2208275061103"><ele>84.0</ele><time>2026-05-02T07:07:43.999Z</time></trkpt><trkpt lat="-35.64980410394602" lon="144.2206682466346"><ele>84.0</ele><time>2026-05-02T07:07:44.999Z</time></trkpt><trkpt lat="-35.64981401300097" lon="144.22051424938334"><ele>84.0</ele><time>2026-05-02T07:07:45.999Z</time></trkpt><trkpt lat="-35.64980538361822" lon="144.22034417655527"><ele>84.0</ele><time>2026-05-02T07:07:46.999Z</time></trkpt><trkpt lat="-35.64981406678468" lon="144.22018204382576"><ele>84.25</ele><time>2026-05-02T07:07:47.999Z</time></trkpt><trkpt lat="-35.649828859831516" lon="144.22000906885356"><ele>84.5</ele><time>2026-05-02T07:07:48.999Z</time></trkpt><trkpt lat="-35.649853603413135" lon="144.21984707076987"><ele>84.75</ele><time>2026-05-02T07:07:49.999Z</time></trkpt><trkpt lat="-35.64986456111472" lon="144.21970428009513"><ele>85.0</ele><time>2026-05-02T07:07:50.999Z</time></trkpt><trkpt lat="-35.64984703950803" lon="144.21954268358763"><ele>85.0</ele><time>2026-05-02T07:07:51.999Z</time></trkpt><trkpt lat="-35.64981761522494" lon="144.21937789040317"><ele>85.0</ele><time>2026-05-02T07:07:52.999Z</time></trkpt><trkpt lat="-35.64980412362677" lon="144.2192267781024"><ele>85.0</ele><time>2026-05-02T07:07:53.999Z</time></trkpt><trkpt lat="-35.6498237734994" lon="144.21907211833826"><ele>85.0</ele><time>2026-05-02T07:07:54.999Z</time></trkpt><trkpt lat="-35.649836644575515" lon="144.21893607808275"><ele>84.75</ele><time>2026-05-02T07:07:55.999Z</time></trkpt><trkpt lat="-35.6498429963542" lon="144.2187994172776"><ele>84.5</ele><time>2026-05-02T07:07:56.999Z</time></trkpt><trkpt lat="-35.64987167478956" lon="144.21864472015054"><ele>84.25</ele><time>2026-05-02T07:07:57.999Z</time></trkpt><trkpt lat="-35.6499232046286" lon="144.21846855564036"><ele>84.0</ele><time>2026-05-02T07:07:58.999Z</time></trkpt><trkpt lat="-35.649980545585464" lon="144.21830042962938"><ele>84.5</ele><time>2026-05-02T07:07:59.999Z</time></trkpt><trkpt lat="-35.650002040354586" lon="144.21814170469847"><ele>85.0</ele><time>2026-05-02T07:08:00.999Z</time></trkpt><trkpt lat="-35.65000583926372" lon="144.21798215974286"><ele>85.5</ele><time>2026-05-02T07:08:01.999Z</time></trkpt><trkpt lat="-35.65001516640176" lon="144.2178235779478"><ele>86.0</ele><time>2026-05-02T07:08:02.999Z</time></trkpt><trkpt lat="-35.65002650877549" lon="144.21768699935998"><ele>86.0</ele><time>2026-05-02T07:08:03.999Z</time></trkpt><trkpt lat="-35.65003598156467" lon="144.21753205749417"><ele>86.0</ele><time>2026-05-02T07:08:04.999Z</time></trkpt><trkpt lat="-35.65006903798893" lon="144.21733675702717"><ele>86.0</ele><time>2026-05-02T07:08:05.999Z</time></trkpt><trkpt lat="-35.65009095509312" lon="144.217156585551"><ele>86.0</ele><time>2026-05-02T07:08:06.999Z</time></trkpt><trkpt lat="-35.65010762182875" lon="144.21698638529747"><ele>86.25</ele><time>2026-05-02T07:08:07.999Z</time></trkpt><trkpt lat="-35.65013404485578" lon="144.216834636424"><ele>86.5</ele><time>2026-05-02T07:08:08.999Z</time></trkpt><trkpt lat="-35.65016637156183" lon="144.21666764289358"><ele>86.75</ele><time>2026-05-02T07:08:09.999Z</time></trkpt><trkpt lat="-35.65019900164409" lon="144.21649641046872"><ele>87.0</ele><time>2026-05-02T07:08:10.999Z</time></trkpt><trkpt lat="-35.65024632348987" lon="144.21633771275177"><ele>87.0</ele><time>2026-05-02T07:08:11.999Z</time></trkpt><trkpt lat="-35.65029453276612" lon="144.216207247957"><ele>87.0</ele><time>2026-05-02T07:08:12.999Z</time></trkpt><trkpt lat="-35.650326138834686" lon="144.2160607634322"><ele>87.0</ele><time>2026-05-02T07:08:13.999Z</time></trkpt><trkpt lat="-35.650382976371226" lon="144.21591521790788"><ele>87.0</ele><time>2026-05-02T07:08:14.999Z</time></trkpt><trkpt lat="-35.65046937920095" lon="144.2157685994294"><ele>86.33333333333333</ele><time>2026-05-02T07:08:15.999Z</time></trkpt><trkpt lat="-35.65056967308716" lon="144.21561085014687"><ele>85.66666666666666</ele><time>2026-05-02T07:08:16.999Z</time></trkpt><trkpt lat="-35.65063888776456" lon="144.21544399003997"><ele>85.0</ele><time>2026-05-02T07:08:17.999Z</time></trkpt><trkpt lat="-35.6506916915152" lon="144.2152863099238"><ele>85.0</ele><time>2026-05-02T07:08:18.999Z</time></trkpt><trkpt lat="-35.65074126534595" lon="144.21514256455347"><ele>85.0</ele><time>2026-05-02T07:08:19.999Z</time></trkpt><trkpt lat="-35.650798828968085" lon="144.21500735015044"><ele>85.0</ele><time>2026-05-02T07:08:20.999Z</time></trkpt><trkpt lat="-35.65087530908669" lon="144.21485074559175"><ele>85.0</ele><time>2026-05-02T07:08:21.999Z</time></trkpt><trkpt lat="-35.65096905328853" lon="144.21468509978584"><ele>85.0</ele><time>2026-05-02T07:08:22.999Z</time></trkpt><trkpt lat="-35.65105457142224" lon="144.21448261084313"><ele>85.0</ele><time>2026-05-02T07:08:24Z</time></trkpt><trkpt lat="-35.65112948473211" lon="144.2143084380538"><ele>85.0</ele><time>2026-05-02T07:08:25Z</time></trkpt><trkpt lat="-35.65119341659866" lon="144.2141324634388"><ele>84.25</ele><time>2026-05-02T07:08:26Z</time></trkpt><trkpt lat="-35.65125108933516" lon="144.21396482683357"><ele>83.5</ele><time>2026-05-02T07:08:27Z</time></trkpt><trkpt lat="-35.65132452107645" lon="144.21382708344734"><ele>82.75</ele><time>2026-05-02T07:08:28Z</time></trkpt><trkpt lat="-35.65141529918329" lon="144.21370593595447"><ele>82.0</ele><time>2026-05-02T07:08:29Z</time></trkpt><trkpt lat="-35.651490390226236" lon="144.2136023133108"><ele>82.0</ele><time>2026-05-02T07:08:30Z</time></trkpt><trkpt lat="-35.65154586408814" lon="144.21352505845798"><ele>82.0</ele><time>2026-05-02T07:08:31Z</time></trkpt><trkpt lat="-35.651582551354664" lon="144.21342489480628"><ele>82.0</ele><time>2026-05-02T07:08:32Z</time></trkpt><trkpt lat="-35.65159654972477" lon="144.21330180428205"><ele>82.0</ele><time>2026-05-02T07:08:33Z</time></trkpt><trkpt lat="-35.651563532628366" lon="144.21318340879137"><ele>82.0</ele><time>2026-05-02T07:08:34Z</time></trkpt><trkpt lat="-35.65153563827903" lon="144.21308510358116"><ele>82.25</ele><time>2026-05-02T07:08:35Z</time></trkpt><trkpt lat="-35.6515288127274" lon="144.2129719901044"><ele>82.5</ele><time>2026-05-02T07:08:36Z</time></trkpt><trkpt lat="-35.65155881967841" lon="144.21283589160535"><ele>82.75</ele><time>2026-05-02T07:08:37Z</time></trkpt><trkpt lat="-35.65162162787713" lon="144.2126703544964"><ele>83.0</ele><time>2026-05-02T07:08:38Z</time></trkpt><trkpt lat="-35.651696680877734" lon="144.21248387415227"><ele>84.33333333333334</ele><time>2026-05-02T07:08:39Z</time></trkpt><trkpt lat="-35.6517704078716" lon="144.21227420483905"><ele>85.66666666666667</ele><time>2026-05-02T07:08:40Z</time></trkpt><trkpt lat="-35.65184545037347" lon="144.2120341729422"><ele>87.0</ele><time>2026-05-02T07:08:41Z</time></trkpt><trkpt lat="-35.65192059293445" lon="144.21177997394975"><ele>87.5</ele><time>2026-05-02T07:08:42Z</time></trkpt><trkpt lat="-35.65199284643067" lon="144.21150799486406"><ele>88.0</ele><time>2026-05-02T07:08:43Z</time></trkpt><trkpt lat="-35.652061593393746" lon="144.21123277772762"><ele>88.33333333333333</ele><time>2026-05-02T07:08:44Z</time></trkpt><trkpt lat="-35.65211507885198" lon="144.21099592798018"><ele>88.66666666666667</ele><time>2026-05-02T07:08:45Z</time></trkpt><trkpt lat="-35.65215947122962" lon="144.21079735672268"><ele>89.0</ele><time>2026-05-02T07:08:46Z</time></trkpt><trkpt lat="-35.65219296925826" lon="144.2106235170429"><ele>89.0</ele><time>2026-05-02T07:08:47Z</time></trkpt><trkpt lat="-35.6522250332241" lon="144.21044211457667"><ele>89.0</ele><time>2026-05-02T07:08:48Z</time></trkpt><trkpt lat="-35.652253486961804" lon="144.2102567693967"><ele>89.0</ele><time>2026-05-02T07:08:49Z</time></trkpt><trkpt lat="-35.65227125190047" lon="144.21009875774388"><ele>89.0</ele><time>2026-05-02T07:08:50Z</time></trkpt><trkpt lat="-35.652288822474596" lon="144.2099692955302"><ele>89.0</ele><time>2026-05-02T07:08:51Z</time></trkpt><trkpt lat="-35.65230853876189" lon="144.20987069922316"><ele>89.0</ele><time>2026-05-02T07:08:52Z</time></trkpt><trkpt lat="-35.65229141843792" lon="144.20975149419388"><ele>89.0</ele><time>2026-05-02T07:08:54Z</time></trkpt><trkpt lat="-35.65218298761273" lon="144.20968166138488"><ele>89.0</ele><time>2026-05-02T07:08:56Z</time></trkpt><trkpt lat="-35.65213282957821" lon="144.20959808266454"><ele>89.0</ele><time>2026-05-02T07:08:57Z</time></trkpt><trkpt lat="-35.65208736887512" lon="144.2094771120238"><ele>89.2</ele><time>2026-05-02T07:08:58Z</time></trkpt><trkpt lat="-35.652014593271765" lon="144.20935918119687"><ele>89.4</ele><time>2026-05-02T07:08:59Z</time></trkpt><trkpt lat="-35.651945965300406" lon="144.2092647671549"><ele>89.6</ele><time>2026-05-02T07:09:00Z</time></trkpt><trkpt lat="-35.65186884810038" lon="144.20919641092496"><ele>89.8</ele><time>2026-05-02T07:09:01Z</time></trkpt><trkpt lat="-35.65185629634236" lon="144.20908766185312"><ele>90.0</ele><time>2026-05-02T07:09:03Z</time></trkpt><trkpt lat="-35.651874575668494" lon="144.20897511682833"><ele>90.0</ele><time>2026-05-02T07:09:04Z</time></trkpt><trkpt lat="-35.65191606276086" lon="144.2088010670646"><ele>90.0</ele><time>2026-05-02T07:09:05Z</time></trkpt><trkpt lat="-35.65189703454327" lon="144.20865727903833"><ele>90.0</ele><time>2026-05-02T07:09:06Z</time></trkpt><trkpt lat="-35.65184423843062" lon="144.20853409989124"><ele>90.0</ele><time>2026-05-02T07:09:07Z</time></trkpt><trkpt lat="-35.65177703520969" lon="144.20845121267539"><ele>90.0</ele><time>2026-05-02T07:09:08Z</time></trkpt><trkpt lat="-35.65173702835249" lon="144.20837930682865"><ele>90.0</ele><time>2026-05-02T07:09:09Z</time></trkpt><trkpt lat="-35.65171094377563" lon="144.20829781657667"><ele>90.0</ele><time>2026-05-02T07:09:10Z</time></trkpt><trkpt lat="-35.651725802320776" lon="144.20818355642623"><ele>90.0</ele><time>2026-05-02T07:09:11Z</time></trkpt><trkpt lat="-35.65175761494159" lon="144.20804486004093"><ele>90.0</ele><time>2026-05-02T07:09:12Z</time></trkpt><trkpt lat="-35.65176032111418" lon="144.2079357773238"><ele>90.0</ele><time>2026-05-02T07:09:13Z</time></trkpt><trkpt lat="-35.651677996628806" lon="144.2078653030999"><ele>90.0</ele><time>2026-05-02T07:09:15Z</time></trkpt><trkpt lat="-35.651613263262924" lon="144.2078466003656"><ele>90.0</ele><time>2026-05-02T07:09:16Z</time></trkpt><trkpt lat="-35.65154658841695" lon="144.20783843253832"><ele>90.0</ele><time>2026-05-02T07:09:17Z</time></trkpt><trkpt lat="-35.651462508889075" lon="144.20780223601724"><ele>90.0</ele><time>2026-05-02T07:09:18Z</time></trkpt><trkpt lat="-35.6513557855558" lon="144.2077348668171"><ele>90.0</ele><time>2026-05-02T07:09:19Z</time></trkpt><trkpt lat="-35.65124965643836" lon="144.2075929266386"><ele>90.0</ele><time>2026-05-02T07:09:20Z</time></trkpt><trkpt lat="-35.65116515838263" lon="144.2074520862247"><ele>90.0</ele><time>2026-05-02T07:09:21Z</time></trkpt><trkpt lat="-35.65108572021081" lon="144.20735022848643"><ele>90.0</ele><time>2026-05-02T07:09:22Z</time></trkpt><trkpt lat="-35.65099594899198" lon="144.20729131828244"><ele>90.0</ele><time>2026-05-02T07:09:23Z</time></trkpt><trkpt lat="-35.6509079228546" lon="144.20723946680036"><ele>90.6</ele><time>2026-05-02T07:09:24Z</time></trkpt><trkpt lat="-35.65084193073343" lon="144.2071601895368"><ele>91.2</ele><time>2026-05-02T07:09:25Z</time></trkpt><trkpt lat="-35.650801078791915" lon="144.20702678167103"><ele>91.80000000000001</ele><time>2026-05-02T07:09:26Z</time></trkpt><trkpt lat="-35.650745889162806" lon="144.20690934360732"><ele>92.4</ele><time>2026-05-02T07:09:27Z</time></trkpt><trkpt lat="-35.65067917493244" lon="144.20681825800182"><ele>93.0</ele><time>2026-05-02T07:09:28Z</time></trkpt><trkpt lat="-35.650561178494016" lon="144.20672782665343"><ele>93.0</ele><time>2026-05-02T07:09:29Z</time></trkpt><trkpt lat="-35.65042978345895" lon="144.20666767162587"><ele>93.0</ele><time>2026-05-02T07:09:30Z</time></trkpt><trkpt lat="-35.650328442149046" lon="144.20661975931233"><ele>93.0</ele><time>2026-05-02T07:09:31Z</time></trkpt><trkpt lat="-35.65025028580145" lon="144.2065642699272"><ele>93.0</ele><time>2026-05-02T07:09:32Z</time></trkpt><trkpt lat="-35.6501996608895" lon="144.20645012568062"><ele>93.0</ele><time>2026-05-02T07:09:34Z</time></trkpt><trkpt lat="-35.650180165729026" lon="144.20637080585848"><ele>93.0</ele><time>2026-05-02T07:09:35Z</time></trkpt><trkpt lat="-35.650134018322916" lon="144.2062756073496"><ele>93.0</ele><time>2026-05-02T07:09:36Z</time></trkpt><trkpt lat="-35.65005725349828" lon="144.2062402166185"><ele>93.0</ele><time>2026-05-02T07:09:37Z</time></trkpt><trkpt lat="-35.64996338723696" lon="144.2062408800351"><ele>93.0</ele><time>2026-05-02T07:09:38Z</time></trkpt><trkpt lat="-35.649897242858856" lon="144.20623110411958"><ele>93.0</ele><time>2026-05-02T07:09:39Z</time></trkpt><trkpt lat="-35.64982755190619" lon="144.20623466735105"><ele>93.0</ele><time>2026-05-02T07:09:40Z</time></trkpt><trkpt lat="-35.649766277858596" lon="144.20627117086562"><ele>93.0</ele><time>2026-05-02T07:09:41Z</time></trkpt><trkpt lat="-35.64970163528186" lon="144.20630014055416"><ele>93.0</ele><time>2026-05-02T07:09:42Z</time></trkpt><trkpt lat="-35.64963100762123" lon="144.20630724682383"><ele>93.0</ele><time>2026-05-02T07:09:43Z</time></trkpt><trkpt lat="-35.64952700226917" lon="144.20627076103"><ele>93.0</ele><time>2026-05-02T07:09:44.999Z</time></trkpt><trkpt lat="-35.649500324671955" lon="144.20618373394373"><ele>93.0</ele><time>2026-05-02T07:09:46.999Z</time></trkpt><trkpt lat="-35.64949154773021" lon="144.20606420969978"><ele>93.0</ele><time>2026-05-02T07:09:48.999Z</time></trkpt><trkpt lat="-35.64951004487394" lon="144.20588818431406"><ele>93.0</ele><time>2026-05-02T07:09:50.999Z</time></trkpt><trkpt lat="-35.6495204136556" lon="144.20579515610171"><ele>93.0</ele><time>2026-05-02T07:09:51.999Z</time></trkpt><trkpt lat="-35.649513948666595" lon="144.205696412784"><ele>93.0</ele><time>2026-05-02T07:09:52.999Z</time></trkpt><trkpt lat="-35.64949698778839" lon="144.2055563932218"><ele>93.0</ele><time>2026-05-02T07:09:54.999Z</time></trkpt><trkpt lat="-35.64952346528329" lon="144.20546032183213"><ele>93.0</ele><time>2026-05-02T07:09:56.999Z</time></trkpt><trkpt lat="-35.649482497286336" lon="144.2053691044955"><ele>93.0</ele><time>2026-05-02T07:09:57.999Z</time></trkpt><trkpt lat="-35.649416527884675" lon="144.2053109456758"><ele>92.2</ele><time>2026-05-02T07:09:58.999Z</time></trkpt><trkpt lat="-35.649360277257735" lon="144.20536217869324"><ele>91.4</ele><time>2026-05-02T07:10:01.999Z</time></trkpt><trkpt lat="-35.649231585288014" lon="144.2053373491677"><ele>90.60000000000001</ele><time>2026-05-02T07:10:03.999Z</time></trkpt><trkpt lat="-35.64914783161053" lon="144.20521582777988"><ele>89.80000000000001</ele><time>2026-05-02T07:10:05.999Z</time></trkpt><trkpt lat="-35.64907443386509" lon="144.20518923928782"><ele>89.0</ele><time>2026-05-02T07:10:07.999Z</time></trkpt><trkpt lat="-35.648768486777215" lon="144.2049721421574"><ele>89.0</ele><time>2026-05-02T07:10:09.999Z</time></trkpt><trkpt lat="-35.648693600508146" lon="144.20494858040024"><ele>89.0</ele><time>2026-05-02T07:10:10.999Z</time></trkpt><trkpt lat="-35.64859728718381" lon="144.20503959166308"><ele>89.0</ele><time>2026-05-02T07:10:12.999Z</time></trkpt><trkpt lat="-35.64853932422958" lon="144.20513028986457"><ele>89.0</ele><time>2026-05-02T07:10:13.999Z</time></trkpt><trkpt lat="-35.64851719725698" lon="144.2052588844617"><ele>89.0</ele><time>2026-05-02T07:10:14.999Z</time></trkpt><trkpt lat="-35.64851475045775" lon="144.2053590098184"><ele>88.6</ele><time>2026-05-02T07:10:15.999Z</time></trkpt><trkpt lat="-35.648440182041185" lon="144.20541658083866"><ele>88.2</ele><time>2026-05-02T07:10:16.999Z</time></trkpt><trkpt lat="-35.648323880348876" lon="144.2055428348496"><ele>87.8</ele><time>2026-05-02T07:10:17.999Z</time></trkpt><trkpt lat="-35.64826323366922" lon="144.2056427297854"><ele>87.39999999999999</ele><time>2026-05-02T07:10:18.999Z</time></trkpt><trkpt lat="-35.64818779493283" lon="144.20571672408872"><ele>87.0</ele><time>2026-05-02T07:10:19.999Z</time></trkpt><trkpt lat="-35.64809756642721" lon="144.20587969924318"><ele>87.0</ele><time>2026-05-02T07:10:21.999Z</time></trkpt><trkpt lat="-35.6480427465622" lon="144.20594625357742"><ele>87.0</ele><time>2026-05-02T07:10:22.999Z</time></trkpt><trkpt lat="-35.64797423959001" lon="144.20598654628492"><ele>87.0</ele><time>2026-05-02T07:10:24.999Z</time></trkpt><trkpt lat="-35.64789554976707" lon="144.2060905415068"><ele>87.0</ele><time>2026-05-02T07:10:27.999Z</time></trkpt><trkpt lat="-35.64783055943175" lon="144.20612230823434"><ele>87.0</ele><time>2026-05-02T07:10:28.999Z</time></trkpt><trkpt lat="-35.64772823167803" lon="144.20618746893825"><ele>87.16666666666667</ele><time>2026-05-02T07:10:31Z</time></trkpt><trkpt lat="-35.647651679981735" lon="144.20622709008606"><ele>87.33333333333333</ele><time>2026-05-02T07:10:33Z</time></trkpt><trkpt lat="-35.64759177889994" lon="144.20627273357925"><ele>87.5</ele><time>2026-05-02T07:10:34Z</time></trkpt><trkpt lat="-35.64755414960429" lon="144.2063534843719"><ele>87.66666666666666</ele><time>2026-05-02T07:10:35Z</time></trkpt><trkpt lat="-35.647525123985616" lon="144.20643601741935"><ele>87.83333333333333</ele><time>2026-05-02T07:10:36Z</time></trkpt><trkpt lat="-35.647457026034" lon="144.20653289653805"><ele>88.0</ele><time>2026-05-02T07:10:37Z</time></trkpt><trkpt lat="-35.647385552187934" lon="144.206642031851"><ele>88.83333333333333</ele><time>2026-05-02T07:10:38Z</time></trkpt><trkpt lat="-35.64732117686656" lon="144.20673251880328"><ele>89.66666666666666</ele><time>2026-05-02T07:10:39Z</time></trkpt><trkpt lat="-35.64726864444166" lon="144.20679088858662"><ele>90.5</ele><time>2026-05-02T07:10:40Z</time></trkpt><trkpt lat="-35.64721039155585" lon="144.20683284817125"><ele>91.33333333333333</ele><time>2026-05-02T07:10:41Z</time></trkpt><trkpt lat="-35.64718967000488" lon="144.20697120761324"><ele>92.16666666666667</ele><time>2026-05-02T07:10:44Z</time></trkpt><trkpt lat="-35.647124234568054" lon="144.2069531182068"><ele>93.0</ele><time>2026-05-02T07:10:47Z</time></trkpt><trkpt lat="-35.6470515383207" lon="144.20691657557705"><ele>93.0</ele><time>2026-05-02T07:10:50Z</time></trkpt><trkpt lat="-35.647099228723185" lon="144.20701483618473"><ele>93.0</ele><time>2026-05-02T07:10:56Z</time></trkpt><trkpt lat="-35.64714323860623" lon="144.20709441796365"><ele>93.0</ele><time>2026-05-02T07:10:59Z</time></trkpt><trkpt lat="-35.64711431477268" lon="144.2070252166818"><ele>93.0</ele><time>2026-05-02T07:11:09Z</time></trkpt><trkpt lat="-35.64704535194242" lon="144.20696718722385"><ele>93.0</ele><time>2026-05-02T07:11:12Z</time></trkpt><trkpt lat="-35.64692329707629" lon="144.20695840861956"><ele>93.0</ele><time>2026-05-02T07:11:14Z</time></trkpt><trkpt lat="-35.64681681380558" lon="144.2069654252828"><ele>92.85714285714286</ele><time>2026-05-02T07:11:17Z</time></trkpt><trkpt lat="-35.64674147439309" lon="144.20698271884106"><ele>92.71428571428572</ele><time>2026-05-02T07:11:19Z</time></trkpt><trkpt lat="-35.646680423026666" lon="144.2070148452073"><ele>92.57142857142858</ele><time>2026-05-02T07:11:35Z</time></trkpt><trkpt lat="-35.646648788562466" lon="144.20708883130158"><ele>92.42857142857143</ele><time>2026-05-02T07:11:37Z</time></trkpt><trkpt lat="-35.646652424339486" lon="144.20718847993146"><ele>92.28571428571428</ele><time>2026-05-02T07:11:41Z</time></trkpt><trkpt lat="-35.64666788939049" lon="144.20728149289326"><ele>92.14285714285715</ele><time>2026-05-02T07:11:43Z</time></trkpt><trkpt lat="-35.64666278375987" lon="144.2073601568975"><ele>92.0</ele><time>2026-05-02T07:11:45Z</time></trkpt><trkpt lat="-35.6466804346298" lon="144.207497391575"><ele>92.0</ele><time>2026-05-02T07:11:46.999Z</time></trkpt><trkpt lat="-35.6467441647356" lon="144.20758470205215"><ele>92.0</ele><time>2026-05-02T07:11:48.999Z</time></trkpt><trkpt lat="-35.64677247624389" lon="144.20770257353726"><ele>92.0</ele><time>2026-05-02T07:11:50.999Z</time></trkpt><trkpt lat="-35.64680433191968" lon="144.2077721189074"><ele>92.0</ele><time>2026-05-02T07:11:53.999Z</time></trkpt><trkpt lat="-35.646823932723215" lon="144.20789005803732"><ele>92.0</ele><time>2026-05-02T07:11:56.999Z</time></trkpt><trkpt lat="-35.64684531888896" lon="144.20797640277706"><ele>92.0</ele><time>2026-05-02T07:11:58.999Z</time></trkpt><trkpt lat="-35.64688920686398" lon="144.20803335130208"><ele>92.0</ele><time>2026-05-02T07:12:01.999Z</time></trkpt><trkpt lat="-35.6468270432168" lon="144.20800779775257"><ele>92.0</ele><time>2026-05-02T07:12:13.999Z</time></trkpt><trkpt lat="-35.64677893759205" lon="144.20790260777122"><ele>92.0</ele><time>2026-05-02T07:12:16.999Z</time></trkpt><trkpt lat="-35.646759529260265" lon="144.20780515913245"><ele>92.0</ele><time>2026-05-02T07:12:18.999Z</time></trkpt><trkpt lat="-35.64674590428522" lon="144.20769659815883"><ele>92.0</ele><time>2026-05-02T07:12:20.999Z</time></trkpt><trkpt lat="-35.646758644369335" lon="144.2076193311198"><ele>92.0</ele><time>2026-05-02T07:12:21.999Z</time></trkpt><trkpt lat="-35.64672820117688" lon="144.20754286326786"><ele>92.0</ele><time>2026-05-02T07:12:23.999Z</time></trkpt><trkpt lat="-35.64667318160426" lon="144.20746491933318"><ele>92.0</ele><time>2026-05-02T07:12:27.999Z</time></trkpt><trkpt lat="-35.64666288135586" lon="144.20738128197402"><ele>92.0</ele><time>2026-05-02T07:12:30.999Z</time></trkpt><trkpt lat="-35.646660754160685" lon="144.207459703955"><ele>92.0</ele><time>2026-05-02T07:12:41Z</time></trkpt><trkpt lat="-35.64673633975596" lon="144.20742935671257"><ele>92.0</ele><time>2026-05-02T07:12:46Z</time></trkpt><trkpt lat="-35.646820857060305" lon="144.207367505962"><ele>92.0</ele><time>2026-05-02T07:12:50Z</time></trkpt><trkpt lat="-35.6468788359854" lon="144.20731582383993"><ele>92.0</ele><time>2026-05-02T07:12:53Z</time></trkpt><trkpt lat="-35.64691951806312" lon="144.20724709194613"><ele>92.0</ele><time>2026-05-02T07:13:00Z</time></trkpt><trkpt lat="-35.64689790318623" lon="144.20732149531625"><ele>92.0</ele><time>2026-05-02T07:13:09Z</time></trkpt><trkpt lat="-35.646807898183326" lon="144.20735090202334"><ele>92.0</ele><time>2026-05-02T07:13:11Z</time></trkpt><trkpt lat="-35.64673727357948" lon="144.20738694883568"><ele>92.0</ele><time>2026-05-02T07:13:13Z</time></trkpt><trkpt lat="-35.64667685661771" lon="144.20744960682072"><ele>92.0</ele><time>2026-05-02T07:13:18Z</time></trkpt><trkpt lat="-35.64668261373152" lon="144.20756588437328"><ele>92.0</ele><time>2026-05-02T07:13:21Z</time></trkpt><trkpt lat="-35.646599140649585" lon="144.20767263576212"><ele>92.0</ele><time>2026-05-02T07:13:23Z</time></trkpt><trkpt lat="-35.64654715327352" lon="144.2077253716764"><ele>92.0</ele><time>2026-05-02T07:13:24Z</time></trkpt><trkpt lat="-35.646485007919246" lon="144.207758226683"><ele>92.0</ele><time>2026-05-02T07:13:26Z</time></trkpt><trkpt lat="-35.64646276069009" lon="144.2078346113476"><ele>92.0</ele><time>2026-05-02T07:13:30Z</time></trkpt><trkpt lat="-35.646406283288826" lon="144.20787628953843"><ele>92.0</ele><time>2026-05-02T07:13:33Z</time></trkpt><trkpt lat="-35.64630760450614" lon="144.2079526205863"><ele>92.0</ele><time>2026-05-02T07:13:36Z</time></trkpt><trkpt lat="-35.64622980017698" lon="144.20802369130857"><ele>92.0</ele><time>2026-05-02T07:13:37Z</time></trkpt><trkpt lat="-35.646181776970394" lon="144.20809658053844"><ele>92.0</ele><time>2026-05-02T07:13:38Z</time></trkpt><trkpt lat="-35.64618735744627" lon="144.20817664557813"><ele>92.0</ele><time>2026-05-02T07:13:39Z</time></trkpt><trkpt lat="-35.64620062704832" lon="144.2082893463836"><ele>92.0</ele><time>2026-05-02T07:13:40Z</time></trkpt><trkpt lat="-35.64619739264074" lon="144.2083837564349"><ele>92.0</ele><time>2026-05-02T07:13:41Z</time></trkpt><trkpt lat="-35.64611695984584" lon="144.20844399777715"><ele>93.25</ele><time>2026-05-02T07:13:43Z</time></trkpt><trkpt lat="-35.64604278547637" lon="144.2084608988467"><ele>94.5</ele><time>2026-05-02T07:13:44Z</time></trkpt><trkpt lat="-35.64594374549959" lon="144.20846165554207"><ele>95.75</ele><time>2026-05-02T07:13:45Z</time></trkpt><trkpt lat="-35.645776470471105" lon="144.20845326816493"><ele>97.0</ele><time>2026-05-02T07:13:46Z</time></trkpt><trkpt lat="-35.645664142357724" lon="144.20843117250598"><ele>97.0</ele><time>2026-05-02T07:13:47Z</time></trkpt><trkpt lat="-35.64554636515659" lon="144.20839315813566"><ele>97.0</ele><time>2026-05-02T07:13:48Z</time></trkpt><trkpt lat="-35.64544359058803" lon="144.20832815331178"><ele>97.0</ele><time>2026-05-02T07:13:49Z</time></trkpt><trkpt lat="-35.64536306591669" lon="144.20825141262978"><ele>97.0</ele><time>2026-05-02T07:13:50Z</time></trkpt><trkpt lat="-35.64530197048543" lon="144.2081794954722"><ele>97.0</ele><time>2026-05-02T07:13:51Z</time></trkpt><trkpt lat="-35.64522557510054" lon="144.20813454348522"><ele>97.00000000000001</ele><time>2026-05-02T07:13:52Z</time></trkpt><trkpt lat="-35.645159348485066" lon="144.20810901578855"><ele>97.0</ele><time>2026-05-02T07:13:53Z</time></trkpt><trkpt lat="-35.64509926086021" lon="144.20803463751483"><ele>97.0</ele><time>2026-05-02T07:13:54Z</time></trkpt><trkpt lat="-35.64508580903106" lon="144.20791245178083"><ele>97.0</ele><time>2026-05-02T07:13:56Z</time></trkpt><trkpt lat="-35.64507417796483" lon="144.20781271833283"><ele>97.00000000000001</ele><time>2026-05-02T07:13:57Z</time></trkpt><trkpt lat="-35.6450550109693" lon="144.20772834289306"><ele>97.0</ele><time>2026-05-02T07:13:58Z</time></trkpt><trkpt lat="-35.645006058968804" lon="144.20767444044185"><ele>97.0</ele><time>2026-05-02T07:13:59Z</time></trkpt><trkpt lat="-35.64493962817994" lon="144.20767314162336"><ele>97.0</ele><time>2026-05-02T07:14:00Z</time></trkpt><trkpt lat="-35.644830229829665" lon="144.20771001365762"><ele>97.0</ele><time>2026-05-02T07:14:01.999Z</time></trkpt><trkpt lat="-35.64472167056951" lon="144.20761674433462"><ele>97.0</ele><time>2026-05-02T07:14:03.999Z</time></trkpt><trkpt lat="-35.644673818894574" lon="144.20751689557028"><ele>97.0</ele><time>2026-05-02T07:14:04.999Z</time></trkpt><trkpt lat="-35.64460137476645" lon="144.2074092671466"><ele>97.0</ele><time>2026-05-02T07:14:05.999Z</time></trkpt><trkpt lat="-35.644526420030104" lon="144.20733891082298"><ele>97.0</ele><time>2026-05-02T07:14:06.999Z</time></trkpt><trkpt lat="-35.64445806512442" lon="144.20729406461055"><ele>97.0</ele><time>2026-05-02T07:14:07.999Z</time></trkpt><trkpt lat="-35.64442713230239" lon="144.20722185568997"><ele>97.0</ele><time>2026-05-02T07:14:08.999Z</time></trkpt><trkpt lat="-35.644404411371696" lon="144.20707600540143"><ele>97.0</ele><time>2026-05-02T07:14:10.999Z</time></trkpt><trkpt lat="-35.64433067256071" lon="144.206983764761"><ele>95.50000000000001</ele><time>2026-05-02T07:14:12.999Z</time></trkpt><trkpt lat="-35.6442790092398" lon="144.206932176618"><ele>94.0</ele><time>2026-05-02T07:14:13.999Z</time></trkpt><trkpt lat="-35.644213479078786" lon="144.20691946911666"><ele>92.5</ele><time>2026-05-02T07:14:14.999Z</time></trkpt><trkpt lat="-35.64412899226585" lon="144.20692450874995"><ele>91.0</ele><time>2026-05-02T07:14:15.999Z</time></trkpt><trkpt lat="-35.6440329323968" lon="144.2069829424207"><ele>89.5</ele><time>2026-05-02T07:14:16.999Z</time></trkpt><trkpt lat="-35.643948602799206" lon="144.20708834193022"><ele>88.0</ele><time>2026-05-02T07:14:17.999Z</time></trkpt><trkpt lat="-35.64389539972481" lon="144.20720029771462"><ele>88.0</ele><time>2026-05-02T07:14:18.999Z</time></trkpt><trkpt lat="-35.64385611704125" lon="144.2072613058368"><ele>88.0</ele><time>2026-05-02T07:14:19.999Z</time></trkpt><trkpt lat="-35.643808023692344" lon="144.2073469514614"><ele>88.0</ele><time>2026-05-02T07:14:21.999Z</time></trkpt><trkpt lat="-35.64384413104561" lon="144.2075016980578"><ele>88.0</ele><time>2026-05-02T07:14:23.999Z</time></trkpt><trkpt lat="-35.64379362890542" lon="144.20759046257962"><ele>88.0</ele><time>2026-05-02T07:14:26.999Z</time></trkpt><trkpt lat="-35.643771889528956" lon="144.20772402470672"><ele>88.80000000000001</ele><time>2026-05-02T07:14:28.999Z</time></trkpt><trkpt lat="-35.64374760004255" lon="144.20783487272263"><ele>89.6</ele><time>2026-05-02T07:14:29.999Z</time></trkpt><trkpt lat="-35.64374103052031" lon="144.20791946893291"><ele>90.4</ele><time>2026-05-02T07:14:30.999Z</time></trkpt><trkpt lat="-35.643798177316555" lon="144.20806268627533"><ele>91.19999999999999</ele><time>2026-05-02T07:14:32.999Z</time></trkpt><trkpt lat="-35.64384537186962" lon="144.20816962597914"><ele>92.0</ele><time>2026-05-02T07:14:33.999Z</time></trkpt><trkpt lat="-35.64390224029234" lon="144.2082632118796"><ele>92.0</ele><time>2026-05-02T07:14:34.999Z</time></trkpt><trkpt lat="-35.64395849624928" lon="144.2083495727794"><ele>92.0</ele><time>2026-05-02T07:14:35.999Z</time></trkpt><trkpt lat="-35.644007152060446" lon="144.20844338822738"><ele>92.0</ele><time>2026-05-02T07:14:36.999Z</time></trkpt><trkpt lat="-35.644041802650655" lon="144.20855933890283"><ele>92.0</ele><time>2026-05-02T07:14:37.999Z</time></trkpt><trkpt lat="-35.64408729818036" lon="144.20867880337954"><ele>92.0</ele><time>2026-05-02T07:14:38.999Z</time></trkpt><trkpt lat="-35.64415926251384" lon="144.2087844982174"><ele>92.0</ele><time>2026-05-02T07:14:39.999Z</time></trkpt><trkpt lat="-35.64424288693604" lon="144.20887314902478"><ele>92.0</ele><time>2026-05-02T07:14:40.999Z</time></trkpt><trkpt lat="-35.6443138567979" lon="144.20895439768663"><ele>92.0</ele><time>2026-05-02T07:14:42Z</time></trkpt><trkpt lat="-35.644349653387984" lon="144.2090541737591"><ele>92.0</ele><time>2026-05-02T07:14:43Z</time></trkpt><trkpt lat="-35.64434517986907" lon="144.20915721761315"><ele>92.0</ele><time>2026-05-02T07:14:44Z</time></trkpt><trkpt lat="-35.644300371477826" lon="144.20928011713306"><ele>91.6</ele><time>2026-05-02T07:14:45Z</time></trkpt><trkpt lat="-35.64427879513878" lon="144.20937337843816"><ele>91.19999999999999</ele><time>2026-05-02T07:14:46Z</time></trkpt><trkpt lat="-35.64423273147015" lon="144.20946329821047"><ele>90.8</ele><time>2026-05-02T07:14:47Z</time></trkpt><trkpt lat="-35.644202859084466" lon="144.20959021904358"><ele>90.4</ele><time>2026-05-02T07:14:49Z</time></trkpt><trkpt lat="-35.64422283627508" lon="144.20968371233536"><ele>90.0</ele><time>2026-05-02T07:14:52Z</time></trkpt><trkpt lat="-35.644273593976166" lon="144.2097995697959"><ele>90.0</ele><time>2026-05-02T07:14:54Z</time></trkpt><trkpt lat="-35.644270918256396" lon="144.20991676514953"><ele>90.0</ele><time>2026-05-02T07:14:55Z</time></trkpt><trkpt lat="-35.64428912018459" lon="144.2100106612833"><ele>90.0</ele><time>2026-05-02T07:14:56Z</time></trkpt><trkpt lat="-35.644308998605446" lon="144.2101060234542"><ele>90.0</ele><time>2026-05-02T07:14:57Z</time></trkpt><trkpt lat="-35.644325820891524" lon="144.21020661765894"><ele>90.0</ele><time>2026-05-02T07:14:58Z</time></trkpt><trkpt lat="-35.644369745878976" lon="144.21033885780005"><ele>90.4</ele><time>2026-05-02T07:15:00Z</time></trkpt><trkpt lat="-35.6444689797494" lon="144.21040047735917"><ele>90.8</ele><time>2026-05-02T07:15:02Z</time></trkpt><trkpt lat="-35.644598503977505" lon="144.2104334427014"><ele>91.19999999999999</ele><time>2026-05-02T07:15:04Z</time></trkpt><trkpt lat="-35.644675471027504" lon="144.21048245240596"><ele>91.6</ele><time>2026-05-02T07:15:05Z</time></trkpt><trkpt lat="-35.64475521089842" lon="144.2105091161419"><ele>92.0</ele><time>2026-05-02T07:15:06Z</time></trkpt><trkpt lat="-35.64480511430863" lon="144.21060339569127"><ele>92.0</ele><time>2026-05-02T07:15:21Z</time></trkpt><trkpt lat="-35.64481193665991" lon="144.21071089312997"><ele>92.0</ele><time>2026-05-02T07:15:22Z</time></trkpt><trkpt lat="-35.64480720777353" lon="144.2108119179592"><ele>92.0</ele><time>2026-05-02T07:15:23Z</time></trkpt><trkpt lat="-35.644799782711395" lon="144.21090761893058"><ele>92.0</ele><time>2026-05-02T07:15:24Z</time></trkpt><trkpt lat="-35.644754600497166" lon="144.21101773329127"><ele>92.0</ele><time>2026-05-02T07:15:25Z</time></trkpt><trkpt lat="-35.64471239267524" lon="144.21109917855082"><ele>92.0</ele><time>2026-05-02T07:15:26Z</time></trkpt><trkpt lat="-35.64467596300452" lon="144.21117313173607"><ele>92.0</ele><time>2026-05-02T07:15:27Z</time></trkpt><trkpt lat="-35.64466675191139" lon="144.21126396618234"><ele>92.0</ele><time>2026-05-02T07:15:29Z</time></trkpt><trkpt lat="-35.64468984832632" lon="144.21134136710293"><ele>92.0</ele><time>2026-05-02T07:15:39Z</time></trkpt><trkpt lat="-35.64475602803111" lon="144.21138447560108"><ele>92.0</ele><time>2026-05-02T07:15:47Z</time></trkpt><trkpt lat="-35.64481931575729" lon="144.21134280008687"><ele>92.0</ele><time>2026-05-02T07:15:50Z</time></trkpt><trkpt lat="-35.64490030310644" lon="144.2113074281107"><ele>92.0</ele><time>2026-05-02T07:15:53Z</time></trkpt><trkpt lat="-35.64496113604268" lon="144.21132853526444"><ele>92.0</ele><time>2026-05-02T07:15:56Z</time></trkpt><trkpt lat="-35.64500549506044" lon="144.21140564296405"><ele>91.6</ele><time>2026-05-02T07:15:59Z</time></trkpt><trkpt lat="-35.645000144457136" lon="144.21150835932576"><ele>91.19999999999999</ele><time>2026-05-02T07:16:01Z</time></trkpt><trkpt lat="-35.644959974606664" lon="144.21161129800745"><ele>90.8</ele><time>2026-05-02T07:16:04Z</time></trkpt><trkpt lat="-35.644870377086306" lon="144.21164636406212"><ele>90.4</ele><time>2026-05-02T07:16:06.999Z</time></trkpt><trkpt lat="-35.64478394279439" lon="144.2117736620606"><ele>90.0</ele><time>2026-05-02T07:16:08.999Z</time></trkpt><trkpt lat="-35.64474609296657" lon="144.2118416962959"><ele>90.0</ele><time>2026-05-02T07:16:09.999Z</time></trkpt><trkpt lat="-35.6447065519679" lon="144.2119364638203"><ele>90.0</ele><time>2026-05-02T07:16:10.999Z</time></trkpt><trkpt lat="-35.644715475391436" lon="144.21201396763468"><ele>90.0</ele><time>2026-05-02T07:16:32.999Z</time></trkpt><trkpt lat="-35.64475596266495" lon="144.2120798653417"><ele>90.0</ele><time>2026-05-02T07:16:35.999Z</time></trkpt><trkpt lat="-35.644780646825986" lon="144.2121598800127"><ele>90.0</ele><time>2026-05-02T07:16:38.999Z</time></trkpt><trkpt lat="-35.64472777151911" lon="144.21220479300092"><ele>90.0</ele><time>2026-05-02T07:16:44.999Z</time></trkpt><trkpt lat="-35.644703446524446" lon="144.2122852567675"><ele>90.0</ele><time>2026-05-02T07:16:49Z</time></trkpt><trkpt lat="-35.64472017574674" lon="144.21237490397004"><ele>89.8</ele><time>2026-05-02T07:16:52Z</time></trkpt><trkpt lat="-35.644710362374994" lon="144.21247662271526"><ele>89.6</ele><time>2026-05-02T07:16:54Z</time></trkpt><trkpt lat="-35.64464802604886" lon="144.21261180016083"><ele>89.4</ele><time>2026-05-02T07:16:56Z</time></trkpt><trkpt lat="-35.644548881735034" lon="144.21255676795744"><ele>89.2</ele><time>2026-05-02T07:16:58Z</time></trkpt><trkpt lat="-35.64447471128369" lon="144.21245309208595"><ele>89.0</ele><time>2026-05-02T07:17:00Z</time></trkpt><trkpt lat="-35.6444742379291" lon="144.21255768844395"><ele>89.0</ele><time>2026-05-02T07:17:17Z</time></trkpt><trkpt lat="-35.644549134772255" lon="144.2126326841675"><ele>89.0</ele><time>2026-05-02T07:17:19Z</time></trkpt><trkpt lat="-35.64460926050214" lon="144.21265970345695"><ele>89.0</ele><time>2026-05-02T07:17:20Z</time></trkpt><trkpt lat="-35.644684072407074" lon="144.21271884539303"><ele>89.0</ele><time>2026-05-02T07:17:22Z</time></trkpt><trkpt lat="-35.64473989190872" lon="144.21277938165704"><ele>89.0</ele><time>2026-05-02T07:17:25Z</time></trkpt><trkpt lat="-35.64479693999075" lon="144.2127339590192"><ele>89.0</ele><time>2026-05-02T07:17:28Z</time></trkpt><trkpt lat="-35.64471053031661" lon="144.21273494813408"><ele>89.0</ele><time>2026-05-02T07:17:31Z</time></trkpt><trkpt lat="-35.644640379880514" lon="144.2127662634755"><ele>89.0</ele><time>2026-05-02T07:17:33Z</time></trkpt><trkpt lat="-35.64456239844671" lon="144.21283399729967"><ele>89.0</ele><time>2026-05-02T07:20:02Z</time></trkpt><trkpt lat="-35.64450878599045" lon="144.2128955208952"><ele>89.0</ele><time>2026-05-02T07:20:03Z</time></trkpt><trkpt lat="-35.64443864292283" lon="144.21293064979872"><ele>89.0</ele><time>2026-05-02T07:20:04Z</time></trkpt><trkpt lat="-35.644334679538694" lon="144.21293348097606"><ele>89.0</ele><time>2026-05-02T07:20:06Z</time></trkpt><trkpt lat="-35.64426746133519" lon="144.21283105854224"><ele>89.2</ele><time>2026-05-02T07:20:07.999Z</time></trkpt><trkpt lat="-35.64416234915147" lon="144.21270856117317"><ele>89.4</ele><time>2026-05-02T07:20:09.999Z</time></trkpt><trkpt lat="-35.64409297913993" lon="144.2126167718021"><ele>89.6</ele><time>2026-05-02T07:20:10.999Z</time></trkpt><trkpt lat="-35.644038077666984" lon="144.21252591705075"><ele>89.8</ele><time>2026-05-02T07:20:11.999Z</time></trkpt><trkpt lat="-35.643977388718596" lon="144.21245777924426"><ele>90.0</ele><time>2026-05-02T07:20:12.999Z</time></trkpt><trkpt lat="-35.64388993992293" lon="144.2124220784383"><ele>90.0</ele><time>2026-05-02T07:20:13.999Z</time></trkpt><trkpt lat="-35.6438154419472" lon="144.2124033978217"><ele>90.0</ele><time>2026-05-02T07:20:14.999Z</time></trkpt><trkpt lat="-35.64372652546808" lon="144.2123996383639"><ele>90.0</ele><time>2026-05-02T07:20:15.999Z</time></trkpt><trkpt lat="-35.643641967211025" lon="144.21239371289963"><ele>90.0</ele><time>2026-05-02T07:20:16.999Z</time></trkpt><trkpt lat="-35.64352813780173" lon="144.21241072766907"><ele>90.0</ele><time>2026-05-02T07:20:17.999Z</time></trkpt><trkpt lat="-35.64342819887118" lon="144.21244792314167"><ele>90.2</ele><time>2026-05-02T07:20:18.999Z</time></trkpt><trkpt lat="-35.64333992564502" lon="144.2124710654114"><ele>90.4</ele><time>2026-05-02T07:20:19.999Z</time></trkpt><trkpt lat="-35.6432636917945" lon="144.21247700363426"><ele>90.6</ele><time>2026-05-02T07:20:20.999Z</time></trkpt><trkpt lat="-35.643179428976445" lon="144.2124465455601"><ele>90.8</ele><time>2026-05-02T07:20:21.999Z</time></trkpt><trkpt lat="-35.64308468332658" lon="144.21239773130011"><ele>91.0</ele><time>2026-05-02T07:20:22.999Z</time></trkpt><trkpt lat="-35.64299575757495" lon="144.21233245607212"><ele>91.33333333333333</ele><time>2026-05-02T07:20:23.999Z</time></trkpt><trkpt lat="-35.6429236224269" lon="144.21228760657047"><ele>91.66666666666666</ele><time>2026-05-02T07:20:24.999Z</time></trkpt><trkpt lat="-35.64282321183752" lon="144.21223834838352"><ele>92.0</ele><time>2026-05-02T07:20:26.999Z</time></trkpt><trkpt lat="-35.64285247331298" lon="144.21214311306667"><ele>92.33333333333333</ele><time>2026-05-02T07:20:28.999Z</time></trkpt><trkpt lat="-35.64290450171807" lon="144.21209229330304"><ele>92.66666666666667</ele><time>2026-05-02T07:20:30.999Z</time></trkpt><trkpt lat="-35.642896566251075" lon="144.21221266654695"><ele>93.0</ele><time>2026-05-02T07:20:33.999Z</time></trkpt><trkpt lat="-35.642856806042644" lon="144.21231145505004"><ele>92.66666666666667</ele><time>2026-05-02T07:20:34.999Z</time></trkpt><trkpt lat="-35.64280144556023" lon="144.2123509395128"><ele>92.33333333333333</ele><time>2026-05-02T07:20:37.999Z</time></trkpt><trkpt lat="-35.64274177267229" lon="144.21224959366563"><ele>92.0</ele><time>2026-05-02T07:20:39.999Z</time></trkpt><trkpt lat="-35.64271516467539" lon="144.21217589432308"><ele>91.66666666666666</ele><time>2026-05-02T07:20:40.999Z</time></trkpt><trkpt lat="-35.64270537623348" lon="144.21208914641807"><ele>91.33333333333333</ele><time>2026-05-02T07:20:41.999Z</time></trkpt><trkpt lat="-35.64269934785908" lon="144.211992937104"><ele>91.0</ele><time>2026-05-02T07:20:42.999Z</time></trkpt><trkpt lat="-35.64270329467756" lon="144.2118607770752"><ele>91.0</ele><time>2026-05-02T07:20:43.999Z</time></trkpt><trkpt lat="-35.642697573740364" lon="144.2117296159327"><ele>91.0</ele><time>2026-05-02T07:20:44.999Z</time></trkpt><trkpt lat="-35.642691757310864" lon="144.21162192212637"><ele>91.0</ele><time>2026-05-02T07:20:45.999Z</time></trkpt><trkpt lat="-35.64265485281769" lon="144.21154185176238"><ele>91.0</ele><time>2026-05-02T07:20:47.999Z</time></trkpt><trkpt lat="-35.642536781854" lon="144.21148555579714"><ele>91.0</ele><time>2026-05-02T07:20:49.999Z</time></trkpt><trkpt lat="-35.642457183915525" lon="144.21146581326673"><ele>91.0</ele><time>2026-05-02T07:20:50.999Z</time></trkpt><trkpt lat="-35.64237276255907" lon="144.2114716979696"><ele>91.0</ele><time>2026-05-02T07:20:52.999Z</time></trkpt><trkpt lat="-35.6422549172523" lon="144.21150134680497"><ele>91.0</ele><time>2026-05-02T07:20:54.999Z</time></trkpt><trkpt lat="-35.64217212377489" lon="144.2115281491369"><ele>91.0</ele><time>2026-05-02T07:20:55.999Z</time></trkpt><trkpt lat="-35.642099973094254" lon="144.21156504120134"><ele>91.0</ele><time>2026-05-02T07:20:56.999Z</time></trkpt><trkpt lat="-35.64197109041246" lon="144.21149906525318"><ele>91.0</ele><time>2026-05-02T07:20:58.999Z</time></trkpt><trkpt lat="-35.641921986007425" lon="144.21141480138365"><ele>91.0</ele><time>2026-05-02T07:20:59.999Z</time></trkpt><trkpt lat="-35.64191369415791" lon="144.21131493738392"><ele>91.0</ele><time>2026-05-02T07:21:00.999Z</time></trkpt><trkpt lat="-35.64192241749965" lon="144.21120861683383"><ele>91.0</ele><time>2026-05-02T07:21:01.999Z</time></trkpt><trkpt lat="-35.641947696927645" lon="144.21113341930058"><ele>91.0</ele><time>2026-05-02T07:21:03Z</time></trkpt><trkpt lat="-35.64198756833527" lon="144.2110555051015"><ele>91.0</ele><time>2026-05-02T07:21:04Z</time></trkpt><trkpt lat="-35.64204866812595" lon="144.21098075496917"><ele>91.0</ele><time>2026-05-02T07:21:05Z</time></trkpt><trkpt lat="-35.64210589547859" lon="144.2108880559801"><ele>91.0</ele><time>2026-05-02T07:21:07Z</time></trkpt><trkpt lat="-35.64210014134136" lon="144.21076534750702"><ele>91.0</ele><time>2026-05-02T07:21:09Z</time></trkpt><trkpt lat="-35.64211670638738" lon="144.21065822166764"><ele>91.0</ele><time>2026-05-02T07:21:10Z</time></trkpt><trkpt lat="-35.64213755927819" lon="144.21054100749268"><ele>91.0</ele><time>2026-05-02T07:21:11Z</time></trkpt><trkpt lat="-35.642158103339995" lon="144.21046377440126"><ele>91.0</ele><time>2026-05-02T07:21:12Z</time></trkpt><trkpt lat="-35.642103414802634" lon="144.21033837903423"><ele>91.19999999999999</ele><time>2026-05-02T07:21:14Z</time></trkpt><trkpt lat="-35.64204888983058" lon="144.21029028527693"><ele>91.39999999999999</ele><time>2026-05-02T07:21:15Z</time></trkpt><trkpt lat="-35.64197883825322" lon="144.21025666379717"><ele>91.6</ele><time>2026-05-02T07:21:16Z</time></trkpt><trkpt lat="-35.64192270810009" lon="144.210200503747"><ele>91.8</ele><time>2026-05-02T07:21:17Z</time></trkpt><trkpt lat="-35.64184615839487" lon="144.2100106909225"><ele>92.0</ele><time>2026-05-02T07:21:19Z</time></trkpt><trkpt lat="-35.64183085089904" lon="144.20991303581965"><ele>91.85714285714286</ele><time>2026-05-02T07:21:20Z</time></trkpt><trkpt lat="-35.641852983995484" lon="144.20983437379311"><ele>91.71428571428571</ele><time>2026-05-02T07:21:21Z</time></trkpt><trkpt lat="-35.641806216059514" lon="144.20974442090488"><ele>91.57142857142857</ele><time>2026-05-02T07:21:24Z</time></trkpt><trkpt lat="-35.641745366568315" lon="144.20979576677652"><ele>91.42857142857143</ele><time>2026-05-02T07:21:27Z</time></trkpt><trkpt lat="-35.64172433013278" lon="144.20989434579639"><ele>91.28571428571428</ele><time>2026-05-02T07:21:31Z</time></trkpt><trkpt lat="-35.64166207392111" lon="144.20992044121647"><ele>91.14285714285714</ele><time>2026-05-02T07:21:33Z</time></trkpt><trkpt lat="-35.64163963770207" lon="144.20984070660472"><ele>91.0</ele><time>2026-05-02T07:21:36Z</time></trkpt><trkpt lat="-35.641651116659396" lon="144.20974730278127"><ele>91.0</ele><time>2026-05-02T07:21:39Z</time></trkpt><trkpt lat="-35.64161693939279" lon="144.20967182683012"><ele>91.0</ele><time>2026-05-02T07:21:42Z</time></trkpt><trkpt lat="-35.64157238747743" lon="144.209612066311"><ele>91.0</ele><time>2026-05-02T07:21:45Z</time></trkpt><trkpt lat="-35.64148468507146" lon="144.20949894629436"><ele>91.0</ele><time>2026-05-02T07:21:47Z</time></trkpt><trkpt lat="-35.64147365429288" lon="144.20936925676187"><ele>91.0</ele><time>2026-05-02T07:21:48Z</time></trkpt><trkpt lat="-35.64152831336379" lon="144.20924097236548"><ele>91.0</ele><time>2026-05-02T07:21:49Z</time></trkpt><trkpt lat="-35.64155328149838" lon="144.2091236328489"><ele>91.0</ele><time>2026-05-02T07:21:50Z</time></trkpt><trkpt lat="-35.64150233583517" lon="144.20904157429848"><ele>91.0</ele><time>2026-05-02T07:21:55Z</time></trkpt><trkpt lat="-35.641443157391784" lon="144.20893825264807"><ele>91.0</ele><time>2026-05-02T07:21:58Z</time></trkpt><trkpt lat="-35.64140765957136" lon="144.2088681624217"><ele>91.0</ele><time>2026-05-02T07:22:01Z</time></trkpt><trkpt lat="-35.641402072097044" lon="144.2087856985928"><ele>91.0</ele><time>2026-05-02T07:22:03Z</time></trkpt><trkpt lat="-35.64135674333073" lon="144.20870687659573"><ele>90.4</ele><time>2026-05-02T07:22:05Z</time></trkpt><trkpt lat="-35.641329547896554" lon="144.2085981399144"><ele>89.8</ele><time>2026-05-02T07:22:06Z</time></trkpt><trkpt lat="-35.64132169456752" lon="144.20852026123075"><ele>89.2</ele><time>2026-05-02T07:22:07Z</time></trkpt><trkpt lat="-35.64131103511012" lon="144.20843575593685"><ele>88.60000000000001</ele><time>2026-05-02T07:22:07.999Z</time></trkpt><trkpt lat="-35.641231175252976" lon="144.20831208097516"><ele>88.0</ele><time>2026-05-02T07:22:09.999Z</time></trkpt><trkpt lat="-35.64113696566989" lon="144.208238915118"><ele>88.0</ele><time>2026-05-02T07:22:10.999Z</time></trkpt><trkpt lat="-35.64100055279094" lon="144.20813766372146"><ele>88.0</ele><time>2026-05-02T07:22:11.999Z</time></trkpt><trkpt lat="-35.64092072942404" lon="144.20809004111857"><ele>88.0</ele><time>2026-05-02T07:22:12.999Z</time></trkpt><trkpt lat="-35.6408348553471" lon="144.20814160405473"><ele>88.0</ele><time>2026-05-02T07:22:14.999Z</time></trkpt><trkpt lat="-35.64082263202732" lon="144.20823999075694"><ele>88.0</ele><time>2026-05-02T07:22:18.999Z</time></trkpt><trkpt lat="-35.64074350194569" lon="144.2082246612361"><ele>88.0</ele><time>2026-05-02T07:22:20.999Z</time></trkpt><trkpt lat="-35.64066860240279" lon="144.20817279129318"><ele>88.0</ele><time>2026-05-02T07:22:23.999Z</time></trkpt><trkpt lat="-35.640618123093105" lon="144.2081254058385"><ele>88.0</ele><time>2026-05-02T07:22:25.999Z</time></trkpt><trkpt lat="-35.64051331900007" lon="144.20820247337912"><ele>88.0</ele><time>2026-05-02T07:22:27.999Z</time></trkpt><trkpt lat="-35.64043943024066" lon="144.20828129861084"><ele>88.0</ele><time>2026-05-02T07:22:28.999Z</time></trkpt><trkpt lat="-35.64037995583317" lon="144.2083699820828"><ele>88.0</ele><time>2026-05-02T07:22:29.999Z</time></trkpt><trkpt lat="-35.64033701060963" lon="144.2084609293464"><ele>88.0</ele><time>2026-05-02T07:22:30.999Z</time></trkpt><trkpt lat="-35.640317001363584" lon="144.20853860137058"><ele>88.0</ele><time>2026-05-02T07:22:31.999Z</time></trkpt><trkpt lat="-35.64034371766046" lon="144.20861654406966"><ele>88.0</ele><time>2026-05-02T07:22:36.999Z</time></trkpt><trkpt lat="-35.64040924473827" lon="144.20867673798398"><ele>88.0</ele><time>2026-05-02T07:22:39.999Z</time></trkpt><trkpt lat="-35.64047434048433" lon="144.20870954698188"><ele>88.0</ele><time>2026-05-02T07:22:41.999Z</time></trkpt><trkpt lat="-35.640510844121586" lon="144.2087727520957"><ele>88.0</ele><time>2026-05-02T07:22:42.999Z</time></trkpt><trkpt lat="-35.640517631638104" lon="144.20887181768296"><ele>88.0</ele><time>2026-05-02T07:22:44.999Z</time></trkpt><trkpt lat="-35.64046229395894" lon="144.20891049705986"><ele>88.0</ele><time>2026-05-02T07:22:46.999Z</time></trkpt><trkpt lat="-35.64040050739823" lon="144.20896499335092"><ele>88.0</ele><time>2026-05-02T07:22:49.999Z</time></trkpt><trkpt lat="-35.64034313286848" lon="144.20899863775082"><ele>88.0</ele><time>2026-05-02T07:22:51.999Z</time></trkpt><trkpt lat="-35.64029007481543" lon="144.20906526463065"><ele>88.0</ele><time>2026-05-02T07:22:53.999Z</time></trkpt><trkpt lat="-35.64021732896675" lon="144.20914210623977"><ele>88.0</ele><time>2026-05-02T07:22:55.999Z</time></trkpt><trkpt lat="-35.64013943564102" lon="144.2091565750182"><ele>88.2</ele><time>2026-05-02T07:22:56.999Z</time></trkpt><trkpt lat="-35.64007127690088" lon="144.20912604435352"><ele>88.4</ele><time>2026-05-02T07:22:57.999Z</time></trkpt><trkpt lat="-35.6399793881614" lon="144.2092309007279"><ele>88.60000000000001</ele><time>2026-05-02T07:22:59.999Z</time></trkpt><trkpt lat="-35.63994365613619" lon="144.20933070733764"><ele>88.80000000000001</ele><time>2026-05-02T07:23:00.999Z</time></trkpt><trkpt lat="-35.639890203113744" lon="144.20940443372047"><ele>89.0</ele><time>2026-05-02T07:23:01.999Z</time></trkpt><trkpt lat="-35.6398101490848" lon="144.2094805227434"><ele>89.0</ele><time>2026-05-02T07:23:02.999Z</time></trkpt><trkpt lat="-35.6397373525738" lon="144.20956246443302"><ele>89.0</ele><time>2026-05-02T07:23:03.999Z</time></trkpt><trkpt lat="-35.63968439817967" lon="144.20964333449865"><ele>89.0</ele><time>2026-05-02T07:23:04.999Z</time></trkpt><trkpt lat="-35.63965847429532" lon="144.2097357768447"><ele>89.0</ele><time>2026-05-02T07:23:06Z</time></trkpt><trkpt lat="-35.639604841583925" lon="144.20983191351317"><ele>89.0</ele><time>2026-05-02T07:23:07Z</time></trkpt><trkpt lat="-35.63955036140248" lon="144.20991724581657"><ele>89.0</ele><time>2026-05-02T07:23:08Z</time></trkpt><trkpt lat="-35.63949852002222" lon="144.21000742657213"><ele>89.2</ele><time>2026-05-02T07:23:09Z</time></trkpt><trkpt lat="-35.63943677044639" lon="144.21010083623264"><ele>89.4</ele><time>2026-05-02T07:23:10Z</time></trkpt><trkpt lat="-35.63937172054737" lon="144.2101712988751"><ele>89.6</ele><time>2026-05-02T07:23:11Z</time></trkpt><trkpt lat="-35.639297577730275" lon="144.21024129245217"><ele>89.8</ele><time>2026-05-02T07:23:12Z</time></trkpt><trkpt lat="-35.639219280092675" lon="144.2103052151657"><ele>90.0</ele><time>2026-05-02T07:23:13Z</time></trkpt><trkpt lat="-35.63915043805361" lon="144.2103658170594"><ele>90.0</ele><time>2026-05-02T07:23:14Z</time></trkpt><trkpt lat="-35.63910323943473" lon="144.21042438389327"><ele>90.0</ele><time>2026-05-02T07:23:15Z</time></trkpt><trkpt lat="-35.63906760913565" lon="144.21048958416813"><ele>90.0</ele><time>2026-05-02T07:23:16Z</time></trkpt><trkpt lat="-35.639033818583236" lon="144.21055652323997"><ele>90.0</ele><time>2026-05-02T07:23:17Z</time></trkpt><trkpt lat="-35.63899032074047" lon="144.21064605867463"><ele>90.0</ele><time>2026-05-02T07:23:18Z</time></trkpt><trkpt lat="-35.63893681905377" lon="144.21074132235339"><ele>90.0</ele><time>2026-05-02T07:23:19Z</time></trkpt><trkpt lat="-35.638892064499466" lon="144.210825665569"><ele>90.0</ele><time>2026-05-02T07:23:20Z</time></trkpt><trkpt lat="-35.63885174319701" lon="144.21091721180895"><ele>90.0</ele><time>2026-05-02T07:23:21Z</time></trkpt><trkpt lat="-35.63881133408102" lon="144.21103377126852"><ele>90.0</ele><time>2026-05-02T07:23:22Z</time></trkpt><trkpt lat="-35.63876261254455" lon="144.21115408493347"><ele>90.0</ele><time>2026-05-02T07:23:23Z</time></trkpt><trkpt lat="-35.638690804456644" lon="144.21127497934347"><ele>90.0</ele><time>2026-05-02T07:23:24Z</time></trkpt><trkpt lat="-35.63860967996109" lon="144.21141249490202"><ele>90.6</ele><time>2026-05-02T07:23:25Z</time></trkpt><trkpt lat="-35.638544785712675" lon="144.21153297438175"><ele>91.2</ele><time>2026-05-02T07:23:26Z</time></trkpt><trkpt lat="-35.638488266352894" lon="144.2116254834281"><ele>91.80000000000001</ele><time>2026-05-02T07:23:27Z</time></trkpt><trkpt lat="-35.63844259908809" lon="144.21170635345797"><ele>92.4</ele><time>2026-05-02T07:23:28Z</time></trkpt><trkpt lat="-35.63836197302623" lon="144.2118088519404"><ele>93.0</ele><time>2026-05-02T07:23:30Z</time></trkpt><trkpt lat="-35.63839535520958" lon="144.21192285158713"><ele>93.0</ele><time>2026-05-02T07:23:32Z</time></trkpt><trkpt lat="-35.63837138518061" lon="144.21201946641412"><ele>93.0</ele><time>2026-05-02T07:23:33Z</time></trkpt><trkpt lat="-35.63833693962325" lon="144.21212134743683"><ele>93.0</ele><time>2026-05-02T07:23:34Z</time></trkpt><trkpt lat="-35.6383106521617" lon="144.21219619824458"><ele>93.0</ele><time>2026-05-02T07:23:35Z</time></trkpt><trkpt lat="-35.63826364875139" lon="144.2122988770278"><ele>93.0</ele><time>2026-05-02T07:23:38Z</time></trkpt><trkpt lat="-35.63814617408813" lon="144.2123375288411"><ele>93.0</ele><time>2026-05-02T07:23:40Z</time></trkpt><trkpt lat="-35.63808059961772" lon="144.2123694245512"><ele>93.0</ele><time>2026-05-02T07:23:41Z</time></trkpt><trkpt lat="-35.638000511014646" lon="144.21244456972002"><ele>93.0</ele><time>2026-05-02T07:23:43Z</time></trkpt><trkpt lat="-35.637996609909614" lon="144.21254024060875"><ele>93.0</ele><time>2026-05-02T07:23:44Z</time></trkpt><trkpt lat="-35.63799011943255" lon="144.21264175062552"><ele>93.0</ele><time>2026-05-02T07:23:45Z</time></trkpt><trkpt lat="-35.63797842479677" lon="144.2127440509815"><ele>93.0</ele><time>2026-05-02T07:23:46Z</time></trkpt><trkpt lat="-35.637962378662294" lon="144.21282943686148"><ele>93.0</ele><time>2026-05-02T07:23:47Z</time></trkpt><trkpt lat="-35.63795357727616" lon="144.21294239716596"><ele>93.0</ele><time>2026-05-02T07:23:49Z</time></trkpt><trkpt lat="-35.63799014355304" lon="144.21305804815776"><ele>93.0</ele><time>2026-05-02T07:23:51Z</time></trkpt><trkpt lat="-35.63803421179554" lon="144.2131397164131"><ele>93.0</ele><time>2026-05-02T07:23:53Z</time></trkpt><trkpt lat="-35.63799925669935" lon="144.2132616341324"><ele>93.0</ele><time>2026-05-02T07:23:55Z</time></trkpt><trkpt lat="-35.63792642172271" lon="144.21323502202105"><ele>92.80000000000001</ele><time>2026-05-02T07:23:58Z</time></trkpt><trkpt lat="-35.63783166764463" lon="144.2132711654661"><ele>92.6</ele><time>2026-05-02T07:24:00Z</time></trkpt><trkpt lat="-35.63772659854663" lon="144.2132781350324"><ele>92.4</ele><time>2026-05-02T07:24:01Z</time></trkpt><trkpt lat="-35.6376358846124" lon="144.2132866740648"><ele>92.19999999999999</ele><time>2026-05-02T07:24:02Z</time></trkpt><trkpt lat="-35.637565585131" lon="144.21326938386073"><ele>92.0</ele><time>2026-05-02T07:24:03Z</time></trkpt><trkpt lat="-35.637469570851955" lon="144.21321531500897"><ele>92.16666666666667</ele><time>2026-05-02T07:24:05Z</time></trkpt><trkpt lat="-35.63741418365393" lon="144.2130919434196"><ele>92.33333333333334</ele><time>2026-05-02T07:24:07Z</time></trkpt><trkpt lat="-35.63738316334663" lon="144.21301642766534"><ele>92.5</ele><time>2026-05-02T07:24:08Z</time></trkpt><trkpt lat="-35.637322209140144" lon="144.21298014355196"><ele>92.66666666666667</ele><time>2026-05-02T07:24:09Z</time></trkpt><trkpt lat="-35.63723543584945" lon="144.21296239703975"><ele>92.83333333333333</ele><time>2026-05-02T07:24:10Z</time></trkpt><trkpt lat="-35.63714811023286" lon="144.21301492507587"><ele>93.0</ele><time>2026-05-02T07:24:11Z</time></trkpt><trkpt lat="-35.637074621427644" lon="144.21305033846446"><ele>93.0</ele><time>2026-05-02T07:24:12Z</time></trkpt><trkpt lat="-35.63702134422002" lon="144.21298751455052"><ele>93.0</ele><time>2026-05-02T07:24:14Z</time></trkpt><trkpt lat="-35.6370305771637" lon="144.21290961690764"><ele>93.0</ele><time>2026-05-02T07:24:15Z</time></trkpt><trkpt lat="-35.637034877869475" lon="144.21281354870933"><ele>93.0</ele><time>2026-05-02T07:24:17Z</time></trkpt><trkpt lat="-35.637049842687766" lon="144.21269134516353"><ele>93.0</ele><time>2026-05-02T07:24:19Z</time></trkpt><trkpt lat="-35.63697990626344" lon="144.2126666838001"><ele>93.0</ele><time>2026-05-02T07:24:23Z</time></trkpt><trkpt lat="-35.63691596783198" lon="144.2126733376525"><ele>91.80000000000001</ele><time>2026-05-02T07:24:24Z</time></trkpt><trkpt lat="-35.63681681156203" lon="144.21272798582805"><ele>90.6</ele><time>2026-05-02T07:24:25Z</time></trkpt><trkpt lat="-35.63673856472565" lon="144.21282006569157"><ele>89.4</ele><time>2026-05-02T07:24:26Z</time></trkpt><trkpt lat="-35.6367001895156" lon="144.21289774285393"><ele>88.19999999999999</ele><time>2026-05-02T07:24:29Z</time></trkpt><trkpt lat="-35.63659246591658" lon="144.2128988472404"><ele>87.0</ele><time>2026-05-02T07:24:32Z</time></trkpt><trkpt lat="-35.63653182840679" lon="144.21285760425997"><ele>87.0</ele><time>2026-05-02T07:24:35Z</time></trkpt><trkpt lat="-35.636534981761095" lon="144.21277802644693"><ele>87.0</ele><time>2026-05-02T07:24:37Z</time></trkpt><trkpt lat="-35.636548565206624" lon="144.21268711016666"><ele>87.0</ele><time>2026-05-02T07:24:40Z</time></trkpt><trkpt lat="-35.636549310869924" lon="144.21259717261762"><ele>87.0</ele><time>2026-05-02T07:24:41Z</time></trkpt><trkpt lat="-35.63653780054646" lon="144.2125026942711"><ele>87.0</ele><time>2026-05-02T07:24:41.999Z</time></trkpt><trkpt lat="-35.636482480363064" lon="144.2124071106062"><ele>87.0</ele><time>2026-05-02T07:24:42.999Z</time></trkpt><trkpt lat="-35.636401145904344" lon="144.2123622227107"><ele>87.0</ele><time>2026-05-02T07:24:43.999Z</time></trkpt><trkpt lat="-35.636322011927604" lon="144.21233309054156"><ele>87.0</ele><time>2026-05-02T07:24:44.999Z</time></trkpt><trkpt lat="-35.63621844623431" lon="144.21234882537757"><ele>87.0</ele><time>2026-05-02T07:24:46.999Z</time></trkpt><trkpt lat="-35.636141750925155" lon="144.2124435420518"><ele>87.0</ele><time>2026-05-02T07:24:49.999Z</time></trkpt><trkpt lat="-35.63609812979466" lon="144.21251266963074"><ele>87.0</ele><time>2026-05-02T07:24:51.999Z</time></trkpt><trkpt lat="-35.63602983198875" lon="144.21245887992842"><ele>87.0</ele><time>2026-05-02T07:24:53.999Z</time></trkpt><trkpt lat="-35.63597509710228" lon="144.2123822514937"><ele>86.83333333333333</ele><time>2026-05-02T07:24:54.999Z</time></trkpt><trkpt lat="-35.63595836088748" lon="144.21230544670405"><ele>86.66666666666667</ele><time>2026-05-02T07:24:55.999Z</time></trkpt><trkpt lat="-35.63597711391548" lon="144.212227526225"><ele>86.5</ele><time>2026-05-02T07:24:56.999Z</time></trkpt><trkpt lat="-35.63600165765582" lon="144.2121509559492"><ele>86.33333333333334</ele><time>2026-05-02T07:24:57.999Z</time></trkpt><trkpt lat="-35.636039333491475" lon="144.2120473639456"><ele>86.16666666666667</ele><time>2026-05-02T07:24:58.999Z</time></trkpt><trkpt lat="-35.63608082268359" lon="144.21191750651286"><ele>86.0</ele><time>2026-05-02T07:25:00.999Z</time></trkpt><trkpt lat="-35.63610387312059" lon="144.21182185672117"><ele>86.0</ele><time>2026-05-02T07:25:01.999Z</time></trkpt><trkpt lat="-35.636095337083646" lon="144.2117064067396"><ele>86.0</ele><time>2026-05-02T07:25:02.999Z</time></trkpt><trkpt lat="-35.636098035537046" lon="144.2115731741058"><ele>86.0</ele><time>2026-05-02T07:25:03.999Z</time></trkpt><trkpt lat="-35.63611192427511" lon="144.2114521982024"><ele>86.0</ele><time>2026-05-02T07:25:04.999Z</time></trkpt><trkpt lat="-35.63611877349075" lon="144.21133723994342"><ele>86.0</ele><time>2026-05-02T07:25:06.999Z</time></trkpt><trkpt lat="-35.63606366069268" lon="144.2112295079453"><ele>87.4</ele><time>2026-05-02T07:25:08.999Z</time></trkpt><trkpt lat="-35.63592926623579" lon="144.21124293013938"><ele>88.8</ele><time>2026-05-02T07:25:10.999Z</time></trkpt><trkpt lat="-35.635847263599395" lon="144.21126508172054"><ele>90.2</ele><time>2026-05-02T07:25:12Z</time></trkpt><trkpt lat="-35.63576239359341" lon="144.2112698852205"><ele>91.60000000000001</ele><time>2026-05-02T07:25:13Z</time></trkpt><trkpt lat="-35.635682250170696" lon="144.21124146083136"><ele>93.0</ele><time>2026-05-02T07:25:15Z</time></trkpt><trkpt lat="-35.63565967282655" lon="144.21116241512527"><ele>93.0</ele><time>2026-05-02T07:25:18Z</time></trkpt><trkpt lat="-35.63576481556607" lon="144.21105606797477"><ele>93.0</ele><time>2026-05-02T07:25:20Z</time></trkpt><trkpt lat="-35.63582646604681" lon="144.21099423089828"><ele>93.0</ele><time>2026-05-02T07:25:21Z</time></trkpt><trkpt lat="-35.63588774279847" lon="144.21092507648174"><ele>93.0</ele><time>2026-05-02T07:25:22Z</time></trkpt><trkpt lat="-35.635893050257486" lon="144.2107714050973"><ele>93.0</ele><time>2026-05-02T07:25:24Z</time></trkpt><trkpt lat="-35.63581384695116" lon="144.2106616276523"><ele>92.83333333333333</ele><time>2026-05-02T07:25:26Z</time></trkpt><trkpt lat="-35.63576066700915" lon="144.21060367123906"><ele>92.66666666666667</ele><time>2026-05-02T07:25:27Z</time></trkpt><trkpt lat="-35.635682676680574" lon="144.2105427843406"><ele>92.5</ele><time>2026-05-02T07:25:28Z</time></trkpt><trkpt lat="-35.63561158310478" lon="144.21046636283822"><ele>92.33333333333334</ele><time>2026-05-02T07:25:29Z</time></trkpt><trkpt lat="-35.63553856041983" lon="144.21040082246034"><ele>92.16666666666667</ele><time>2026-05-02T07:25:30Z</time></trkpt><trkpt lat="-35.63550953898494" lon="144.2103226742599"><ele>92.0</ele><time>2026-05-02T07:25:31Z</time></trkpt><trkpt lat="-35.635488702208754" lon="144.21021916206664"><ele>92.0</ele><time>2026-05-02T07:25:32Z</time></trkpt><trkpt lat="-35.6354675457171" lon="144.21010100933913"><ele>92.0</ele><time>2026-05-02T07:25:33Z</time></trkpt><trkpt lat="-35.635444019716374" lon="144.20997359740647"><ele>92.0</ele><time>2026-05-02T07:25:34Z</time></trkpt><trkpt lat="-35.63540724440296" lon="144.20985148422005"><ele>92.0</ele><time>2026-05-02T07:25:35Z</time></trkpt><trkpt lat="-35.635380285927525" lon="144.2097450351237"><ele>92.0</ele><time>2026-05-02T07:25:36Z</time></trkpt><trkpt lat="-35.63537272406772" lon="144.20963105364788"><ele>91.6</ele><time>2026-05-02T07:25:37Z</time></trkpt><trkpt lat="-35.63537500931547" lon="144.20952904674903"><ele>91.19999999999999</ele><time>2026-05-02T07:25:38Z</time></trkpt><trkpt lat="-35.635367418205064" lon="144.2094041289047"><ele>90.8</ele><time>2026-05-02T07:25:39Z</time></trkpt><trkpt lat="-35.63534836339708" lon="144.20930376503276"><ele>90.4</ele><time>2026-05-02T07:25:40Z</time></trkpt><trkpt lat="-35.635307033411095" lon="144.20921844790752"><ele>90.0</ele><time>2026-05-02T07:25:41Z</time></trkpt><trkpt lat="-35.63524339760367" lon="144.20911341794508"><ele>90.33333333333333</ele><time>2026-05-02T07:25:42Z</time></trkpt><trkpt lat="-35.635172988404484" lon="144.20901578372343"><ele>90.66666666666667</ele><time>2026-05-02T07:25:43Z</time></trkpt><trkpt lat="-35.63509525857533" lon="144.20894717995486"><ele>91.0</ele><time>2026-05-02T07:25:44Z</time></trkpt><trkpt lat="-35.635040521407596" lon="144.20887434403312"><ele>91.33333333333334</ele><time>2026-05-02T07:25:45Z</time></trkpt><trkpt lat="-35.6349919967877" lon="144.20881071681342"><ele>91.66666666666667</ele><time>2026-05-02T07:25:46Z</time></trkpt><trkpt lat="-35.634939272939235" lon="144.2087124301018"><ele>92.0</ele><time>2026-05-02T07:25:48Z</time></trkpt><trkpt lat="-35.63493519514866" lon="144.208588439616"><ele>92.0</ele><time>2026-05-02T07:25:51Z</time></trkpt><trkpt lat="-35.634980404204676" lon="144.20848638989378"><ele>92.0</ele><time>2026-05-02T07:25:53Z</time></trkpt><trkpt lat="-35.634967225838665" lon="144.20840828896067"><ele>92.0</ele><time>2026-05-02T07:25:55Z</time></trkpt><trkpt lat="-35.63488222501109" lon="144.2084295749316"><ele>92.0</ele><time>2026-05-02T07:25:58Z</time></trkpt><trkpt lat="-35.634808245898654" lon="144.20843690628223"><ele>92.0</ele><time>2026-05-02T07:26:00Z</time></trkpt><trkpt lat="-35.634746381545305" lon="144.2085147796851"><ele>92.0</ele><time>2026-05-02T07:26:03Z</time></trkpt><trkpt lat="-35.634702629576374" lon="144.20859262458606"><ele>92.0</ele><time>2026-05-02T07:26:06Z</time></trkpt><trkpt lat="-35.63467215706886" lon="144.20867269910872"><ele>92.0</ele><time>2026-05-02T07:26:08Z</time></trkpt><trkpt lat="-35.63465871489398" lon="144.2087572104202"><ele>92.0</ele><time>2026-05-02T07:26:11Z</time></trkpt><trkpt lat="-35.63468569575931" lon="144.20886221133614"><ele>92.0</ele><time>2026-05-02T07:26:13Z</time></trkpt><trkpt lat="-35.63471143840127" lon="144.20894325629126"><ele>92.0</ele><time>2026-05-02T07:26:16Z</time></trkpt><trkpt lat="-35.63467515202468" lon="144.20902848677122"><ele>92.0</ele><time>2026-05-02T07:26:17Z</time></trkpt><trkpt lat="-35.63461246572856" lon="144.2091193748779"><ele>91.8</ele><time>2026-05-02T07:26:18Z</time></trkpt><trkpt lat="-35.634564083206755" lon="144.2092084263576"><ele>91.6</ele><time>2026-05-02T07:26:19Z</time></trkpt><trkpt lat="-35.63451148928279" lon="144.20927213129667"><ele>91.39999999999999</ele><time>2026-05-02T07:26:20Z</time></trkpt><trkpt lat="-35.63444425554005" lon="144.2093419521033"><ele>91.19999999999999</ele><time>2026-05-02T07:26:23Z</time></trkpt><trkpt lat="-35.63441809664544" lon="144.2094228609567"><ele>91.0</ele><time>2026-05-02T07:26:25Z</time></trkpt><trkpt lat="-35.63388394237202" lon="144.20999055281868"><ele>91.0</ele><time>2026-05-02T07:26:26Z</time></trkpt><trkpt lat="-35.63379299478149" lon="144.20999451131803"><ele>91.0</ele><time>2026-05-02T07:26:29Z</time></trkpt><trkpt lat="-35.63382577238488" lon="144.21009412987848"><ele>91.0</ele><time>2026-05-02T07:26:32Z</time></trkpt><trkpt lat="-35.633834337601996" lon="144.2101914078075"><ele>91.0</ele><time>2026-05-02T07:26:34Z</time></trkpt><trkpt lat="-35.63376853783834" lon="144.2103093128051"><ele>91.0</ele><time>2026-05-02T07:26:36Z</time></trkpt><trkpt lat="-35.63369055523453" lon="144.21036066241064"><ele>91.0</ele><time>2026-05-02T07:26:37Z</time></trkpt><trkpt lat="-35.633592930858924" lon="144.21042616296515"><ele>91.0</ele><time>2026-05-02T07:26:38Z</time></trkpt><trkpt lat="-35.63348198319187" lon="144.2105333167118"><ele>91.0</ele><time>2026-05-02T07:26:39Z</time></trkpt><trkpt lat="-35.633369891908885" lon="144.21062161376412"><ele>91.0</ele><time>2026-05-02T07:26:40Z</time></trkpt><trkpt lat="-35.63327952382379" lon="144.21070603047286"><ele>90.66666666666666</ele><time>2026-05-02T07:26:41Z</time></trkpt><trkpt lat="-35.633189661204675" lon="144.21074892578997"><ele>90.33333333333333</ele><time>2026-05-02T07:26:42Z</time></trkpt><trkpt lat="-35.63310917950273" lon="144.2107576889599"><ele>90.0</ele><time>2026-05-02T07:26:43Z</time></trkpt><trkpt lat="-35.633033517172365" lon="144.21075080042905"><ele>89.66666666666667</ele><time>2026-05-02T07:26:44Z</time></trkpt><trkpt lat="-35.63295265031816" lon="144.2107237497979"><ele>89.33333333333334</ele><time>2026-05-02T07:26:45Z</time></trkpt><trkpt lat="-35.632868739191814" lon="144.210725217709"><ele>89.0</ele><time>2026-05-02T07:26:46Z</time></trkpt><trkpt lat="-35.63280569679842" lon="144.2107738841096"><ele>89.0</ele><time>2026-05-02T07:26:47Z</time></trkpt><trkpt lat="-35.63278025065958" lon="144.21088009793095"><ele>89.0</ele><time>2026-05-02T07:26:48Z</time></trkpt><trkpt lat="-35.63267186499317" lon="144.21086423518742"><ele>89.0</ele><time>2026-05-02T07:26:50Z</time></trkpt><trkpt lat="-35.63260276217726" lon="144.2108243635809"><ele>89.0</ele><time>2026-05-02T07:26:51Z</time></trkpt><trkpt lat="-35.63259283519894" lon="144.21071213040935"><ele>89.0</ele><time>2026-05-02T07:26:53Z</time></trkpt><trkpt lat="-35.63261219947307" lon="144.21061808789267"><ele>89.0</ele><time>2026-05-02T07:26:55Z</time></trkpt><trkpt lat="-35.63254113187324" lon="144.2105864360296"><ele>89.0</ele><time>2026-05-02T07:26:58Z</time></trkpt><trkpt lat="-35.63248913987014" lon="144.21053664529745"><ele>89.0</ele><time>2026-05-02T07:27:04.999Z</time></trkpt><trkpt lat="-35.63243674072177" lon="144.21060621347962"><ele>89.0</ele><time>2026-05-02T07:27:15.999Z</time></trkpt><trkpt lat="-35.63240228380413" lon="144.21067998371956"><ele>89.0</ele><time>2026-05-02T07:27:19Z</time></trkpt><trkpt lat="-35.63243001522817" lon="144.21077158852228"><ele>89.0</ele><time>2026-05-02T07:27:21Z</time></trkpt><trkpt lat="-35.63238573083818" lon="144.2108482028767"><ele>89.0</ele><time>2026-05-02T07:27:24Z</time></trkpt><trkpt lat="-35.63234926284963" lon="144.2109402863806"><ele>88.4</ele><time>2026-05-02T07:27:27Z</time></trkpt><trkpt lat="-35.632304424376706" lon="144.21101117082523"><ele>87.80000000000001</ele><time>2026-05-02T07:27:29Z</time></trkpt><trkpt lat="-35.63226959246586" lon="144.2110905579345"><ele>87.19999999999999</ele><time>2026-05-02T07:27:31Z</time></trkpt><trkpt lat="-35.63221129127926" lon="144.21119245788512"><ele>86.6</ele><time>2026-05-02T07:27:33Z</time></trkpt><trkpt lat="-35.632098886383055" lon="144.21129345676826"><ele>86.0</ele><time>2026-05-02T07:27:35Z</time></trkpt><trkpt lat="-35.63203380352549" lon="144.2113655396578"><ele>86.0</ele><time>2026-05-02T07:27:37Z</time></trkpt><trkpt lat="-35.63212607625218" lon="144.2113508634218"><ele>86.0</ele><time>2026-05-02T07:27:41Z</time></trkpt><trkpt lat="-35.63214957604202" lon="144.21127861895695"><ele>86.0</ele><time>2026-05-02T07:27:42Z</time></trkpt><trkpt lat="-35.63220861846011" lon="144.21118015102368"><ele>86.0</ele><time>2026-05-02T07:27:44Z</time></trkpt><trkpt lat="-35.632263542236544" lon="144.21108229260224"><ele>86.0</ele><time>2026-05-02T07:27:46Z</time></trkpt><trkpt lat="-35.63230101068711" lon="144.21099280505834"><ele>86.0</ele><time>2026-05-02T07:27:48Z</time></trkpt><trkpt lat="-35.63236427510895" lon="144.21089669603003"><ele>86.0</ele><time>2026-05-02T07:27:51Z</time></trkpt><trkpt lat="-35.63240604138498" lon="144.21081484682588"><ele>86.0</ele><time>2026-05-02T07:27:55Z</time></trkpt><trkpt lat="-35.63250453064446" lon="144.21083411116706"><ele>86.0</ele><time>2026-05-02T07:27:58Z</time></trkpt><trkpt lat="-35.63260017476544" lon="144.21088608942253"><ele>86.0</ele><time>2026-05-02T07:28:00Z</time></trkpt><trkpt lat="-35.63261011614916" lon="144.21080749749976"><ele>86.0</ele><time>2026-05-02T07:28:10Z</time></trkpt><trkpt lat="-35.63260876564898" lon="144.21070276673754"><ele>86.0</ele><time>2026-05-02T07:28:12Z</time></trkpt><trkpt lat="-35.63261800009454" lon="144.21062586237116"><ele>86.5</ele><time>2026-05-02T07:28:14Z</time></trkpt><trkpt lat="-35.63255023078593" lon="144.21058302015996"><ele>87.0</ele><time>2026-05-02T07:28:17Z</time></trkpt><trkpt lat="-35.632494758904464" lon="144.2105229107461"><ele>87.5</ele><time>2026-05-02T07:28:19Z</time></trkpt><trkpt lat="-35.63243839500216" lon="144.210448969748"><ele>88.0</ele><time>2026-05-02T07:28:21Z</time></trkpt><trkpt lat="-35.63238305496763" lon="144.21040597527602"><ele>88.5</ele><time>2026-05-02T07:28:22Z</time></trkpt><trkpt lat="-35.632348182863566" lon="144.21032819081475"><ele>89.0</ele><time>2026-05-02T07:28:25Z</time></trkpt><trkpt lat="-35.63237681720594" lon="144.21021464109117"><ele>89.0</ele><time>2026-05-02T07:28:27Z</time></trkpt><trkpt lat="-35.63233733700675" lon="144.21008467302548"><ele>89.0</ele><time>2026-05-02T07:28:29Z</time></trkpt><trkpt lat="-35.632258821567646" lon="144.21007029050273"><ele>89.0</ele><time>2026-05-02T07:28:30Z</time></trkpt><trkpt lat="-35.63218849585043" lon="144.21004071228688"><ele>89.0</ele><time>2026-05-02T07:28:31Z</time></trkpt><trkpt lat="-35.63212256367787" lon="144.21000692335144"><ele>89.0</ele><time>2026-05-02T07:28:32Z</time></trkpt><trkpt lat="-35.63203277436695" lon="144.2099715663032"><ele>89.0</ele><time>2026-05-02T07:28:34Z</time></trkpt><trkpt lat="-35.63195077571461" lon="144.20985088831208"><ele>89.33333333333334</ele><time>2026-05-02T07:28:36Z</time></trkpt><trkpt lat="-35.63189422742741" lon="144.2097952897186"><ele>89.66666666666667</ele><time>2026-05-02T07:28:37Z</time></trkpt><trkpt lat="-35.63181459650305" lon="144.20975573151236"><ele>90.0</ele><time>2026-05-02T07:28:38Z</time></trkpt><trkpt lat="-35.631727461731764" lon="144.20975727805083"><ele>90.33333333333333</ele><time>2026-05-02T07:28:39Z</time></trkpt><trkpt lat="-35.631661811212595" lon="144.20974825711693"><ele>90.66666666666666</ele><time>2026-05-02T07:28:40Z</time></trkpt><trkpt lat="-35.63157844579334" lon="144.20971340323027"><ele>91.0</ele><time>2026-05-02T07:28:42Z</time></trkpt><trkpt lat="-35.63149679184475" lon="144.2096980088745"><ele>91.0</ele><time>2026-05-02T07:28:44Z</time></trkpt><trkpt lat="-35.63143642879412" lon="144.20967552902357"><ele>91.0</ele><time>2026-05-02T07:28:45Z</time></trkpt><trkpt lat="-35.631330691619816" lon="144.2095791966591"><ele>91.0</ele><time>2026-05-02T07:28:47Z</time></trkpt><trkpt lat="-35.63124754801892" lon="144.20949882958925"><ele>91.0</ele><time>2026-05-02T07:28:49Z</time></trkpt><trkpt lat="-35.631270869384444" lon="144.20937210359455"><ele>91.0</ele><time>2026-05-02T07:28:52Z</time></trkpt><trkpt lat="-35.63128371231395" lon="144.20926090645602"><ele>91.0</ele><time>2026-05-02T07:28:55Z</time></trkpt><trkpt lat="-35.63126655611318" lon="144.20918350277304"><ele>91.0</ele><time>2026-05-02T07:28:56Z</time></trkpt><trkpt lat="-35.631228665192566" lon="144.20904860225673"><ele>91.0</ele><time>2026-05-02T07:28:57Z</time></trkpt><trkpt lat="-35.631159255916515" lon="144.20892524666223"><ele>91.0</ele><time>2026-05-02T07:28:58Z</time></trkpt><trkpt lat="-35.63110121944165" lon="144.20881192196543"><ele>91.0</ele><time>2026-05-02T07:28:59Z</time></trkpt><trkpt lat="-35.631076209350425" lon="144.2087284189746"><ele>90.19999999999999</ele><time>2026-05-02T07:29:00Z</time></trkpt><trkpt lat="-35.63108861959827" lon="144.20864692842795"><ele>89.39999999999999</ele><time>2026-05-02T07:29:01Z</time></trkpt><trkpt lat="-35.631029495344784" lon="144.20858243813453"><ele>88.6</ele><time>2026-05-02T07:29:03Z</time></trkpt><trkpt lat="-35.6309222922151" lon="144.2085632473965"><ele>87.8</ele><time>2026-05-02T07:29:04Z</time></trkpt><trkpt lat="-35.63080763025486" lon="144.2085170675599"><ele>87.0</ele><time>2026-05-02T07:29:05Z</time></trkpt><trkpt lat="-35.63069448086515" lon="144.2084506485912"><ele>87.0</ele><time>2026-05-02T07:29:05.999Z</time></trkpt><trkpt lat="-35.63062733274788" lon="144.20838120189327"><ele>87.0</ele><time>2026-05-02T07:29:06.999Z</time></trkpt><trkpt lat="-35.63058940074296" lon="144.20828333984943"><ele>87.0</ele><time>2026-05-02T07:29:07.999Z</time></trkpt><trkpt lat="-35.63057135738273" lon="144.20819990817327"><ele>87.0</ele><time>2026-05-02T07:29:08.999Z</time></trkpt><trkpt lat="-35.63043705081782" lon="144.2081407571839"><ele>87.0</ele><time>2026-05-02T07:29:10.999Z</time></trkpt><trkpt lat="-35.63035890964538" lon="144.20812122986143"><ele>87.0</ele><time>2026-05-02T07:29:11.999Z</time></trkpt><trkpt lat="-35.630321529503455" lon="144.20804974463275"><ele>87.0</ele><time>2026-05-02T07:29:13.999Z</time></trkpt><trkpt lat="-35.63026648871037" lon="144.2079712019825"><ele>87.0</ele><time>2026-05-02T07:29:16.999Z</time></trkpt><trkpt lat="-35.6301832759138" lon="144.20784194595296"><ele>87.0</ele><time>2026-05-02T07:29:18.999Z</time></trkpt><trkpt lat="-35.63011635112599" lon="144.20773071078733"><ele>87.0</ele><time>2026-05-02T07:29:19.999Z</time></trkpt><trkpt lat="-35.630050398685526" lon="144.20760834057575"><ele>87.0</ele><time>2026-05-02T07:29:20.999Z</time></trkpt><trkpt lat="-35.6299889337789" lon="144.20752091933642"><ele>87.0</ele><time>2026-05-02T07:29:21.999Z</time></trkpt><trkpt lat="-35.62992323611668" lon="144.20745191718547"><ele>87.0</ele><time>2026-05-02T07:29:22.999Z</time></trkpt><trkpt lat="-35.62984059860855" lon="144.20741899472725"><ele>87.0</ele><time>2026-05-02T07:29:24Z</time></trkpt><trkpt lat="-35.62976129321332" lon="144.20738456378777"><ele>87.0</ele><time>2026-05-02T07:29:25Z</time></trkpt><trkpt lat="-35.62971765498576" lon="144.20732347671247"><ele>87.0</ele><time>2026-05-02T07:29:26Z</time></trkpt><trkpt lat="-35.62967108714835" lon="144.20721017418757"><ele>87.19999999999999</ele><time>2026-05-02T07:29:28Z</time></trkpt><trkpt lat="-35.62964489368569" lon="144.20704201797486"><ele>87.4</ele><time>2026-05-02T07:29:30Z</time></trkpt><trkpt lat="-35.62962088700374" lon="144.2069230553952"><ele>87.6</ele><time>2026-05-02T07:29:31Z</time></trkpt><trkpt lat="-35.629581264026896" lon="144.2068264605806"><ele>87.80000000000001</ele><time>2026-05-02T07:29:32Z</time></trkpt><trkpt lat="-35.629524427792845" lon="144.2067436848663"><ele>88.0</ele><time>2026-05-02T07:29:33Z</time></trkpt><trkpt lat="-35.62945056894675" lon="144.2067067983794"><ele>88.0</ele><time>2026-05-02T07:29:34Z</time></trkpt><trkpt lat="-35.629366084725845" lon="144.2066963690439"><ele>88.0</ele><time>2026-05-02T07:29:35Z</time></trkpt><trkpt lat="-35.62930547088655" lon="144.20667387192816"><ele>88.0</ele><time>2026-05-02T07:29:36Z</time></trkpt><trkpt lat="-35.62925804077946" lon="144.20662204613166"><ele>88.0</ele><time>2026-05-02T07:29:37Z</time></trkpt><trkpt lat="-35.629205997100506" lon="144.20648429103463"><ele>88.0</ele><time>2026-05-02T07:29:39Z</time></trkpt><trkpt lat="-35.629185249982775" lon="144.20640660778872"><ele>88.0</ele><time>2026-05-02T07:29:40Z</time></trkpt><trkpt lat="-35.629077353466066" lon="144.206362248547"><ele>88.5</ele><time>2026-05-02T07:29:42Z</time></trkpt><trkpt lat="-35.629060138028734" lon="144.20628456081317"><ele>89.0</ele><time>2026-05-02T07:29:44Z</time></trkpt><trkpt lat="-35.6290491061997" lon="144.20619682812315"><ele>89.5</ele><time>2026-05-02T07:29:45Z</time></trkpt><trkpt lat="-35.62903378309792" lon="144.20610612406992"><ele>90.0</ele><time>2026-05-02T07:29:46Z</time></trkpt><trkpt lat="-35.62903223258654" lon="144.2059820643249"><ele>90.5</ele><time>2026-05-02T07:29:48Z</time></trkpt><trkpt lat="-35.6289908426711" lon="144.20591528812747"><ele>91.0</ele><time>2026-05-02T07:29:49Z</time></trkpt><trkpt lat="-35.62894144059179" lon="144.20583130493674"><ele>91.0</ele><time>2026-05-02T07:29:51Z</time></trkpt><trkpt lat="-35.62891143795777" lon="144.20575759131933"><ele>91.0</ele><time>2026-05-02T07:29:53Z</time></trkpt><trkpt lat="-35.62890713709283" lon="144.20566746970528"><ele>91.0</ele><time>2026-05-02T07:29:54Z</time></trkpt><trkpt lat="-35.628851184027425" lon="144.20558285877033"><ele>91.0</ele><time>2026-05-02T07:29:56Z</time></trkpt><trkpt lat="-35.62878440871607" lon="144.20551492438298"><ele>91.0</ele><time>2026-05-02T07:29:58Z</time></trkpt><trkpt lat="-35.62879624247813" lon="144.20541917373615"><ele>91.0</ele><time>2026-05-02T07:29:59Z</time></trkpt><trkpt lat="-35.62881834717709" lon="144.20530134184895"><ele>90.85714285714286</ele><time>2026-05-02T07:30:01Z</time></trkpt><trkpt lat="-35.62886454538469" lon="144.20520727983453"><ele>90.71428571428572</ele><time>2026-05-02T07:30:04Z</time></trkpt><trkpt lat="-35.62887779894665" lon="144.20512359733985"><ele>90.57142857142857</ele><time>2026-05-02T07:30:07Z</time></trkpt><trkpt lat="-35.6289031702311" lon="144.20504859344905"><ele>90.42857142857143</ele><time>2026-05-02T07:30:09Z</time></trkpt><trkpt lat="-35.62889857329063" lon="144.20496668974607"><ele>90.28571428571429</ele><time>2026-05-02T07:30:11Z</time></trkpt><trkpt lat="-35.62883255481335" lon="144.20492994471326"><ele>90.14285714285714</ele><time>2026-05-02T07:30:14Z</time></trkpt><trkpt lat="-35.62878427555244" lon="144.20484652089564"><ele>90.0</ele><time>2026-05-02T07:30:16Z</time></trkpt><trkpt lat="-35.62871175143719" lon="144.20481673290627"><ele>89.75</ele><time>2026-05-02T07:30:18Z</time></trkpt><trkpt lat="-35.62869069983206" lon="144.20472053665497"><ele>89.5</ele><time>2026-05-02T07:30:19Z</time></trkpt><trkpt lat="-35.62865040134767" lon="144.20456786515385"><ele>89.25</ele><time>2026-05-02T07:30:21Z</time></trkpt><trkpt lat="-35.62856293230575" lon="144.20446992157233"><ele>89.0</ele><time>2026-05-02T07:30:22Z</time></trkpt><trkpt lat="-35.628484125129184" lon="144.20435272223673"><ele>88.6</ele><time>2026-05-02T07:30:23Z</time></trkpt><trkpt lat="-35.6284278628731" lon="144.2042551328779"><ele>88.2</ele><time>2026-05-02T07:30:24Z</time></trkpt><trkpt lat="-35.62838327646557" lon="144.20416368544892"><ele>87.8</ele><time>2026-05-02T07:30:25Z</time></trkpt><trkpt lat="-35.62826529887309" lon="144.2041341541534"><ele>87.39999999999999</ele><time>2026-05-02T07:30:27Z</time></trkpt><trkpt lat="-35.628193145450894" lon="144.2040826292807"><ele>87.0</ele><time>2026-05-02T07:30:29Z</time></trkpt><trkpt lat="-35.628148118058185" lon="144.20400045126127"><ele>87.16666666666667</ele><time>2026-05-02T07:30:36Z</time></trkpt><trkpt lat="-35.62814433607967" lon="144.20392040477714"><ele>87.33333333333333</ele><time>2026-05-02T07:30:39Z</time></trkpt><trkpt lat="-35.6281503574084" lon="144.20382110842743"><ele>87.5</ele><time>2026-05-02T07:30:44Z</time></trkpt><trkpt lat="-35.62816440233337" lon="144.2037427415243"><ele>87.66666666666666</ele><time>2026-05-02T07:30:45Z</time></trkpt><trkpt lat="-35.62818183806229" lon="144.2036468807819"><ele>87.83333333333333</ele><time>2026-05-02T07:30:46Z</time></trkpt><trkpt lat="-35.62818661756976" lon="144.20351520814597"><ele>88.0</ele><time>2026-05-02T07:30:47Z</time></trkpt><trkpt lat="-35.62816995892682" lon="144.20339089216887"><ele>88.0</ele><time>2026-05-02T07:30:48Z</time></trkpt><trkpt lat="-35.628156139338124" lon="144.20326942553856"><ele>88.0</ele><time>2026-05-02T07:30:49Z</time></trkpt><trkpt lat="-35.628068146992966" lon="144.2031963837108"><ele>88.0</ele><time>2026-05-02T07:30:51Z</time></trkpt><trkpt lat="-35.62798431986281" lon="144.20321539985108"><ele>88.0</ele><time>2026-05-02T07:30:52Z</time></trkpt><trkpt lat="-35.62790398434439" lon="144.2032275804106"><ele>88.0</ele><time>2026-05-02T07:30:53Z</time></trkpt><trkpt lat="-35.62787464974864" lon="144.20314284564432"><ele>88.0</ele><time>2026-05-02T07:30:56Z</time></trkpt><trkpt lat="-35.6278779415974" lon="144.20306409778257"><ele>87.66666666666666</ele><time>2026-05-02T07:30:57Z</time></trkpt><trkpt lat="-35.62783367738794" lon="144.20298935581263"><ele>87.33333333333333</ele><time>2026-05-02T07:30:58Z</time></trkpt><trkpt lat="-35.62776740545892" lon="144.2029432518419"><ele>87.0</ele><time>2026-05-02T07:30:59Z</time></trkpt><trkpt lat="-35.62768917535872" lon="144.20291595600997"><ele>86.66666666666667</ele><time>2026-05-02T07:31:00Z</time></trkpt><trkpt lat="-35.6275964959164" lon="144.20289853030727"><ele>86.33333333333334</ele><time>2026-05-02T07:31:01Z</time></trkpt><trkpt lat="-35.627523868330684" lon="144.20284627292614"><ele>86.0</ele><time>2026-05-02T07:31:02Z</time></trkpt><trkpt lat="-35.6274638206615" lon="144.20276965240032"><ele>86.0</ele><time>2026-05-02T07:31:03Z</time></trkpt><trkpt lat="-35.627402179764594" lon="144.20272954782922"><ele>86.0</ele><time>2026-05-02T07:31:03.999Z</time></trkpt><trkpt lat="-35.627327620774025" lon="144.20277438053293"><ele>86.0</ele><time>2026-05-02T07:31:04.999Z</time></trkpt><trkpt lat="-35.62726570245404" lon="144.20288093226372"><ele>86.0</ele><time>2026-05-02T07:31:05.999Z</time></trkpt><trkpt lat="-35.627202897401595" lon="144.20295359804925"><ele>86.0</ele><time>2026-05-02T07:31:06.999Z</time></trkpt><trkpt lat="-35.627153157564365" lon="144.20302297148902"><ele>86.0</ele><time>2026-05-02T07:31:07.999Z</time></trkpt><trkpt lat="-35.62712389194298" lon="144.20313016967208"><ele>86.6</ele><time>2026-05-02T07:31:08.999Z</time></trkpt><trkpt lat="-35.6271069073102" lon="144.20325893055966"><ele>87.19999999999999</ele><time>2026-05-02T07:31:09.999Z</time></trkpt><trkpt lat="-35.627136921720776" lon="144.20340063477778"><ele>87.80000000000001</ele><time>2026-05-02T07:31:10.999Z</time></trkpt><trkpt lat="-35.62718428953936" lon="144.20352354269224"><ele>88.4</ele><time>2026-05-02T07:31:11.999Z</time></trkpt><trkpt lat="-35.62722146425621" lon="144.20363271546344"><ele>89.0</ele><time>2026-05-02T07:31:12.999Z</time></trkpt><trkpt lat="-35.627240052410436" lon="144.20372018294483"><ele>89.0</ele><time>2026-05-02T07:31:13.999Z</time></trkpt><trkpt lat="-35.62725390948001" lon="144.20381339423386"><ele>89.0</ele><time>2026-05-02T07:31:25.999Z</time></trkpt><trkpt lat="-35.62725518846244" lon="144.20372600660514"><ele>89.0</ele><time>2026-05-02T07:31:35Z</time></trkpt><trkpt lat="-35.627171925777944" lon="144.20374503551383"><ele>89.0</ele><time>2026-05-02T07:31:43Z</time></trkpt><trkpt lat="-35.62709862971394" lon="144.20377005250793"><ele>89.0</ele><time>2026-05-02T07:31:48Z</time></trkpt><trkpt lat="-35.62703350206113" lon="144.2037341975891"><ele>89.0</ele><time>2026-05-02T07:31:51Z</time></trkpt><trkpt lat="-35.62707698834232" lon="144.20380667872763"><ele>89.0</ele><time>2026-05-02T07:31:54Z</time></trkpt><trkpt lat="-35.6271658738053" lon="144.20376803387038"><ele>89.0</ele><time>2026-05-02T07:31:57Z</time></trkpt><trkpt lat="-35.62723140783982" lon="144.20374785510927"><ele>89.0</ele><time>2026-05-02T07:31:59Z</time></trkpt><trkpt lat="-35.62721872312665" lon="144.2036414724519"><ele>89.0</ele><time>2026-05-02T07:33:02.999Z</time></trkpt><trkpt lat="-35.62720017376234" lon="144.2035544826969"><ele>89.0</ele><time>2026-05-02T07:33:03.999Z</time></trkpt><trkpt lat="-35.627172635700944" lon="144.20340643629473"><ele>89.0</ele><time>2026-05-02T07:33:04.999Z</time></trkpt><trkpt lat="-35.627138367038405" lon="144.2032704127932"><ele>89.0</ele><time>2026-05-02T07:33:05.999Z</time></trkpt><trkpt lat="-35.62712423336325" lon="144.20318086420727"><ele>89.0</ele><time>2026-05-02T07:33:06.999Z</time></trkpt><trkpt lat="-35.627138365378066" lon="144.20308996898865"><ele>89.0</ele><time>2026-05-02T07:33:07.999Z</time></trkpt><trkpt lat="-35.627162894344174" lon="144.20299499420932"><ele>89.0</ele><time>2026-05-02T07:33:08.999Z</time></trkpt><trkpt lat="-35.62722878648501" lon="144.202899659268"><ele>89.0</ele><time>2026-05-02T07:33:10.999Z</time></trkpt><trkpt lat="-35.62718579964805" lon="144.20282588965068"><ele>89.0</ele><time>2026-05-02T07:33:14.999Z</time></trkpt><trkpt lat="-35.627137934510365" lon="144.20275485614246"><ele>88.4</ele><time>2026-05-02T07:33:16.999Z</time></trkpt><trkpt lat="-35.62718885132892" lon="144.20263788697665"><ele>87.80000000000001</ele><time>2026-05-02T07:33:18.999Z</time></trkpt><trkpt lat="-35.62725880716527" lon="144.20259393986564"><ele>87.19999999999999</ele><time>2026-05-02T07:33:19.999Z</time></trkpt><trkpt lat="-35.627338898908" lon="144.2025606493483"><ele>86.6</ele><time>2026-05-02T07:33:20.999Z</time></trkpt><trkpt lat="-35.62743622412146" lon="144.2025528621965"><ele>86.0</ele><time>2026-05-02T07:33:21.999Z</time></trkpt><trkpt lat="-35.62753499313963" lon="144.20257486525165"><ele>86.0</ele><time>2026-05-02T07:33:22.999Z</time></trkpt><trkpt lat="-35.62765589035532" lon="144.20262419876352"><ele>86.0</ele><time>2026-05-02T07:33:23.999Z</time></trkpt><trkpt lat="-35.627778592405946" lon="144.20267325337824"><ele>86.0</ele><time>2026-05-02T07:33:24.999Z</time></trkpt><trkpt lat="-35.6279132337332" lon="144.20274087521798"><ele>86.0</ele><time>2026-05-02T07:33:25.999Z</time></trkpt><trkpt lat="-35.62804164515538" lon="144.20283780461554"><ele>85.75</ele><time>2026-05-02T07:33:26.999Z</time></trkpt><trkpt lat="-35.62816851772102" lon="144.20291621338652"><ele>85.5</ele><time>2026-05-02T07:33:27.999Z</time></trkpt><trkpt lat="-35.62829420348847" lon="144.2029911082743"><ele>85.25</ele><time>2026-05-02T07:33:28.999Z</time></trkpt><trkpt lat="-35.62842543429017" lon="144.20305850189249"><ele>85.0</ele><time>2026-05-02T07:33:29.999Z</time></trkpt><trkpt lat="-35.62855384713509" lon="144.20312583002013"><ele>85.5</ele><time>2026-05-02T07:33:30.999Z</time></trkpt><trkpt lat="-35.62868741605541" lon="144.2031807237981"><ele>86.0</ele><time>2026-05-02T07:33:31.999Z</time></trkpt><trkpt lat="-35.62881090695928" lon="144.2032372964205"><ele>86.5</ele><time>2026-05-02T07:33:32.999Z</time></trkpt><trkpt lat="-35.62893180734527" lon="144.20329151007618"><ele>87.0</ele><time>2026-05-02T07:33:33.999Z</time></trkpt><trkpt lat="-35.629037554060865" lon="144.20335994887762"><ele>87.0</ele><time>2026-05-02T07:33:34.999Z</time></trkpt><trkpt lat="-35.629145191844486" lon="144.20345550713316"><ele>87.0</ele><time>2026-05-02T07:33:36Z</time></trkpt><trkpt lat="-35.62925119450036" lon="144.203549256541"><ele>87.0</ele><time>2026-05-02T07:33:37Z</time></trkpt><trkpt lat="-35.62935933778114" lon="144.2036526690592"><ele>87.0</ele><time>2026-05-02T07:33:38Z</time></trkpt><trkpt lat="-35.6294747406281" lon="144.20376324346122"><ele>86.75</ele><time>2026-05-02T07:33:39Z</time></trkpt><trkpt lat="-35.629585006418644" lon="144.20388508490512"><ele>86.5</ele><time>2026-05-02T07:33:40Z</time></trkpt><trkpt lat="-35.62969732107516" lon="144.20399668908846"><ele>86.25</ele><time>2026-05-02T07:33:41Z</time></trkpt><trkpt lat="-35.629803057568544" lon="144.20411519049094"><ele>86.0</ele><time>2026-05-02T07:33:42Z</time></trkpt><trkpt lat="-35.629899148888754" lon="144.20424380747937"><ele>85.5</ele><time>2026-05-02T07:33:43Z</time></trkpt><trkpt lat="-35.62998771063379" lon="144.20437168285721"><ele>85.0</ele><time>2026-05-02T07:33:44Z</time></trkpt><trkpt lat="-35.63007751116578" lon="144.20449960113243"><ele>84.5</ele><time>2026-05-02T07:33:45Z</time></trkpt><trkpt lat="-35.63016142081845" lon="144.20461855539614"><ele>84.0</ele><time>2026-05-02T07:33:46Z</time></trkpt><trkpt lat="-35.63025177986139" lon="144.2047310575821"><ele>84.5</ele><time>2026-05-02T07:33:47Z</time></trkpt><trkpt lat="-35.63034406316089" lon="144.2048500133393"><ele>85.0</ele><time>2026-05-02T07:33:48Z</time></trkpt><trkpt lat="-35.63044867387652" lon="144.20495232620002"><ele>85.5</ele><time>2026-05-02T07:33:49Z</time></trkpt><trkpt lat="-35.6305480886972" lon="144.20506189242948"><ele>86.0</ele><time>2026-05-02T07:33:50Z</time></trkpt><trkpt lat="-35.63063823746858" lon="144.2051923761636"><ele>86.0</ele><time>2026-05-02T07:33:51Z</time></trkpt><trkpt lat="-35.630731834688085" lon="144.20532927064258"><ele>86.0</ele><time>2026-05-02T07:33:52Z</time></trkpt><trkpt lat="-35.63085294437995" lon="144.205480630275"><ele>86.0</ele><time>2026-05-02T07:33:53Z</time></trkpt><trkpt lat="-35.63097620342482" lon="144.20558299345018"><ele>85.75</ele><time>2026-05-02T07:33:54Z</time></trkpt><trkpt lat="-35.631077361084294" lon="144.20571503815816"><ele>85.5</ele><time>2026-05-02T07:33:55Z</time></trkpt><trkpt lat="-35.63115703807254" lon="144.2058719370748"><ele>85.25</ele><time>2026-05-02T07:33:56Z</time></trkpt><trkpt lat="-35.63122959973102" lon="144.20602687982304"><ele>85.0</ele><time>2026-05-02T07:33:57Z</time></trkpt><trkpt lat="-35.631321908372286" lon="144.20616536432712"><ele>85.0</ele><time>2026-05-02T07:33:58Z</time></trkpt><trkpt lat="-35.63143634558207" lon="144.20628262929023"><ele>85.0</ele><time>2026-05-02T07:33:59Z</time></trkpt><trkpt lat="-35.63155217017555" lon="144.20638465004137"><ele>85.0</ele><time>2026-05-02T07:34:00Z</time></trkpt><trkpt lat="-35.631676822447325" lon="144.2065056050949"><ele>85.0</ele><time>2026-05-02T07:34:01Z</time></trkpt><trkpt lat="-35.63179128373121" lon="144.2066442819163"><ele>85.0</ele><time>2026-05-02T07:34:02Z</time></trkpt><trkpt lat="-35.63189039387978" lon="144.20678710346795"><ele>85.0</ele><time>2026-05-02T07:34:03Z</time></trkpt><trkpt lat="-35.63197734393807" lon="144.2069213928825"><ele>85.0</ele><time>2026-05-02T07:34:04Z</time></trkpt><trkpt lat="-35.63204397530609" lon="144.20704889094344"><ele>85.0</ele><time>2026-05-02T07:34:05Z</time></trkpt><trkpt lat="-35.63210285927094" lon="144.20716177336647"><ele>85.0</ele><time>2026-05-02T07:34:06Z</time></trkpt><trkpt lat="-35.632184973429986" lon="144.2072403633666"><ele>85.0</ele><time>2026-05-02T07:34:07Z</time></trkpt><trkpt lat="-35.63229967108584" lon="144.20729029176604"><ele>85.0</ele><time>2026-05-02T07:34:08Z</time></trkpt><trkpt lat="-35.63244346637959" lon="144.2072570460281"><ele>85.0</ele><time>2026-05-02T07:34:09Z</time></trkpt><trkpt lat="-35.63258799707377" lon="144.20722820107693"><ele>85.0</ele><time>2026-05-02T07:34:10Z</time></trkpt><trkpt lat="-35.632735510951754" lon="144.20720216368554"><ele>85.0</ele><time>2026-05-02T07:34:11Z</time></trkpt><trkpt lat="-35.63287417259165" lon="144.2072056436246"><ele>85.0</ele><time>2026-05-02T07:34:12Z</time></trkpt><trkpt lat="-35.6330138030014" lon="144.20722287489372"><ele>85.0</ele><time>2026-05-02T07:34:13Z</time></trkpt><trkpt lat="-35.63314245665892" lon="144.20719943056073"><ele>85.0</ele><time>2026-05-02T07:34:14Z</time></trkpt><trkpt lat="-35.633283107688975" lon="144.20713926451305"><ele>85.0</ele><time>2026-05-02T07:34:15Z</time></trkpt><trkpt lat="-35.63341151558785" lon="144.20704845727735"><ele>85.0</ele><time>2026-05-02T07:34:16Z</time></trkpt><trkpt lat="-35.6335467255664" lon="144.20694451793491"><ele>85.0</ele><time>2026-05-02T07:34:17Z</time></trkpt><trkpt lat="-35.63367559082701" lon="144.2068462587287"><ele>85.0</ele><time>2026-05-02T07:34:18Z</time></trkpt><trkpt lat="-35.63379943100807" lon="144.20678888677685"><ele>85.0</ele><time>2026-05-02T07:34:19Z</time></trkpt><trkpt lat="-35.633917329221234" lon="144.20674931653434"><ele>86.0</ele><time>2026-05-02T07:34:20Z</time></trkpt><trkpt lat="-35.63402211279653" lon="144.2067293120354"><ele>87.0</ele><time>2026-05-02T07:34:21Z</time></trkpt><trkpt lat="-35.634158741795645" lon="144.2067514982522"><ele>88.0</ele><time>2026-05-02T07:34:22Z</time></trkpt><trkpt lat="-35.634298403943674" lon="144.20679900767541"><ele>89.0</ele><time>2026-05-02T07:34:23Z</time></trkpt><trkpt lat="-35.63445659664723" lon="144.2068317593506"><ele>89.0</ele><time>2026-05-02T07:34:24Z</time></trkpt><trkpt lat="-35.63460629245451" lon="144.2068232102163"><ele>89.0</ele><time>2026-05-02T07:34:25Z</time></trkpt><trkpt lat="-35.634761721284164" lon="144.20678884578143"><ele>89.0</ele><time>2026-05-02T07:34:26Z</time></trkpt><trkpt lat="-35.634933947954" lon="144.20673696898976"><ele>89.0</ele><time>2026-05-02T07:34:27Z</time></trkpt><trkpt lat="-35.63506184984842" lon="144.2066941518358"><ele>89.0</ele><time>2026-05-02T07:34:28Z</time></trkpt><trkpt lat="-35.63517448580665" lon="144.20671299111436"><ele>89.0</ele><time>2026-05-02T07:34:29Z</time></trkpt><trkpt lat="-35.635280521101635" lon="144.20677895330266"><ele>89.0</ele><time>2026-05-02T07:34:30Z</time></trkpt><trkpt lat="-35.635393851740076" lon="144.20687348009898"><ele>89.66666666666667</ele><time>2026-05-02T07:34:31Z</time></trkpt><trkpt lat="-35.63552658107149" lon="144.20699620399216"><ele>90.33333333333333</ele><time>2026-05-02T07:34:32Z</time></trkpt><trkpt lat="-35.635638003672945" lon="144.20713752574335"><ele>91.0</ele><time>2026-05-02T07:34:33Z</time></trkpt><trkpt lat="-35.63575582064025" lon="144.2072591252334"><ele>90.75</ele><time>2026-05-02T07:34:34Z</time></trkpt><trkpt lat="-35.63586933824082" lon="144.20738012359578"><ele>90.5</ele><time>2026-05-02T07:34:35Z</time></trkpt><trkpt lat="-35.63595324411657" lon="144.20746374916294"><ele>90.25</ele><time>2026-05-02T07:34:36Z</time></trkpt><trkpt lat="-35.63607381569057" lon="144.20752069871924"><ele>90.0</ele><time>2026-05-02T07:34:37Z</time></trkpt><trkpt lat="-35.63621660213945" lon="144.207558362295"><ele>90.0</ele><time>2026-05-02T07:34:38Z</time></trkpt><trkpt lat="-35.636355895843586" lon="144.2075789091877"><ele>90.0</ele><time>2026-05-02T07:34:39Z</time></trkpt><trkpt lat="-35.636488116443864" lon="144.20756593187102"><ele>90.0</ele><time>2026-05-02T07:34:40Z</time></trkpt><trkpt lat="-35.636614048649626" lon="144.20757575033736"><ele>90.0</ele><time>2026-05-02T07:34:41Z</time></trkpt><trkpt lat="-35.63674200120835" lon="144.20764833570757"><ele>90.0</ele><time>2026-05-02T07:34:42Z</time></trkpt><trkpt lat="-35.636892099669836" lon="144.2077248105446"><ele>90.0</ele><time>2026-05-02T07:34:43Z</time></trkpt><trkpt lat="-35.63704447765411" lon="144.2078141811468"><ele>90.0</ele><time>2026-05-02T07:34:44Z</time></trkpt><trkpt lat="-35.63721437955228" lon="144.20790541506895"><ele>89.33333333333333</ele><time>2026-05-02T07:34:45Z</time></trkpt><trkpt lat="-35.637381992426214" lon="144.2080003575094"><ele>88.66666666666666</ele><time>2026-05-02T07:34:46Z</time></trkpt><trkpt lat="-35.63754343930374" lon="144.20808962832837"><ele>88.0</ele><time>2026-05-02T07:34:47Z</time></trkpt><trkpt lat="-35.63769110353368" lon="144.20816052160566"><ele>88.25</ele><time>2026-05-02T07:34:48Z</time></trkpt><trkpt lat="-35.637827680372475" lon="144.20821104655204"><ele>88.5</ele><time>2026-05-02T07:34:49Z</time></trkpt><trkpt lat="-35.63797955268739" lon="144.20824051966335"><ele>88.75</ele><time>2026-05-02T07:34:50Z</time></trkpt><trkpt lat="-35.63812867672825" lon="144.2082380458231"><ele>89.0</ele><time>2026-05-02T07:34:51Z</time></trkpt><trkpt lat="-35.6382985650319" lon="144.20824638465655"><ele>89.0</ele><time>2026-05-02T07:34:52Z</time></trkpt><trkpt lat="-35.63845174273266" lon="144.2082755572271"><ele>89.0</ele><time>2026-05-02T07:34:53Z</time></trkpt><trkpt lat="-35.638611185716144" lon="144.20834612598026"><ele>89.0</ele><time>2026-05-02T07:34:54Z</time></trkpt><trkpt lat="-35.638781734204905" lon="144.20844568653888"><ele>88.0</ele><time>2026-05-02T07:34:55Z</time></trkpt><trkpt lat="-35.63895350077319" lon="144.20854117128417"><ele>87.0</ele><time>2026-05-02T07:34:55.999Z</time></trkpt><trkpt lat="-35.63911396541094" lon="144.20861192653476"><ele>86.0</ele><time>2026-05-02T07:34:56.999Z</time></trkpt><trkpt lat="-35.6392774887114" lon="144.20867357333256"><ele>86.0</ele><time>2026-05-02T07:34:57.999Z</time></trkpt><trkpt lat="-35.6394428450286" lon="144.2087100350422"><ele>86.0</ele><time>2026-05-02T07:34:58.999Z</time></trkpt><trkpt lat="-35.63960275280368" lon="144.20874217696385"><ele>86.0</ele><time>2026-05-02T07:34:59.999Z</time></trkpt><trkpt lat="-35.63975141094614" lon="144.20876451314774"><ele>86.0</ele><time>2026-05-02T07:35:00.999Z</time></trkpt><trkpt lat="-35.63988465697165" lon="144.20877840701246"><ele>86.0</ele><time>2026-05-02T07:35:01.999Z</time></trkpt><trkpt lat="-35.63999279277848" lon="144.2087530645113"><ele>86.0</ele><time>2026-05-02T07:35:02.999Z</time></trkpt><trkpt lat="-35.640091200931884" lon="144.2086982068845"><ele>86.0</ele><time>2026-05-02T07:35:03.999Z</time></trkpt><trkpt lat="-35.64018786436518" lon="144.20860387723087"><ele>86.0</ele><time>2026-05-02T07:35:04.999Z</time></trkpt><trkpt lat="-35.64025367671835" lon="144.2084292902002"><ele>86.0</ele><time>2026-05-02T07:35:05.999Z</time></trkpt><trkpt lat="-35.640353504186066" lon="144.20824805811438"><ele>86.0</ele><time>2026-05-02T07:35:06.999Z</time></trkpt><trkpt lat="-35.64043893743319" lon="144.2081088789967"><ele>85.75</ele><time>2026-05-02T07:35:07.999Z</time></trkpt><trkpt lat="-35.64052519911608" lon="144.2080039883028"><ele>85.5</ele><time>2026-05-02T07:35:08.999Z</time></trkpt><trkpt lat="-35.640602512074736" lon="144.20791167400313"><ele>85.25</ele><time>2026-05-02T07:35:09.999Z</time></trkpt><trkpt lat="-35.64070560064782" lon="144.20784915308147"><ele>85.0</ele><time>2026-05-02T07:35:10.999Z</time></trkpt><trkpt lat="-35.640821559411535" lon="144.20779051595733"><ele>85.0</ele><time>2026-05-02T07:35:11.999Z</time></trkpt><trkpt lat="-35.64094475970795" lon="144.2077417469456"><ele>85.0</ele><time>2026-05-02T07:35:12.999Z</time></trkpt><trkpt lat="-35.64106867824203" lon="144.20767275593002"><ele>85.0</ele><time>2026-05-02T07:35:13.999Z</time></trkpt><trkpt lat="-35.64119019037579" lon="144.20759537281816"><ele>85.0</ele><time>2026-05-02T07:35:14.999Z</time></trkpt><trkpt lat="-35.64130237008998" lon="144.20753449102784"><ele>86.25</ele><time>2026-05-02T07:35:15.999Z</time></trkpt><trkpt lat="-35.64144142284657" lon="144.20751581137353"><ele>87.5</ele><time>2026-05-02T07:35:16.999Z</time></trkpt><trkpt lat="-35.6415832282698" lon="144.20749651506432"><ele>88.75</ele><time>2026-05-02T07:35:17.999Z</time></trkpt><trkpt lat="-35.641712582509854" lon="144.20744705283212"><ele>90.0</ele><time>2026-05-02T07:35:18.999Z</time></trkpt><trkpt lat="-35.64183547487789" lon="144.2073659735167"><ele>89.75</ele><time>2026-05-02T07:35:19.999Z</time></trkpt><trkpt lat="-35.64193769982615" lon="144.2072654625454"><ele>89.5</ele><time>2026-05-02T07:35:20.999Z</time></trkpt><trkpt lat="-35.6420239681326" lon="144.20712034157188"><ele>89.25</ele><time>2026-05-02T07:35:21.999Z</time></trkpt><trkpt lat="-35.642116348689434" lon="144.20698365559065"><ele>89.0</ele><time>2026-05-02T07:35:22.999Z</time></trkpt><trkpt lat="-35.64223765938063" lon="144.20687357964482"><ele>89.0</ele><time>2026-05-02T07:35:23.999Z</time></trkpt><trkpt lat="-35.64236296359849" lon="144.2067824885317"><ele>89.0</ele><time>2026-05-02T07:35:24.999Z</time></trkpt><trkpt lat="-35.64250058219552" lon="144.20667872887785"><ele>89.0</ele><time>2026-05-02T07:35:25.999Z</time></trkpt><trkpt lat="-35.64261732035913" lon="144.20654329623625"><ele>88.66666666666667</ele><time>2026-05-02T07:35:26.999Z</time></trkpt><trkpt lat="-35.64273205950018" lon="144.20638867918532"><ele>88.33333333333333</ele><time>2026-05-02T07:35:27.999Z</time></trkpt><trkpt lat="-35.64284271397973" lon="144.20623178428465"><ele>88.0</ele><time>2026-05-02T07:35:28.999Z</time></trkpt><trkpt lat="-35.64294832622362" lon="144.2061134278429"><ele>87.0</ele><time>2026-05-02T07:35:29.999Z</time></trkpt><trkpt lat="-35.64307104622398" lon="144.20601612478745"><ele>86.0</ele><time>2026-05-02T07:35:30.999Z</time></trkpt><trkpt lat="-35.64321643614456" lon="144.20593254102693"><ele>85.0</ele><time>2026-05-02T07:35:31.999Z</time></trkpt><trkpt lat="-35.64338348444226" lon="144.20586020159095"><ele>85.0</ele><time>2026-05-02T07:35:32.999Z</time></trkpt><trkpt lat="-35.64355128849126" lon="144.20578972242944"><ele>85.0</ele><time>2026-05-02T07:35:33.999Z</time></trkpt><trkpt lat="-35.64372106564876" lon="144.20572274912888"><ele>85.0</ele><time>2026-05-02T07:35:34.999Z</time></trkpt><trkpt lat="-35.64389127992197" lon="144.20565486571175"><ele>85.0</ele><time>2026-05-02T07:35:35.999Z</time></trkpt><trkpt lat="-35.644038447915534" lon="144.2055686082669"><ele>85.0</ele><time>2026-05-02T07:35:36.999Z</time></trkpt><trkpt lat="-35.64418693549301" lon="144.20548413099962"><ele>85.0</ele><time>2026-05-02T07:35:37.999Z</time></trkpt><trkpt lat="-35.644318599884926" lon="144.20538858652216"><ele>85.0</ele><time>2026-05-02T07:35:38.999Z</time></trkpt><trkpt lat="-35.64445771286988" lon="144.20530932159156"><ele>85.0</ele><time>2026-05-02T07:35:39.999Z</time></trkpt><trkpt lat="-35.644584032480765" lon="144.20524752295148"><ele>85.0</ele><time>2026-05-02T07:35:40.999Z</time></trkpt><trkpt lat="-35.64471104923448" lon="144.205202954071"><ele>85.0</ele><time>2026-05-02T07:35:42Z</time></trkpt><trkpt lat="-35.64483662222947" lon="144.2051881893294"><ele>85.0</ele><time>2026-05-02T07:35:43Z</time></trkpt><trkpt lat="-35.6449574890983" lon="144.20520114811308"><ele>85.0</ele><time>2026-05-02T07:35:44Z</time></trkpt><trkpt lat="-35.645087911181506" lon="144.20522523611496"><ele>85.0</ele><time>2026-05-02T07:35:45Z</time></trkpt><trkpt lat="-35.64520453398356" lon="144.20520203732767"><ele>85.0</ele><time>2026-05-02T07:35:46Z</time></trkpt><trkpt lat="-35.645316820034694" lon="144.20511334407053"><ele>85.0</ele><time>2026-05-02T07:35:47Z</time></trkpt><trkpt lat="-35.645441149732314" lon="144.20500360524574"><ele>85.0</ele><time>2026-05-02T07:35:48Z</time></trkpt><trkpt lat="-35.64556343058017" lon="144.20491169650916"><ele>85.0</ele><time>2026-05-02T07:35:49Z</time></trkpt><trkpt lat="-35.645704077236935" lon="144.2048465363926"><ele>85.0</ele><time>2026-05-02T07:35:50Z</time></trkpt><trkpt lat="-35.64582318102769" lon="144.20478885227803"><ele>84.5</ele><time>2026-05-02T07:35:51Z</time></trkpt><trkpt lat="-35.64594030835977" lon="144.20469400942508"><ele>84.0</ele><time>2026-05-02T07:35:52Z</time></trkpt><trkpt lat="-35.646020893288025" lon="144.20454083090092"><ele>83.5</ele><time>2026-05-02T07:35:53Z</time></trkpt><trkpt lat="-35.64609097905305" lon="144.20437248054313"><ele>83.0</ele><time>2026-05-02T07:35:54Z</time></trkpt><trkpt lat="-35.646144860525474" lon="144.2041900610158"><ele>83.5</ele><time>2026-05-02T07:35:55Z</time></trkpt><trkpt lat="-35.646178594683086" lon="144.20400642610204"><ele>84.0</ele><time>2026-05-02T07:35:56Z</time></trkpt><trkpt lat="-35.646195021746685" lon="144.20383648912403"><ele>84.5</ele><time>2026-05-02T07:35:57Z</time></trkpt><trkpt lat="-35.64623562516273" lon="144.2036854640142"><ele>85.0</ele><time>2026-05-02T07:35:58Z</time></trkpt><trkpt lat="-35.64630211459599" lon="144.20353102162338"><ele>85.0</ele><time>2026-05-02T07:35:59Z</time></trkpt><trkpt lat="-35.646391674692694" lon="144.20336908307627"><ele>85.0</ele><time>2026-05-02T07:36:00Z</time></trkpt><trkpt lat="-35.646474743149405" lon="144.20321516596908"><ele>85.0</ele><time>2026-05-02T07:36:01Z</time></trkpt><trkpt lat="-35.6465451253438" lon="144.2030763160703"><ele>85.0</ele><time>2026-05-02T07:36:02Z</time></trkpt><trkpt lat="-35.64660355151757" lon="144.20294447721187"><ele>85.0</ele><time>2026-05-02T07:36:03Z</time></trkpt><trkpt lat="-35.646639499708286" lon="144.20282387160572"><ele>85.0</ele><time>2026-05-02T07:36:04Z</time></trkpt><trkpt lat="-35.64664230545361" lon="144.20270389650807"><ele>85.0</ele><time>2026-05-02T07:36:05Z</time></trkpt><trkpt lat="-35.64661433721533" lon="144.20258835050112"><ele>85.0</ele><time>2026-05-02T07:36:06Z</time></trkpt><trkpt lat="-35.646552278395276" lon="144.20247061014547"><ele>85.0</ele><time>2026-05-02T07:36:07Z</time></trkpt><trkpt lat="-35.64648169490428" lon="144.20233597509974"><ele>84.6</ele><time>2026-05-02T07:36:08Z</time></trkpt><trkpt lat="-35.64641504385045" lon="144.20220758608545"><ele>84.2</ele><time>2026-05-02T07:36:09Z</time></trkpt><trkpt lat="-35.64636548691233" lon="144.20210035062"><ele>83.80000000000001</ele><time>2026-05-02T07:36:10Z</time></trkpt><trkpt lat="-35.646332145443424" lon="144.20199419042487"><ele>83.4</ele><time>2026-05-02T07:36:11Z</time></trkpt><trkpt lat="-35.64630321226719" lon="144.20188560365017"><ele>83.0</ele><time>2026-05-02T07:36:12Z</time></trkpt><trkpt lat="-35.646284678570396" lon="144.20177439936634"><ele>83.0</ele><time>2026-05-02T07:36:13Z</time></trkpt><trkpt lat="-35.64627174168141" lon="144.20166561892646"><ele>83.0</ele><time>2026-05-02T07:36:14Z</time></trkpt><trkpt lat="-35.64626850034522" lon="144.2015757071616"><ele>83.0</ele><time>2026-05-02T07:36:15Z</time></trkpt><trkpt lat="-35.64626059195539" lon="144.20148353514162"><ele>83.0</ele><time>2026-05-02T07:36:16Z</time></trkpt><trkpt lat="-35.6462516932016" lon="144.20136936030693"><ele>83.0</ele><time>2026-05-02T07:36:17Z</time></trkpt><trkpt lat="-35.64623382469698" lon="144.20122312509187"><ele>82.0</ele><time>2026-05-02T07:36:18Z</time></trkpt><trkpt lat="-35.64622169666119" lon="144.2010180907606"><ele>81.0</ele><time>2026-05-02T07:36:19Z</time></trkpt><trkpt lat="-35.646202130203875" lon="144.20080450821905"><ele>80.0</ele><time>2026-05-02T07:36:20Z</time></trkpt><trkpt lat="-35.646172212153466" lon="144.20058336519946"><ele>80.0</ele><time>2026-05-02T07:36:21Z</time></trkpt><trkpt lat="-35.646148625701244" lon="144.20036951662857"><ele>80.0</ele><time>2026-05-02T07:36:22Z</time></trkpt><trkpt lat="-35.64612356731752" lon="144.20015019959934"><ele>80.0</ele><time>2026-05-02T07:36:23Z</time></trkpt><trkpt lat="-35.64609054037659" lon="144.19991389239584"><ele>79.33333333333334</ele><time>2026-05-02T07:36:24Z</time></trkpt><trkpt lat="-35.64606088636795" lon="144.19967947842525"><ele>78.66666666666667</ele><time>2026-05-02T07:36:25Z</time></trkpt><trkpt lat="-35.64603170428377" lon="144.19943808993466"><ele>78.0</ele><time>2026-05-02T07:36:26Z</time></trkpt><trkpt lat="-35.64600735323084" lon="144.19919419860526"><ele>78.0</ele><time>2026-05-02T07:36:27Z</time></trkpt><trkpt lat="-35.64598204939006" lon="144.19895390616094"><ele>78.0</ele><time>2026-05-02T07:36:28Z</time></trkpt><trkpt lat="-35.64595204498791" lon="144.198707146079"><ele>78.0</ele><time>2026-05-02T07:36:29Z</time></trkpt><trkpt lat="-35.645919693448974" lon="144.1984585732704"><ele>78.0</ele><time>2026-05-02T07:36:30Z</time></trkpt><trkpt lat="-35.64589288653738" lon="144.19821495941778"><ele>78.0</ele><time>2026-05-02T07:36:31Z</time></trkpt><trkpt lat="-35.64586724232919" lon="144.1979737907626"><ele>78.0</ele><time>2026-05-02T07:36:32Z</time></trkpt><trkpt lat="-35.645838698878904" lon="144.19773603410692"><ele>78.33333333333333</ele><time>2026-05-02T07:36:33Z</time></trkpt><trkpt lat="-35.64581511633589" lon="144.19749685880953"><ele>78.66666666666666</ele><time>2026-05-02T07:36:34Z</time></trkpt><trkpt lat="-35.6457900093316" lon="144.1972681564552"><ele>79.0</ele><time>2026-05-02T07:36:35Z</time></trkpt><trkpt lat="-35.64576420904347" lon="144.19704052321913"><ele>78.66666666666666</ele><time>2026-05-02T07:36:36Z</time></trkpt><trkpt lat="-35.645736958055394" lon="144.19681465843976"><ele>78.33333333333333</ele><time>2026-05-02T07:36:37Z</time></trkpt><trkpt lat="-35.64569918066616" lon="144.1965938182666"><ele>78.0</ele><time>2026-05-02T07:36:38Z</time></trkpt><trkpt lat="-35.645677501027556" lon="144.1963639043092"><ele>78.0</ele><time>2026-05-02T07:36:39Z</time></trkpt><trkpt lat="-35.64565587952252" lon="144.1961326316845"><ele>78.0</ele><time>2026-05-02T07:36:40Z</time></trkpt><trkpt lat="-35.64562570974106" lon="144.19590154393615"><ele>78.0</ele><time>2026-05-02T07:36:41Z</time></trkpt><trkpt lat="-35.64560126879554" lon="144.19566770931175"><ele>78.33333333333333</ele><time>2026-05-02T07:36:42Z</time></trkpt><trkpt lat="-35.645574200348065" lon="144.1954362206988"><ele>78.66666666666666</ele><time>2026-05-02T07:36:43Z</time></trkpt><trkpt lat="-35.6455477767011" lon="144.19521798843377"><ele>79.0</ele><time>2026-05-02T07:36:44Z</time></trkpt><trkpt lat="-35.64551334423069" lon="144.19500118875493"><ele>79.0</ele><time>2026-05-02T07:36:45Z</time></trkpt><trkpt lat="-35.64548299687145" lon="144.1947776189418"><ele>79.0</ele><time>2026-05-02T07:36:46Z</time></trkpt><trkpt lat="-35.64545702364897" lon="144.19455273953062"><ele>79.0</ele><time>2026-05-02T07:36:47Z</time></trkpt><trkpt lat="-35.645434360140484" lon="144.19432786913873"><ele>79.0</ele><time>2026-05-02T07:36:48Z</time></trkpt><trkpt lat="-35.645409252173785" lon="144.1940963876909"><ele>79.0</ele><time>2026-05-02T07:36:49Z</time></trkpt><trkpt lat="-35.64538378610808" lon="144.19387100412004"><ele>79.0</ele><time>2026-05-02T07:36:50Z</time></trkpt><trkpt lat="-35.64535482812804" lon="144.19364902614723"><ele>79.0</ele><time>2026-05-02T07:36:51Z</time></trkpt><trkpt lat="-35.64532908598904" lon="144.19342140826052"><ele>79.0</ele><time>2026-05-02T07:36:52Z</time></trkpt><trkpt lat="-35.64529915201937" lon="144.19320113266457"><ele>79.0</ele><time>2026-05-02T07:36:53Z</time></trkpt><trkpt lat="-35.64527931952679" lon="144.1929775128874"><ele>79.0</ele><time>2026-05-02T07:36:54Z</time></trkpt><trkpt lat="-35.6452549455805" lon="144.19277746629027"><ele>79.0</ele><time>2026-05-02T07:36:55Z</time></trkpt><trkpt lat="-35.64522566743847" lon="144.1926061951187"><ele>79.0</ele><time>2026-05-02T07:36:56Z</time></trkpt><trkpt lat="-35.64520365445435" lon="144.19245278410398"><ele>79.0</ele><time>2026-05-02T07:36:57Z</time></trkpt><trkpt lat="-35.64518811882137" lon="144.19235035997923"><ele>78.66666666666666</ele><time>2026-05-02T07:36:58Z</time></trkpt><trkpt lat="-35.64517091597547" lon="144.19226193204148"><ele>78.33333333333333</ele><time>2026-05-02T07:36:59Z</time></trkpt><trkpt lat="-35.6451540429706" lon="144.1921712246803"><ele>78.0</ele><time>2026-05-02T07:37:00Z</time></trkpt><trkpt lat="-35.64514234078104" lon="144.1920885669669"><ele>77.66666666666667</ele><time>2026-05-02T07:37:01Z</time></trkpt><trkpt lat="-35.64508155805466" lon="144.1919744065244"><ele>77.33333333333334</ele><time>2026-05-02T07:37:02.999Z</time></trkpt><trkpt lat="-35.64502225853484" lon="144.19194643746516"><ele>77.0</ele><time>2026-05-02T07:37:03.999Z</time></trkpt><trkpt lat="-35.64494557854939" lon="144.19192862380805"><ele>77.0</ele><time>2026-05-02T07:37:04.999Z</time></trkpt><trkpt lat="-35.6448416941775" lon="144.1919351138598"><ele>77.0</ele><time>2026-05-02T07:37:05.999Z</time></trkpt><trkpt lat="-35.644716304653414" lon="144.19195626371297"><ele>77.0</ele><time>2026-05-02T07:37:06.999Z</time></trkpt><trkpt lat="-35.644570930763024" lon="144.19197105102762"><ele>77.0</ele><time>2026-05-02T07:37:07.999Z</time></trkpt><trkpt lat="-35.64440833722805" lon="144.19197535465665"><ele>78.0</ele><time>2026-05-02T07:37:08.999Z</time></trkpt><trkpt lat="-35.64423677829874" lon="144.1919780174665"><ele>79.0</ele><time>2026-05-02T07:37:09.999Z</time></trkpt><trkpt lat="-35.6440462169735" lon="144.19197006761362"><ele>80.0</ele><time>2026-05-02T07:37:10.999Z</time></trkpt><trkpt lat="-35.643865411454435" lon="144.19195807405856"><ele>80.0</ele><time>2026-05-02T07:37:11.999Z</time></trkpt><trkpt lat="-35.64368315489116" lon="144.19194884962744"><ele>80.0</ele><time>2026-05-02T07:37:12.999Z</time></trkpt><trkpt lat="-35.64349639270789" lon="144.19192334239594"><ele>80.0</ele><time>2026-05-02T07:37:13.999Z</time></trkpt><trkpt lat="-35.64331150117405" lon="144.191900129041"><ele>80.0</ele><time>2026-05-02T07:37:14.999Z</time></trkpt><trkpt lat="-35.643127769661994" lon="144.19187289513673"><ele>80.0</ele><time>2026-05-02T07:37:15.999Z</time></trkpt><trkpt lat="-35.64293725592103" lon="144.19184185188394"><ele>80.0</ele><time>2026-05-02T07:37:16.999Z</time></trkpt><trkpt lat="-35.64274355560839" lon="144.1918030496043"><ele>80.0</ele><time>2026-05-02T07:37:17.999Z</time></trkpt><trkpt lat="-35.64255453189104" lon="144.19177088885726"><ele>80.0</ele><time>2026-05-02T07:37:18.999Z</time></trkpt><trkpt lat="-35.64236894916102" lon="144.1917367260898"><ele>80.0</ele><time>2026-05-02T07:37:19.999Z</time></trkpt><trkpt lat="-35.64219434644432" lon="144.1917040418571"><ele>80.0</ele><time>2026-05-02T07:37:20.999Z</time></trkpt><trkpt lat="-35.642019199789246" lon="144.19167016340012"><ele>80.0</ele><time>2026-05-02T07:37:21.999Z</time></trkpt><trkpt lat="-35.64184338678701" lon="144.19164131036277"><ele>80.0</ele><time>2026-05-02T07:37:22.999Z</time></trkpt><trkpt lat="-35.6416626122066" lon="144.1916090016443"><ele>80.0</ele><time>2026-05-02T07:37:23.999Z</time></trkpt><trkpt lat="-35.641481728112396" lon="144.1915786543468"><ele>80.0</ele><time>2026-05-02T07:37:24.999Z</time></trkpt><trkpt lat="-35.641301645491524" lon="144.19155104198023"><ele>80.0</ele><time>2026-05-02T07:37:25.999Z</time></trkpt><trkpt lat="-35.64112314810681" lon="144.19152183343928"><ele>79.33333333333334</ele><time>2026-05-02T07:37:26.999Z</time></trkpt><trkpt lat="-35.640939169571354" lon="144.1914920023048"><ele>78.66666666666667</ele><time>2026-05-02T07:37:27.999Z</time></trkpt><trkpt lat="-35.64075280013859" lon="144.19145784277484"><ele>78.0</ele><time>2026-05-02T07:37:28.999Z</time></trkpt><trkpt lat="-35.64056920880848" lon="144.1914195259267"><ele>78.0</ele><time>2026-05-02T07:37:29.999Z</time></trkpt><trkpt lat="-35.64037989620285" lon="144.19138107261284"><ele>78.0</ele><time>2026-05-02T07:37:30.999Z</time></trkpt><trkpt lat="-35.640189275554924" lon="144.19134798735527"><ele>78.0</ele><time>2026-05-02T07:37:31.999Z</time></trkpt><trkpt lat="-35.63999646207877" lon="144.19131192778312"><ele>78.0</ele><time>2026-05-02T07:37:32.999Z</time></trkpt><trkpt lat="-35.63980128806558" lon="144.19127704399003"><ele>78.0</ele><time>2026-05-02T07:37:33.999Z</time></trkpt><trkpt lat="-35.63960917226311" lon="144.191240706014"><ele>78.0</ele><time>2026-05-02T07:37:34.999Z</time></trkpt><trkpt lat="-35.6394184272142" lon="144.19119978849503"><ele>77.66666666666667</ele><time>2026-05-02T07:37:35.999Z</time></trkpt><trkpt lat="-35.63923058969849" lon="144.19115012468887"><ele>77.33333333333334</ele><time>2026-05-02T07:37:36.999Z</time></trkpt><trkpt lat="-35.63904942665675" lon="144.19108030711024"><ele>77.0</ele><time>2026-05-02T07:37:37.999Z</time></trkpt><trkpt lat="-35.638863321167456" lon="144.19099946003897"><ele>77.0</ele><time>2026-05-02T07:37:38.999Z</time></trkpt><trkpt lat="-35.6386795616358" lon="144.19091053388152"><ele>77.0</ele><time>2026-05-02T07:37:39.999Z</time></trkpt><trkpt lat="-35.63849250275232" lon="144.19081424233397"><ele>77.0</ele><time>2026-05-02T07:37:40.999Z</time></trkpt><trkpt lat="-35.63830190707888" lon="144.1906991865753"><ele>77.0</ele><time>2026-05-02T07:37:41.999Z</time></trkpt><trkpt lat="-35.63812319269416" lon="144.19057924373163"><ele>77.0</ele><time>2026-05-02T07:37:42.999Z</time></trkpt><trkpt lat="-35.63793574459881" lon="144.19044849625874"><ele>77.0</ele><time>2026-05-02T07:37:43.999Z</time></trkpt><trkpt lat="-35.63774925005217" lon="144.19030638264582"><ele>77.33333333333334</ele><time>2026-05-02T07:37:44.999Z</time></trkpt><trkpt lat="-35.63757611132151" lon="144.19015469661"><ele>77.66666666666667</ele><time>2026-05-02T07:37:45.999Z</time></trkpt><trkpt lat="-35.63739598785226" lon="144.18998358478996"><ele>78.0</ele><time>2026-05-02T07:37:46.999Z</time></trkpt><trkpt lat="-35.637228864740216" lon="144.18980531263864"><ele>78.0</ele><time>2026-05-02T07:37:48Z</time></trkpt><trkpt lat="-35.637061762232534" lon="144.1896087307352"><ele>78.0</ele><time>2026-05-02T07:37:49Z</time></trkpt><trkpt lat="-35.63690274528328" lon="144.1894092335441"><ele>78.5</ele><time>2026-05-02T07:37:50Z</time></trkpt><trkpt lat="-35.63675592920523" lon="144.18919482152984"><ele>79.0</ele><time>2026-05-02T07:37:51Z</time></trkpt><trkpt lat="-35.63661431657094" lon="144.18896350119604"><ele>79.66666666666666</ele><time>2026-05-02T07:37:52Z</time></trkpt><trkpt lat="-35.636483683903755" lon="144.18873446636817"><ele>80.33333333333333</ele><time>2026-05-02T07:37:53Z</time></trkpt><trkpt lat="-35.63636346818109" lon="144.18850547325874"><ele>81.0</ele><time>2026-05-02T07:37:54Z</time></trkpt><trkpt lat="-35.63624930104574" lon="144.18826545685417"><ele>80.66666666666667</ele><time>2026-05-02T07:37:55Z</time></trkpt><trkpt lat="-35.63615370117855" lon="144.18802439272838"><ele>80.33333333333334</ele><time>2026-05-02T07:37:56Z</time></trkpt><trkpt lat="-35.636054095462576" lon="144.18777719629247"><ele>80.0</ele><time>2026-05-02T07:37:57Z</time></trkpt><trkpt lat="-35.635965692375535" lon="144.18752508320324"><ele>80.0</ele><time>2026-05-02T07:37:58Z</time></trkpt><trkpt lat="-35.63588371696104" lon="144.18727479194354"><ele>80.0</ele><time>2026-05-02T07:37:59Z</time></trkpt><trkpt lat="-35.635825670602145" lon="144.1870097413776"><ele>80.0</ele><time>2026-05-02T07:38:00Z</time></trkpt><trkpt lat="-35.63576972340082" lon="144.18674568186592"><ele>80.33333333333334</ele><time>2026-05-02T07:38:01Z</time></trkpt><trkpt lat="-35.63572253405181" lon="144.18647963081568"><ele>80.66666666666667</ele><time>2026-05-02T07:38:02Z</time></trkpt><trkpt lat="-35.635683802912446" lon="144.1862079118239"><ele>81.0</ele><time>2026-05-02T07:38:03Z</time></trkpt><trkpt lat="-35.63565097082321" lon="144.18594107983705"><ele>82.0</ele><time>2026-05-02T07:38:04Z</time></trkpt><trkpt lat="-35.63562574269388" lon="144.1856691703388"><ele>83.0</ele><time>2026-05-02T07:38:05Z</time></trkpt><trkpt lat="-35.63560777460495" lon="144.18539786015316"><ele>84.0</ele><time>2026-05-02T07:38:06Z</time></trkpt><trkpt lat="-35.63557251196182" lon="144.18512402131495"><ele>83.5</ele><time>2026-05-02T07:38:07Z</time></trkpt><trkpt lat="-35.63555682362233" lon="144.18483920685563"><ele>83.0</ele><time>2026-05-02T07:38:08Z</time></trkpt><trkpt lat="-35.63551921765978" lon="144.1845691803218"><ele>83.0</ele><time>2026-05-02T07:38:09Z</time></trkpt><trkpt lat="-35.63548718242991" lon="144.1843058239067"><ele>83.0</ele><time>2026-05-02T07:38:10Z</time></trkpt><trkpt lat="-35.63545972015001" lon="144.1840342124939"><ele>83.0</ele><time>2026-05-02T07:38:11Z</time></trkpt><trkpt lat="-35.63542912232557" lon="144.18375800618605"><ele>83.0</ele><time>2026-05-02T07:38:12Z</time></trkpt><trkpt lat="-35.63538864806038" lon="144.18350365940785"><ele>83.0</ele><time>2026-05-02T07:38:13Z</time></trkpt><trkpt lat="-35.63536013150758" lon="144.1832273689316"><ele>83.0</ele><time>2026-05-02T07:38:14Z</time></trkpt><trkpt lat="-35.63532545274785" lon="144.18296584193868"><ele>84.0</ele><time>2026-05-02T07:38:15Z</time></trkpt><trkpt lat="-35.63528827964766" lon="144.18270998291842"><ele>85.0</ele><time>2026-05-02T07:38:16Z</time></trkpt><trkpt lat="-35.63525844114602" lon="144.18244214936163"><ele>86.0</ele><time>2026-05-02T07:38:17Z</time></trkpt><trkpt lat="-35.63523462738448" lon="144.18216259564926"><ele>86.0</ele><time>2026-05-02T07:38:18Z</time></trkpt><trkpt lat="-35.635193683558015" lon="144.1818867934122"><ele>86.0</ele><time>2026-05-02T07:38:19Z</time></trkpt><trkpt lat="-35.63516727350332" lon="144.1816297115244"><ele>86.0</ele><time>2026-05-02T07:38:20Z</time></trkpt><trkpt lat="-35.635149786804455" lon="144.1813609717826"><ele>85.66666666666667</ele><time>2026-05-02T07:38:21Z</time></trkpt><trkpt lat="-35.63516136985928" lon="144.18108662459755"><ele>85.33333333333333</ele><time>2026-05-02T07:38:22Z</time></trkpt><trkpt lat="-35.63517622771892" lon="144.18082804906894"><ele>85.0</ele><time>2026-05-02T07:38:23Z</time></trkpt><trkpt lat="-35.63519017977192" lon="144.1805645367018"><ele>84.0</ele><time>2026-05-02T07:38:24Z</time></trkpt><trkpt lat="-35.63524340331992" lon="144.18029674659635"><ele>83.0</ele><time>2026-05-02T07:38:25Z</time></trkpt><trkpt lat="-35.63526378945422" lon="144.180038830922"><ele>82.0</ele><time>2026-05-02T07:38:26Z</time></trkpt><trkpt lat="-35.635293270969065" lon="144.17977867861737"><ele>82.33333333333333</ele><time>2026-05-02T07:38:27Z</time></trkpt><trkpt lat="-35.63532925778421" lon="144.1795161617479"><ele>82.66666666666667</ele><time>2026-05-02T07:38:28Z</time></trkpt><trkpt lat="-35.635355597938585" lon="144.17925446760688"><ele>83.0</ele><time>2026-05-02T07:38:29Z</time></trkpt><trkpt lat="-35.63538191367621" lon="144.17899185078187"><ele>83.33333333333334</ele><time>2026-05-02T07:38:30Z</time></trkpt><trkpt lat="-35.635409892567914" lon="144.17872989549292"><ele>83.66666666666667</ele><time>2026-05-02T07:38:31Z</time></trkpt><trkpt lat="-35.6354434050282" lon="144.17847031431754"><ele>84.0</ele><time>2026-05-02T07:38:32Z</time></trkpt><trkpt lat="-35.63546569434135" lon="144.17820631369"><ele>83.66666666666667</ele><time>2026-05-02T07:38:33Z</time></trkpt><trkpt lat="-35.63548708847435" lon="144.1779340163265"><ele>83.33333333333334</ele><time>2026-05-02T07:38:34Z</time></trkpt><trkpt lat="-35.63547076611199" lon="144.17767494295106"><ele>83.0</ele><time>2026-05-02T07:38:35Z</time></trkpt><trkpt lat="-35.63547135431098" lon="144.17740294346052"><ele>83.0</ele><time>2026-05-02T07:38:36Z</time></trkpt><trkpt lat="-35.635441575026675" lon="144.1771395907037"><ele>83.0</ele><time>2026-05-02T07:38:37Z</time></trkpt><trkpt lat="-35.63543547954984" lon="144.1768638569207"><ele>83.0</ele><time>2026-05-02T07:38:38Z</time></trkpt><trkpt lat="-35.63541089859152" lon="144.17659679438947"><ele>82.33333333333334</ele><time>2026-05-02T07:38:39Z</time></trkpt><trkpt lat="-35.63537215640934" lon="144.17633231007264"><ele>81.66666666666667</ele><time>2026-05-02T07:38:40Z</time></trkpt><trkpt lat="-35.63534428263294" lon="144.17606892748174"><ele>81.0</ele><time>2026-05-02T07:38:41Z</time></trkpt><trkpt lat="-35.63531485199792" lon="144.17580551845256"><ele>82.0</ele><time>2026-05-02T07:38:42Z</time></trkpt><trkpt lat="-35.63528876228981" lon="144.175552212191"><ele>83.0</ele><time>2026-05-02T07:38:43Z</time></trkpt><trkpt lat="-35.635261880486965" lon="144.17529989036794"><ele>84.0</ele><time>2026-05-02T07:38:44Z</time></trkpt><trkpt lat="-35.63523593132084" lon="144.17505060081436"><ele>83.33333333333333</ele><time>2026-05-02T07:38:45Z</time></trkpt><trkpt lat="-35.6352119887608" lon="144.1748006721747"><ele>82.66666666666666</ele><time>2026-05-02T07:38:46Z</time></trkpt><trkpt lat="-35.63518123324922" lon="144.1745685948463"><ele>82.0</ele><time>2026-05-02T07:38:47Z</time></trkpt><trkpt lat="-35.635151868783986" lon="144.17434761006774"><ele>82.0</ele><time>2026-05-02T07:38:48Z</time></trkpt><trkpt lat="-35.6351248479772" lon="144.17413996147332"><ele>82.0</ele><time>2026-05-02T07:38:49Z</time></trkpt><trkpt lat="-35.63509289713646" lon="144.17393940370076"><ele>82.0</ele><time>2026-05-02T07:38:50Z</time></trkpt><trkpt lat="-35.63505938278162" lon="144.17373823328768"><ele>82.66666666666666</ele><time>2026-05-02T07:38:51Z</time></trkpt><trkpt lat="-35.63504470150417" lon="144.17352703865933"><ele>83.33333333333333</ele><time>2026-05-02T07:38:52Z</time></trkpt><trkpt lat="-35.635011753508884" lon="144.17330845700363"><ele>84.0</ele><time>2026-05-02T07:38:53Z</time></trkpt><trkpt lat="-35.634976585863136" lon="144.17309092001204"><ele>84.0</ele><time>2026-05-02T07:38:54Z</time></trkpt><trkpt lat="-35.63493760207742" lon="144.17286922245626"><ele>84.0</ele><time>2026-05-02T07:38:55Z</time></trkpt><trkpt lat="-35.63489592033081" lon="144.1726480547726"><ele>84.0</ele><time>2026-05-02T07:38:56Z</time></trkpt><trkpt lat="-35.63484942537273" lon="144.17243040654054"><ele>82.66666666666667</ele><time>2026-05-02T07:38:57Z</time></trkpt><trkpt lat="-35.63479291240983" lon="144.1721884538193"><ele>81.33333333333334</ele><time>2026-05-02T07:38:58Z</time></trkpt><trkpt lat="-35.634737336128474" lon="144.17196728893578"><ele>80.0</ele><time>2026-05-02T07:38:59Z</time></trkpt><trkpt lat="-35.63467875042772" lon="144.17174568089442"><ele>79.66666666666667</ele><time>2026-05-02T07:39:00Z</time></trkpt><trkpt lat="-35.63460044137545" lon="144.17152054657026"><ele>79.33333333333333</ele><time>2026-05-02T07:39:01Z</time></trkpt><trkpt lat="-35.63454956850931" lon="144.17128905529503"><ele>79.0</ele><time>2026-05-02T07:39:02Z</time></trkpt><trkpt lat="-35.63448223085967" lon="144.1710751180081"><ele>80.0</ele><time>2026-05-02T07:39:03Z</time></trkpt><trkpt lat="-35.63440848657972" lon="144.17084049646567"><ele>81.0</ele><time>2026-05-02T07:39:04Z</time></trkpt><trkpt lat="-35.63434140509055" lon="144.1706249047822"><ele>82.0</ele><time>2026-05-02T07:39:05Z</time></trkpt><trkpt lat="-35.63427882653668" lon="144.17039297955134"><ele>82.0</ele><time>2026-05-02T07:39:06Z</time></trkpt><trkpt lat="-35.63421372210243" lon="144.17016253028294"><ele>82.0</ele><time>2026-05-02T07:39:06.999Z</time></trkpt><trkpt lat="-35.634148119739855" lon="144.16994115421025"><ele>82.0</ele><time>2026-05-02T07:39:07.999Z</time></trkpt><trkpt lat="-35.63409389066268" lon="144.16972058418486"><ele>82.0</ele><time>2026-05-02T07:39:08.999Z</time></trkpt><trkpt lat="-35.63403942058694" lon="144.1694979184711"><ele>82.0</ele><time>2026-05-02T07:39:09.999Z</time></trkpt><trkpt lat="-35.633993635226524" lon="144.16927216911475"><ele>82.0</ele><time>2026-05-02T07:39:10.999Z</time></trkpt><trkpt lat="-35.633951618353706" lon="144.16904853629015"><ele>81.66666666666666</ele><time>2026-05-02T07:39:11.999Z</time></trkpt><trkpt lat="-35.63390936703538" lon="144.16880780417526"><ele>81.33333333333333</ele><time>2026-05-02T07:39:12.999Z</time></trkpt><trkpt lat="-35.63390539712851" lon="144.16856323896997"><ele>81.0</ele><time>2026-05-02T07:39:13.999Z</time></trkpt><trkpt lat="-35.633872449616355" lon="144.16832228964185"><ele>81.0</ele><time>2026-05-02T07:39:14.999Z</time></trkpt><trkpt lat="-35.63387224430594" lon="144.16807988909702"><ele>81.0</ele><time>2026-05-02T07:39:15.999Z</time></trkpt><trkpt lat="-35.633876537298526" lon="144.16783713511816"><ele>81.0</ele><time>2026-05-02T07:39:16.999Z</time></trkpt><trkpt lat="-35.63388614961011" lon="144.1676000002211"><ele>81.0</ele><time>2026-05-02T07:39:17.999Z</time></trkpt><trkpt lat="-35.63391191690237" lon="144.16736788671824"><ele>81.0</ele><time>2026-05-02T07:39:18.999Z</time></trkpt><trkpt lat="-35.633950755881756" lon="144.1671362652762"><ele>81.0</ele><time>2026-05-02T07:39:19.999Z</time></trkpt><trkpt lat="-35.63399166356893" lon="144.16691058387485"><ele>81.0</ele><time>2026-05-02T07:39:20.999Z</time></trkpt><trkpt lat="-35.634037450520864" lon="144.16669151567058"><ele>81.0</ele><time>2026-05-02T07:39:21.999Z</time></trkpt><trkpt lat="-35.634090591457614" lon="144.16647314544707"><ele>81.0</ele><time>2026-05-02T07:39:22.999Z</time></trkpt><trkpt lat="-35.634148779471055" lon="144.16626101242346"><ele>81.0</ele><time>2026-05-02T07:39:23.999Z</time></trkpt><trkpt lat="-35.63420081430978" lon="144.166041933573"><ele>81.0</ele><time>2026-05-02T07:39:24.999Z</time></trkpt><trkpt lat="-35.63425227610504" lon="144.16581692786988"><ele>81.0</ele><time>2026-05-02T07:39:25.999Z</time></trkpt><trkpt lat="-35.63430161355067" lon="144.16558960930348"><ele>82.66666666666667</ele><time>2026-05-02T07:39:26.999Z</time></trkpt><trkpt lat="-35.63435384338087" lon="144.16535722766312"><ele>84.33333333333334</ele><time>2026-05-02T07:39:27.999Z</time></trkpt><trkpt lat="-35.63440695737467" lon="144.1651188458168"><ele>86.0</ele><time>2026-05-02T07:39:28.999Z</time></trkpt><trkpt lat="-35.634460002758836" lon="144.16488324358284"><ele>85.66666666666667</ele><time>2026-05-02T07:39:29.999Z</time></trkpt><trkpt lat="-35.634509784033064" lon="144.16464673703175"><ele>85.33333333333333</ele><time>2026-05-02T07:39:30.999Z</time></trkpt><trkpt lat="-35.63456272946172" lon="144.1644065554559"><ele>85.0</ele><time>2026-05-02T07:39:31.999Z</time></trkpt><trkpt lat="-35.63461530374541" lon="144.1641688018315"><ele>83.66666666666666</ele><time>2026-05-02T07:39:32.999Z</time></trkpt><trkpt lat="-35.63465982451971" lon="144.16393475894847"><ele>82.33333333333333</ele><time>2026-05-02T07:39:33.999Z</time></trkpt><trkpt lat="-35.63469916732888" lon="144.16369819020207"><ele>81.0</ele><time>2026-05-02T07:39:34.999Z</time></trkpt><trkpt lat="-35.63472217228413" lon="144.1634573227364"><ele>81.0</ele><time>2026-05-02T07:39:35.999Z</time></trkpt><trkpt lat="-35.6347331444306" lon="144.16321956877644"><ele>81.0</ele><time>2026-05-02T07:39:36.999Z</time></trkpt><trkpt lat="-35.634742786875314" lon="144.16298090203114"><ele>81.0</ele><time>2026-05-02T07:39:37.999Z</time></trkpt><trkpt lat="-35.63474036068869" lon="144.16275443203202"><ele>81.33333333333333</ele><time>2026-05-02T07:39:38.999Z</time></trkpt><trkpt lat="-35.63472613536453" lon="144.1625241105065"><ele>81.66666666666666</ele><time>2026-05-02T07:39:39.999Z</time></trkpt><trkpt lat="-35.63469961501574" lon="144.16229235952125"><ele>82.0</ele><time>2026-05-02T07:39:40.999Z</time></trkpt><trkpt lat="-35.634673464759274" lon="144.1620554121686"><ele>82.0</ele><time>2026-05-02T07:39:41.999Z</time></trkpt><trkpt lat="-35.634651555886826" lon="144.16181289311913"><ele>82.0</ele><time>2026-05-02T07:39:42.999Z</time></trkpt><trkpt lat="-35.63461966757912" lon="144.16156953578113"><ele>82.0</ele><time>2026-05-02T07:39:43.999Z</time></trkpt><trkpt lat="-35.63458747952859" lon="144.16132455677578"><ele>82.0</ele><time>2026-05-02T07:39:44.999Z</time></trkpt><trkpt lat="-35.63455634021226" lon="144.16107615772512"><ele>82.0</ele><time>2026-05-02T07:39:45.999Z</time></trkpt><trkpt lat="-35.63452841313851" lon="144.16082690728572"><ele>82.0</ele><time>2026-05-02T07:39:46.999Z</time></trkpt><trkpt lat="-35.63450390821604" lon="144.1605634448022"><ele>81.66666666666666</ele><time>2026-05-02T07:39:47.999Z</time></trkpt><trkpt lat="-35.63447608370387" lon="144.1603072324723"><ele>81.33333333333333</ele><time>2026-05-02T07:39:48.999Z</time></trkpt><trkpt lat="-35.63444857565348" lon="144.16004380240358"><ele>81.0</ele><time>2026-05-02T07:39:49.999Z</time></trkpt><trkpt lat="-35.63441824141386" lon="144.1597808733993"><ele>80.66666666666667</ele><time>2026-05-02T07:39:50.999Z</time></trkpt><trkpt lat="-35.63439343959813" lon="144.1595172116177"><ele>80.33333333333334</ele><time>2026-05-02T07:39:51.999Z</time></trkpt><trkpt lat="-35.63436589042358" lon="144.15925638836393"><ele>80.0</ele><time>2026-05-02T07:39:52.999Z</time></trkpt><trkpt lat="-35.63433463454999" lon="144.15900055031858"><ele>79.33333333333334</ele><time>2026-05-02T07:39:54Z</time></trkpt><trkpt lat="-35.63430271948761" lon="144.1587496675771"><ele>78.66666666666667</ele><time>2026-05-02T07:39:55Z</time></trkpt><trkpt lat="-35.63427504354306" lon="144.15849714949692"><ele>78.0</ele><time>2026-05-02T07:39:56Z</time></trkpt><trkpt lat="-35.63425173051424" lon="144.15824330351865"><ele>78.0</ele><time>2026-05-02T07:39:57Z</time></trkpt><trkpt lat="-35.63422741199671" lon="144.15799199417236"><ele>78.0</ele><time>2026-05-02T07:39:58Z</time></trkpt><trkpt lat="-35.63419785586275" lon="144.15773877824807"><ele>78.0</ele><time>2026-05-02T07:39:59Z</time></trkpt><trkpt lat="-35.634166417951946" lon="144.1574779878025"><ele>78.0</ele><time>2026-05-02T07:40:00Z</time></trkpt><trkpt lat="-35.63413676232772" lon="144.15721766888876"><ele>78.0</ele><time>2026-05-02T07:40:01Z</time></trkpt><trkpt lat="-35.634111951621726" lon="144.1569574141853"><ele>78.0</ele><time>2026-05-02T07:40:02Z</time></trkpt><trkpt lat="-35.63408408850002" lon="144.15669774633582"><ele>78.33333333333333</ele><time>2026-05-02T07:40:03Z</time></trkpt><trkpt lat="-35.63405842494527" lon="144.15644221191505"><ele>78.66666666666666</ele><time>2026-05-02T07:40:04Z</time></trkpt><trkpt lat="-35.6340247412213" lon="144.15618881539822"><ele>79.0</ele><time>2026-05-02T07:40:05Z</time></trkpt><trkpt lat="-35.633994444269845" lon="144.155933594917"><ele>79.33333333333333</ele><time>2026-05-02T07:40:06Z</time></trkpt><trkpt lat="-35.63396462974423" lon="144.1556814949139"><ele>79.66666666666667</ele><time>2026-05-02T07:40:07Z</time></trkpt><trkpt lat="-35.633933759649615" lon="144.15543399965648"><ele>80.0</ele><time>2026-05-02T07:40:08Z</time></trkpt><trkpt lat="-35.63390011156546" lon="144.15518454477345"><ele>80.0</ele><time>2026-05-02T07:40:09Z</time></trkpt><trkpt lat="-35.633870784137564" lon="144.15494067636948"><ele>80.0</ele><time>2026-05-02T07:40:10Z</time></trkpt><trkpt lat="-35.633841277915316" lon="144.15468657962347"><ele>80.0</ele><time>2026-05-02T07:40:11Z</time></trkpt><trkpt lat="-35.63381362492572" lon="144.15443534582386"><ele>80.0</ele><time>2026-05-02T07:40:12Z</time></trkpt><trkpt lat="-35.63378990975744" lon="144.1541815955351"><ele>80.0</ele><time>2026-05-02T07:40:13Z</time></trkpt><trkpt lat="-35.63376242373015" lon="144.15392559184193"><ele>80.0</ele><time>2026-05-02T07:40:14Z</time></trkpt><trkpt lat="-35.63372615561085" lon="144.15367511299203"><ele>80.0</ele><time>2026-05-02T07:40:15Z</time></trkpt><trkpt lat="-35.63368992615355" lon="144.15342223934817"><ele>80.0</ele><time>2026-05-02T07:40:16Z</time></trkpt><trkpt lat="-35.63365943817143" lon="144.15317174758755"><ele>80.0</ele><time>2026-05-02T07:40:17Z</time></trkpt><trkpt lat="-35.633636852083804" lon="144.15292022212475"><ele>80.33333333333334</ele><time>2026-05-02T07:40:18Z</time></trkpt><trkpt lat="-35.633611622391065" lon="144.1526648515305"><ele>80.66666666666667</ele><time>2026-05-02T07:40:19Z</time></trkpt><trkpt lat="-35.633591311515346" lon="144.15240380965406"><ele>81.0</ele><time>2026-05-02T07:40:20Z</time></trkpt><trkpt lat="-35.633561129416734" lon="144.15214618604213"><ele>81.33333333333333</ele><time>2026-05-02T07:40:21Z</time></trkpt><trkpt lat="-35.63352883071502" lon="144.151888098676"><ele>81.66666666666666</ele><time>2026-05-02T07:40:22Z</time></trkpt><trkpt lat="-35.63349207515027" lon="144.1516305224022"><ele>82.0</ele><time>2026-05-02T07:40:23Z</time></trkpt><trkpt lat="-35.633461381912134" lon="144.15137032749018"><ele>82.33333333333333</ele><time>2026-05-02T07:40:24Z</time></trkpt><trkpt lat="-35.63343474733826" lon="144.15110498873815"><ele>82.66666666666667</ele><time>2026-05-02T07:40:25Z</time></trkpt><trkpt lat="-35.63341022578862" lon="144.15084228530205"><ele>83.0</ele><time>2026-05-02T07:40:26Z</time></trkpt><trkpt lat="-35.6333823672093" lon="144.15058349449308"><ele>82.66666666666667</ele><time>2026-05-02T07:40:27Z</time></trkpt><trkpt lat="-35.63335302954426" lon="144.15031478116677"><ele>82.33333333333333</ele><time>2026-05-02T07:40:28Z</time></trkpt><trkpt lat="-35.633320909801064" lon="144.15004996324564"><ele>82.0</ele><time>2026-05-02T07:40:29Z</time></trkpt><trkpt lat="-35.63328828149068" lon="144.14977816549242"><ele>82.0</ele><time>2026-05-02T07:40:30Z</time></trkpt><trkpt lat="-35.633255009656764" lon="144.1495151778388"><ele>82.0</ele><time>2026-05-02T07:40:31Z</time></trkpt><trkpt lat="-35.63322693917068" lon="144.1492470828749"><ele>82.0</ele><time>2026-05-02T07:40:32Z</time></trkpt><trkpt lat="-35.63319862716066" lon="144.14897959597428"><ele>83.5</ele><time>2026-05-02T07:40:33Z</time></trkpt><trkpt lat="-35.6331679210099" lon="144.148708761136"><ele>85.0</ele><time>2026-05-02T07:40:34Z</time></trkpt><trkpt lat="-35.633138565578534" lon="144.14843119528211"><ele>85.0</ele><time>2026-05-02T07:40:35Z</time></trkpt><trkpt lat="-35.63310820908172" lon="144.14815946843703"><ele>85.0</ele><time>2026-05-02T07:40:36Z</time></trkpt><trkpt lat="-35.633078893369856" lon="144.14788873601066"><ele>85.0</ele><time>2026-05-02T07:40:37Z</time></trkpt><trkpt lat="-35.63305137396486" lon="144.14761460161486"><ele>83.66666666666666</ele><time>2026-05-02T07:40:38Z</time></trkpt><trkpt lat="-35.63302372750675" lon="144.14734605721898"><ele>82.33333333333333</ele><time>2026-05-02T07:40:39Z</time></trkpt><trkpt lat="-35.63299643304273" lon="144.14708441802654"><ele>81.0</ele><time>2026-05-02T07:40:40Z</time></trkpt><trkpt lat="-35.6329706924057" lon="144.14682461935107"><ele>81.0</ele><time>2026-05-02T07:40:41Z</time></trkpt><trkpt lat="-35.63293607295427" lon="144.14657135250792"><ele>81.0</ele><time>2026-05-02T07:40:42Z</time></trkpt><trkpt lat="-35.632899405535674" lon="144.1463203631239"><ele>81.0</ele><time>2026-05-02T07:40:43Z</time></trkpt><trkpt lat="-35.632871886758686" lon="144.14606455563552"><ele>80.33333333333333</ele><time>2026-05-02T07:40:44Z</time></trkpt><trkpt lat="-35.63284525580151" lon="144.14580260212023"><ele>79.66666666666666</ele><time>2026-05-02T07:40:45Z</time></trkpt><trkpt lat="-35.63282074870952" lon="144.1455420328779"><ele>79.0</ele><time>2026-05-02T07:40:46Z</time></trkpt><trkpt lat="-35.632793496825144" lon="144.14528386003764"><ele>79.0</ele><time>2026-05-02T07:40:47Z</time></trkpt><trkpt lat="-35.63276793074588" lon="144.14501670553923"><ele>79.0</ele><time>2026-05-02T07:40:48Z</time></trkpt><trkpt lat="-35.632736146212224" lon="144.14475691220517"><ele>79.0</ele><time>2026-05-02T07:40:49Z</time></trkpt><trkpt lat="-35.6327086473401" lon="144.14449753711625"><ele>79.0</ele><time>2026-05-02T07:40:50Z</time></trkpt><trkpt lat="-35.632682977787056" lon="144.1442383374412"><ele>79.0</ele><time>2026-05-02T07:40:51Z</time></trkpt><trkpt lat="-35.63265571052669" lon="144.14397932489956"><ele>79.0</ele><time>2026-05-02T07:40:52Z</time></trkpt><trkpt lat="-35.63262507100266" lon="144.14371955851482"><ele>79.0</ele><time>2026-05-02T07:40:53Z</time></trkpt><trkpt lat="-35.632591685383005" lon="144.1434615079193"><ele>79.0</ele><time>2026-05-02T07:40:54Z</time></trkpt><trkpt lat="-35.632563167253636" lon="144.14320876029487"><ele>79.0</ele><time>2026-05-02T07:40:55Z</time></trkpt><trkpt lat="-35.63253664520515" lon="144.14295976032307"><ele>79.0</ele><time>2026-05-02T07:40:56Z</time></trkpt><trkpt lat="-35.63251043091537" lon="144.14271102646399"><ele>79.0</ele><time>2026-05-02T07:40:57Z</time></trkpt><trkpt lat="-35.63247952361491" lon="144.142460222071"><ele>79.0</ele><time>2026-05-02T07:40:58Z</time></trkpt><trkpt lat="-35.63245738469493" lon="144.14221824505202"><ele>79.0</ele><time>2026-05-02T07:40:59Z</time></trkpt><trkpt lat="-35.63242782572342" lon="144.14197465227852"><ele>79.0</ele><time>2026-05-02T07:41:00Z</time></trkpt><trkpt lat="-35.63239562929745" lon="144.14172758292924"><ele>79.0</ele><time>2026-05-02T07:41:01Z</time></trkpt><trkpt lat="-35.632363107723805" lon="144.14147978288887"><ele>78.66666666666666</ele><time>2026-05-02T07:41:02Z</time></trkpt><trkpt lat="-35.63233361830182" lon="144.14122674602942"><ele>78.33333333333333</ele><time>2026-05-02T07:41:03Z</time></trkpt><trkpt lat="-35.63230595914641" lon="144.14097209181992"><ele>78.0</ele><time>2026-05-02T07:41:04Z</time></trkpt><trkpt lat="-35.6322813694171" lon="144.14071628613235"><ele>78.0</ele><time>2026-05-02T07:41:05Z</time></trkpt><trkpt lat="-35.632254404557806" lon="144.1404625069587"><ele>78.0</ele><time>2026-05-02T07:41:06Z</time></trkpt><trkpt lat="-35.63222610451923" lon="144.14021554403638"><ele>78.0</ele><time>2026-05-02T07:41:07Z</time></trkpt><trkpt lat="-35.63219994115139" lon="144.1399743655009"><ele>79.33333333333333</ele><time>2026-05-02T07:41:08Z</time></trkpt><trkpt lat="-35.632176031404946" lon="144.13973966494413"><ele>80.66666666666666</ele><time>2026-05-02T07:41:09Z</time></trkpt><trkpt lat="-35.632148469869286" lon="144.1395212915702"><ele>82.0</ele><time>2026-05-02T07:41:10Z</time></trkpt><trkpt lat="-35.632128334242104" lon="144.139311671674"><ele>82.0</ele><time>2026-05-02T07:41:10.999Z</time></trkpt><trkpt lat="-35.632107687284886" lon="144.13910100842736"><ele>82.0</ele><time>2026-05-02T07:41:11.999Z</time></trkpt><trkpt lat="-35.63208423523918" lon="144.13889210342276"><ele>82.0</ele><time>2026-05-02T07:41:12.999Z</time></trkpt><trkpt lat="-35.63205980666414" lon="144.13868576715143"><ele>82.0</ele><time>2026-05-02T07:41:13.999Z</time></trkpt><trkpt lat="-35.6320364851781" lon="144.13849137346958"><ele>82.0</ele><time>2026-05-02T07:41:14.999Z</time></trkpt><trkpt lat="-35.632017164479144" lon="144.13829972197294"><ele>82.0</ele><time>2026-05-02T07:41:15.999Z</time></trkpt><trkpt lat="-35.63199036841642" lon="144.1381113864115"><ele>81.66666666666666</ele><time>2026-05-02T07:41:16.999Z</time></trkpt><trkpt lat="-35.63195273181872" lon="144.13792800774567"><ele>81.33333333333333</ele><time>2026-05-02T07:41:17.999Z</time></trkpt><trkpt lat="-35.631909973291904" lon="144.1377522239847"><ele>81.0</ele><time>2026-05-02T07:41:18.999Z</time></trkpt><trkpt lat="-35.63185873191026" lon="144.13758021257155"><ele>81.0</ele><time>2026-05-02T07:41:19.999Z</time></trkpt><trkpt lat="-35.63179700012939" lon="144.1374124244088"><ele>81.0</ele><time>2026-05-02T07:41:20.999Z</time></trkpt><trkpt lat="-35.631727866820974" lon="144.1372465349793"><ele>81.0</ele><time>2026-05-02T07:41:21.999Z</time></trkpt><trkpt lat="-35.63165170931674" lon="144.13708543901134"><ele>81.5</ele><time>2026-05-02T07:41:22.999Z</time></trkpt><trkpt lat="-35.63157350095233" lon="144.13693187349"><ele>82.0</ele><time>2026-05-02T07:41:23.999Z</time></trkpt><trkpt lat="-35.63148653248042" lon="144.13678064178774"><ele>82.5</ele><time>2026-05-02T07:41:24.999Z</time></trkpt><trkpt lat="-35.63141074663168" lon="144.13662334512892"><ele>83.0</ele><time>2026-05-02T07:41:25.999Z</time></trkpt><trkpt lat="-35.63134166195723" lon="144.1364612791008"><ele>83.0</ele><time>2026-05-02T07:41:26.999Z</time></trkpt><trkpt lat="-35.63127820989785" lon="144.1362863843475"><ele>83.0</ele><time>2026-05-02T07:41:27.999Z</time></trkpt><trkpt lat="-35.63121422548579" lon="144.1361236057402"><ele>83.0</ele><time>2026-05-02T07:41:28.999Z</time></trkpt><trkpt lat="-35.631150222804884" lon="144.1359527530838"><ele>83.0</ele><time>2026-05-02T07:41:29.999Z</time></trkpt><trkpt lat="-35.63109195684896" lon="144.13578283551928"><ele>83.0</ele><time>2026-05-02T07:41:30.999Z</time></trkpt><trkpt lat="-35.63104575783639" lon="144.1356042323819"><ele>83.0</ele><time>2026-05-02T07:41:31.999Z</time></trkpt><trkpt lat="-35.6310117626949" lon="144.1354189035376"><ele>82.66666666666667</ele><time>2026-05-02T07:41:32.999Z</time></trkpt><trkpt lat="-35.630992047699955" lon="144.1352298782481"><ele>82.33333333333333</ele><time>2026-05-02T07:41:33.999Z</time></trkpt><trkpt lat="-35.630977203681496" lon="144.13504494975126"><ele>82.0</ele><time>2026-05-02T07:41:34.999Z</time></trkpt><trkpt lat="-35.63095754666529" lon="144.13486452393053"><ele>81.75</ele><time>2026-05-02T07:41:35.999Z</time></trkpt><trkpt lat="-35.63094200336674" lon="144.13468623932968"><ele>81.5</ele><time>2026-05-02T07:41:36.999Z</time></trkpt><trkpt lat="-35.63092400169746" lon="144.13451394078274"><ele>81.25</ele><time>2026-05-02T07:41:37.999Z</time></trkpt><trkpt lat="-35.63090587002474" lon="144.13434619535798"><ele>81.0</ele><time>2026-05-02T07:41:38.999Z</time></trkpt><trkpt lat="-35.63088297649305" lon="144.1341817118605"><ele>81.5</ele><time>2026-05-02T07:41:39.999Z</time></trkpt><trkpt lat="-35.63086270847649" lon="144.1340235817561"><ele>82.0</ele><time>2026-05-02T07:41:40.999Z</time></trkpt><trkpt lat="-35.63084379676586" lon="144.1338627506906"><ele>82.5</ele><time>2026-05-02T07:41:41.999Z</time></trkpt><trkpt lat="-35.63083005080046" lon="144.13371076043373"><ele>83.0</ele><time>2026-05-02T07:41:42.999Z</time></trkpt><trkpt lat="-35.63081683357492" lon="144.13356880381932"><ele>83.0</ele><time>2026-05-02T07:41:43.999Z</time></trkpt><trkpt lat="-35.63079994916922" lon="144.1334378479976"><ele>83.0</ele><time>2026-05-02T07:41:44.999Z</time></trkpt><trkpt lat="-35.630792873155684" lon="144.1333157403249"><ele>83.0</ele><time>2026-05-02T07:41:45.999Z</time></trkpt><trkpt lat="-35.63078336924792" lon="144.1331986062892"><ele>83.0</ele><time>2026-05-02T07:41:46.999Z</time></trkpt><trkpt lat="-35.630769572039995" lon="144.13309822403278"><ele>83.0</ele><time>2026-05-02T07:41:47.999Z</time></trkpt><trkpt lat="-35.63074477794197" lon="144.1330072507232"><ele>82.66666666666667</ele><time>2026-05-02T07:41:48.999Z</time></trkpt><trkpt lat="-35.63069623180826" lon="144.13293662961559"><ele>82.33333333333334</ele><time>2026-05-02T07:41:49.999Z</time></trkpt><trkpt lat="-35.630624302768155" lon="144.13289504999804"><ele>82.0</ele><time>2026-05-02T07:41:50.999Z</time></trkpt><trkpt lat="-35.630541066852025" lon="144.1328807600249"><ele>81.66666666666667</ele><time>2026-05-02T07:41:51.999Z</time></trkpt><trkpt lat="-35.63044851819673" lon="144.13287533747476"><ele>81.33333333333333</ele><time>2026-05-02T07:41:52.999Z</time></trkpt><trkpt lat="-35.63035775883368" lon="144.1328943690836"><ele>81.0</ele><time>2026-05-02T07:41:53.999Z</time></trkpt><trkpt lat="-35.63026059204007" lon="144.1329013580297"><ele>80.8</ele><time>2026-05-02T07:41:54.999Z</time></trkpt><trkpt lat="-35.63015592243843" lon="144.13292160066982"><ele>80.6</ele><time>2026-05-02T07:41:55.999Z</time></trkpt><trkpt lat="-35.63005027722497" lon="144.13293785451188"><ele>80.4</ele><time>2026-05-02T07:41:56.999Z</time></trkpt><trkpt lat="-35.62994463726733" lon="144.1329591608733"><ele>80.2</ele><time>2026-05-02T07:41:57.999Z</time></trkpt><trkpt lat="-35.629835773846175" lon="144.13297595954882"><ele>80.0</ele><time>2026-05-02T07:41:58.999Z</time></trkpt><trkpt lat="-35.62973060513187" lon="144.13299465443703"><ele>80.0</ele><time>2026-05-02T07:42:00Z</time></trkpt><trkpt lat="-35.62961928497904" lon="144.13301271696352"><ele>80.0</ele><time>2026-05-02T07:42:01Z</time></trkpt><trkpt lat="-35.62950668901314" lon="144.13302915994942"><ele>80.0</ele><time>2026-05-02T07:42:02Z</time></trkpt><trkpt lat="-35.62939496985781" lon="144.13304326503433"><ele>80.0</ele><time>2026-05-02T07:42:03Z</time></trkpt><trkpt lat="-35.62928435576562" lon="144.13306510291395"><ele>79.8</ele><time>2026-05-02T07:42:04Z</time></trkpt><trkpt lat="-35.629173906584086" lon="144.1330894068136"><ele>79.6</ele><time>2026-05-02T07:42:05Z</time></trkpt><trkpt lat="-35.62906387496589" lon="144.13310363125748"><ele>79.4</ele><time>2026-05-02T07:42:06Z</time></trkpt><trkpt lat="-35.62895780975043" lon="144.13311934733807"><ele>79.2</ele><time>2026-05-02T07:42:07Z</time></trkpt><trkpt lat="-35.6288642149764" lon="144.1331347919466"><ele>79.0</ele><time>2026-05-02T07:42:08Z</time></trkpt><trkpt lat="-35.62879268623742" lon="144.13314083496596"><ele>79.0</ele><time>2026-05-02T07:42:09Z</time></trkpt><trkpt lat="-35.62869571950789" lon="144.1331493749904"><ele>79.0</ele><time>2026-05-02T07:42:11Z</time></trkpt><trkpt lat="-35.62855677146706" lon="144.13317000868304"><ele>79.0</ele><time>2026-05-02T07:42:13Z</time></trkpt><trkpt lat="-35.628467105531485" lon="144.13318756469084"><ele>79.0</ele><time>2026-05-02T07:42:14Z</time></trkpt><trkpt lat="-35.62836893047899" lon="144.1332099865677"><ele>79.0</ele><time>2026-05-02T07:42:15Z</time></trkpt><trkpt lat="-35.628265447728985" lon="144.1332301696008"><ele>79.0</ele><time>2026-05-02T07:42:16Z</time></trkpt><trkpt lat="-35.62815488644614" lon="144.1332523200004"><ele>79.0</ele><time>2026-05-02T07:42:17Z</time></trkpt><trkpt lat="-35.62803379111774" lon="144.13327131766735"><ele>79.0</ele><time>2026-05-02T07:42:18Z</time></trkpt><trkpt lat="-35.62790961058502" lon="144.13328969016223"><ele>79.0</ele><time>2026-05-02T07:42:19Z</time></trkpt><trkpt lat="-35.62778550493465" lon="144.13332028827418"><ele>79.25</ele><time>2026-05-02T07:42:20Z</time></trkpt><trkpt lat="-35.627663571751974" lon="144.1333381819167"><ele>79.5</ele><time>2026-05-02T07:42:21Z</time></trkpt><trkpt lat="-35.62754325931981" lon="144.1333546448447"><ele>79.75</ele><time>2026-05-02T07:42:22Z</time></trkpt><trkpt lat="-35.62742717807821" lon="144.13337359374046"><ele>80.0</ele><time>2026-05-02T07:42:23Z</time></trkpt><trkpt lat="-35.627314183435175" lon="144.1333925387837"><ele>80.0</ele><time>2026-05-02T07:42:24Z</time></trkpt><trkpt lat="-35.627218861046785" lon="144.1334039959628"><ele>80.0</ele><time>2026-05-02T07:42:25Z</time></trkpt><trkpt lat="-35.62713441405473" lon="144.13341589872542"><ele>80.0</ele><time>2026-05-02T07:42:26Z</time></trkpt><trkpt lat="-35.62704849969808" lon="144.13340486641505"><ele>80.0</ele><time>2026-05-02T07:42:27Z</time></trkpt><trkpt lat="-35.62698093374159" lon="144.13336302980446"><ele>80.0</ele><time>2026-05-02T07:42:28Z</time></trkpt><trkpt lat="-35.62693720959768" lon="144.13329513176618"><ele>80.0</ele><time>2026-05-02T07:42:29Z</time></trkpt><trkpt lat="-35.62691233285772" lon="144.1332018864427"><ele>80.2</ele><time>2026-05-02T07:42:30Z</time></trkpt><trkpt lat="-35.62690810691477" lon="144.13309474685914"><ele>80.4</ele><time>2026-05-02T07:42:31Z</time></trkpt><trkpt lat="-35.626907587465965" lon="144.13298558839247"><ele>80.6</ele><time>2026-05-02T07:42:32Z</time></trkpt><trkpt lat="-35.62689692612204" lon="144.13287400742547"><ele>80.8</ele><time>2026-05-02T07:42:33Z</time></trkpt><trkpt lat="-35.62688263022866" lon="144.1327582100782"><ele>81.0</ele><time>2026-05-02T07:42:34Z</time></trkpt><trkpt lat="-35.626867822688894" lon="144.1326394389517"><ele>81.0</ele><time>2026-05-02T07:42:35Z</time></trkpt><trkpt lat="-35.62685101710603" lon="144.13251753998216"><ele>81.0</ele><time>2026-05-02T07:42:36Z</time></trkpt><trkpt lat="-35.626836942854986" lon="144.13238861788247"><ele>81.0</ele><time>2026-05-02T07:42:37Z</time></trkpt><trkpt lat="-35.62682286539742" lon="144.13225907190397"><ele>81.0</ele><time>2026-05-02T07:42:38Z</time></trkpt><trkpt lat="-35.626808442780735" lon="144.132125607594"><ele>81.0</ele><time>2026-05-02T07:42:39Z</time></trkpt><trkpt lat="-35.626794115285726" lon="144.13199542220747"><ele>81.0</ele><time>2026-05-02T07:42:40Z</time></trkpt><trkpt lat="-35.62677708923388" lon="144.1318629771497"><ele>81.0</ele><time>2026-05-02T07:42:41Z</time></trkpt><trkpt lat="-35.62675890023449" lon="144.1317292602863"><ele>81.0</ele><time>2026-05-02T07:42:42Z</time></trkpt><trkpt lat="-35.626745432850655" lon="144.1316000776302"><ele>81.0</ele><time>2026-05-02T07:42:43Z</time></trkpt><trkpt lat="-35.626731631848095" lon="144.13147225600665"><ele>81.0</ele><time>2026-05-02T07:42:44Z</time></trkpt><trkpt lat="-35.62671543041535" lon="144.13134316830093"><ele>80.8</ele><time>2026-05-02T07:42:45Z</time></trkpt><trkpt lat="-35.626696802839916" lon="144.13120808912782"><ele>80.6</ele><time>2026-05-02T07:42:46Z</time></trkpt><trkpt lat="-35.62668675719122" lon="144.13106904500742"><ele>80.4</ele><time>2026-05-02T07:42:47Z</time></trkpt><trkpt lat="-35.626672356793726" lon="144.1309318951216"><ele>80.2</ele><time>2026-05-02T07:42:48Z</time></trkpt><trkpt lat="-35.626658374809026" lon="144.13079641230345"><ele>80.0</ele><time>2026-05-02T07:42:49Z</time></trkpt><trkpt lat="-35.6266412234881" lon="144.13066361842675"><ele>80.0</ele><time>2026-05-02T07:42:50Z</time></trkpt><trkpt lat="-35.62662819343424" lon="144.13053907620602"><ele>80.0</ele><time>2026-05-02T07:42:51Z</time></trkpt><trkpt lat="-35.626614676995416" lon="144.13041361256322"><ele>80.0</ele><time>2026-05-02T07:42:52Z</time></trkpt><trkpt lat="-35.62660242308529" lon="144.1302905963463"><ele>80.0</ele><time>2026-05-02T07:42:53Z</time></trkpt><trkpt lat="-35.626609304403395" lon="144.13016797830696"><ele>80.0</ele><time>2026-05-02T07:42:54Z</time></trkpt><trkpt lat="-35.626584388862085" lon="144.13004842910954"><ele>80.0</ele><time>2026-05-02T07:42:55Z</time></trkpt><trkpt lat="-35.62656849480455" lon="144.12992398205157"><ele>80.0</ele><time>2026-05-02T07:42:56Z</time></trkpt><trkpt lat="-35.626571021282004" lon="144.12981609864858"><ele>80.0</ele><time>2026-05-02T07:42:57Z</time></trkpt><trkpt lat="-35.62656034432216" lon="144.12971796095022"><ele>80.0</ele><time>2026-05-02T07:42:58Z</time></trkpt><trkpt lat="-35.62655145323123" lon="144.1296362381974"><ele>80.0</ele><time>2026-05-02T07:42:59Z</time></trkpt><trkpt lat="-35.62653982077965" lon="144.12952632856954"><ele>80.0</ele><time>2026-05-02T07:43:01Z</time></trkpt><trkpt lat="-35.626359721027704" lon="144.12955073054295"><ele>80.0</ele><time>2026-05-02T07:43:02Z</time></trkpt><trkpt lat="-35.62628699296138" lon="144.12958424565835"><ele>80.0</ele><time>2026-05-02T07:43:03Z</time></trkpt><trkpt lat="-35.62621156841887" lon="144.1296079943784"><ele>80.0</ele><time>2026-05-02T07:43:04Z</time></trkpt><trkpt lat="-35.62613374765584" lon="144.12962074017693"><ele>80.0</ele><time>2026-05-02T07:43:05Z</time></trkpt><trkpt lat="-35.62605863152458" lon="144.12963445476038"><ele>80.0</ele><time>2026-05-02T07:43:06Z</time></trkpt><trkpt lat="-35.62598533828803" lon="144.12965045169128"><ele>80.0</ele><time>2026-05-02T07:43:07Z</time></trkpt><trkpt lat="-35.62590955736812" lon="144.12965958589754"><ele>80.0</ele><time>2026-05-02T07:43:08Z</time></trkpt><trkpt lat="-35.62580000112138" lon="144.12966221940675"><ele>80.0</ele><time>2026-05-02T07:43:10Z</time></trkpt><trkpt lat="-35.62572300555737" lon="144.12968132085786"><ele>80.0</ele><time>2026-05-02T07:43:12Z</time></trkpt><trkpt lat="-35.62568375823158" lon="144.1297448212912"><ele>80.0</ele><time>2026-05-02T07:43:30.999Z</time></trkpt><trkpt lat="-35.62575213195894" lon="144.12976607319575"><ele>80.0</ele><time>2026-05-02T07:43:36.999Z</time></trkpt><trkpt lat="-35.6257663874487" lon="144.1298687657042"><ele>80.0</ele><time>2026-05-02T07:43:40.999Z</time></trkpt><trkpt lat="-35.62576614881922" lon="144.12994747404545"><ele>80.0</ele><time>2026-05-02T07:43:44.999Z</time></trkpt><trkpt lat="-35.62569513155291" lon="144.12999347634164"><ele>80.0</ele><time>2026-05-02T07:44:53Z</time></trkpt><trkpt lat="-35.62567946313026" lon="144.1299087055028"><ele>80.0</ele><time>2026-05-02T07:44:56Z</time></trkpt><trkpt lat="-35.625669475326305" lon="144.12982040223184"><ele>80.0</ele><time>2026-05-02T07:45:02Z</time></trkpt><trkpt lat="-35.62570617336974" lon="144.1297472446446"><ele>80.0</ele><time>2026-05-02T07:45:13Z</time></trkpt><trkpt lat="-35.62576696305427" lon="144.12978612868963"><ele>80.0</ele><time>2026-05-02T07:45:28.999Z</time></trkpt><trkpt lat="-35.625800282772595" lon="144.12986147443422"><ele>80.0</ele><time>2026-05-02T07:45:33.999Z</time></trkpt><trkpt lat="-35.62577676134798" lon="144.12994235869377"><ele>80.0</ele><time>2026-05-02T07:45:49.999Z</time></trkpt><trkpt lat="-35.62571457387036" lon="144.12991496974738"><ele>80.0</ele><time>2026-05-02T07:46:10.999Z</time></trkpt><trkpt lat="-35.62564665372155" lon="144.12994494090458"><ele>80.0</ele><time>2026-05-02T07:46:54Z</time></trkpt><trkpt lat="-35.62573790689629" lon="144.12994835143112"><ele>80.0</ele><time>2026-05-02T07:47:23.999Z</time></trkpt><trkpt lat="-35.62578437964895" lon="144.13003923920547"><ele>80.0</ele><time>2026-05-02T07:48:41Z</time></trkpt><trkpt lat="-35.62571176192518" lon="144.1299862254256"><ele>80.0</ele><time>2026-05-02T07:49:22Z</time></trkpt><trkpt lat="-35.62578382502287" lon="144.1300313874308"><ele>80.0</ele><time>2026-05-02T07:49:27Z</time></trkpt></trkseg></trk></gpx>